<?xml version="1.0" encoding="UTF-8" standalone="no" ?>
<gpx xmlns="http://www.topografix.com/GPX/1/1" xmlns:xsi="http://www.w3.org/2001/XMLSchema-instance" xsi:schemaLocation="http://www.topografix.com/GPX/1/1 http://www.topografix.com/GPX/1/1/gpx.xsd" version="1.1" creator="VisuGPX - https://www.visugpx.com">
  <metadata>
    <name>BRM 200KM - St Herblain</name>
  </metadata>
  <trk>
    <name><![CDATA[13117152-2021_BRM200_UsshCyclo]]></name>
    <trkseg>
      <trkpt lat="47.22987" lon="-1.6491">
        <ele>54</ele>
        <time>2021-06-11T08:44:11Z</time>
      </trkpt>
      <trkpt lat="47.22957" lon="-1.64942">
        <ele>54</ele>
        <time>2021-06-11T08:44:18Z</time>
      </trkpt>
      <trkpt lat="47.22982" lon="-1.65008">
        <ele>53</ele>
        <time>2021-06-11T08:44:27Z</time>
      </trkpt>
      <trkpt lat="47.22985" lon="-1.65011">
        <ele>53</ele>
        <time>2021-06-11T08:44:27Z</time>
      </trkpt>
      <trkpt lat="47.22985" lon="-1.65017">
        <ele>52</ele>
        <time>2021-06-11T08:44:28Z</time>
      </trkpt>
      <trkpt lat="47.22991" lon="-1.65032">
        <ele>52</ele>
        <time>2021-06-11T08:44:30Z</time>
      </trkpt>
      <trkpt lat="47.22974" lon="-1.6506">
        <ele>51</ele>
        <time>2021-06-11T08:44:35Z</time>
      </trkpt>
      <trkpt lat="47.22964" lon="-1.65068">
        <ele>52</ele>
        <time>2021-06-11T08:44:37Z</time>
      </trkpt>
      <trkpt lat="47.2295" lon="-1.6507">
        <ele>52</ele>
        <time>2021-06-11T08:44:39Z</time>
      </trkpt>
      <trkpt lat="47.22938" lon="-1.65065">
        <ele>52</ele>
        <time>2021-06-11T08:44:41Z</time>
      </trkpt>
      <trkpt lat="47.22931" lon="-1.65067">
        <ele>52</ele>
        <time>2021-06-11T08:44:43Z</time>
      </trkpt>
      <trkpt lat="47.22899" lon="-1.6508">
        <ele>52</ele>
        <time>2021-06-11T08:44:49Z</time>
      </trkpt>
      <trkpt lat="47.22848" lon="-1.65109">
        <ele>51</ele>
        <time>2021-06-11T08:44:58Z</time>
      </trkpt>
      <trkpt lat="47.22749" lon="-1.65172">
        <ele>48</ele>
        <time>2021-06-11T08:45:18Z</time>
      </trkpt>
      <trkpt lat="47.22747" lon="-1.65172">
        <ele>48</ele>
        <time>2021-06-11T08:45:18Z</time>
      </trkpt>
      <trkpt lat="47.2274" lon="-1.65193">
        <ele>48</ele>
        <time>2021-06-11T08:45:21Z</time>
      </trkpt>
      <trkpt lat="47.22736" lon="-1.65197">
        <ele>47</ele>
        <time>2021-06-11T08:45:22Z</time>
      </trkpt>
      <trkpt lat="47.2272" lon="-1.65201">
        <ele>47</ele>
        <time>2021-06-11T08:45:25Z</time>
      </trkpt>
      <trkpt lat="47.22713" lon="-1.65199">
        <ele>47</ele>
        <time>2021-06-11T08:45:26Z</time>
      </trkpt>
      <trkpt lat="47.22696" lon="-1.65187">
        <ele>46</ele>
        <time>2021-06-11T08:45:29Z</time>
      </trkpt>
      <trkpt lat="47.22688" lon="-1.65188">
        <ele>46</ele>
        <time>2021-06-11T08:45:31Z</time>
      </trkpt>
      <trkpt lat="47.22669" lon="-1.65196">
        <ele>45</ele>
        <time>2021-06-11T08:45:34Z</time>
      </trkpt>
      <trkpt lat="47.22577" lon="-1.6524">
        <ele>44</ele>
        <time>2021-06-11T08:45:51Z</time>
      </trkpt>
      <trkpt lat="47.22507" lon="-1.65271">
        <ele>43</ele>
        <time>2021-06-11T08:46:04Z</time>
      </trkpt>
      <trkpt lat="47.22223" lon="-1.65413">
        <ele>37</ele>
        <time>2021-06-11T08:46:58Z</time>
      </trkpt>
      <trkpt lat="47.2214" lon="-1.65464">
        <ele>36</ele>
        <time>2021-06-11T08:47:14Z</time>
      </trkpt>
      <trkpt lat="47.22094" lon="-1.65496">
        <ele>33</ele>
        <time>2021-06-11T08:47:23Z</time>
      </trkpt>
      <trkpt lat="47.22064" lon="-1.65522">
        <ele>33</ele>
        <time>2021-06-11T08:47:29Z</time>
      </trkpt>
      <trkpt lat="47.22054" lon="-1.65533">
        <ele>33</ele>
        <time>2021-06-11T08:47:31Z</time>
      </trkpt>
      <trkpt lat="47.22045" lon="-1.65551">
        <ele>33</ele>
        <time>2021-06-11T08:47:34Z</time>
      </trkpt>
      <trkpt lat="47.22037" lon="-1.65567">
        <ele>33</ele>
        <time>2021-06-11T08:47:36Z</time>
      </trkpt>
      <trkpt lat="47.22029" lon="-1.65573">
        <ele>33</ele>
        <time>2021-06-11T08:47:38Z</time>
      </trkpt>
      <trkpt lat="47.22026" lon="-1.65573">
        <ele>33</ele>
        <time>2021-06-11T08:47:38Z</time>
      </trkpt>
      <trkpt lat="47.22023" lon="-1.6557">
        <ele>33</ele>
        <time>2021-06-11T08:47:39Z</time>
      </trkpt>
      <trkpt lat="47.22019" lon="-1.65576">
        <ele>32</ele>
        <time>2021-06-11T08:47:40Z</time>
      </trkpt>
      <trkpt lat="47.22013" lon="-1.65579">
        <ele>32</ele>
        <time>2021-06-11T08:47:41Z</time>
      </trkpt>
      <trkpt lat="47.22007" lon="-1.6558">
        <ele>32</ele>
        <time>2021-06-11T08:47:42Z</time>
      </trkpt>
      <trkpt lat="47.22002" lon="-1.65578">
        <ele>32</ele>
        <time>2021-06-11T08:47:43Z</time>
      </trkpt>
      <trkpt lat="47.21997" lon="-1.65573">
        <ele>32</ele>
        <time>2021-06-11T08:47:44Z</time>
      </trkpt>
      <trkpt lat="47.21993" lon="-1.65567">
        <ele>32</ele>
        <time>2021-06-11T08:47:45Z</time>
      </trkpt>
      <trkpt lat="47.21943" lon="-1.65622">
        <ele>33</ele>
        <time>2021-06-11T08:47:56Z</time>
      </trkpt>
      <trkpt lat="47.21851" lon="-1.65734">
        <ele>34</ele>
        <time>2021-06-11T08:48:18Z</time>
      </trkpt>
      <trkpt lat="47.21544" lon="-1.66121">
        <ele>22</ele>
        <time>2021-06-11T08:49:29Z</time>
      </trkpt>
      <trkpt lat="47.21495" lon="-1.66181">
        <ele>18</ele>
        <time>2021-06-11T08:49:41Z</time>
      </trkpt>
      <trkpt lat="47.21469" lon="-1.66215">
        <ele>16</ele>
        <time>2021-06-11T08:49:47Z</time>
      </trkpt>
      <trkpt lat="47.21445" lon="-1.66246">
        <ele>13</ele>
        <time>2021-06-11T08:49:53Z</time>
      </trkpt>
      <trkpt lat="47.2142" lon="-1.66278">
        <ele>11</ele>
        <time>2021-06-11T08:49:59Z</time>
      </trkpt>
      <trkpt lat="47.21372" lon="-1.66334">
        <ele>13</ele>
        <time>2021-06-11T08:50:09Z</time>
      </trkpt>
      <trkpt lat="47.21302" lon="-1.66408">
        <ele>14</ele>
        <time>2021-06-11T08:50:25Z</time>
      </trkpt>
      <trkpt lat="47.21244" lon="-1.66459">
        <ele>15</ele>
        <time>2021-06-11T08:50:37Z</time>
      </trkpt>
      <trkpt lat="47.21174" lon="-1.66513">
        <ele>15</ele>
        <time>2021-06-11T08:50:51Z</time>
      </trkpt>
      <trkpt lat="47.21103" lon="-1.66556">
        <ele>19</ele>
        <time>2021-06-11T08:51:05Z</time>
      </trkpt>
      <trkpt lat="47.21031" lon="-1.6659">
        <ele>19</ele>
        <time>2021-06-11T08:51:18Z</time>
      </trkpt>
      <trkpt lat="47.20968" lon="-1.66613">
        <ele>19</ele>
        <time>2021-06-11T08:51:30Z</time>
      </trkpt>
      <trkpt lat="47.20905" lon="-1.66631">
        <ele>19</ele>
        <time>2021-06-11T08:51:41Z</time>
      </trkpt>
      <trkpt lat="47.20714" lon="-1.66673">
        <ele>6</ele>
        <time>2021-06-11T08:52:15Z</time>
      </trkpt>
      <trkpt lat="47.20593" lon="-1.66696">
        <ele>4</ele>
        <time>2021-06-11T08:52:37Z</time>
      </trkpt>
      <trkpt lat="47.2057" lon="-1.667">
        <ele>4</ele>
        <time>2021-06-11T08:52:41Z</time>
      </trkpt>
      <trkpt lat="47.20518" lon="-1.66705">
        <ele>5</ele>
        <time>2021-06-11T08:52:50Z</time>
      </trkpt>
      <trkpt lat="47.20502" lon="-1.66706">
        <ele>5</ele>
        <time>2021-06-11T08:52:53Z</time>
      </trkpt>
      <trkpt lat="47.2043" lon="-1.66708">
        <ele>4</ele>
        <time>2021-06-11T08:53:06Z</time>
      </trkpt>
      <trkpt lat="47.20395" lon="-1.66707">
        <ele>4</ele>
        <time>2021-06-11T08:53:12Z</time>
      </trkpt>
      <trkpt lat="47.20371" lon="-1.66707">
        <ele>4</ele>
        <time>2021-06-11T08:53:17Z</time>
      </trkpt>
      <trkpt lat="47.2034" lon="-1.66708">
        <ele>4</ele>
        <time>2021-06-11T08:53:22Z</time>
      </trkpt>
      <trkpt lat="47.20283" lon="-1.66709">
        <ele>5</ele>
        <time>2021-06-11T08:53:32Z</time>
      </trkpt>
      <trkpt lat="47.20261" lon="-1.66711">
        <ele>6</ele>
        <time>2021-06-11T08:53:36Z</time>
      </trkpt>
      <trkpt lat="47.20238" lon="-1.6671">
        <ele>7</ele>
        <time>2021-06-11T08:53:40Z</time>
      </trkpt>
      <trkpt lat="47.20217" lon="-1.66712">
        <ele>7</ele>
        <time>2021-06-11T08:53:44Z</time>
      </trkpt>
      <trkpt lat="47.20211" lon="-1.6671">
        <ele>7</ele>
        <time>2021-06-11T08:53:45Z</time>
      </trkpt>
      <trkpt lat="47.20208" lon="-1.66708">
        <ele>7</ele>
        <time>2021-06-11T08:53:46Z</time>
      </trkpt>
      <trkpt lat="47.20206" lon="-1.66713">
        <ele>7</ele>
        <time>2021-06-11T08:53:46Z</time>
      </trkpt>
      <trkpt lat="47.20203" lon="-1.66716">
        <ele>7</ele>
        <time>2021-06-11T08:53:47Z</time>
      </trkpt>
      <trkpt lat="47.20199" lon="-1.66719">
        <ele>7</ele>
        <time>2021-06-11T08:53:48Z</time>
      </trkpt>
      <trkpt lat="47.20187" lon="-1.66723">
        <ele>7</ele>
        <time>2021-06-11T08:53:50Z</time>
      </trkpt>
      <trkpt lat="47.20167" lon="-1.66731">
        <ele>8</ele>
        <time>2021-06-11T08:53:54Z</time>
      </trkpt>
      <trkpt lat="47.20152" lon="-1.66744">
        <ele>7</ele>
        <time>2021-06-11T08:53:57Z</time>
      </trkpt>
      <trkpt lat="47.2015" lon="-1.66747">
        <ele>7</ele>
        <time>2021-06-11T08:53:57Z</time>
      </trkpt>
      <trkpt lat="47.20141" lon="-1.66762">
        <ele>7</ele>
        <time>2021-06-11T08:54:00Z</time>
      </trkpt>
      <trkpt lat="47.2014" lon="-1.66768">
        <ele>7</ele>
        <time>2021-06-11T08:54:01Z</time>
      </trkpt>
      <trkpt lat="47.20141" lon="-1.66776">
        <ele>7</ele>
        <time>2021-06-11T08:54:01Z</time>
      </trkpt>
      <trkpt lat="47.2014" lon="-1.66792">
        <ele>7</ele>
        <time>2021-06-11T08:54:03Z</time>
      </trkpt>
      <trkpt lat="47.20137" lon="-1.668">
        <ele>7</ele>
        <time>2021-06-11T08:54:05Z</time>
      </trkpt>
      <trkpt lat="47.20134" lon="-1.66807">
        <ele>7</ele>
        <time>2021-06-11T08:54:06Z</time>
      </trkpt>
      <trkpt lat="47.2013" lon="-1.66811">
        <ele>7</ele>
        <time>2021-06-11T08:54:06Z</time>
      </trkpt>
      <trkpt lat="47.20122" lon="-1.66818">
        <ele>7</ele>
        <time>2021-06-11T08:54:08Z</time>
      </trkpt>
      <trkpt lat="47.20117" lon="-1.66819">
        <ele>7</ele>
        <time>2021-06-11T08:54:09Z</time>
      </trkpt>
      <trkpt lat="47.20113" lon="-1.66819">
        <ele>7</ele>
        <time>2021-06-11T08:54:10Z</time>
      </trkpt>
      <trkpt lat="47.20109" lon="-1.66819">
        <ele>6</ele>
        <time>2021-06-11T08:54:10Z</time>
      </trkpt>
      <trkpt lat="47.20105" lon="-1.66817">
        <ele>6</ele>
        <time>2021-06-11T08:54:11Z</time>
      </trkpt>
      <trkpt lat="47.20102" lon="-1.66815">
        <ele>6</ele>
        <time>2021-06-11T08:54:12Z</time>
      </trkpt>
      <trkpt lat="47.20099" lon="-1.66813">
        <ele>6</ele>
        <time>2021-06-11T08:54:12Z</time>
      </trkpt>
      <trkpt lat="47.20092" lon="-1.66814">
        <ele>6</ele>
        <time>2021-06-11T08:54:14Z</time>
      </trkpt>
      <trkpt lat="47.20075" lon="-1.6683">
        <ele>6</ele>
        <time>2021-06-11T08:54:17Z</time>
      </trkpt>
      <trkpt lat="47.20024" lon="-1.66915">
        <ele>5</ele>
        <time>2021-06-11T08:54:31Z</time>
      </trkpt>
      <trkpt lat="47.20026" lon="-1.66924">
        <ele>5</ele>
        <time>2021-06-11T08:54:32Z</time>
      </trkpt>
      <trkpt lat="47.20024" lon="-1.66928">
        <ele>5</ele>
        <time>2021-06-11T08:54:33Z</time>
      </trkpt>
      <trkpt lat="47.20021" lon="-1.6693">
        <ele>5</ele>
        <time>2021-06-11T08:54:33Z</time>
      </trkpt>
      <trkpt lat="47.20016" lon="-1.66928">
        <ele>5</ele>
        <time>2021-06-11T08:54:34Z</time>
      </trkpt>
      <trkpt lat="47.19965" lon="-1.67013">
        <ele>7</ele>
        <time>2021-06-11T08:54:48Z</time>
      </trkpt>
      <trkpt lat="47.19932" lon="-1.6706">
        <ele>8</ele>
        <time>2021-06-11T08:54:56Z</time>
      </trkpt>
      <trkpt lat="47.19929" lon="-1.67067">
        <ele>8</ele>
        <time>2021-06-11T08:54:57Z</time>
      </trkpt>
      <trkpt lat="47.19928" lon="-1.67074">
        <ele>8</ele>
        <time>2021-06-11T08:54:58Z</time>
      </trkpt>
      <trkpt lat="47.19929" lon="-1.67084">
        <ele>8</ele>
        <time>2021-06-11T08:54:59Z</time>
      </trkpt>
      <trkpt lat="47.19957" lon="-1.67178">
        <ele>8</ele>
        <time>2021-06-11T08:55:11Z</time>
      </trkpt>
      <trkpt lat="47.19962" lon="-1.67202">
        <ele>9</ele>
        <time>2021-06-11T08:55:15Z</time>
      </trkpt>
      <trkpt lat="47.19961" lon="-1.67217">
        <ele>10</ele>
        <time>2021-06-11T08:55:16Z</time>
      </trkpt>
      <trkpt lat="47.19958" lon="-1.6723">
        <ele>10</ele>
        <time>2021-06-11T08:55:18Z</time>
      </trkpt>
      <trkpt lat="47.1994" lon="-1.67255">
        <ele>11</ele>
        <time>2021-06-11T08:55:22Z</time>
      </trkpt>
      <trkpt lat="47.19923" lon="-1.67275">
        <ele>11</ele>
        <time>2021-06-11T08:55:26Z</time>
      </trkpt>
      <trkpt lat="47.19866" lon="-1.67308">
        <ele>8</ele>
        <time>2021-06-11T08:55:37Z</time>
      </trkpt>
      <trkpt lat="47.19815" lon="-1.67328">
        <ele>4</ele>
        <time>2021-06-11T08:55:47Z</time>
      </trkpt>
      <trkpt lat="47.19802" lon="-1.67301">
        <ele>4</ele>
        <time>2021-06-11T08:55:51Z</time>
      </trkpt>
      <trkpt lat="47.19764" lon="-1.67344">
        <ele>2</ele>
        <time>2021-06-11T08:55:59Z</time>
      </trkpt>
      <trkpt lat="47.19755" lon="-1.67356">
        <ele>1</ele>
        <time>2021-06-11T08:56:01Z</time>
      </trkpt>
      <trkpt lat="47.19745" lon="-1.67362">
        <ele>1</ele>
        <time>2021-06-11T08:56:03Z</time>
      </trkpt>
      <trkpt lat="47.19747" lon="-1.67412">
        <ele>2.1</ele>
        <time>2021-06-11T08:56:09Z</time>
      </trkpt>
      <trkpt lat="47.1975" lon="-1.67522">
        <ele>2</ele>
        <time>2021-06-11T08:56:23Z</time>
      </trkpt>
      <trkpt lat="47.19747" lon="-1.67557">
        <ele>2</ele>
        <time>2021-06-11T08:56:27Z</time>
      </trkpt>
      <trkpt lat="47.19739" lon="-1.67594">
        <ele>2</ele>
        <time>2021-06-11T08:56:31Z</time>
      </trkpt>
      <trkpt lat="47.19725" lon="-1.67623">
        <ele>2</ele>
        <time>2021-06-11T08:56:36Z</time>
      </trkpt>
      <trkpt lat="47.19703" lon="-1.67642">
        <ele>2</ele>
        <time>2021-06-11T08:56:40Z</time>
      </trkpt>
      <trkpt lat="47.19675" lon="-1.67647">
        <ele>2</ele>
        <time>2021-06-11T08:56:45Z</time>
      </trkpt>
      <trkpt lat="47.19643" lon="-1.67637">
        <ele>1</ele>
        <time>2021-06-11T08:56:51Z</time>
      </trkpt>
      <trkpt lat="47.19614" lon="-1.67615">
        <ele>2</ele>
        <time>2021-06-11T08:56:57Z</time>
      </trkpt>
      <trkpt lat="47.19576" lon="-1.67576">
        <ele>2</ele>
        <time>2021-06-11T08:57:05Z</time>
      </trkpt>
      <trkpt lat="47.19565" lon="-1.6756">
        <ele>3</ele>
        <time>2021-06-11T08:57:08Z</time>
      </trkpt>
      <trkpt lat="47.19538" lon="-1.67528">
        <ele>4</ele>
        <time>2021-06-11T08:57:14Z</time>
      </trkpt>
      <trkpt lat="47.19529" lon="-1.67522">
        <ele>5</ele>
        <time>2021-06-11T08:57:16Z</time>
      </trkpt>
      <trkpt lat="47.19521" lon="-1.67528">
        <ele>6</ele>
        <time>2021-06-11T08:57:17Z</time>
      </trkpt>
      <trkpt lat="47.19515" lon="-1.67538">
        <ele>6</ele>
        <time>2021-06-11T08:57:19Z</time>
      </trkpt>
      <trkpt lat="47.19503" lon="-1.67541">
        <ele>7</ele>
        <time>2021-06-11T08:57:21Z</time>
      </trkpt>
      <trkpt lat="47.19496" lon="-1.67545">
        <ele>7</ele>
        <time>2021-06-11T08:57:23Z</time>
      </trkpt>
      <trkpt lat="47.19451" lon="-1.67581">
        <ele>8</ele>
        <time>2021-06-11T08:57:32Z</time>
      </trkpt>
      <trkpt lat="47.19429" lon="-1.67607">
        <ele>8</ele>
        <time>2021-06-11T08:57:37Z</time>
      </trkpt>
      <trkpt lat="47.19414" lon="-1.6763">
        <ele>7</ele>
        <time>2021-06-11T08:57:41Z</time>
      </trkpt>
      <trkpt lat="47.19405" lon="-1.67647">
        <ele>6</ele>
        <time>2021-06-11T08:57:43Z</time>
      </trkpt>
      <trkpt lat="47.19392" lon="-1.67679">
        <ele>5</ele>
        <time>2021-06-11T08:57:48Z</time>
      </trkpt>
      <trkpt lat="47.19382" lon="-1.67716">
        <ele>4</ele>
        <time>2021-06-11T08:57:53Z</time>
      </trkpt>
      <trkpt lat="47.19377" lon="-1.67738">
        <ele>4</ele>
        <time>2021-06-11T08:57:55Z</time>
      </trkpt>
      <trkpt lat="47.19374" lon="-1.67764">
        <ele>4</ele>
        <time>2021-06-11T08:57:59Z</time>
      </trkpt>
      <trkpt lat="47.19372" lon="-1.67794">
        <ele>4</ele>
        <time>2021-06-11T08:58:02Z</time>
      </trkpt>
      <trkpt lat="47.19372" lon="-1.6781">
        <ele>4</ele>
        <time>2021-06-11T08:58:04Z</time>
      </trkpt>
      <trkpt lat="47.19375" lon="-1.67845">
        <ele>4</ele>
        <time>2021-06-11T08:58:08Z</time>
      </trkpt>
      <trkpt lat="47.1939" lon="-1.67914">
        <ele>5</ele>
        <time>2021-06-11T08:58:17Z</time>
      </trkpt>
      <trkpt lat="47.19397" lon="-1.67923">
        <ele>5</ele>
        <time>2021-06-11T08:58:19Z</time>
      </trkpt>
      <trkpt lat="47.19407" lon="-1.67954">
        <ele>6</ele>
        <time>2021-06-11T08:58:23Z</time>
      </trkpt>
      <trkpt lat="47.19429" lon="-1.68037">
        <ele>7</ele>
        <time>2021-06-11T08:58:34Z</time>
      </trkpt>
      <trkpt lat="47.1944" lon="-1.68041">
        <ele>7</ele>
        <time>2021-06-11T08:58:36Z</time>
      </trkpt>
      <trkpt lat="47.19445" lon="-1.68052">
        <ele>7</ele>
        <time>2021-06-11T08:58:37Z</time>
      </trkpt>
      <trkpt lat="47.19446" lon="-1.6806">
        <ele>7</ele>
        <time>2021-06-11T08:58:38Z</time>
      </trkpt>
      <trkpt lat="47.19444" lon="-1.68066">
        <ele>7</ele>
        <time>2021-06-11T08:58:39Z</time>
      </trkpt>
      <trkpt lat="47.1944" lon="-1.68069">
        <ele>7</ele>
        <time>2021-06-11T08:58:40Z</time>
      </trkpt>
      <trkpt lat="47.19437" lon="-1.68083">
        <ele>7</ele>
        <time>2021-06-11T08:58:42Z</time>
      </trkpt>
      <trkpt lat="47.19462" lon="-1.68177">
        <ele>7</ele>
        <time>2021-06-11T08:58:54Z</time>
      </trkpt>
      <trkpt lat="47.19471" lon="-1.68194">
        <ele>7</ele>
        <time>2021-06-11T08:58:56Z</time>
      </trkpt>
      <trkpt lat="47.19513" lon="-1.68302">
        <ele>7</ele>
        <time>2021-06-11T08:59:12Z</time>
      </trkpt>
      <trkpt lat="47.19535" lon="-1.68371">
        <ele>5</ele>
        <time>2021-06-11T08:59:21Z</time>
      </trkpt>
      <trkpt lat="47.19535" lon="-1.68386">
        <ele>5</ele>
        <time>2021-06-11T08:59:23Z</time>
      </trkpt>
      <trkpt lat="47.1955" lon="-1.68432">
        <ele>5</ele>
        <time>2021-06-11T08:59:29Z</time>
      </trkpt>
      <trkpt lat="47.19554" lon="-1.68437">
        <ele>5</ele>
        <time>2021-06-11T08:59:30Z</time>
      </trkpt>
      <trkpt lat="47.19579" lon="-1.68521">
        <ele>6</ele>
        <time>2021-06-11T08:59:41Z</time>
      </trkpt>
      <trkpt lat="47.19591" lon="-1.68553">
        <ele>7</ele>
        <time>2021-06-11T08:59:45Z</time>
      </trkpt>
      <trkpt lat="47.19604" lon="-1.68609">
        <ele>7</ele>
        <time>2021-06-11T08:59:52Z</time>
      </trkpt>
      <trkpt lat="47.19623" lon="-1.68675">
        <ele>7</ele>
        <time>2021-06-11T09:00:01Z</time>
      </trkpt>
      <trkpt lat="47.19662" lon="-1.68797">
        <ele>7</ele>
        <time>2021-06-11T09:00:17Z</time>
      </trkpt>
      <trkpt lat="47.19671" lon="-1.6884">
        <ele>6</ele>
        <time>2021-06-11T09:00:23Z</time>
      </trkpt>
      <trkpt lat="47.19675" lon="-1.68874">
        <ele>6</ele>
        <time>2021-06-11T09:00:27Z</time>
      </trkpt>
      <trkpt lat="47.19678" lon="-1.68907">
        <ele>5</ele>
        <time>2021-06-11T09:00:31Z</time>
      </trkpt>
      <trkpt lat="47.19676" lon="-1.68959">
        <ele>5</ele>
        <time>2021-06-11T09:00:37Z</time>
      </trkpt>
      <trkpt lat="47.19668" lon="-1.69029">
        <ele>5</ele>
        <time>2021-06-11T09:00:46Z</time>
      </trkpt>
      <trkpt lat="47.19659" lon="-1.69064">
        <ele>4</ele>
        <time>2021-06-11T09:00:50Z</time>
      </trkpt>
      <trkpt lat="47.19647" lon="-1.69075">
        <ele>4</ele>
        <time>2021-06-11T09:00:53Z</time>
      </trkpt>
      <trkpt lat="47.19641" lon="-1.69091">
        <ele>3</ele>
        <time>2021-06-11T09:00:55Z</time>
      </trkpt>
      <trkpt lat="47.19632" lon="-1.69113">
        <ele>3</ele>
        <time>2021-06-11T09:00:58Z</time>
      </trkpt>
      <trkpt lat="47.19608" lon="-1.69151">
        <ele>2</ele>
        <time>2021-06-11T09:01:04Z</time>
      </trkpt>
      <trkpt lat="47.19509" lon="-1.69282">
        <ele>4</ele>
        <time>2021-06-11T09:01:28Z</time>
      </trkpt>
      <trkpt lat="47.19499" lon="-1.69295">
        <ele>5</ele>
        <time>2021-06-11T09:01:30Z</time>
      </trkpt>
      <trkpt lat="47.19486" lon="-1.6931">
        <ele>6</ele>
        <time>2021-06-11T09:01:33Z</time>
      </trkpt>
      <trkpt lat="47.19482" lon="-1.69316">
        <ele>6</ele>
        <time>2021-06-11T09:01:34Z</time>
      </trkpt>
      <trkpt lat="47.19467" lon="-1.69332">
        <ele>8</ele>
        <time>2021-06-11T09:01:38Z</time>
      </trkpt>
      <trkpt lat="47.19424" lon="-1.69378">
        <ele>11</ele>
        <time>2021-06-11T09:01:47Z</time>
      </trkpt>
      <trkpt lat="47.1942" lon="-1.69383">
        <ele>11</ele>
        <time>2021-06-11T09:01:48Z</time>
      </trkpt>
      <trkpt lat="47.19399" lon="-1.69406">
        <ele>11</ele>
        <time>2021-06-11T09:01:53Z</time>
      </trkpt>
      <trkpt lat="47.19367" lon="-1.69425">
        <ele>12</ele>
        <time>2021-06-11T09:01:59Z</time>
      </trkpt>
      <trkpt lat="47.19315" lon="-1.69439">
        <ele>15</ele>
        <time>2021-06-11T09:02:08Z</time>
      </trkpt>
      <trkpt lat="47.19291" lon="-1.69456">
        <ele>16</ele>
        <time>2021-06-11T09:02:13Z</time>
      </trkpt>
      <trkpt lat="47.19281" lon="-1.69465">
        <ele>16</ele>
        <time>2021-06-11T09:02:15Z</time>
      </trkpt>
      <trkpt lat="47.1921" lon="-1.69552">
        <ele>14</ele>
        <time>2021-06-11T09:02:32Z</time>
      </trkpt>
      <trkpt lat="47.19207" lon="-1.69569">
        <ele>12</ele>
        <time>2021-06-11T09:02:34Z</time>
      </trkpt>
      <trkpt lat="47.19205" lon="-1.69586">
        <ele>12</ele>
        <time>2021-06-11T09:02:36Z</time>
      </trkpt>
      <trkpt lat="47.19209" lon="-1.69593">
        <ele>12</ele>
        <time>2021-06-11T09:02:37Z</time>
      </trkpt>
      <trkpt lat="47.1921" lon="-1.696">
        <ele>12</ele>
        <time>2021-06-11T09:02:38Z</time>
      </trkpt>
      <trkpt lat="47.19209" lon="-1.69606">
        <ele>12</ele>
        <time>2021-06-11T09:02:39Z</time>
      </trkpt>
      <trkpt lat="47.19205" lon="-1.69616">
        <ele>12</ele>
        <time>2021-06-11T09:02:40Z</time>
      </trkpt>
      <trkpt lat="47.19207" lon="-1.69621">
        <ele>12</ele>
        <time>2021-06-11T09:02:41Z</time>
      </trkpt>
      <trkpt lat="47.19202" lon="-1.69688">
        <ele>12</ele>
        <time>2021-06-11T09:02:49Z</time>
      </trkpt>
      <trkpt lat="47.19196" lon="-1.69727">
        <ele>12</ele>
        <time>2021-06-11T09:02:54Z</time>
      </trkpt>
      <trkpt lat="47.19174" lon="-1.6993">
        <ele>9</ele>
        <time>2021-06-11T09:03:18Z</time>
      </trkpt>
      <trkpt lat="47.19169" lon="-1.6995">
        <ele>9</ele>
        <time>2021-06-11T09:03:21Z</time>
      </trkpt>
      <trkpt lat="47.19164" lon="-1.69963">
        <ele>9</ele>
        <time>2021-06-11T09:03:23Z</time>
      </trkpt>
      <trkpt lat="47.19162" lon="-1.69968">
        <ele>9</ele>
        <time>2021-06-11T09:03:24Z</time>
      </trkpt>
      <trkpt lat="47.19156" lon="-1.6998">
        <ele>9</ele>
        <time>2021-06-11T09:03:25Z</time>
      </trkpt>
      <trkpt lat="47.19152" lon="-1.69987">
        <ele>10</ele>
        <time>2021-06-11T09:03:26Z</time>
      </trkpt>
      <trkpt lat="47.1912" lon="-1.70041">
        <ele>10</ele>
        <time>2021-06-11T09:03:35Z</time>
      </trkpt>
      <trkpt lat="47.19083" lon="-1.70106">
        <ele>9</ele>
        <time>2021-06-11T09:03:45Z</time>
      </trkpt>
      <trkpt lat="47.19079" lon="-1.70113">
        <ele>10</ele>
        <time>2021-06-11T09:03:46Z</time>
      </trkpt>
      <trkpt lat="47.1907" lon="-1.7013">
        <ele>10</ele>
        <time>2021-06-11T09:03:49Z</time>
      </trkpt>
      <trkpt lat="47.19065" lon="-1.70127">
        <ele>10</ele>
        <time>2021-06-11T09:03:50Z</time>
      </trkpt>
      <trkpt lat="47.19058" lon="-1.70125">
        <ele>10</ele>
        <time>2021-06-11T09:03:51Z</time>
      </trkpt>
      <trkpt lat="47.19046" lon="-1.70127">
        <ele>11</ele>
        <time>2021-06-11T09:03:53Z</time>
      </trkpt>
      <trkpt lat="47.19026" lon="-1.70141">
        <ele>11</ele>
        <time>2021-06-11T09:03:57Z</time>
      </trkpt>
      <trkpt lat="47.19007" lon="-1.70158">
        <ele>11</ele>
        <time>2021-06-11T09:04:01Z</time>
      </trkpt>
      <trkpt lat="47.18983" lon="-1.70189">
        <ele>13</ele>
        <time>2021-06-11T09:04:07Z</time>
      </trkpt>
      <trkpt lat="47.18967" lon="-1.70218">
        <ele>16</ele>
        <time>2021-06-11T09:04:12Z</time>
      </trkpt>
      <trkpt lat="47.18961" lon="-1.70236">
        <ele>17</ele>
        <time>2021-06-11T09:04:14Z</time>
      </trkpt>
      <trkpt lat="47.18941" lon="-1.70347">
        <ele>23</ele>
        <time>2021-06-11T09:04:28Z</time>
      </trkpt>
      <trkpt lat="47.1893" lon="-1.70391">
        <ele>23</ele>
        <time>2021-06-11T09:04:34Z</time>
      </trkpt>
      <trkpt lat="47.18907" lon="-1.70428">
        <ele>24</ele>
        <time>2021-06-11T09:04:40Z</time>
      </trkpt>
      <trkpt lat="47.18862" lon="-1.70484">
        <ele>25</ele>
        <time>2021-06-11T09:04:50Z</time>
      </trkpt>
      <trkpt lat="47.18816" lon="-1.7053">
        <ele>26</ele>
        <time>2021-06-11T09:05:00Z</time>
      </trkpt>
      <trkpt lat="47.18733" lon="-1.70578">
        <ele>25</ele>
        <time>2021-06-11T09:05:16Z</time>
      </trkpt>
      <trkpt lat="47.18627" lon="-1.7062">
        <ele>23</ele>
        <time>2021-06-11T09:05:35Z</time>
      </trkpt>
      <trkpt lat="47.18605" lon="-1.70626">
        <ele>23</ele>
        <time>2021-06-11T09:05:39Z</time>
      </trkpt>
      <trkpt lat="47.1854" lon="-1.70626">
        <ele>23</ele>
        <time>2021-06-11T09:05:51Z</time>
      </trkpt>
      <trkpt lat="47.18519" lon="-1.70632">
        <ele>23</ele>
        <time>2021-06-11T09:05:55Z</time>
      </trkpt>
      <trkpt lat="47.18493" lon="-1.70646">
        <ele>23</ele>
        <time>2021-06-11T09:06:00Z</time>
      </trkpt>
      <trkpt lat="47.18009" lon="-1.70895">
        <ele>29</ele>
        <time>2021-06-11T09:07:31Z</time>
      </trkpt>
      <trkpt lat="47.17987" lon="-1.70906">
        <ele>29</ele>
        <time>2021-06-11T09:07:35Z</time>
      </trkpt>
      <trkpt lat="47.17973" lon="-1.70908">
        <ele>29</ele>
        <time>2021-06-11T09:07:38Z</time>
      </trkpt>
      <trkpt lat="47.17944" lon="-1.70899">
        <ele>29</ele>
        <time>2021-06-11T09:07:43Z</time>
      </trkpt>
      <trkpt lat="47.17923" lon="-1.70883">
        <ele>28</ele>
        <time>2021-06-11T09:07:47Z</time>
      </trkpt>
      <trkpt lat="47.17909" lon="-1.70861">
        <ele>28</ele>
        <time>2021-06-11T09:07:51Z</time>
      </trkpt>
      <trkpt lat="47.17894" lon="-1.70835">
        <ele>27</ele>
        <time>2021-06-11T09:07:55Z</time>
      </trkpt>
      <trkpt lat="47.17809" lon="-1.70572">
        <ele>28</ele>
        <time>2021-06-11T09:08:30Z</time>
      </trkpt>
      <trkpt lat="47.17798" lon="-1.70529">
        <ele>29</ele>
        <time>2021-06-11T09:08:36Z</time>
      </trkpt>
      <trkpt lat="47.17794" lon="-1.70493">
        <ele>29</ele>
        <time>2021-06-11T09:08:40Z</time>
      </trkpt>
      <trkpt lat="47.17786" lon="-1.70307">
        <ele>29</ele>
        <time>2021-06-11T09:09:03Z</time>
      </trkpt>
      <trkpt lat="47.17781" lon="-1.70289">
        <ele>28</ele>
        <time>2021-06-11T09:09:05Z</time>
      </trkpt>
      <trkpt lat="47.17774" lon="-1.70275">
        <ele>28</ele>
        <time>2021-06-11T09:09:07Z</time>
      </trkpt>
      <trkpt lat="47.17756" lon="-1.7025">
        <ele>28</ele>
        <time>2021-06-11T09:09:11Z</time>
      </trkpt>
      <trkpt lat="47.17752" lon="-1.70242">
        <ele>28</ele>
        <time>2021-06-11T09:09:13Z</time>
      </trkpt>
      <trkpt lat="47.17745" lon="-1.7024">
        <ele>28</ele>
        <time>2021-06-11T09:09:14Z</time>
      </trkpt>
      <trkpt lat="47.17746" lon="-1.70245">
        <ele>28</ele>
        <time>2021-06-11T09:09:14Z</time>
      </trkpt>
      <trkpt lat="47.17747" lon="-1.7025">
        <ele>28</ele>
        <time>2021-06-11T09:09:15Z</time>
      </trkpt>
      <trkpt lat="47.17746" lon="-1.70258">
        <ele>28</ele>
        <time>2021-06-11T09:09:16Z</time>
      </trkpt>
      <trkpt lat="47.17744" lon="-1.70265">
        <ele>28</ele>
        <time>2021-06-11T09:09:17Z</time>
      </trkpt>
      <trkpt lat="47.17741" lon="-1.70272">
        <ele>28</ele>
        <time>2021-06-11T09:09:18Z</time>
      </trkpt>
      <trkpt lat="47.17737" lon="-1.70275">
        <ele>29</ele>
        <time>2021-06-11T09:09:19Z</time>
      </trkpt>
      <trkpt lat="47.17733" lon="-1.70278">
        <ele>29</ele>
        <time>2021-06-11T09:09:20Z</time>
      </trkpt>
      <trkpt lat="47.17728" lon="-1.70278">
        <ele>29</ele>
        <time>2021-06-11T09:09:21Z</time>
      </trkpt>
      <trkpt lat="47.17723" lon="-1.70277">
        <ele>29</ele>
        <time>2021-06-11T09:09:21Z</time>
      </trkpt>
      <trkpt lat="47.1771" lon="-1.70283">
        <ele>29</ele>
        <time>2021-06-11T09:09:24Z</time>
      </trkpt>
      <trkpt lat="47.17691" lon="-1.70298">
        <ele>29</ele>
        <time>2021-06-11T09:09:28Z</time>
      </trkpt>
      <trkpt lat="47.17655" lon="-1.70341">
        <ele>29</ele>
        <time>2021-06-11T09:09:36Z</time>
      </trkpt>
      <trkpt lat="47.17646" lon="-1.70354">
        <ele>29</ele>
        <time>2021-06-11T09:09:38Z</time>
      </trkpt>
      <trkpt lat="47.17625" lon="-1.70391">
        <ele>29</ele>
        <time>2021-06-11T09:09:44Z</time>
      </trkpt>
      <trkpt lat="47.17619" lon="-1.70412">
        <ele>28</ele>
        <time>2021-06-11T09:09:47Z</time>
      </trkpt>
      <trkpt lat="47.17619" lon="-1.70419">
        <ele>28</ele>
        <time>2021-06-11T09:09:48Z</time>
      </trkpt>
      <trkpt lat="47.17618" lon="-1.70426">
        <ele>28</ele>
        <time>2021-06-11T09:09:48Z</time>
      </trkpt>
      <trkpt lat="47.17615" lon="-1.70433">
        <ele>28</ele>
        <time>2021-06-11T09:09:49Z</time>
      </trkpt>
      <trkpt lat="47.17611" lon="-1.7044">
        <ele>28</ele>
        <time>2021-06-11T09:09:51Z</time>
      </trkpt>
      <trkpt lat="47.17606" lon="-1.70445">
        <ele>28</ele>
        <time>2021-06-11T09:09:52Z</time>
      </trkpt>
      <trkpt lat="47.17599" lon="-1.70447">
        <ele>28</ele>
        <time>2021-06-11T09:09:53Z</time>
      </trkpt>
      <trkpt lat="47.17591" lon="-1.70446">
        <ele>28</ele>
        <time>2021-06-11T09:09:54Z</time>
      </trkpt>
      <trkpt lat="47.17585" lon="-1.70442">
        <ele>28</ele>
        <time>2021-06-11T09:09:56Z</time>
      </trkpt>
      <trkpt lat="47.17568" lon="-1.70455">
        <ele>28</ele>
        <time>2021-06-11T09:09:59Z</time>
      </trkpt>
      <trkpt lat="47.17544" lon="-1.70486">
        <ele>28</ele>
        <time>2021-06-11T09:10:05Z</time>
      </trkpt>
      <trkpt lat="47.17529" lon="-1.70514">
        <ele>28</ele>
        <time>2021-06-11T09:10:09Z</time>
      </trkpt>
      <trkpt lat="47.17511" lon="-1.7055">
        <ele>28</ele>
        <time>2021-06-11T09:10:14Z</time>
      </trkpt>
      <trkpt lat="47.17428" lon="-1.70712">
        <ele>27</ele>
        <time>2021-06-11T09:10:39Z</time>
      </trkpt>
      <trkpt lat="47.17405" lon="-1.70759">
        <ele>27</ele>
        <time>2021-06-11T09:10:46Z</time>
      </trkpt>
      <trkpt lat="47.17369" lon="-1.70839">
        <ele>27</ele>
        <time>2021-06-11T09:10:57Z</time>
      </trkpt>
      <trkpt lat="47.1724" lon="-1.7118">
        <ele>25</ele>
        <time>2021-06-11T09:11:45Z</time>
      </trkpt>
      <trkpt lat="47.17161" lon="-1.71417">
        <ele>21</ele>
        <time>2021-06-11T09:12:17Z</time>
      </trkpt>
      <trkpt lat="47.17126" lon="-1.71522">
        <ele>18</ele>
        <time>2021-06-11T09:12:31Z</time>
      </trkpt>
      <trkpt lat="47.1711" lon="-1.7158">
        <ele>17</ele>
        <time>2021-06-11T09:12:38Z</time>
      </trkpt>
      <trkpt lat="47.17105" lon="-1.71616">
        <ele>18</ele>
        <time>2021-06-11T09:12:43Z</time>
      </trkpt>
      <trkpt lat="47.17103" lon="-1.71646">
        <ele>18</ele>
        <time>2021-06-11T09:12:46Z</time>
      </trkpt>
      <trkpt lat="47.17101" lon="-1.71673">
        <ele>19</ele>
        <time>2021-06-11T09:12:50Z</time>
      </trkpt>
      <trkpt lat="47.17098" lon="-1.71733">
        <ele>20</ele>
        <time>2021-06-11T09:12:57Z</time>
      </trkpt>
      <trkpt lat="47.17099" lon="-1.71758">
        <ele>21</ele>
        <time>2021-06-11T09:13:00Z</time>
      </trkpt>
      <trkpt lat="47.17102" lon="-1.7179">
        <ele>22</ele>
        <time>2021-06-11T09:13:04Z</time>
      </trkpt>
      <trkpt lat="47.17103" lon="-1.71802">
        <ele>22</ele>
        <time>2021-06-11T09:13:05Z</time>
      </trkpt>
      <trkpt lat="47.17106" lon="-1.71805">
        <ele>22</ele>
        <time>2021-06-11T09:13:06Z</time>
      </trkpt>
      <trkpt lat="47.1711" lon="-1.71814">
        <ele>22</ele>
        <time>2021-06-11T09:13:07Z</time>
      </trkpt>
      <trkpt lat="47.1711" lon="-1.71819">
        <ele>22</ele>
        <time>2021-06-11T09:13:08Z</time>
      </trkpt>
      <trkpt lat="47.17109" lon="-1.71823">
        <ele>22</ele>
        <time>2021-06-11T09:13:08Z</time>
      </trkpt>
      <trkpt lat="47.17102" lon="-1.71832">
        <ele>23</ele>
        <time>2021-06-11T09:13:10Z</time>
      </trkpt>
      <trkpt lat="47.17099" lon="-1.71833">
        <ele>23</ele>
        <time>2021-06-11T09:13:11Z</time>
      </trkpt>
      <trkpt lat="47.17096" lon="-1.71843">
        <ele>23</ele>
        <time>2021-06-11T09:13:12Z</time>
      </trkpt>
      <trkpt lat="47.17087" lon="-1.71858">
        <ele>24</ele>
        <time>2021-06-11T09:13:14Z</time>
      </trkpt>
      <trkpt lat="47.17076" lon="-1.71891">
        <ele>24</ele>
        <time>2021-06-11T09:13:19Z</time>
      </trkpt>
      <trkpt lat="47.17067" lon="-1.71909">
        <ele>25</ele>
        <time>2021-06-11T09:13:22Z</time>
      </trkpt>
      <trkpt lat="47.17064" lon="-1.71913">
        <ele>25</ele>
        <time>2021-06-11T09:13:22Z</time>
      </trkpt>
      <trkpt lat="47.17051" lon="-1.7193">
        <ele>25</ele>
        <time>2021-06-11T09:13:25Z</time>
      </trkpt>
      <trkpt lat="47.16951" lon="-1.72007">
        <ele>26</ele>
        <time>2021-06-11T09:13:45Z</time>
      </trkpt>
      <trkpt lat="47.16947" lon="-1.72011">
        <ele>26</ele>
        <time>2021-06-11T09:13:46Z</time>
      </trkpt>
      <trkpt lat="47.16941" lon="-1.72014">
        <ele>26</ele>
        <time>2021-06-11T09:13:47Z</time>
      </trkpt>
      <trkpt lat="47.16924" lon="-1.72018">
        <ele>26</ele>
        <time>2021-06-11T09:13:50Z</time>
      </trkpt>
      <trkpt lat="47.16915" lon="-1.72022">
        <ele>26</ele>
        <time>2021-06-11T09:13:52Z</time>
      </trkpt>
      <trkpt lat="47.16904" lon="-1.72022">
        <ele>26</ele>
        <time>2021-06-11T09:13:54Z</time>
      </trkpt>
      <trkpt lat="47.16894" lon="-1.72023">
        <ele>25</ele>
        <time>2021-06-11T09:13:56Z</time>
      </trkpt>
      <trkpt lat="47.16882" lon="-1.72024">
        <ele>25</ele>
        <time>2021-06-11T09:13:58Z</time>
      </trkpt>
      <trkpt lat="47.16861" lon="-1.72021">
        <ele>24</ele>
        <time>2021-06-11T09:14:02Z</time>
      </trkpt>
      <trkpt lat="47.16833" lon="-1.72013">
        <ele>23</ele>
        <time>2021-06-11T09:14:07Z</time>
      </trkpt>
      <trkpt lat="47.16792" lon="-1.7201">
        <ele>21</ele>
        <time>2021-06-11T09:14:14Z</time>
      </trkpt>
      <trkpt lat="47.16783" lon="-1.72009">
        <ele>20</ele>
        <time>2021-06-11T09:14:16Z</time>
      </trkpt>
      <trkpt lat="47.16776" lon="-1.7201">
        <ele>20</ele>
        <time>2021-06-11T09:14:17Z</time>
      </trkpt>
      <trkpt lat="47.16769" lon="-1.7201">
        <ele>20</ele>
        <time>2021-06-11T09:14:18Z</time>
      </trkpt>
      <trkpt lat="47.16767" lon="-1.7201">
        <ele>20</ele>
        <time>2021-06-11T09:14:19Z</time>
      </trkpt>
      <trkpt lat="47.1675" lon="-1.72011">
        <ele>19</ele>
        <time>2021-06-11T09:14:22Z</time>
      </trkpt>
      <trkpt lat="47.16716" lon="-1.72012">
        <ele>18</ele>
        <time>2021-06-11T09:14:28Z</time>
      </trkpt>
      <trkpt lat="47.16677" lon="-1.72012">
        <ele>16</ele>
        <time>2021-06-11T09:14:35Z</time>
      </trkpt>
      <trkpt lat="47.16641" lon="-1.72011">
        <ele>15</ele>
        <time>2021-06-11T09:14:41Z</time>
      </trkpt>
      <trkpt lat="47.166" lon="-1.72013">
        <ele>13</ele>
        <time>2021-06-11T09:14:48Z</time>
      </trkpt>
      <trkpt lat="47.16541" lon="-1.72015">
        <ele>13</ele>
        <time>2021-06-11T09:14:59Z</time>
      </trkpt>
      <trkpt lat="47.16519" lon="-1.72014">
        <ele>14</ele>
        <time>2021-06-11T09:15:03Z</time>
      </trkpt>
      <trkpt lat="47.16501" lon="-1.72013">
        <ele>14</ele>
        <time>2021-06-11T09:15:06Z</time>
      </trkpt>
      <trkpt lat="47.16483" lon="-1.7201">
        <ele>16</ele>
        <time>2021-06-11T09:15:09Z</time>
      </trkpt>
      <trkpt lat="47.16464" lon="-1.72004">
        <ele>17</ele>
        <time>2021-06-11T09:15:13Z</time>
      </trkpt>
      <trkpt lat="47.16443" lon="-1.7199">
        <ele>19</ele>
        <time>2021-06-11T09:15:17Z</time>
      </trkpt>
      <trkpt lat="47.16433" lon="-1.71982">
        <ele>20</ele>
        <time>2021-06-11T09:15:19Z</time>
      </trkpt>
      <trkpt lat="47.16391" lon="-1.71944">
        <ele>20</ele>
        <time>2021-06-11T09:15:28Z</time>
      </trkpt>
      <trkpt lat="47.1633" lon="-1.71887">
        <ele>20</ele>
        <time>2021-06-11T09:15:40Z</time>
      </trkpt>
      <trkpt lat="47.1627" lon="-1.71838">
        <ele>20</ele>
        <time>2021-06-11T09:15:53Z</time>
      </trkpt>
      <trkpt lat="47.16236" lon="-1.71811">
        <ele>20</ele>
        <time>2021-06-11T09:15:59Z</time>
      </trkpt>
      <trkpt lat="47.16106" lon="-1.7171">
        <ele>20</ele>
        <time>2021-06-11T09:16:26Z</time>
      </trkpt>
      <trkpt lat="47.16092" lon="-1.71699">
        <ele>21</ele>
        <time>2021-06-11T09:16:28Z</time>
      </trkpt>
      <trkpt lat="47.16077" lon="-1.71682">
        <ele>21</ele>
        <time>2021-06-11T09:16:32Z</time>
      </trkpt>
      <trkpt lat="47.16024" lon="-1.71591">
        <ele>22</ele>
        <time>2021-06-11T09:16:46Z</time>
      </trkpt>
      <trkpt lat="47.16014" lon="-1.71576">
        <ele>22</ele>
        <time>2021-06-11T09:16:49Z</time>
      </trkpt>
      <trkpt lat="47.16001" lon="-1.71561">
        <ele>22</ele>
        <time>2021-06-11T09:16:52Z</time>
      </trkpt>
      <trkpt lat="47.15985" lon="-1.71546">
        <ele>22</ele>
        <time>2021-06-11T09:16:55Z</time>
      </trkpt>
      <trkpt lat="47.15951" lon="-1.71512">
        <ele>24</ele>
        <time>2021-06-11T09:17:03Z</time>
      </trkpt>
      <trkpt lat="47.1585" lon="-1.71381">
        <ele>25</ele>
        <time>2021-06-11T09:17:26Z</time>
      </trkpt>
      <trkpt lat="47.15832" lon="-1.71351">
        <ele>25</ele>
        <time>2021-06-11T09:17:31Z</time>
      </trkpt>
      <trkpt lat="47.15791" lon="-1.71268">
        <ele>26</ele>
        <time>2021-06-11T09:17:44Z</time>
      </trkpt>
      <trkpt lat="47.1576" lon="-1.71211">
        <ele>26</ele>
        <time>2021-06-11T09:17:53Z</time>
      </trkpt>
      <trkpt lat="47.1574" lon="-1.71178">
        <ele>25</ele>
        <time>2021-06-11T09:17:58Z</time>
      </trkpt>
      <trkpt lat="47.15723" lon="-1.71154">
        <ele>25</ele>
        <time>2021-06-11T09:18:02Z</time>
      </trkpt>
      <trkpt lat="47.15702" lon="-1.71128">
        <ele>25</ele>
        <time>2021-06-11T09:18:07Z</time>
      </trkpt>
      <trkpt lat="47.1565" lon="-1.71071">
        <ele>24</ele>
        <time>2021-06-11T09:18:19Z</time>
      </trkpt>
      <trkpt lat="47.15639" lon="-1.7106">
        <ele>25</ele>
        <time>2021-06-11T09:18:21Z</time>
      </trkpt>
      <trkpt lat="47.15638" lon="-1.71059">
        <ele>25</ele>
        <time>2021-06-11T09:18:21Z</time>
      </trkpt>
      <trkpt lat="47.15622" lon="-1.71042">
        <ele>25</ele>
        <time>2021-06-11T09:18:25Z</time>
      </trkpt>
      <trkpt lat="47.1559" lon="-1.70997">
        <ele>25</ele>
        <time>2021-06-11T09:18:32Z</time>
      </trkpt>
      <trkpt lat="47.15546" lon="-1.70931">
        <ele>25</ele>
        <time>2021-06-11T09:18:44Z</time>
      </trkpt>
      <trkpt lat="47.15521" lon="-1.70892">
        <ele>24</ele>
        <time>2021-06-11T09:18:50Z</time>
      </trkpt>
      <trkpt lat="47.15483" lon="-1.70837">
        <ele>24</ele>
        <time>2021-06-11T09:19:00Z</time>
      </trkpt>
      <trkpt lat="47.1546" lon="-1.70805">
        <ele>23</ele>
        <time>2021-06-11T09:19:05Z</time>
      </trkpt>
      <trkpt lat="47.15435" lon="-1.70777">
        <ele>22</ele>
        <time>2021-06-11T09:19:11Z</time>
      </trkpt>
      <trkpt lat="47.15409" lon="-1.70755">
        <ele>22</ele>
        <time>2021-06-11T09:19:16Z</time>
      </trkpt>
      <trkpt lat="47.15363" lon="-1.7072">
        <ele>22</ele>
        <time>2021-06-11T09:19:25Z</time>
      </trkpt>
      <trkpt lat="47.15253" lon="-1.70656">
        <ele>20</ele>
        <time>2021-06-11T09:19:46Z</time>
      </trkpt>
      <trkpt lat="47.15165" lon="-1.70604">
        <ele>19</ele>
        <time>2021-06-11T09:20:03Z</time>
      </trkpt>
      <trkpt lat="47.15061" lon="-1.70545">
        <ele>21</ele>
        <time>2021-06-11T09:20:23Z</time>
      </trkpt>
      <trkpt lat="47.15044" lon="-1.7054">
        <ele>21</ele>
        <time>2021-06-11T09:20:26Z</time>
      </trkpt>
      <trkpt lat="47.15032" lon="-1.70537">
        <ele>21</ele>
        <time>2021-06-11T09:20:28Z</time>
      </trkpt>
      <trkpt lat="47.15032" lon="-1.7054">
        <ele>21</ele>
        <time>2021-06-11T09:20:29Z</time>
      </trkpt>
      <trkpt lat="47.15029" lon="-1.70547">
        <ele>21</ele>
        <time>2021-06-11T09:20:30Z</time>
      </trkpt>
      <trkpt lat="47.15024" lon="-1.70549">
        <ele>21</ele>
        <time>2021-06-11T09:20:31Z</time>
      </trkpt>
      <trkpt lat="47.15021" lon="-1.70548">
        <ele>21</ele>
        <time>2021-06-11T09:20:31Z</time>
      </trkpt>
      <trkpt lat="47.15019" lon="-1.70546">
        <ele>21</ele>
        <time>2021-06-11T09:20:32Z</time>
      </trkpt>
      <trkpt lat="47.15016" lon="-1.70539">
        <ele>21</ele>
        <time>2021-06-11T09:20:33Z</time>
      </trkpt>
      <trkpt lat="47.15017" lon="-1.70532">
        <ele>20</ele>
        <time>2021-06-11T09:20:34Z</time>
      </trkpt>
      <trkpt lat="47.15019" lon="-1.70528">
        <ele>20</ele>
        <time>2021-06-11T09:20:34Z</time>
      </trkpt>
      <trkpt lat="47.15011" lon="-1.70516">
        <ele>20</ele>
        <time>2021-06-11T09:20:36Z</time>
      </trkpt>
      <trkpt lat="47.15001" lon="-1.70502">
        <ele>20</ele>
        <time>2021-06-11T09:20:39Z</time>
      </trkpt>
      <trkpt lat="47.1498" lon="-1.70476">
        <ele>20</ele>
        <time>2021-06-11T09:20:44Z</time>
      </trkpt>
      <trkpt lat="47.14959" lon="-1.70452">
        <ele>19</ele>
        <time>2021-06-11T09:20:48Z</time>
      </trkpt>
      <trkpt lat="47.1494" lon="-1.70429">
        <ele>20</ele>
        <time>2021-06-11T09:20:53Z</time>
      </trkpt>
      <trkpt lat="47.14927" lon="-1.70416">
        <ele>20</ele>
        <time>2021-06-11T09:20:55Z</time>
      </trkpt>
      <trkpt lat="47.14916" lon="-1.70404">
        <ele>20</ele>
        <time>2021-06-11T09:20:58Z</time>
      </trkpt>
      <trkpt lat="47.14902" lon="-1.70393">
        <ele>20</ele>
        <time>2021-06-11T09:21:01Z</time>
      </trkpt>
      <trkpt lat="47.14849" lon="-1.70355">
        <ele>20</ele>
        <time>2021-06-11T09:21:11Z</time>
      </trkpt>
      <trkpt lat="47.14835" lon="-1.70349">
        <ele>20</ele>
        <time>2021-06-11T09:21:14Z</time>
      </trkpt>
      <trkpt lat="47.1483" lon="-1.70347">
        <ele>20</ele>
        <time>2021-06-11T09:21:15Z</time>
      </trkpt>
      <trkpt lat="47.14811" lon="-1.70336">
        <ele>20</ele>
        <time>2021-06-11T09:21:18Z</time>
      </trkpt>
      <trkpt lat="47.14796" lon="-1.70322">
        <ele>21</ele>
        <time>2021-06-11T09:21:22Z</time>
      </trkpt>
      <trkpt lat="47.14792" lon="-1.70318">
        <ele>21</ele>
        <time>2021-06-11T09:21:22Z</time>
      </trkpt>
      <trkpt lat="47.14779" lon="-1.70298">
        <ele>21</ele>
        <time>2021-06-11T09:21:26Z</time>
      </trkpt>
      <trkpt lat="47.14762" lon="-1.70268">
        <ele>22</ele>
        <time>2021-06-11T09:21:30Z</time>
      </trkpt>
      <trkpt lat="47.1473" lon="-1.7022">
        <ele>21</ele>
        <time>2021-06-11T09:21:39Z</time>
      </trkpt>
      <trkpt lat="47.14706" lon="-1.70179">
        <ele>20</ele>
        <time>2021-06-11T09:21:45Z</time>
      </trkpt>
      <trkpt lat="47.14684" lon="-1.70128">
        <ele>19</ele>
        <time>2021-06-11T09:21:52Z</time>
      </trkpt>
      <trkpt lat="47.14675" lon="-1.70104">
        <ele>18</ele>
        <time>2021-06-11T09:21:56Z</time>
      </trkpt>
      <trkpt lat="47.14641" lon="-1.70013">
        <ele>14</ele>
        <time>2021-06-11T09:22:08Z</time>
      </trkpt>
      <trkpt lat="47.14618" lon="-1.69954">
        <ele>14</ele>
        <time>2021-06-11T09:22:17Z</time>
      </trkpt>
      <trkpt lat="47.14606" lon="-1.69922">
        <ele>16</ele>
        <time>2021-06-11T09:22:21Z</time>
      </trkpt>
      <trkpt lat="47.14604" lon="-1.69917">
        <ele>16</ele>
        <time>2021-06-11T09:22:22Z</time>
      </trkpt>
      <trkpt lat="47.14599" lon="-1.69902">
        <ele>16</ele>
        <time>2021-06-11T09:22:24Z</time>
      </trkpt>
      <trkpt lat="47.14591" lon="-1.69873">
        <ele>17</ele>
        <time>2021-06-11T09:22:27Z</time>
      </trkpt>
      <trkpt lat="47.14573" lon="-1.69778">
        <ele>18</ele>
        <time>2021-06-11T09:22:39Z</time>
      </trkpt>
      <trkpt lat="47.14566" lon="-1.69728">
        <ele>18</ele>
        <time>2021-06-11T09:22:46Z</time>
      </trkpt>
      <trkpt lat="47.14566" lon="-1.69724">
        <ele>18</ele>
        <time>2021-06-11T09:22:46Z</time>
      </trkpt>
      <trkpt lat="47.14514" lon="-1.69703">
        <ele>16</ele>
        <time>2021-06-11T09:22:56Z</time>
      </trkpt>
      <trkpt lat="47.14495" lon="-1.6969">
        <ele>16</ele>
        <time>2021-06-11T09:22:59Z</time>
      </trkpt>
      <trkpt lat="47.14469" lon="-1.6966">
        <ele>16</ele>
        <time>2021-06-11T09:23:05Z</time>
      </trkpt>
      <trkpt lat="47.14418" lon="-1.6959">
        <ele>16</ele>
        <time>2021-06-11T09:23:18Z</time>
      </trkpt>
      <trkpt lat="47.14385" lon="-1.69538">
        <ele>17</ele>
        <time>2021-06-11T09:23:26Z</time>
      </trkpt>
      <trkpt lat="47.14375" lon="-1.6953">
        <ele>18</ele>
        <time>2021-06-11T09:23:28Z</time>
      </trkpt>
      <trkpt lat="47.14367" lon="-1.69563">
        <ele>17</ele>
        <time>2021-06-11T09:23:33Z</time>
      </trkpt>
      <trkpt lat="47.14357" lon="-1.69595">
        <ele>16</ele>
        <time>2021-06-11T09:23:37Z</time>
      </trkpt>
      <trkpt lat="47.14356" lon="-1.696">
        <ele>16</ele>
        <time>2021-06-11T09:23:37Z</time>
      </trkpt>
      <trkpt lat="47.14345" lon="-1.69632">
        <ele>15</ele>
        <time>2021-06-11T09:23:42Z</time>
      </trkpt>
      <trkpt lat="47.14326" lon="-1.69713">
        <ele>13</ele>
        <time>2021-06-11T09:23:52Z</time>
      </trkpt>
      <trkpt lat="47.14322" lon="-1.69712">
        <ele>13</ele>
        <time>2021-06-11T09:23:53Z</time>
      </trkpt>
      <trkpt lat="47.14317" lon="-1.69711">
        <ele>13</ele>
        <time>2021-06-11T09:23:54Z</time>
      </trkpt>
      <trkpt lat="47.14268" lon="-1.69705">
        <ele>12</ele>
        <time>2021-06-11T09:24:03Z</time>
      </trkpt>
      <trkpt lat="47.14251" lon="-1.69706">
        <ele>12</ele>
        <time>2021-06-11T09:24:06Z</time>
      </trkpt>
      <trkpt lat="47.14218" lon="-1.69711">
        <ele>12</ele>
        <time>2021-06-11T09:24:11Z</time>
      </trkpt>
      <trkpt lat="47.14181" lon="-1.69717">
        <ele>11</ele>
        <time>2021-06-11T09:24:18Z</time>
      </trkpt>
      <trkpt lat="47.14133" lon="-1.69724">
        <ele>12</ele>
        <time>2021-06-11T09:24:27Z</time>
      </trkpt>
      <trkpt lat="47.14102" lon="-1.69728">
        <ele>12</ele>
        <time>2021-06-11T09:24:32Z</time>
      </trkpt>
      <trkpt lat="47.14071" lon="-1.6973">
        <ele>12</ele>
        <time>2021-06-11T09:24:38Z</time>
      </trkpt>
      <trkpt lat="47.14036" lon="-1.69728">
        <ele>12</ele>
        <time>2021-06-11T09:24:44Z</time>
      </trkpt>
      <trkpt lat="47.14007" lon="-1.69726">
        <ele>12</ele>
        <time>2021-06-11T09:24:49Z</time>
      </trkpt>
      <trkpt lat="47.13935" lon="-1.69719">
        <ele>11</ele>
        <time>2021-06-11T09:25:02Z</time>
      </trkpt>
      <trkpt lat="47.13916" lon="-1.69718">
        <ele>10</ele>
        <time>2021-06-11T09:25:05Z</time>
      </trkpt>
      <trkpt lat="47.13904" lon="-1.69719">
        <ele>10</ele>
        <time>2021-06-11T09:25:07Z</time>
      </trkpt>
      <trkpt lat="47.13895" lon="-1.6972">
        <ele>10</ele>
        <time>2021-06-11T09:25:09Z</time>
      </trkpt>
      <trkpt lat="47.13888" lon="-1.6972">
        <ele>10</ele>
        <time>2021-06-11T09:25:10Z</time>
      </trkpt>
      <trkpt lat="47.13885" lon="-1.6972">
        <ele>10</ele>
        <time>2021-06-11T09:25:11Z</time>
      </trkpt>
      <trkpt lat="47.13851" lon="-1.69726">
        <ele>10</ele>
        <time>2021-06-11T09:25:17Z</time>
      </trkpt>
      <trkpt lat="47.13844" lon="-1.69727">
        <ele>9</ele>
        <time>2021-06-11T09:25:18Z</time>
      </trkpt>
      <trkpt lat="47.13838" lon="-1.69727">
        <ele>9</ele>
        <time>2021-06-11T09:25:19Z</time>
      </trkpt>
      <trkpt lat="47.1377" lon="-1.69726">
        <ele>9</ele>
        <time>2021-06-11T09:25:31Z</time>
      </trkpt>
      <trkpt lat="47.13752" lon="-1.69728">
        <ele>9</ele>
        <time>2021-06-11T09:25:35Z</time>
      </trkpt>
      <trkpt lat="47.13725" lon="-1.69732">
        <ele>9</ele>
        <time>2021-06-11T09:25:39Z</time>
      </trkpt>
      <trkpt lat="47.13699" lon="-1.69737">
        <ele>9</ele>
        <time>2021-06-11T09:25:44Z</time>
      </trkpt>
      <trkpt lat="47.13613" lon="-1.69737">
        <ele>7</ele>
        <time>2021-06-11T09:25:59Z</time>
      </trkpt>
      <trkpt lat="47.13568" lon="-1.69738">
        <ele>7</ele>
        <time>2021-06-11T09:26:07Z</time>
      </trkpt>
      <trkpt lat="47.13504" lon="-1.6974">
        <ele>5</ele>
        <time>2021-06-11T09:26:19Z</time>
      </trkpt>
      <trkpt lat="47.13501" lon="-1.6974">
        <ele>5</ele>
        <time>2021-06-11T09:26:19Z</time>
      </trkpt>
      <trkpt lat="47.13457" lon="-1.69749">
        <ele>6</ele>
        <time>2021-06-11T09:26:27Z</time>
      </trkpt>
      <trkpt lat="47.13412" lon="-1.6977">
        <ele>6</ele>
        <time>2021-06-11T09:26:36Z</time>
      </trkpt>
      <trkpt lat="47.13268" lon="-1.69844">
        <ele>2</ele>
        <time>2021-06-11T09:27:03Z</time>
      </trkpt>
      <trkpt lat="47.13237" lon="-1.69861">
        <ele>2</ele>
        <time>2021-06-11T09:27:09Z</time>
      </trkpt>
      <trkpt lat="47.13219" lon="-1.69871">
        <ele>2</ele>
        <time>2021-06-11T09:27:12Z</time>
      </trkpt>
      <trkpt lat="47.12995" lon="-1.69987">
        <ele>2</ele>
        <time>2021-06-11T09:27:54Z</time>
      </trkpt>
      <trkpt lat="47.12484" lon="-1.70255">
        <ele>4</ele>
        <time>2021-06-11T09:29:31Z</time>
      </trkpt>
      <trkpt lat="47.12452" lon="-1.70277">
        <ele>3</ele>
        <time>2021-06-11T09:29:37Z</time>
      </trkpt>
      <trkpt lat="47.12436" lon="-1.70296">
        <ele>3</ele>
        <time>2021-06-11T09:29:41Z</time>
      </trkpt>
      <trkpt lat="47.12426" lon="-1.70315">
        <ele>3</ele>
        <time>2021-06-11T09:29:44Z</time>
      </trkpt>
      <trkpt lat="47.12419" lon="-1.70332">
        <ele>3</ele>
        <time>2021-06-11T09:29:46Z</time>
      </trkpt>
      <trkpt lat="47.12415" lon="-1.70347">
        <ele>3</ele>
        <time>2021-06-11T09:29:48Z</time>
      </trkpt>
      <trkpt lat="47.1238" lon="-1.7049">
        <ele>4</ele>
        <time>2021-06-11T09:30:06Z</time>
      </trkpt>
      <trkpt lat="47.12369" lon="-1.70523">
        <ele>3</ele>
        <time>2021-06-11T09:30:11Z</time>
      </trkpt>
      <trkpt lat="47.12359" lon="-1.70543">
        <ele>3</ele>
        <time>2021-06-11T09:30:14Z</time>
      </trkpt>
      <trkpt lat="47.12322" lon="-1.70603">
        <ele>2</ele>
        <time>2021-06-11T09:30:24Z</time>
      </trkpt>
      <trkpt lat="47.12277" lon="-1.70671">
        <ele>3</ele>
        <time>2021-06-11T09:30:35Z</time>
      </trkpt>
      <trkpt lat="47.12258" lon="-1.70697">
        <ele>3</ele>
        <time>2021-06-11T09:30:40Z</time>
      </trkpt>
      <trkpt lat="47.12239" lon="-1.7072">
        <ele>3</ele>
        <time>2021-06-11T09:30:44Z</time>
      </trkpt>
      <trkpt lat="47.12204" lon="-1.70753">
        <ele>3</ele>
        <time>2021-06-11T09:30:52Z</time>
      </trkpt>
      <trkpt lat="47.12167" lon="-1.70781">
        <ele>3</ele>
        <time>2021-06-11T09:30:59Z</time>
      </trkpt>
      <trkpt lat="47.12005" lon="-1.70887">
        <ele>5</ele>
        <time>2021-06-11T09:31:31Z</time>
      </trkpt>
      <trkpt lat="47.11916" lon="-1.70947">
        <ele>5</ele>
        <time>2021-06-11T09:31:48Z</time>
      </trkpt>
      <trkpt lat="47.11815" lon="-1.71011">
        <ele>5</ele>
        <time>2021-06-11T09:32:08Z</time>
      </trkpt>
      <trkpt lat="47.11741" lon="-1.7106">
        <ele>5</ele>
        <time>2021-06-11T09:32:22Z</time>
      </trkpt>
      <trkpt lat="47.11735" lon="-1.71063">
        <ele>5</ele>
        <time>2021-06-11T09:32:23Z</time>
      </trkpt>
      <trkpt lat="47.11649" lon="-1.71121">
        <ele>6</ele>
        <time>2021-06-11T09:32:40Z</time>
      </trkpt>
      <trkpt lat="47.11617" lon="-1.7115">
        <ele>6</ele>
        <time>2021-06-11T09:32:47Z</time>
      </trkpt>
      <trkpt lat="47.11582" lon="-1.71189">
        <ele>5</ele>
        <time>2021-06-11T09:32:54Z</time>
      </trkpt>
      <trkpt lat="47.11542" lon="-1.71248">
        <ele>4</ele>
        <time>2021-06-11T09:33:05Z</time>
      </trkpt>
      <trkpt lat="47.11529" lon="-1.71272">
        <ele>4</ele>
        <time>2021-06-11T09:33:08Z</time>
      </trkpt>
      <trkpt lat="47.11511" lon="-1.71308">
        <ele>3</ele>
        <time>2021-06-11T09:33:14Z</time>
      </trkpt>
      <trkpt lat="47.1148" lon="-1.71369">
        <ele>3</ele>
        <time>2021-06-11T09:33:23Z</time>
      </trkpt>
      <trkpt lat="47.11425" lon="-1.71475">
        <ele>2</ele>
        <time>2021-06-11T09:33:39Z</time>
      </trkpt>
      <trkpt lat="47.11342" lon="-1.71639">
        <ele>3</ele>
        <time>2021-06-11T09:34:04Z</time>
      </trkpt>
      <trkpt lat="47.11294" lon="-1.71729">
        <ele>5</ele>
        <time>2021-06-11T09:34:18Z</time>
      </trkpt>
      <trkpt lat="47.11249" lon="-1.71822">
        <ele>6</ele>
        <time>2021-06-11T09:34:31Z</time>
      </trkpt>
      <trkpt lat="47.11227" lon="-1.71899">
        <ele>7</ele>
        <time>2021-06-11T09:34:42Z</time>
      </trkpt>
      <trkpt lat="47.1119" lon="-1.72057">
        <ele>11</ele>
        <time>2021-06-11T09:35:02Z</time>
      </trkpt>
      <trkpt lat="47.11183" lon="-1.72089">
        <ele>11</ele>
        <time>2021-06-11T09:35:06Z</time>
      </trkpt>
      <trkpt lat="47.11107" lon="-1.72402">
        <ele>10</ele>
        <time>2021-06-11T09:35:46Z</time>
      </trkpt>
      <trkpt lat="47.11092" lon="-1.72466">
        <ele>11</ele>
        <time>2021-06-11T09:35:54Z</time>
      </trkpt>
      <trkpt lat="47.11081" lon="-1.72524">
        <ele>12</ele>
        <time>2021-06-11T09:36:02Z</time>
      </trkpt>
      <trkpt lat="47.11081" lon="-1.7255">
        <ele>11</ele>
        <time>2021-06-11T09:36:05Z</time>
      </trkpt>
      <trkpt lat="47.11088" lon="-1.72596">
        <ele>11</ele>
        <time>2021-06-11T09:36:10Z</time>
      </trkpt>
      <trkpt lat="47.11131" lon="-1.72774">
        <ele>13</ele>
        <time>2021-06-11T09:36:33Z</time>
      </trkpt>
      <trkpt lat="47.11211" lon="-1.73111">
        <ele>12</ele>
        <time>2021-06-11T09:37:17Z</time>
      </trkpt>
      <trkpt lat="47.11242" lon="-1.73243">
        <ele>10</ele>
        <time>2021-06-11T09:37:33Z</time>
      </trkpt>
      <trkpt lat="47.1125" lon="-1.73288">
        <ele>10</ele>
        <time>2021-06-11T09:37:39Z</time>
      </trkpt>
      <trkpt lat="47.11253" lon="-1.73324">
        <ele>9</ele>
        <time>2021-06-11T09:37:43Z</time>
      </trkpt>
      <trkpt lat="47.11256" lon="-1.73355">
        <ele>9</ele>
        <time>2021-06-11T09:37:47Z</time>
      </trkpt>
      <trkpt lat="47.11256" lon="-1.73368">
        <ele>9</ele>
        <time>2021-06-11T09:37:49Z</time>
      </trkpt>
      <trkpt lat="47.11259" lon="-1.73407">
        <ele>9</ele>
        <time>2021-06-11T09:37:54Z</time>
      </trkpt>
      <trkpt lat="47.11262" lon="-1.73442">
        <ele>8</ele>
        <time>2021-06-11T09:37:58Z</time>
      </trkpt>
      <trkpt lat="47.11262" lon="-1.73447">
        <ele>8</ele>
        <time>2021-06-11T09:37:58Z</time>
      </trkpt>
      <trkpt lat="47.11263" lon="-1.73457">
        <ele>8</ele>
        <time>2021-06-11T09:38:00Z</time>
      </trkpt>
      <trkpt lat="47.11264" lon="-1.73476">
        <ele>7</ele>
        <time>2021-06-11T09:38:02Z</time>
      </trkpt>
      <trkpt lat="47.11271" lon="-1.73539">
        <ele>6</ele>
        <time>2021-06-11T09:38:10Z</time>
      </trkpt>
      <trkpt lat="47.1127" lon="-1.73548">
        <ele>6</ele>
        <time>2021-06-11T09:38:11Z</time>
      </trkpt>
      <trkpt lat="47.11267" lon="-1.73555">
        <ele>6</ele>
        <time>2021-06-11T09:38:12Z</time>
      </trkpt>
      <trkpt lat="47.11261" lon="-1.73558">
        <ele>6</ele>
        <time>2021-06-11T09:38:13Z</time>
      </trkpt>
      <trkpt lat="47.11255" lon="-1.73558">
        <ele>6</ele>
        <time>2021-06-11T09:38:14Z</time>
      </trkpt>
      <trkpt lat="47.11206" lon="-1.73556">
        <ele>6</ele>
        <time>2021-06-11T09:38:23Z</time>
      </trkpt>
      <trkpt lat="47.11189" lon="-1.73555">
        <ele>6</ele>
        <time>2021-06-11T09:38:26Z</time>
      </trkpt>
      <trkpt lat="47.11181" lon="-1.73555">
        <ele>6</ele>
        <time>2021-06-11T09:38:27Z</time>
      </trkpt>
      <trkpt lat="47.11145" lon="-1.73555">
        <ele>6</ele>
        <time>2021-06-11T09:38:34Z</time>
      </trkpt>
      <trkpt lat="47.11129" lon="-1.73554">
        <ele>5</ele>
        <time>2021-06-11T09:38:36Z</time>
      </trkpt>
      <trkpt lat="47.1111" lon="-1.73549">
        <ele>5</ele>
        <time>2021-06-11T09:38:40Z</time>
      </trkpt>
      <trkpt lat="47.11085" lon="-1.73539">
        <ele>5</ele>
        <time>2021-06-11T09:38:45Z</time>
      </trkpt>
      <trkpt lat="47.11068" lon="-1.73531">
        <ele>5</ele>
        <time>2021-06-11T09:38:48Z</time>
      </trkpt>
      <trkpt lat="47.11061" lon="-1.73528">
        <ele>5</ele>
        <time>2021-06-11T09:38:49Z</time>
      </trkpt>
      <trkpt lat="47.11044" lon="-1.73521">
        <ele>5</ele>
        <time>2021-06-11T09:38:52Z</time>
      </trkpt>
      <trkpt lat="47.10983" lon="-1.73494">
        <ele>6</ele>
        <time>2021-06-11T09:39:03Z</time>
      </trkpt>
      <trkpt lat="47.10955" lon="-1.73492">
        <ele>6</ele>
        <time>2021-06-11T09:39:08Z</time>
      </trkpt>
      <trkpt lat="47.10938" lon="-1.73496">
        <ele>6</ele>
        <time>2021-06-11T09:39:12Z</time>
      </trkpt>
      <trkpt lat="47.10872" lon="-1.73514">
        <ele>8</ele>
        <time>2021-06-11T09:39:23Z</time>
      </trkpt>
      <trkpt lat="47.10872" lon="-1.73517">
        <ele>8</ele>
        <time>2021-06-11T09:39:24Z</time>
      </trkpt>
      <trkpt lat="47.10869" lon="-1.73524">
        <ele>8</ele>
        <time>2021-06-11T09:39:25Z</time>
      </trkpt>
      <trkpt lat="47.10868" lon="-1.73525">
        <ele>8</ele>
        <time>2021-06-11T09:39:25Z</time>
      </trkpt>
      <trkpt lat="47.10866" lon="-1.73525">
        <ele>8</ele>
        <time>2021-06-11T09:39:25Z</time>
      </trkpt>
      <trkpt lat="47.10861" lon="-1.73521">
        <ele>8</ele>
        <time>2021-06-11T09:39:26Z</time>
      </trkpt>
      <trkpt lat="47.1086" lon="-1.73518">
        <ele>8</ele>
        <time>2021-06-11T09:39:27Z</time>
      </trkpt>
      <trkpt lat="47.10851" lon="-1.73523">
        <ele>8</ele>
        <time>2021-06-11T09:39:29Z</time>
      </trkpt>
      <trkpt lat="47.10836" lon="-1.73529">
        <ele>9</ele>
        <time>2021-06-11T09:39:31Z</time>
      </trkpt>
      <trkpt lat="47.10808" lon="-1.73545">
        <ele>9</ele>
        <time>2021-06-11T09:39:37Z</time>
      </trkpt>
      <trkpt lat="47.10755" lon="-1.7359">
        <ele>11</ele>
        <time>2021-06-11T09:39:48Z</time>
      </trkpt>
      <trkpt lat="47.10714" lon="-1.73627">
        <ele>11</ele>
        <time>2021-06-11T09:39:56Z</time>
      </trkpt>
      <trkpt lat="47.10696" lon="-1.73643">
        <ele>11</ele>
        <time>2021-06-11T09:40:00Z</time>
      </trkpt>
      <trkpt lat="47.10674" lon="-1.73657">
        <ele>12</ele>
        <time>2021-06-11T09:40:04Z</time>
      </trkpt>
      <trkpt lat="47.10648" lon="-1.73671">
        <ele>12</ele>
        <time>2021-06-11T09:40:09Z</time>
      </trkpt>
      <trkpt lat="47.10632" lon="-1.73676">
        <ele>13</ele>
        <time>2021-06-11T09:40:12Z</time>
      </trkpt>
      <trkpt lat="47.10633" lon="-1.73682">
        <ele>13</ele>
        <time>2021-06-11T09:40:13Z</time>
      </trkpt>
      <trkpt lat="47.10631" lon="-1.73688">
        <ele>13</ele>
        <time>2021-06-11T09:40:13Z</time>
      </trkpt>
      <trkpt lat="47.10624" lon="-1.73696">
        <ele>13</ele>
        <time>2021-06-11T09:40:15Z</time>
      </trkpt>
      <trkpt lat="47.1062" lon="-1.73696">
        <ele>13</ele>
        <time>2021-06-11T09:40:16Z</time>
      </trkpt>
      <trkpt lat="47.1062" lon="-1.73706">
        <ele>13</ele>
        <time>2021-06-11T09:40:17Z</time>
      </trkpt>
      <trkpt lat="47.10617" lon="-1.73716">
        <ele>13</ele>
        <time>2021-06-11T09:40:18Z</time>
      </trkpt>
      <trkpt lat="47.1055" lon="-1.73847">
        <ele>12</ele>
        <time>2021-06-11T09:40:38Z</time>
      </trkpt>
      <trkpt lat="47.10489" lon="-1.73922">
        <ele>11</ele>
        <time>2021-06-11T09:40:52Z</time>
      </trkpt>
      <trkpt lat="47.10404" lon="-1.74013">
        <ele>12</ele>
        <time>2021-06-11T09:41:11Z</time>
      </trkpt>
      <trkpt lat="47.10357" lon="-1.74072">
        <ele>13</ele>
        <time>2021-06-11T09:41:22Z</time>
      </trkpt>
      <trkpt lat="47.10341" lon="-1.74098">
        <ele>13</ele>
        <time>2021-06-11T09:41:26Z</time>
      </trkpt>
      <trkpt lat="47.10324" lon="-1.74137">
        <ele>13</ele>
        <time>2021-06-11T09:41:32Z</time>
      </trkpt>
      <trkpt lat="47.10287" lon="-1.74245">
        <ele>14</ele>
        <time>2021-06-11T09:41:47Z</time>
      </trkpt>
      <trkpt lat="47.10269" lon="-1.74277">
        <ele>15</ele>
        <time>2021-06-11T09:41:52Z</time>
      </trkpt>
      <trkpt lat="47.10251" lon="-1.74299">
        <ele>15</ele>
        <time>2021-06-11T09:41:56Z</time>
      </trkpt>
      <trkpt lat="47.10155" lon="-1.74387">
        <ele>16</ele>
        <time>2021-06-11T09:42:16Z</time>
      </trkpt>
      <trkpt lat="47.10128" lon="-1.74416">
        <ele>17</ele>
        <time>2021-06-11T09:42:22Z</time>
      </trkpt>
      <trkpt lat="47.10061" lon="-1.74495">
        <ele>17</ele>
        <time>2021-06-11T09:42:37Z</time>
      </trkpt>
      <trkpt lat="47.10051" lon="-1.74509">
        <ele>17</ele>
        <time>2021-06-11T09:42:40Z</time>
      </trkpt>
      <trkpt lat="47.10043" lon="-1.74525">
        <ele>17</ele>
        <time>2021-06-11T09:42:42Z</time>
      </trkpt>
      <trkpt lat="47.10022" lon="-1.74575">
        <ele>17</ele>
        <time>2021-06-11T09:42:49Z</time>
      </trkpt>
      <trkpt lat="47.09905" lon="-1.74921">
        <ele>17</ele>
        <time>2021-06-11T09:43:36Z</time>
      </trkpt>
      <trkpt lat="47.09863" lon="-1.75017">
        <ele>17</ele>
        <time>2021-06-11T09:43:50Z</time>
      </trkpt>
      <trkpt lat="47.09812" lon="-1.75104">
        <ele>16</ele>
        <time>2021-06-11T09:44:04Z</time>
      </trkpt>
      <trkpt lat="47.09712" lon="-1.75257">
        <ele>16</ele>
        <time>2021-06-11T09:44:29Z</time>
      </trkpt>
      <trkpt lat="47.09674" lon="-1.75334">
        <ele>16</ele>
        <time>2021-06-11T09:44:41Z</time>
      </trkpt>
      <trkpt lat="47.09633" lon="-1.75402">
        <ele>16</ele>
        <time>2021-06-11T09:44:52Z</time>
      </trkpt>
      <trkpt lat="47.09489" lon="-1.75608">
        <ele>13</ele>
        <time>2021-06-11T09:45:28Z</time>
      </trkpt>
      <trkpt lat="47.09437" lon="-1.75675">
        <ele>12</ele>
        <time>2021-06-11T09:45:40Z</time>
      </trkpt>
      <trkpt lat="47.09254" lon="-1.7587">
        <ele>8</ele>
        <time>2021-06-11T09:46:20Z</time>
      </trkpt>
      <trkpt lat="47.0921" lon="-1.75962">
        <ele>8</ele>
        <time>2021-06-11T09:46:34Z</time>
      </trkpt>
      <trkpt lat="47.09181" lon="-1.76055">
        <ele>7</ele>
        <time>2021-06-11T09:46:46Z</time>
      </trkpt>
      <trkpt lat="47.0916" lon="-1.76143">
        <ele>6</ele>
        <time>2021-06-11T09:46:57Z</time>
      </trkpt>
      <trkpt lat="47.09157" lon="-1.76203">
        <ele>6</ele>
        <time>2021-06-11T09:47:05Z</time>
      </trkpt>
      <trkpt lat="47.09158" lon="-1.76235">
        <ele>6</ele>
        <time>2021-06-11T09:47:09Z</time>
      </trkpt>
      <trkpt lat="47.09165" lon="-1.76282">
        <ele>6</ele>
        <time>2021-06-11T09:47:14Z</time>
      </trkpt>
      <trkpt lat="47.09177" lon="-1.76331">
        <ele>6</ele>
        <time>2021-06-11T09:47:21Z</time>
      </trkpt>
      <trkpt lat="47.09199" lon="-1.7638">
        <ele>7</ele>
        <time>2021-06-11T09:47:28Z</time>
      </trkpt>
      <trkpt lat="47.09246" lon="-1.76472">
        <ele>8</ele>
        <time>2021-06-11T09:47:42Z</time>
      </trkpt>
      <trkpt lat="47.09257" lon="-1.76503">
        <ele>8</ele>
        <time>2021-06-11T09:47:46Z</time>
      </trkpt>
      <trkpt lat="47.09258" lon="-1.76518">
        <ele>8</ele>
        <time>2021-06-11T09:47:48Z</time>
      </trkpt>
      <trkpt lat="47.09256" lon="-1.76525">
        <ele>8</ele>
        <time>2021-06-11T09:47:49Z</time>
      </trkpt>
      <trkpt lat="47.09253" lon="-1.76533">
        <ele>8</ele>
        <time>2021-06-11T09:47:50Z</time>
      </trkpt>
      <trkpt lat="47.09243" lon="-1.76546">
        <ele>9</ele>
        <time>2021-06-11T09:47:52Z</time>
      </trkpt>
      <trkpt lat="47.09166" lon="-1.76614">
        <ele>10</ele>
        <time>2021-06-11T09:48:08Z</time>
      </trkpt>
      <trkpt lat="47.09139" lon="-1.76644">
        <ele>10</ele>
        <time>2021-06-11T09:48:14Z</time>
      </trkpt>
      <trkpt lat="47.09116" lon="-1.7668">
        <ele>10</ele>
        <time>2021-06-11T09:48:20Z</time>
      </trkpt>
      <trkpt lat="47.09064" lon="-1.76788">
        <ele>13</ele>
        <time>2021-06-11T09:48:36Z</time>
      </trkpt>
      <trkpt lat="47.0904" lon="-1.76832">
        <ele>13</ele>
        <time>2021-06-11T09:48:43Z</time>
      </trkpt>
      <trkpt lat="47.09009" lon="-1.76879">
        <ele>14</ele>
        <time>2021-06-11T09:48:51Z</time>
      </trkpt>
      <trkpt lat="47.08998" lon="-1.76893">
        <ele>14</ele>
        <time>2021-06-11T09:48:54Z</time>
      </trkpt>
      <trkpt lat="47.08945" lon="-1.76951">
        <ele>15</ele>
        <time>2021-06-11T09:49:05Z</time>
      </trkpt>
      <trkpt lat="47.08903" lon="-1.76992">
        <ele>15</ele>
        <time>2021-06-11T09:49:14Z</time>
      </trkpt>
      <trkpt lat="47.08873" lon="-1.77028">
        <ele>16</ele>
        <time>2021-06-11T09:49:21Z</time>
      </trkpt>
      <trkpt lat="47.08639" lon="-1.77494">
        <ele>22</ele>
        <time>2021-06-11T09:50:31Z</time>
      </trkpt>
      <trkpt lat="47.08621" lon="-1.77524">
        <ele>22</ele>
        <time>2021-06-11T09:50:36Z</time>
      </trkpt>
      <trkpt lat="47.08613" lon="-1.7755">
        <ele>22</ele>
        <time>2021-06-11T09:50:40Z</time>
      </trkpt>
      <trkpt lat="47.08598" lon="-1.77622">
        <ele>20</ele>
        <time>2021-06-11T09:50:49Z</time>
      </trkpt>
      <trkpt lat="47.08547" lon="-1.77836">
        <ele>17</ele>
        <time>2021-06-11T09:51:16Z</time>
      </trkpt>
      <trkpt lat="47.08516" lon="-1.77951">
        <ele>19</ele>
        <time>2021-06-11T09:51:31Z</time>
      </trkpt>
      <trkpt lat="47.08499" lon="-1.77993">
        <ele>19</ele>
        <time>2021-06-11T09:51:37Z</time>
      </trkpt>
      <trkpt lat="47.08475" lon="-1.78045">
        <ele>18</ele>
        <time>2021-06-11T09:51:45Z</time>
      </trkpt>
      <trkpt lat="47.08426" lon="-1.78138">
        <ele>16</ele>
        <time>2021-06-11T09:51:59Z</time>
      </trkpt>
      <trkpt lat="47.08395" lon="-1.78202">
        <ele>15</ele>
        <time>2021-06-11T09:52:09Z</time>
      </trkpt>
      <trkpt lat="47.08377" lon="-1.78231">
        <ele>15</ele>
        <time>2021-06-11T09:52:13Z</time>
      </trkpt>
      <trkpt lat="47.08355" lon="-1.7825">
        <ele>15</ele>
        <time>2021-06-11T09:52:18Z</time>
      </trkpt>
      <trkpt lat="47.08336" lon="-1.7826">
        <ele>15</ele>
        <time>2021-06-11T09:52:21Z</time>
      </trkpt>
      <trkpt lat="47.08315" lon="-1.78262">
        <ele>15</ele>
        <time>2021-06-11T09:52:25Z</time>
      </trkpt>
      <trkpt lat="47.08211" lon="-1.78255">
        <ele>12</ele>
        <time>2021-06-11T09:52:44Z</time>
      </trkpt>
      <trkpt lat="47.0818" lon="-1.78255">
        <ele>11</ele>
        <time>2021-06-11T09:52:49Z</time>
      </trkpt>
      <trkpt lat="47.08161" lon="-1.78259">
        <ele>11</ele>
        <time>2021-06-11T09:52:53Z</time>
      </trkpt>
      <trkpt lat="47.08137" lon="-1.78269">
        <ele>11</ele>
        <time>2021-06-11T09:52:57Z</time>
      </trkpt>
      <trkpt lat="47.07954" lon="-1.78368">
        <ele>15</ele>
        <time>2021-06-11T09:53:32Z</time>
      </trkpt>
      <trkpt lat="47.07802" lon="-1.78454">
        <ele>20</ele>
        <time>2021-06-11T09:54:01Z</time>
      </trkpt>
      <trkpt lat="47.07727" lon="-1.78524">
        <ele>19</ele>
        <time>2021-06-11T09:54:17Z</time>
      </trkpt>
      <trkpt lat="47.07668" lon="-1.78572">
        <ele>20</ele>
        <time>2021-06-11T09:54:29Z</time>
      </trkpt>
      <trkpt lat="47.07657" lon="-1.78537">
        <ele>19</ele>
        <time>2021-06-11T09:54:33Z</time>
      </trkpt>
      <trkpt lat="47.07636" lon="-1.78466">
        <ele>18</ele>
        <time>2021-06-11T09:54:43Z</time>
      </trkpt>
      <trkpt lat="47.07612" lon="-1.78408">
        <ele>18</ele>
        <time>2021-06-11T09:54:51Z</time>
      </trkpt>
      <trkpt lat="47.07521" lon="-1.78237">
        <ele>18</ele>
        <time>2021-06-11T09:55:17Z</time>
      </trkpt>
      <trkpt lat="47.07488" lon="-1.78184">
        <ele>18</ele>
        <time>2021-06-11T09:55:26Z</time>
      </trkpt>
      <trkpt lat="47.07453" lon="-1.78145">
        <ele>18</ele>
        <time>2021-06-11T09:55:34Z</time>
      </trkpt>
      <trkpt lat="47.07413" lon="-1.7811">
        <ele>17</ele>
        <time>2021-06-11T09:55:42Z</time>
      </trkpt>
      <trkpt lat="47.07377" lon="-1.7807">
        <ele>19</ele>
        <time>2021-06-11T09:55:50Z</time>
      </trkpt>
      <trkpt lat="47.0716" lon="-1.77807">
        <ele>23</ele>
        <time>2021-06-11T09:56:40Z</time>
      </trkpt>
      <trkpt lat="47.0714" lon="-1.77778">
        <ele>23</ele>
        <time>2021-06-11T09:56:45Z</time>
      </trkpt>
      <trkpt lat="47.07123" lon="-1.77744">
        <ele>23</ele>
        <time>2021-06-11T09:56:50Z</time>
      </trkpt>
      <trkpt lat="47.07011" lon="-1.77462">
        <ele>24</ele>
        <time>2021-06-11T09:57:30Z</time>
      </trkpt>
      <trkpt lat="47.06991" lon="-1.77426">
        <ele>25</ele>
        <time>2021-06-11T09:57:35Z</time>
      </trkpt>
      <trkpt lat="47.06834" lon="-1.77208">
        <ele>27</ele>
        <time>2021-06-11T09:58:14Z</time>
      </trkpt>
      <trkpt lat="47.06814" lon="-1.77179">
        <ele>28</ele>
        <time>2021-06-11T09:58:19Z</time>
      </trkpt>
      <trkpt lat="47.06756" lon="-1.77082">
        <ele>27</ele>
        <time>2021-06-11T09:58:34Z</time>
      </trkpt>
      <trkpt lat="47.06479" lon="-1.76611">
        <ele>31</ele>
        <time>2021-06-11T09:59:50Z</time>
      </trkpt>
      <trkpt lat="47.06462" lon="-1.76574">
        <ele>30</ele>
        <time>2021-06-11T09:59:55Z</time>
      </trkpt>
      <trkpt lat="47.06416" lon="-1.7646">
        <ele>29</ele>
        <time>2021-06-11T10:00:11Z</time>
      </trkpt>
      <trkpt lat="47.06407" lon="-1.76443">
        <ele>29</ele>
        <time>2021-06-11T10:00:14Z</time>
      </trkpt>
      <trkpt lat="47.06396" lon="-1.76426">
        <ele>29</ele>
        <time>2021-06-11T10:00:17Z</time>
      </trkpt>
      <trkpt lat="47.06379" lon="-1.76409">
        <ele>29</ele>
        <time>2021-06-11T10:00:20Z</time>
      </trkpt>
      <trkpt lat="47.06368" lon="-1.76401">
        <ele>29</ele>
        <time>2021-06-11T10:00:23Z</time>
      </trkpt>
      <trkpt lat="47.06316" lon="-1.76374">
        <ele>28</ele>
        <time>2021-06-11T10:00:32Z</time>
      </trkpt>
      <trkpt lat="47.06313" lon="-1.76374">
        <ele>28</ele>
        <time>2021-06-11T10:00:33Z</time>
      </trkpt>
      <trkpt lat="47.06304" lon="-1.76364">
        <ele>28</ele>
        <time>2021-06-11T10:00:35Z</time>
      </trkpt>
      <trkpt lat="47.06296" lon="-1.76344">
        <ele>28</ele>
        <time>2021-06-11T10:00:38Z</time>
      </trkpt>
      <trkpt lat="47.06293" lon="-1.76332">
        <ele>28</ele>
        <time>2021-06-11T10:00:39Z</time>
      </trkpt>
      <trkpt lat="47.06294" lon="-1.76306">
        <ele>28</ele>
        <time>2021-06-11T10:00:42Z</time>
      </trkpt>
      <trkpt lat="47.06297" lon="-1.76293">
        <ele>29</ele>
        <time>2021-06-11T10:00:44Z</time>
      </trkpt>
      <trkpt lat="47.063" lon="-1.76289">
        <ele>29</ele>
        <time>2021-06-11T10:00:45Z</time>
      </trkpt>
      <trkpt lat="47.06301" lon="-1.76277">
        <ele>29</ele>
        <time>2021-06-11T10:00:46Z</time>
      </trkpt>
      <trkpt lat="47.06302" lon="-1.76244">
        <ele>29</ele>
        <time>2021-06-11T10:00:50Z</time>
      </trkpt>
      <trkpt lat="47.06296" lon="-1.76207">
        <ele>30</ele>
        <time>2021-06-11T10:00:55Z</time>
      </trkpt>
      <trkpt lat="47.06292" lon="-1.76191">
        <ele>30</ele>
        <time>2021-06-11T10:00:57Z</time>
      </trkpt>
      <trkpt lat="47.06284" lon="-1.76171">
        <ele>30</ele>
        <time>2021-06-11T10:01:00Z</time>
      </trkpt>
      <trkpt lat="47.06276" lon="-1.76154">
        <ele>30</ele>
        <time>2021-06-11T10:01:02Z</time>
      </trkpt>
      <trkpt lat="47.06245" lon="-1.76115">
        <ele>29</ele>
        <time>2021-06-11T10:01:10Z</time>
      </trkpt>
      <trkpt lat="47.05975" lon="-1.75796">
        <ele>24</ele>
        <time>2021-06-11T10:02:11Z</time>
      </trkpt>
      <trkpt lat="47.05944" lon="-1.75744">
        <ele>25</ele>
        <time>2021-06-11T10:02:20Z</time>
      </trkpt>
      <trkpt lat="47.05827" lon="-1.75406">
        <ele>23</ele>
        <time>2021-06-11T10:03:06Z</time>
      </trkpt>
      <trkpt lat="47.05702" lon="-1.75125">
        <ele>18</ele>
        <time>2021-06-11T10:03:46Z</time>
      </trkpt>
      <trkpt lat="47.05666" lon="-1.75066">
        <ele>15</ele>
        <time>2021-06-11T10:03:56Z</time>
      </trkpt>
      <trkpt lat="47.05608" lon="-1.75004">
        <ele>14</ele>
        <time>2021-06-11T10:04:09Z</time>
      </trkpt>
      <trkpt lat="47.05536" lon="-1.74933">
        <ele>11</ele>
        <time>2021-06-11T10:04:24Z</time>
      </trkpt>
      <trkpt lat="47.0536" lon="-1.74777">
        <ele>9</ele>
        <time>2021-06-11T10:05:01Z</time>
      </trkpt>
      <trkpt lat="47.05336" lon="-1.7474">
        <ele>9</ele>
        <time>2021-06-11T10:05:07Z</time>
      </trkpt>
      <trkpt lat="47.05273" lon="-1.74608">
        <ele>12</ele>
        <time>2021-06-11T10:05:26Z</time>
      </trkpt>
      <trkpt lat="47.05237" lon="-1.74524">
        <ele>13</ele>
        <time>2021-06-11T10:05:38Z</time>
      </trkpt>
      <trkpt lat="47.05228" lon="-1.74489">
        <ele>14</ele>
        <time>2021-06-11T10:05:43Z</time>
      </trkpt>
      <trkpt lat="47.05223" lon="-1.74452">
        <ele>14</ele>
        <time>2021-06-11T10:05:48Z</time>
      </trkpt>
      <trkpt lat="47.05224" lon="-1.7436">
        <ele>15</ele>
        <time>2021-06-11T10:05:59Z</time>
      </trkpt>
      <trkpt lat="47.05236" lon="-1.73711">
        <ele>22</ele>
        <time>2021-06-11T10:07:17Z</time>
      </trkpt>
      <trkpt lat="47.0524" lon="-1.73668">
        <ele>21</ele>
        <time>2021-06-11T10:07:23Z</time>
      </trkpt>
      <trkpt lat="47.05249" lon="-1.73631">
        <ele>22</ele>
        <time>2021-06-11T10:07:27Z</time>
      </trkpt>
      <trkpt lat="47.053" lon="-1.73467">
        <ele>21</ele>
        <time>2021-06-11T10:07:49Z</time>
      </trkpt>
      <trkpt lat="47.05321" lon="-1.73317">
        <ele>20</ele>
        <time>2021-06-11T10:08:08Z</time>
      </trkpt>
      <trkpt lat="47.05323" lon="-1.73286">
        <ele>20</ele>
        <time>2021-06-11T10:08:12Z</time>
      </trkpt>
      <trkpt lat="47.05318" lon="-1.73231">
        <ele>21</ele>
        <time>2021-06-11T10:08:18Z</time>
      </trkpt>
      <trkpt lat="47.05304" lon="-1.7315">
        <ele>24</ele>
        <time>2021-06-11T10:08:28Z</time>
      </trkpt>
      <trkpt lat="47.05299" lon="-1.73147">
        <ele>24</ele>
        <time>2021-06-11T10:08:29Z</time>
      </trkpt>
      <trkpt lat="47.05297" lon="-1.73139">
        <ele>25</ele>
        <time>2021-06-11T10:08:30Z</time>
      </trkpt>
      <trkpt lat="47.05302" lon="-1.73132">
        <ele>25</ele>
        <time>2021-06-11T10:08:32Z</time>
      </trkpt>
      <trkpt lat="47.05305" lon="-1.73132">
        <ele>25</ele>
        <time>2021-06-11T10:08:32Z</time>
      </trkpt>
      <trkpt lat="47.05308" lon="-1.73136">
        <ele>25</ele>
        <time>2021-06-11T10:08:33Z</time>
      </trkpt>
      <trkpt lat="47.0533" lon="-1.73104">
        <ele>25</ele>
        <time>2021-06-11T10:08:38Z</time>
      </trkpt>
      <trkpt lat="47.05387" lon="-1.73011">
        <ele>26</ele>
        <time>2021-06-11T10:08:54Z</time>
      </trkpt>
      <trkpt lat="47.05432" lon="-1.72913">
        <ele>26</ele>
        <time>2021-06-11T10:09:08Z</time>
      </trkpt>
      <trkpt lat="47.05498" lon="-1.72816">
        <ele>23</ele>
        <time>2021-06-11T10:09:25Z</time>
      </trkpt>
      <trkpt lat="47.05512" lon="-1.72787">
        <ele>23</ele>
        <time>2021-06-11T10:09:29Z</time>
      </trkpt>
      <trkpt lat="47.05514" lon="-1.72778">
        <ele>23</ele>
        <time>2021-06-11T10:09:30Z</time>
      </trkpt>
      <trkpt lat="47.05524" lon="-1.72699">
        <ele>24</ele>
        <time>2021-06-11T10:09:40Z</time>
      </trkpt>
      <trkpt lat="47.05531" lon="-1.72657">
        <ele>24</ele>
        <time>2021-06-11T10:09:45Z</time>
      </trkpt>
      <trkpt lat="47.05555" lon="-1.72659">
        <ele>24</ele>
        <time>2021-06-11T10:09:49Z</time>
      </trkpt>
      <trkpt lat="47.05577" lon="-1.72649">
        <ele>23</ele>
        <time>2021-06-11T10:09:53Z</time>
      </trkpt>
      <trkpt lat="47.05548" lon="-1.72502">
        <ele>24</ele>
        <time>2021-06-11T10:10:12Z</time>
      </trkpt>
      <trkpt lat="47.05484" lon="-1.72271">
        <ele>22</ele>
        <time>2021-06-11T10:10:42Z</time>
      </trkpt>
      <trkpt lat="47.05447" lon="-1.72093">
        <ele>19</ele>
        <time>2021-06-11T10:11:05Z</time>
      </trkpt>
      <trkpt lat="47.05383" lon="-1.7181">
        <ele>18</ele>
        <time>2021-06-11T10:11:41Z</time>
      </trkpt>
      <trkpt lat="47.0538" lon="-1.7174">
        <ele>18</ele>
        <time>2021-06-11T10:11:49Z</time>
      </trkpt>
      <trkpt lat="47.05394" lon="-1.71599">
        <ele>15</ele>
        <time>2021-06-11T10:12:07Z</time>
      </trkpt>
      <trkpt lat="47.05406" lon="-1.71451">
        <ele>14</ele>
        <time>2021-06-11T10:12:25Z</time>
      </trkpt>
      <trkpt lat="47.05406" lon="-1.71404">
        <ele>13</ele>
        <time>2021-06-11T10:12:30Z</time>
      </trkpt>
      <trkpt lat="47.05403" lon="-1.71363">
        <ele>13</ele>
        <time>2021-06-11T10:12:35Z</time>
      </trkpt>
      <trkpt lat="47.05389" lon="-1.71264">
        <ele>15</ele>
        <time>2021-06-11T10:12:48Z</time>
      </trkpt>
      <trkpt lat="47.05389" lon="-1.71225">
        <ele>15</ele>
        <time>2021-06-11T10:12:52Z</time>
      </trkpt>
      <trkpt lat="47.05391" lon="-1.71186">
        <ele>14</ele>
        <time>2021-06-11T10:12:57Z</time>
      </trkpt>
      <trkpt lat="47.05415" lon="-1.70917">
        <ele>11</ele>
        <time>2021-06-11T10:13:30Z</time>
      </trkpt>
      <trkpt lat="47.05415" lon="-1.70892">
        <ele>11</ele>
        <time>2021-06-11T10:13:33Z</time>
      </trkpt>
      <trkpt lat="47.05414" lon="-1.70867">
        <ele>10</ele>
        <time>2021-06-11T10:13:36Z</time>
      </trkpt>
      <trkpt lat="47.05406" lon="-1.70807">
        <ele>10</ele>
        <time>2021-06-11T10:13:43Z</time>
      </trkpt>
      <trkpt lat="47.05362" lon="-1.70538">
        <ele>12</ele>
        <time>2021-06-11T10:14:17Z</time>
      </trkpt>
      <trkpt lat="47.05343" lon="-1.70431">
        <ele>12</ele>
        <time>2021-06-11T10:14:30Z</time>
      </trkpt>
      <trkpt lat="47.05335" lon="-1.704">
        <ele>12</ele>
        <time>2021-06-11T10:14:34Z</time>
      </trkpt>
      <trkpt lat="47.05326" lon="-1.70373">
        <ele>12</ele>
        <time>2021-06-11T10:14:38Z</time>
      </trkpt>
      <trkpt lat="47.05204" lon="-1.70045">
        <ele>6</ele>
        <time>2021-06-11T10:15:23Z</time>
      </trkpt>
      <trkpt lat="47.05162" lon="-1.69935">
        <ele>5</ele>
        <time>2021-06-11T10:15:39Z</time>
      </trkpt>
      <trkpt lat="47.05154" lon="-1.69899">
        <ele>5</ele>
        <time>2021-06-11T10:15:43Z</time>
      </trkpt>
      <trkpt lat="47.05155" lon="-1.69887">
        <ele>5</ele>
        <time>2021-06-11T10:15:45Z</time>
      </trkpt>
      <trkpt lat="47.05152" lon="-1.69863">
        <ele>5</ele>
        <time>2021-06-11T10:15:48Z</time>
      </trkpt>
      <trkpt lat="47.05139" lon="-1.69826">
        <ele>5</ele>
        <time>2021-06-11T10:15:53Z</time>
      </trkpt>
      <trkpt lat="47.05128" lon="-1.69804">
        <ele>5</ele>
        <time>2021-06-11T10:15:56Z</time>
      </trkpt>
      <trkpt lat="47.05111" lon="-1.69782">
        <ele>5</ele>
        <time>2021-06-11T10:16:00Z</time>
      </trkpt>
      <trkpt lat="47.0502" lon="-1.69671">
        <ele>7</ele>
        <time>2021-06-11T10:16:21Z</time>
      </trkpt>
      <trkpt lat="47.05008" lon="-1.69654">
        <ele>7</ele>
        <time>2021-06-11T10:16:24Z</time>
      </trkpt>
      <trkpt lat="47.04998" lon="-1.69634">
        <ele>7</ele>
        <time>2021-06-11T10:16:27Z</time>
      </trkpt>
      <trkpt lat="47.04984" lon="-1.69594">
        <ele>6</ele>
        <time>2021-06-11T10:16:33Z</time>
      </trkpt>
      <trkpt lat="47.04697" lon="-1.68497">
        <ele>10</ele>
        <time>2021-06-11T10:18:55Z</time>
      </trkpt>
      <trkpt lat="47.04611" lon="-1.68153">
        <ele>9</ele>
        <time>2021-06-11T10:19:39Z</time>
      </trkpt>
      <trkpt lat="47.045" lon="-1.67724">
        <ele>11</ele>
        <time>2021-06-11T10:20:35Z</time>
      </trkpt>
      <trkpt lat="47.04468" lon="-1.6761">
        <ele>9</ele>
        <time>2021-06-11T10:20:50Z</time>
      </trkpt>
      <trkpt lat="47.04047" lon="-1.65979">
        <ele>9</ele>
        <time>2021-06-11T10:24:21Z</time>
      </trkpt>
      <trkpt lat="47.03877" lon="-1.65377">
        <ele>6</ele>
        <time>2021-06-11T10:25:41Z</time>
      </trkpt>
      <trkpt lat="47.03871" lon="-1.65362">
        <ele>6</ele>
        <time>2021-06-11T10:25:43Z</time>
      </trkpt>
      <trkpt lat="47.03864" lon="-1.65349">
        <ele>6</ele>
        <time>2021-06-11T10:25:45Z</time>
      </trkpt>
      <trkpt lat="47.03849" lon="-1.65333">
        <ele>6</ele>
        <time>2021-06-11T10:25:48Z</time>
      </trkpt>
      <trkpt lat="47.03842" lon="-1.65328">
        <ele>6</ele>
        <time>2021-06-11T10:25:49Z</time>
      </trkpt>
      <trkpt lat="47.03834" lon="-1.65325">
        <ele>6</ele>
        <time>2021-06-11T10:25:51Z</time>
      </trkpt>
      <trkpt lat="47.03822" lon="-1.65325">
        <ele>6</ele>
        <time>2021-06-11T10:25:53Z</time>
      </trkpt>
      <trkpt lat="47.03812" lon="-1.65326">
        <ele>6</ele>
        <time>2021-06-11T10:25:55Z</time>
      </trkpt>
      <trkpt lat="47.03802" lon="-1.65331">
        <ele>6</ele>
        <time>2021-06-11T10:25:57Z</time>
      </trkpt>
      <trkpt lat="47.03671" lon="-1.65424">
        <ele>7</ele>
        <time>2021-06-11T10:26:22Z</time>
      </trkpt>
      <trkpt lat="47.036" lon="-1.65479">
        <ele>11</ele>
        <time>2021-06-11T10:26:37Z</time>
      </trkpt>
      <trkpt lat="47.03555" lon="-1.65524">
        <ele>11</ele>
        <time>2021-06-11T10:26:46Z</time>
      </trkpt>
      <trkpt lat="47.03518" lon="-1.65567">
        <ele>12</ele>
        <time>2021-06-11T10:26:55Z</time>
      </trkpt>
      <trkpt lat="47.03478" lon="-1.65624">
        <ele>13</ele>
        <time>2021-06-11T10:27:05Z</time>
      </trkpt>
      <trkpt lat="47.0344" lon="-1.65687">
        <ele>15</ele>
        <time>2021-06-11T10:27:15Z</time>
      </trkpt>
      <trkpt lat="47.03403" lon="-1.65763">
        <ele>17</ele>
        <time>2021-06-11T10:27:26Z</time>
      </trkpt>
      <trkpt lat="47.03397" lon="-1.65785">
        <ele>17</ele>
        <time>2021-06-11T10:27:29Z</time>
      </trkpt>
      <trkpt lat="47.03396" lon="-1.65797">
        <ele>17</ele>
        <time>2021-06-11T10:27:31Z</time>
      </trkpt>
      <trkpt lat="47.03397" lon="-1.65822">
        <ele>17</ele>
        <time>2021-06-11T10:27:34Z</time>
      </trkpt>
      <trkpt lat="47.03398" lon="-1.65832">
        <ele>17</ele>
        <time>2021-06-11T10:27:35Z</time>
      </trkpt>
      <trkpt lat="47.03436" lon="-1.66006">
        <ele>19</ele>
        <time>2021-06-11T10:27:57Z</time>
      </trkpt>
      <trkpt lat="47.03435" lon="-1.66026">
        <ele>19</ele>
        <time>2021-06-11T10:27:59Z</time>
      </trkpt>
      <trkpt lat="47.03426" lon="-1.66044">
        <ele>20</ele>
        <time>2021-06-11T10:28:02Z</time>
      </trkpt>
      <trkpt lat="47.03422" lon="-1.66048">
        <ele>20</ele>
        <time>2021-06-11T10:28:03Z</time>
      </trkpt>
      <trkpt lat="47.03425" lon="-1.66057">
        <ele>20</ele>
        <time>2021-06-11T10:28:04Z</time>
      </trkpt>
      <trkpt lat="47.03426" lon="-1.66067">
        <ele>20</ele>
        <time>2021-06-11T10:28:05Z</time>
      </trkpt>
      <trkpt lat="47.03424" lon="-1.66077">
        <ele>20</ele>
        <time>2021-06-11T10:28:07Z</time>
      </trkpt>
      <trkpt lat="47.0342" lon="-1.66086">
        <ele>20</ele>
        <time>2021-06-11T10:28:08Z</time>
      </trkpt>
      <trkpt lat="47.03416" lon="-1.66092">
        <ele>20</ele>
        <time>2021-06-11T10:28:09Z</time>
      </trkpt>
      <trkpt lat="47.03411" lon="-1.66095">
        <ele>20</ele>
        <time>2021-06-11T10:28:10Z</time>
      </trkpt>
      <trkpt lat="47.03405" lon="-1.66097">
        <ele>20</ele>
        <time>2021-06-11T10:28:11Z</time>
      </trkpt>
      <trkpt lat="47.03398" lon="-1.66096">
        <ele>20</ele>
        <time>2021-06-11T10:28:12Z</time>
      </trkpt>
      <trkpt lat="47.03393" lon="-1.66093">
        <ele>20</ele>
        <time>2021-06-11T10:28:13Z</time>
      </trkpt>
      <trkpt lat="47.03388" lon="-1.66087">
        <ele>20</ele>
        <time>2021-06-11T10:28:14Z</time>
      </trkpt>
      <trkpt lat="47.03383" lon="-1.66077">
        <ele>20</ele>
        <time>2021-06-11T10:28:16Z</time>
      </trkpt>
      <trkpt lat="47.03382" lon="-1.66064">
        <ele>20</ele>
        <time>2021-06-11T10:28:18Z</time>
      </trkpt>
      <trkpt lat="47.03384" lon="-1.66052">
        <ele>20</ele>
        <time>2021-06-11T10:28:19Z</time>
      </trkpt>
      <trkpt lat="47.03388" lon="-1.66043">
        <ele>20</ele>
        <time>2021-06-11T10:28:20Z</time>
      </trkpt>
      <trkpt lat="47.03394" lon="-1.66037">
        <ele>20</ele>
        <time>2021-06-11T10:28:22Z</time>
      </trkpt>
      <trkpt lat="47.03396" lon="-1.66026">
        <ele>20</ele>
        <time>2021-06-11T10:28:23Z</time>
      </trkpt>
      <trkpt lat="47.03399" lon="-1.66009">
        <ele>20</ele>
        <time>2021-06-11T10:28:25Z</time>
      </trkpt>
      <trkpt lat="47.03402" lon="-1.65994">
        <ele>20</ele>
        <time>2021-06-11T10:28:27Z</time>
      </trkpt>
      <trkpt lat="47.034" lon="-1.65969">
        <ele>19</ele>
        <time>2021-06-11T10:28:30Z</time>
      </trkpt>
      <trkpt lat="47.03397" lon="-1.65929">
        <ele>19</ele>
        <time>2021-06-11T10:28:35Z</time>
      </trkpt>
      <trkpt lat="47.03393" lon="-1.65905">
        <ele>18</ele>
        <time>2021-06-11T10:28:38Z</time>
      </trkpt>
      <trkpt lat="47.03385" lon="-1.65875">
        <ele>17</ele>
        <time>2021-06-11T10:28:42Z</time>
      </trkpt>
      <trkpt lat="47.03374" lon="-1.6585">
        <ele>16</ele>
        <time>2021-06-11T10:28:46Z</time>
      </trkpt>
      <trkpt lat="47.03337" lon="-1.65771">
        <ele>16</ele>
        <time>2021-06-11T10:28:57Z</time>
      </trkpt>
      <trkpt lat="47.03329" lon="-1.65753">
        <ele>16</ele>
        <time>2021-06-11T10:29:00Z</time>
      </trkpt>
      <trkpt lat="47.03323" lon="-1.65738">
        <ele>16</ele>
        <time>2021-06-11T10:29:02Z</time>
      </trkpt>
      <trkpt lat="47.03315" lon="-1.65706">
        <ele>17</ele>
        <time>2021-06-11T10:29:06Z</time>
      </trkpt>
      <trkpt lat="47.03313" lon="-1.65679">
        <ele>17</ele>
        <time>2021-06-11T10:29:09Z</time>
      </trkpt>
      <trkpt lat="47.03313" lon="-1.65652">
        <ele>17</ele>
        <time>2021-06-11T10:29:13Z</time>
      </trkpt>
      <trkpt lat="47.03318" lon="-1.65611">
        <ele>17</ele>
        <time>2021-06-11T10:29:18Z</time>
      </trkpt>
      <trkpt lat="47.03313" lon="-1.65608">
        <ele>17</ele>
        <time>2021-06-11T10:29:19Z</time>
      </trkpt>
      <trkpt lat="47.03304" lon="-1.65595">
        <ele>17</ele>
        <time>2021-06-11T10:29:21Z</time>
      </trkpt>
      <trkpt lat="47.03302" lon="-1.65586">
        <ele>17</ele>
        <time>2021-06-11T10:29:22Z</time>
      </trkpt>
      <trkpt lat="47.03302" lon="-1.65578">
        <ele>17</ele>
        <time>2021-06-11T10:29:23Z</time>
      </trkpt>
      <trkpt lat="47.03303" lon="-1.6557">
        <ele>17</ele>
        <time>2021-06-11T10:29:24Z</time>
      </trkpt>
      <trkpt lat="47.03305" lon="-1.65564">
        <ele>17</ele>
        <time>2021-06-11T10:29:25Z</time>
      </trkpt>
      <trkpt lat="47.03308" lon="-1.65559">
        <ele>17</ele>
        <time>2021-06-11T10:29:26Z</time>
      </trkpt>
      <trkpt lat="47.03311" lon="-1.65554">
        <ele>17</ele>
        <time>2021-06-11T10:29:26Z</time>
      </trkpt>
      <trkpt lat="47.03315" lon="-1.65551">
        <ele>17</ele>
        <time>2021-06-11T10:29:27Z</time>
      </trkpt>
      <trkpt lat="47.03322" lon="-1.65549">
        <ele>17</ele>
        <time>2021-06-11T10:29:28Z</time>
      </trkpt>
      <trkpt lat="47.03329" lon="-1.6555">
        <ele>17</ele>
        <time>2021-06-11T10:29:30Z</time>
      </trkpt>
      <trkpt lat="47.03335" lon="-1.65554">
        <ele>16</ele>
        <time>2021-06-11T10:29:31Z</time>
      </trkpt>
      <trkpt lat="47.0334" lon="-1.65561">
        <ele>16</ele>
        <time>2021-06-11T10:29:32Z</time>
      </trkpt>
      <trkpt lat="47.03383" lon="-1.65522">
        <ele>15</ele>
        <time>2021-06-11T10:29:41Z</time>
      </trkpt>
      <trkpt lat="47.03427" lon="-1.6551">
        <ele>14</ele>
        <time>2021-06-11T10:29:49Z</time>
      </trkpt>
      <trkpt lat="47.03435" lon="-1.65506">
        <ele>14</ele>
        <time>2021-06-11T10:29:51Z</time>
      </trkpt>
      <trkpt lat="47.03446" lon="-1.65498">
        <ele>13</ele>
        <time>2021-06-11T10:29:53Z</time>
      </trkpt>
      <trkpt lat="47.03454" lon="-1.65491">
        <ele>13</ele>
        <time>2021-06-11T10:29:54Z</time>
      </trkpt>
      <trkpt lat="47.03453" lon="-1.65481">
        <ele>13</ele>
        <time>2021-06-11T10:29:56Z</time>
      </trkpt>
      <trkpt lat="47.03456" lon="-1.65476">
        <ele>13</ele>
        <time>2021-06-11T10:29:56Z</time>
      </trkpt>
      <trkpt lat="47.0346" lon="-1.65473">
        <ele>13</ele>
        <time>2021-06-11T10:29:57Z</time>
      </trkpt>
      <trkpt lat="47.03466" lon="-1.65477">
        <ele>13</ele>
        <time>2021-06-11T10:29:58Z</time>
      </trkpt>
      <trkpt lat="47.0348" lon="-1.65454">
        <ele>13</ele>
        <time>2021-06-11T10:30:02Z</time>
      </trkpt>
      <trkpt lat="47.03527" lon="-1.65331">
        <ele>12</ele>
        <time>2021-06-11T10:30:19Z</time>
      </trkpt>
      <trkpt lat="47.03656" lon="-1.64977">
        <ele>8</ele>
        <time>2021-06-11T10:31:08Z</time>
      </trkpt>
      <trkpt lat="47.03652" lon="-1.64969">
        <ele>8</ele>
        <time>2021-06-11T10:31:09Z</time>
      </trkpt>
      <trkpt lat="47.03653" lon="-1.64963">
        <ele>8</ele>
        <time>2021-06-11T10:31:10Z</time>
      </trkpt>
      <trkpt lat="47.03659" lon="-1.64958">
        <ele>8</ele>
        <time>2021-06-11T10:31:11Z</time>
      </trkpt>
      <trkpt lat="47.03661" lon="-1.64959">
        <ele>8</ele>
        <time>2021-06-11T10:31:11Z</time>
      </trkpt>
      <trkpt lat="47.03681" lon="-1.64911">
        <ele>8</ele>
        <time>2021-06-11T10:31:18Z</time>
      </trkpt>
      <trkpt lat="47.03727" lon="-1.64786">
        <ele>7</ele>
        <time>2021-06-11T10:31:36Z</time>
      </trkpt>
      <trkpt lat="47.03732" lon="-1.64753">
        <ele>6</ele>
        <time>2021-06-11T10:31:40Z</time>
      </trkpt>
      <trkpt lat="47.03731" lon="-1.64739">
        <ele>6</ele>
        <time>2021-06-11T10:31:41Z</time>
      </trkpt>
      <trkpt lat="47.03738" lon="-1.64719">
        <ele>6</ele>
        <time>2021-06-11T10:31:44Z</time>
      </trkpt>
      <trkpt lat="47.03742" lon="-1.64704">
        <ele>6</ele>
        <time>2021-06-11T10:31:46Z</time>
      </trkpt>
      <trkpt lat="47.03756" lon="-1.64529">
        <ele>6</ele>
        <time>2021-06-11T10:32:07Z</time>
      </trkpt>
      <trkpt lat="47.03756" lon="-1.64507">
        <ele>6</ele>
        <time>2021-06-11T10:32:10Z</time>
      </trkpt>
      <trkpt lat="47.03754" lon="-1.64446">
        <ele>6</ele>
        <time>2021-06-11T10:32:17Z</time>
      </trkpt>
      <trkpt lat="47.03745" lon="-1.64408">
        <ele>6</ele>
        <time>2021-06-11T10:32:22Z</time>
      </trkpt>
      <trkpt lat="47.03726" lon="-1.64349">
        <ele>5</ele>
        <time>2021-06-11T10:32:30Z</time>
      </trkpt>
      <trkpt lat="47.0368" lon="-1.64258">
        <ele>6</ele>
        <time>2021-06-11T10:32:44Z</time>
      </trkpt>
      <trkpt lat="47.03658" lon="-1.64208">
        <ele>7</ele>
        <time>2021-06-11T10:32:51Z</time>
      </trkpt>
      <trkpt lat="47.03648" lon="-1.64216">
        <ele>7</ele>
        <time>2021-06-11T10:32:53Z</time>
      </trkpt>
      <trkpt lat="47.03642" lon="-1.64216">
        <ele>7</ele>
        <time>2021-06-11T10:32:54Z</time>
      </trkpt>
      <trkpt lat="47.03637" lon="-1.6421">
        <ele>7</ele>
        <time>2021-06-11T10:32:55Z</time>
      </trkpt>
      <trkpt lat="47.03572" lon="-1.64051">
        <ele>6</ele>
        <time>2021-06-11T10:33:18Z</time>
      </trkpt>
      <trkpt lat="47.03572" lon="-1.64033">
        <ele>6</ele>
        <time>2021-06-11T10:33:20Z</time>
      </trkpt>
      <trkpt lat="47.03574" lon="-1.64026">
        <ele>5</ele>
        <time>2021-06-11T10:33:21Z</time>
      </trkpt>
      <trkpt lat="47.03579" lon="-1.64019">
        <ele>5</ele>
        <time>2021-06-11T10:33:22Z</time>
      </trkpt>
      <trkpt lat="47.03533" lon="-1.6391">
        <ele>3</ele>
        <time>2021-06-11T10:33:38Z</time>
      </trkpt>
      <trkpt lat="47.0353" lon="-1.63912">
        <ele>3</ele>
        <time>2021-06-11T10:33:38Z</time>
      </trkpt>
      <trkpt lat="47.03523" lon="-1.6391">
        <ele>3</ele>
        <time>2021-06-11T10:33:40Z</time>
      </trkpt>
      <trkpt lat="47.03519" lon="-1.63903">
        <ele>3</ele>
        <time>2021-06-11T10:33:41Z</time>
      </trkpt>
      <trkpt lat="47.03514" lon="-1.63891">
        <ele>4</ele>
        <time>2021-06-11T10:33:42Z</time>
      </trkpt>
      <trkpt lat="47.03515" lon="-1.63882">
        <ele>4</ele>
        <time>2021-06-11T10:33:44Z</time>
      </trkpt>
      <trkpt lat="47.03284" lon="-1.63672">
        <ele>7</ele>
        <time>2021-06-11T10:34:32Z</time>
      </trkpt>
      <trkpt lat="47.03266" lon="-1.63652">
        <ele>7</ele>
        <time>2021-06-11T10:34:36Z</time>
      </trkpt>
      <trkpt lat="47.0325" lon="-1.63637">
        <ele>7</ele>
        <time>2021-06-11T10:34:39Z</time>
      </trkpt>
      <trkpt lat="47.03237" lon="-1.63631">
        <ele>8</ele>
        <time>2021-06-11T10:34:42Z</time>
      </trkpt>
      <trkpt lat="47.03227" lon="-1.63621">
        <ele>8</ele>
        <time>2021-06-11T10:34:44Z</time>
      </trkpt>
      <trkpt lat="47.03235" lon="-1.63602">
        <ele>8</ele>
        <time>2021-06-11T10:34:47Z</time>
      </trkpt>
      <trkpt lat="47.03236" lon="-1.63587">
        <ele>8</ele>
        <time>2021-06-11T10:34:48Z</time>
      </trkpt>
      <trkpt lat="47.03234" lon="-1.63575">
        <ele>8</ele>
        <time>2021-06-11T10:34:50Z</time>
      </trkpt>
      <trkpt lat="47.03109" lon="-1.62969">
        <ele>5</ele>
        <time>2021-06-11T10:36:07Z</time>
      </trkpt>
      <trkpt lat="47.03097" lon="-1.62934">
        <ele>5</ele>
        <time>2021-06-11T10:36:11Z</time>
      </trkpt>
      <trkpt lat="47.03093" lon="-1.62927">
        <ele>5</ele>
        <time>2021-06-11T10:36:13Z</time>
      </trkpt>
      <trkpt lat="47.03087" lon="-1.6292">
        <ele>5</ele>
        <time>2021-06-11T10:36:14Z</time>
      </trkpt>
      <trkpt lat="47.03085" lon="-1.62916">
        <ele>5</ele>
        <time>2021-06-11T10:36:15Z</time>
      </trkpt>
      <trkpt lat="47.03085" lon="-1.6291">
        <ele>5</ele>
        <time>2021-06-11T10:36:15Z</time>
      </trkpt>
      <trkpt lat="47.03088" lon="-1.62897">
        <ele>5</ele>
        <time>2021-06-11T10:36:17Z</time>
      </trkpt>
      <trkpt lat="47.03086" lon="-1.62859">
        <ele>6</ele>
        <time>2021-06-11T10:36:22Z</time>
      </trkpt>
      <trkpt lat="47.03017" lon="-1.62523">
        <ele>7</ele>
        <time>2021-06-11T10:37:04Z</time>
      </trkpt>
      <trkpt lat="47.03004" lon="-1.62496">
        <ele>7</ele>
        <time>2021-06-11T10:37:08Z</time>
      </trkpt>
      <trkpt lat="47.02997" lon="-1.62491">
        <ele>7</ele>
        <time>2021-06-11T10:37:09Z</time>
      </trkpt>
      <trkpt lat="47.02992" lon="-1.62483">
        <ele>7</ele>
        <time>2021-06-11T10:37:11Z</time>
      </trkpt>
      <trkpt lat="47.0299" lon="-1.62473">
        <ele>7</ele>
        <time>2021-06-11T10:37:12Z</time>
      </trkpt>
      <trkpt lat="47.0299" lon="-1.62471">
        <ele>7</ele>
        <time>2021-06-11T10:37:12Z</time>
      </trkpt>
      <trkpt lat="47.02992" lon="-1.62462">
        <ele>6</ele>
        <time>2021-06-11T10:37:13Z</time>
      </trkpt>
      <trkpt lat="47.0299" lon="-1.62453">
        <ele>6</ele>
        <time>2021-06-11T10:37:15Z</time>
      </trkpt>
      <trkpt lat="47.02989" lon="-1.62445">
        <ele>6</ele>
        <time>2021-06-11T10:37:16Z</time>
      </trkpt>
      <trkpt lat="47.02984" lon="-1.6243">
        <ele>6</ele>
        <time>2021-06-11T10:37:18Z</time>
      </trkpt>
      <trkpt lat="47.02975" lon="-1.62414">
        <ele>6</ele>
        <time>2021-06-11T10:37:20Z</time>
      </trkpt>
      <trkpt lat="47.02896" lon="-1.62291">
        <ele>7</ele>
        <time>2021-06-11T10:37:41Z</time>
      </trkpt>
      <trkpt lat="47.02838" lon="-1.62203">
        <ele>8</ele>
        <time>2021-06-11T10:37:55Z</time>
      </trkpt>
      <trkpt lat="47.02812" lon="-1.62164">
        <ele>9</ele>
        <time>2021-06-11T10:38:02Z</time>
      </trkpt>
      <trkpt lat="47.02784" lon="-1.62116">
        <ele>9</ele>
        <time>2021-06-11T10:38:10Z</time>
      </trkpt>
      <trkpt lat="47.02761" lon="-1.62069">
        <ele>10</ele>
        <time>2021-06-11T10:38:17Z</time>
      </trkpt>
      <trkpt lat="47.02685" lon="-1.61886">
        <ele>12</ele>
        <time>2021-06-11T10:38:43Z</time>
      </trkpt>
      <trkpt lat="47.02666" lon="-1.61898">
        <ele>13</ele>
        <time>2021-06-11T10:38:46Z</time>
      </trkpt>
      <trkpt lat="47.02652" lon="-1.61903">
        <ele>13</ele>
        <time>2021-06-11T10:38:49Z</time>
      </trkpt>
      <trkpt lat="47.02596" lon="-1.61912">
        <ele>15</ele>
        <time>2021-06-11T10:38:59Z</time>
      </trkpt>
      <trkpt lat="47.02559" lon="-1.61914">
        <ele>15</ele>
        <time>2021-06-11T10:39:06Z</time>
      </trkpt>
      <trkpt lat="47.02528" lon="-1.61909">
        <ele>15</ele>
        <time>2021-06-11T10:39:11Z</time>
      </trkpt>
      <trkpt lat="47.02476" lon="-1.61885">
        <ele>15</ele>
        <time>2021-06-11T10:39:21Z</time>
      </trkpt>
      <trkpt lat="47.02463" lon="-1.61885">
        <ele>15</ele>
        <time>2021-06-11T10:39:23Z</time>
      </trkpt>
      <trkpt lat="47.02456" lon="-1.61888">
        <ele>16</ele>
        <time>2021-06-11T10:39:24Z</time>
      </trkpt>
      <trkpt lat="47.02434" lon="-1.61912">
        <ele>16</ele>
        <time>2021-06-11T10:39:29Z</time>
      </trkpt>
      <trkpt lat="47.0236" lon="-1.62004">
        <ele>17</ele>
        <time>2021-06-11T10:39:47Z</time>
      </trkpt>
      <trkpt lat="47.02337" lon="-1.62028">
        <ele>16</ele>
        <time>2021-06-11T10:39:52Z</time>
      </trkpt>
      <trkpt lat="47.02276" lon="-1.62085">
        <ele>17</ele>
        <time>2021-06-11T10:40:05Z</time>
      </trkpt>
      <trkpt lat="47.02249" lon="-1.6212">
        <ele>17</ele>
        <time>2021-06-11T10:40:11Z</time>
      </trkpt>
      <trkpt lat="47.02226" lon="-1.62154">
        <ele>18</ele>
        <time>2021-06-11T10:40:17Z</time>
      </trkpt>
      <trkpt lat="47.02201" lon="-1.62176">
        <ele>19</ele>
        <time>2021-06-11T10:40:22Z</time>
      </trkpt>
      <trkpt lat="47.02174" lon="-1.62195">
        <ele>19</ele>
        <time>2021-06-11T10:40:27Z</time>
      </trkpt>
      <trkpt lat="47.02158" lon="-1.62204">
        <ele>20</ele>
        <time>2021-06-11T10:40:30Z</time>
      </trkpt>
      <trkpt lat="47.02125" lon="-1.62208">
        <ele>20</ele>
        <time>2021-06-11T10:40:36Z</time>
      </trkpt>
      <trkpt lat="47.02117" lon="-1.62191">
        <ele>20</ele>
        <time>2021-06-11T10:40:39Z</time>
      </trkpt>
      <trkpt lat="47.0211" lon="-1.62182">
        <ele>20</ele>
        <time>2021-06-11T10:40:40Z</time>
      </trkpt>
      <trkpt lat="47.02108" lon="-1.62183">
        <ele>20</ele>
        <time>2021-06-11T10:40:41Z</time>
      </trkpt>
      <trkpt lat="47.02103" lon="-1.62183">
        <ele>20</ele>
        <time>2021-06-11T10:40:42Z</time>
      </trkpt>
      <trkpt lat="47.02101" lon="-1.6218">
        <ele>20</ele>
        <time>2021-06-11T10:40:42Z</time>
      </trkpt>
      <trkpt lat="47.02094" lon="-1.62185">
        <ele>20</ele>
        <time>2021-06-11T10:40:44Z</time>
      </trkpt>
      <trkpt lat="47.02058" lon="-1.62231">
        <ele>20</ele>
        <time>2021-06-11T10:40:52Z</time>
      </trkpt>
      <trkpt lat="47.02045" lon="-1.62243">
        <ele>20</ele>
        <time>2021-06-11T10:40:55Z</time>
      </trkpt>
      <trkpt lat="47.01966" lon="-1.62295">
        <ele>20</ele>
        <time>2021-06-11T10:41:10Z</time>
      </trkpt>
      <trkpt lat="47.01905" lon="-1.62341">
        <ele>21</ele>
        <time>2021-06-11T10:41:22Z</time>
      </trkpt>
      <trkpt lat="47.01753" lon="-1.62473">
        <ele>26</ele>
        <time>2021-06-11T10:41:54Z</time>
      </trkpt>
      <trkpt lat="47.01743" lon="-1.62486">
        <ele>26</ele>
        <time>2021-06-11T10:41:56Z</time>
      </trkpt>
      <trkpt lat="47.01739" lon="-1.62501">
        <ele>27</ele>
        <time>2021-06-11T10:41:58Z</time>
      </trkpt>
      <trkpt lat="47.01741" lon="-1.62562">
        <ele>28</ele>
        <time>2021-06-11T10:42:06Z</time>
      </trkpt>
      <trkpt lat="47.01747" lon="-1.62587">
        <ele>28</ele>
        <time>2021-06-11T10:42:09Z</time>
      </trkpt>
      <trkpt lat="47.01769" lon="-1.62647">
        <ele>29</ele>
        <time>2021-06-11T10:42:17Z</time>
      </trkpt>
      <trkpt lat="47.01753" lon="-1.62669">
        <ele>29</ele>
        <time>2021-06-11T10:42:21Z</time>
      </trkpt>
      <trkpt lat="47.01728" lon="-1.62709">
        <ele>28</ele>
        <time>2021-06-11T10:42:27Z</time>
      </trkpt>
      <trkpt lat="47.01607" lon="-1.62534">
        <ele>25</ele>
        <time>2021-06-11T10:42:58Z</time>
      </trkpt>
      <trkpt lat="47.01574" lon="-1.62485">
        <ele>25</ele>
        <time>2021-06-11T10:43:06Z</time>
      </trkpt>
      <trkpt lat="47.01547" lon="-1.62448">
        <ele>25</ele>
        <time>2021-06-11T10:43:13Z</time>
      </trkpt>
      <trkpt lat="47.01449" lon="-1.62306">
        <ele>26</ele>
        <time>2021-06-11T10:43:37Z</time>
      </trkpt>
      <trkpt lat="47.01358" lon="-1.62172">
        <ele>27</ele>
        <time>2021-06-11T10:44:00Z</time>
      </trkpt>
      <trkpt lat="47.01277" lon="-1.62054">
        <ele>27</ele>
        <time>2021-06-11T10:44:20Z</time>
      </trkpt>
      <trkpt lat="47.01199" lon="-1.6194">
        <ele>26</ele>
        <time>2021-06-11T10:44:40Z</time>
      </trkpt>
      <trkpt lat="47.01171" lon="-1.61903">
        <ele>26</ele>
        <time>2021-06-11T10:44:47Z</time>
      </trkpt>
      <trkpt lat="47.01152" lon="-1.61882">
        <ele>26</ele>
        <time>2021-06-11T10:44:51Z</time>
      </trkpt>
      <trkpt lat="47.01122" lon="-1.61852">
        <ele>26</ele>
        <time>2021-06-11T10:44:57Z</time>
      </trkpt>
      <trkpt lat="47.01111" lon="-1.61843">
        <ele>26</ele>
        <time>2021-06-11T10:45:00Z</time>
      </trkpt>
      <trkpt lat="47.01069" lon="-1.61815">
        <ele>26</ele>
        <time>2021-06-11T10:45:08Z</time>
      </trkpt>
      <trkpt lat="47.01033" lon="-1.61797">
        <ele>25</ele>
        <time>2021-06-11T10:45:15Z</time>
      </trkpt>
      <trkpt lat="47.01013" lon="-1.61789">
        <ele>25</ele>
        <time>2021-06-11T10:45:18Z</time>
      </trkpt>
      <trkpt lat="47.01012" lon="-1.61788">
        <ele>25</ele>
        <time>2021-06-11T10:45:19Z</time>
      </trkpt>
      <trkpt lat="47.01001" lon="-1.61784">
        <ele>25</ele>
        <time>2021-06-11T10:45:21Z</time>
      </trkpt>
      <trkpt lat="47.00994" lon="-1.61781">
        <ele>25</ele>
        <time>2021-06-11T10:45:22Z</time>
      </trkpt>
      <trkpt lat="47.00955" lon="-1.61764">
        <ele>24</ele>
        <time>2021-06-11T10:45:29Z</time>
      </trkpt>
      <trkpt lat="47.00911" lon="-1.61746">
        <ele>23</ele>
        <time>2021-06-11T10:45:37Z</time>
      </trkpt>
      <trkpt lat="47.00861" lon="-1.61725">
        <ele>21</ele>
        <time>2021-06-11T10:45:46Z</time>
      </trkpt>
      <trkpt lat="47.00532" lon="-1.61586">
        <ele>23</ele>
        <time>2021-06-11T10:46:47Z</time>
      </trkpt>
      <trkpt lat="47.00497" lon="-1.6158">
        <ele>23</ele>
        <time>2021-06-11T10:46:54Z</time>
      </trkpt>
      <trkpt lat="47.00452" lon="-1.61588">
        <ele>24</ele>
        <time>2021-06-11T10:47:02Z</time>
      </trkpt>
      <trkpt lat="47.0043" lon="-1.61592">
        <ele>24</ele>
        <time>2021-06-11T10:47:06Z</time>
      </trkpt>
      <trkpt lat="47.00399" lon="-1.61597">
        <ele>25</ele>
        <time>2021-06-11T10:47:11Z</time>
      </trkpt>
      <trkpt lat="47.00366" lon="-1.61601">
        <ele>26</ele>
        <time>2021-06-11T10:47:17Z</time>
      </trkpt>
      <trkpt lat="47.00345" lon="-1.616">
        <ele>27</ele>
        <time>2021-06-11T10:47:21Z</time>
      </trkpt>
      <trkpt lat="47.00315" lon="-1.61594">
        <ele>28</ele>
        <time>2021-06-11T10:47:26Z</time>
      </trkpt>
      <trkpt lat="47.00298" lon="-1.61587">
        <ele>28</ele>
        <time>2021-06-11T10:47:29Z</time>
      </trkpt>
      <trkpt lat="47.00277" lon="-1.61575">
        <ele>28</ele>
        <time>2021-06-11T10:47:33Z</time>
      </trkpt>
      <trkpt lat="47.00256" lon="-1.61552">
        <ele>29</ele>
        <time>2021-06-11T10:47:38Z</time>
      </trkpt>
      <trkpt lat="47.00234" lon="-1.61521">
        <ele>30</ele>
        <time>2021-06-11T10:47:43Z</time>
      </trkpt>
      <trkpt lat="47.00224" lon="-1.61507">
        <ele>30</ele>
        <time>2021-06-11T10:47:46Z</time>
      </trkpt>
      <trkpt lat="47.0022" lon="-1.61499">
        <ele>30</ele>
        <time>2021-06-11T10:47:47Z</time>
      </trkpt>
      <trkpt lat="47.00206" lon="-1.61474">
        <ele>30</ele>
        <time>2021-06-11T10:47:51Z</time>
      </trkpt>
      <trkpt lat="47.00187" lon="-1.61434">
        <ele>29</ele>
        <time>2021-06-11T10:47:57Z</time>
      </trkpt>
      <trkpt lat="47.00175" lon="-1.614">
        <ele>29</ele>
        <time>2021-06-11T10:48:02Z</time>
      </trkpt>
      <trkpt lat="47.00156" lon="-1.61341">
        <ele>30</ele>
        <time>2021-06-11T10:48:10Z</time>
      </trkpt>
      <trkpt lat="47.00134" lon="-1.6129">
        <ele>31</ele>
        <time>2021-06-11T10:48:17Z</time>
      </trkpt>
      <trkpt lat="47.00098" lon="-1.61215">
        <ele>32</ele>
        <time>2021-06-11T10:48:28Z</time>
      </trkpt>
      <trkpt lat="47.00094" lon="-1.61207">
        <ele>32</ele>
        <time>2021-06-11T10:48:29Z</time>
      </trkpt>
      <trkpt lat="47.00048" lon="-1.61112">
        <ele>34</ele>
        <time>2021-06-11T10:48:43Z</time>
      </trkpt>
      <trkpt lat="46.99959" lon="-1.60927">
        <ele>33</ele>
        <time>2021-06-11T10:49:11Z</time>
      </trkpt>
      <trkpt lat="46.99954" lon="-1.60914">
        <ele>33</ele>
        <time>2021-06-11T10:49:13Z</time>
      </trkpt>
      <trkpt lat="46.9995" lon="-1.60902">
        <ele>33</ele>
        <time>2021-06-11T10:49:14Z</time>
      </trkpt>
      <trkpt lat="46.99947" lon="-1.60886">
        <ele>33</ele>
        <time>2021-06-11T10:49:16Z</time>
      </trkpt>
      <trkpt lat="46.99931" lon="-1.60791">
        <ele>33</ele>
        <time>2021-06-11T10:49:28Z</time>
      </trkpt>
      <trkpt lat="46.99857" lon="-1.60515">
        <ele>32</ele>
        <time>2021-06-11T10:50:04Z</time>
      </trkpt>
      <trkpt lat="46.99838" lon="-1.60458">
        <ele>32</ele>
        <time>2021-06-11T10:50:12Z</time>
      </trkpt>
      <trkpt lat="46.99817" lon="-1.60413">
        <ele>32</ele>
        <time>2021-06-11T10:50:18Z</time>
      </trkpt>
      <trkpt lat="46.99786" lon="-1.60331">
        <ele>31</ele>
        <time>2021-06-11T10:50:30Z</time>
      </trkpt>
      <trkpt lat="46.99782" lon="-1.60318">
        <ele>30</ele>
        <time>2021-06-11T10:50:32Z</time>
      </trkpt>
      <trkpt lat="46.9977" lon="-1.60265">
        <ele>30</ele>
        <time>2021-06-11T10:50:38Z</time>
      </trkpt>
      <trkpt lat="46.99758" lon="-1.60215">
        <ele>29</ele>
        <time>2021-06-11T10:50:45Z</time>
      </trkpt>
      <trkpt lat="46.99723" lon="-1.60093">
        <ele>27</ele>
        <time>2021-06-11T10:51:01Z</time>
      </trkpt>
      <trkpt lat="46.9971" lon="-1.60051">
        <ele>28</ele>
        <time>2021-06-11T10:51:06Z</time>
      </trkpt>
      <trkpt lat="46.99701" lon="-1.60027">
        <ele>28</ele>
        <time>2021-06-11T10:51:10Z</time>
      </trkpt>
      <trkpt lat="46.99686" lon="-1.59995">
        <ele>29</ele>
        <time>2021-06-11T10:51:14Z</time>
      </trkpt>
      <trkpt lat="46.99672" lon="-1.59966">
        <ele>29</ele>
        <time>2021-06-11T10:51:19Z</time>
      </trkpt>
      <trkpt lat="46.99664" lon="-1.59932">
        <ele>28</ele>
        <time>2021-06-11T10:51:23Z</time>
      </trkpt>
      <trkpt lat="46.99652" lon="-1.59891">
        <ele>27</ele>
        <time>2021-06-11T10:51:29Z</time>
      </trkpt>
      <trkpt lat="46.99639" lon="-1.59845">
        <ele>26</ele>
        <time>2021-06-11T10:51:35Z</time>
      </trkpt>
      <trkpt lat="46.99634" lon="-1.59828">
        <ele>26</ele>
        <time>2021-06-11T10:51:37Z</time>
      </trkpt>
      <trkpt lat="46.99628" lon="-1.59814">
        <ele>26</ele>
        <time>2021-06-11T10:51:39Z</time>
      </trkpt>
      <trkpt lat="46.99619" lon="-1.59798">
        <ele>26</ele>
        <time>2021-06-11T10:51:41Z</time>
      </trkpt>
      <trkpt lat="46.99608" lon="-1.59782">
        <ele>27</ele>
        <time>2021-06-11T10:51:44Z</time>
      </trkpt>
      <trkpt lat="46.99585" lon="-1.59757">
        <ele>28</ele>
        <time>2021-06-11T10:51:49Z</time>
      </trkpt>
      <trkpt lat="46.9958" lon="-1.59751">
        <ele>28</ele>
        <time>2021-06-11T10:51:50Z</time>
      </trkpt>
      <trkpt lat="46.99575" lon="-1.59744">
        <ele>28</ele>
        <time>2021-06-11T10:51:52Z</time>
      </trkpt>
      <trkpt lat="46.99561" lon="-1.59722">
        <ele>27</ele>
        <time>2021-06-11T10:51:55Z</time>
      </trkpt>
      <trkpt lat="46.99534" lon="-1.59679">
        <ele>27</ele>
        <time>2021-06-11T10:52:02Z</time>
      </trkpt>
      <trkpt lat="46.99524" lon="-1.59663">
        <ele>27</ele>
        <time>2021-06-11T10:52:05Z</time>
      </trkpt>
      <trkpt lat="46.99512" lon="-1.59645">
        <ele>26</ele>
        <time>2021-06-11T10:52:08Z</time>
      </trkpt>
      <trkpt lat="46.99502" lon="-1.59629">
        <ele>26</ele>
        <time>2021-06-11T10:52:11Z</time>
      </trkpt>
      <trkpt lat="46.99491" lon="-1.59603">
        <ele>26</ele>
        <time>2021-06-11T10:52:14Z</time>
      </trkpt>
      <trkpt lat="46.99489" lon="-1.596">
        <ele>26</ele>
        <time>2021-06-11T10:52:15Z</time>
      </trkpt>
      <trkpt lat="46.99483" lon="-1.59596">
        <ele>26</ele>
        <time>2021-06-11T10:52:16Z</time>
      </trkpt>
      <trkpt lat="46.99477" lon="-1.59595">
        <ele>26</ele>
        <time>2021-06-11T10:52:17Z</time>
      </trkpt>
      <trkpt lat="46.99471" lon="-1.59595">
        <ele>26</ele>
        <time>2021-06-11T10:52:18Z</time>
      </trkpt>
      <trkpt lat="46.99463" lon="-1.59597">
        <ele>26</ele>
        <time>2021-06-11T10:52:20Z</time>
      </trkpt>
      <trkpt lat="46.99411" lon="-1.5961">
        <ele>26</ele>
        <time>2021-06-11T10:52:29Z</time>
      </trkpt>
      <trkpt lat="46.99363" lon="-1.59615">
        <ele>26</ele>
        <time>2021-06-11T10:52:38Z</time>
      </trkpt>
      <trkpt lat="46.99356" lon="-1.59616">
        <ele>26</ele>
        <time>2021-06-11T10:52:39Z</time>
      </trkpt>
      <trkpt lat="46.9934" lon="-1.59617">
        <ele>26</ele>
        <time>2021-06-11T10:52:42Z</time>
      </trkpt>
      <trkpt lat="46.99341" lon="-1.59614">
        <ele>26</ele>
        <time>2021-06-11T10:52:42Z</time>
      </trkpt>
      <trkpt lat="46.99348" lon="-1.596">
        <ele>26</ele>
        <time>2021-06-11T10:52:44Z</time>
      </trkpt>
      <trkpt lat="46.99357" lon="-1.59577">
        <ele>26</ele>
        <time>2021-06-11T10:52:47Z</time>
      </trkpt>
      <trkpt lat="46.99361" lon="-1.59573">
        <ele>26</ele>
        <time>2021-06-11T10:52:48Z</time>
      </trkpt>
      <trkpt lat="46.99378" lon="-1.59535">
        <ele>25</ele>
        <time>2021-06-11T10:52:54Z</time>
      </trkpt>
      <trkpt lat="46.99394" lon="-1.59497">
        <ele>25</ele>
        <time>2021-06-11T10:52:59Z</time>
      </trkpt>
      <trkpt lat="46.99413" lon="-1.59454">
        <ele>26</ele>
        <time>2021-06-11T10:53:05Z</time>
      </trkpt>
      <trkpt lat="46.99423" lon="-1.59435">
        <ele>26</ele>
        <time>2021-06-11T10:53:08Z</time>
      </trkpt>
      <trkpt lat="46.99443" lon="-1.59409">
        <ele>25</ele>
        <time>2021-06-11T10:53:13Z</time>
      </trkpt>
      <trkpt lat="46.9945" lon="-1.59403">
        <ele>25</ele>
        <time>2021-06-11T10:53:15Z</time>
      </trkpt>
      <trkpt lat="46.99456" lon="-1.59397">
        <ele>24</ele>
        <time>2021-06-11T10:53:16Z</time>
      </trkpt>
      <trkpt lat="46.9954" lon="-1.59343">
        <ele>20</ele>
        <time>2021-06-11T10:53:32Z</time>
      </trkpt>
      <trkpt lat="46.99615" lon="-1.59296">
        <ele>19</ele>
        <time>2021-06-11T10:53:47Z</time>
      </trkpt>
      <trkpt lat="46.99656" lon="-1.5927">
        <ele>19</ele>
        <time>2021-06-11T10:53:55Z</time>
      </trkpt>
      <trkpt lat="46.99715" lon="-1.59233">
        <ele>19</ele>
        <time>2021-06-11T10:54:06Z</time>
      </trkpt>
      <trkpt lat="46.9976" lon="-1.59204">
        <ele>18</ele>
        <time>2021-06-11T10:54:15Z</time>
      </trkpt>
      <trkpt lat="46.99775" lon="-1.59194">
        <ele>18</ele>
        <time>2021-06-11T10:54:18Z</time>
      </trkpt>
      <trkpt lat="46.99788" lon="-1.59182">
        <ele>18</ele>
        <time>2021-06-11T10:54:20Z</time>
      </trkpt>
      <trkpt lat="46.99797" lon="-1.59171">
        <ele>17</ele>
        <time>2021-06-11T10:54:23Z</time>
      </trkpt>
      <trkpt lat="46.99805" lon="-1.59153">
        <ele>16</ele>
        <time>2021-06-11T10:54:25Z</time>
      </trkpt>
      <trkpt lat="46.99812" lon="-1.59125">
        <ele>16</ele>
        <time>2021-06-11T10:54:29Z</time>
      </trkpt>
      <trkpt lat="46.99821" lon="-1.59087">
        <ele>15</ele>
        <time>2021-06-11T10:54:34Z</time>
      </trkpt>
      <trkpt lat="46.99833" lon="-1.59042">
        <ele>14</ele>
        <time>2021-06-11T10:54:39Z</time>
      </trkpt>
      <trkpt lat="46.99836" lon="-1.5903">
        <ele>13</ele>
        <time>2021-06-11T10:54:41Z</time>
      </trkpt>
      <trkpt lat="46.99845" lon="-1.58992">
        <ele>13</ele>
        <time>2021-06-11T10:54:46Z</time>
      </trkpt>
      <trkpt lat="46.99852" lon="-1.58968">
        <ele>15</ele>
        <time>2021-06-11T10:54:49Z</time>
      </trkpt>
      <trkpt lat="46.99854" lon="-1.5896">
        <ele>15</ele>
        <time>2021-06-11T10:54:50Z</time>
      </trkpt>
      <trkpt lat="46.99857" lon="-1.58954">
        <ele>15</ele>
        <time>2021-06-11T10:54:51Z</time>
      </trkpt>
      <trkpt lat="46.99862" lon="-1.58947">
        <ele>16</ele>
        <time>2021-06-11T10:54:52Z</time>
      </trkpt>
      <trkpt lat="46.99866" lon="-1.58942">
        <ele>16</ele>
        <time>2021-06-11T10:54:53Z</time>
      </trkpt>
      <trkpt lat="46.99881" lon="-1.58931">
        <ele>16</ele>
        <time>2021-06-11T10:54:56Z</time>
      </trkpt>
      <trkpt lat="46.99991" lon="-1.58892">
        <ele>14</ele>
        <time>2021-06-11T10:55:16Z</time>
      </trkpt>
      <trkpt lat="47.00003" lon="-1.58889">
        <ele>14</ele>
        <time>2021-06-11T10:55:18Z</time>
      </trkpt>
      <trkpt lat="47.00012" lon="-1.58887">
        <ele>14</ele>
        <time>2021-06-11T10:55:20Z</time>
      </trkpt>
      <trkpt lat="47.00043" lon="-1.58884">
        <ele>12</ele>
        <time>2021-06-11T10:55:26Z</time>
      </trkpt>
      <trkpt lat="47.00058" lon="-1.58883">
        <ele>12</ele>
        <time>2021-06-11T10:55:28Z</time>
      </trkpt>
      <trkpt lat="47.00086" lon="-1.58881">
        <ele>11</ele>
        <time>2021-06-11T10:55:33Z</time>
      </trkpt>
      <trkpt lat="47.00127" lon="-1.58875">
        <ele>11</ele>
        <time>2021-06-11T10:55:41Z</time>
      </trkpt>
      <trkpt lat="47.00158" lon="-1.58866">
        <ele>12</ele>
        <time>2021-06-11T10:55:46Z</time>
      </trkpt>
      <trkpt lat="47.00165" lon="-1.58862">
        <ele>12</ele>
        <time>2021-06-11T10:55:48Z</time>
      </trkpt>
      <trkpt lat="47.00169" lon="-1.5886">
        <ele>12</ele>
        <time>2021-06-11T10:55:48Z</time>
      </trkpt>
      <trkpt lat="47.00184" lon="-1.58851">
        <ele>12</ele>
        <time>2021-06-11T10:55:51Z</time>
      </trkpt>
      <trkpt lat="47.00206" lon="-1.58833">
        <ele>12</ele>
        <time>2021-06-11T10:55:56Z</time>
      </trkpt>
      <trkpt lat="47.00266" lon="-1.58771">
        <ele>12</ele>
        <time>2021-06-11T10:56:09Z</time>
      </trkpt>
      <trkpt lat="47.00308" lon="-1.58722">
        <ele>12</ele>
        <time>2021-06-11T10:56:18Z</time>
      </trkpt>
      <trkpt lat="47.00364" lon="-1.58664">
        <ele>14</ele>
        <time>2021-06-11T10:56:31Z</time>
      </trkpt>
      <trkpt lat="47.00411" lon="-1.58613">
        <ele>16</ele>
        <time>2021-06-11T10:56:41Z</time>
      </trkpt>
      <trkpt lat="47.00465" lon="-1.58535">
        <ele>17</ele>
        <time>2021-06-11T10:56:54Z</time>
      </trkpt>
      <trkpt lat="47.00536" lon="-1.58458">
        <ele>20</ele>
        <time>2021-06-11T10:57:10Z</time>
      </trkpt>
      <trkpt lat="47.0056" lon="-1.58436">
        <ele>21</ele>
        <time>2021-06-11T10:57:15Z</time>
      </trkpt>
      <trkpt lat="47.00567" lon="-1.5843">
        <ele>21</ele>
        <time>2021-06-11T10:57:17Z</time>
      </trkpt>
      <trkpt lat="47.006" lon="-1.58402">
        <ele>22</ele>
        <time>2021-06-11T10:57:23Z</time>
      </trkpt>
      <trkpt lat="47.00627" lon="-1.58394">
        <ele>23</ele>
        <time>2021-06-11T10:57:28Z</time>
      </trkpt>
      <trkpt lat="47.00665" lon="-1.58381">
        <ele>24</ele>
        <time>2021-06-11T10:57:35Z</time>
      </trkpt>
      <trkpt lat="47.00731" lon="-1.58368">
        <ele>24</ele>
        <time>2021-06-11T10:57:47Z</time>
      </trkpt>
      <trkpt lat="47.00758" lon="-1.5836">
        <ele>24</ele>
        <time>2021-06-11T10:57:52Z</time>
      </trkpt>
      <trkpt lat="47.00787" lon="-1.58348">
        <ele>22</ele>
        <time>2021-06-11T10:57:57Z</time>
      </trkpt>
      <trkpt lat="47.00798" lon="-1.58343">
        <ele>21</ele>
        <time>2021-06-11T10:57:59Z</time>
      </trkpt>
      <trkpt lat="47.00811" lon="-1.58339">
        <ele>21</ele>
        <time>2021-06-11T10:58:02Z</time>
      </trkpt>
      <trkpt lat="47.00822" lon="-1.58336">
        <ele>20</ele>
        <time>2021-06-11T10:58:04Z</time>
      </trkpt>
      <trkpt lat="47.00867" lon="-1.58319">
        <ele>19</ele>
        <time>2021-06-11T10:58:12Z</time>
      </trkpt>
      <trkpt lat="47.00875" lon="-1.5831">
        <ele>19</ele>
        <time>2021-06-11T10:58:14Z</time>
      </trkpt>
      <trkpt lat="47.00878" lon="-1.58305">
        <ele>19</ele>
        <time>2021-06-11T10:58:15Z</time>
      </trkpt>
      <trkpt lat="47.00883" lon="-1.58308">
        <ele>19</ele>
        <time>2021-06-11T10:58:16Z</time>
      </trkpt>
      <trkpt lat="47.00892" lon="-1.58309">
        <ele>19</ele>
        <time>2021-06-11T10:58:17Z</time>
      </trkpt>
      <trkpt lat="47.0092" lon="-1.58297">
        <ele>18</ele>
        <time>2021-06-11T10:58:22Z</time>
      </trkpt>
      <trkpt lat="47.00936" lon="-1.58295">
        <ele>19</ele>
        <time>2021-06-11T10:58:25Z</time>
      </trkpt>
      <trkpt lat="47.00949" lon="-1.58304">
        <ele>18</ele>
        <time>2021-06-11T10:58:28Z</time>
      </trkpt>
      <trkpt lat="47.00967" lon="-1.58338">
        <ele>18</ele>
        <time>2021-06-11T10:58:33Z</time>
      </trkpt>
      <trkpt lat="47.00977" lon="-1.58348">
        <ele>18</ele>
        <time>2021-06-11T10:58:35Z</time>
      </trkpt>
      <trkpt lat="47.00988" lon="-1.58347">
        <ele>18</ele>
        <time>2021-06-11T10:58:37Z</time>
      </trkpt>
      <trkpt lat="47.01012" lon="-1.58331">
        <ele>18</ele>
        <time>2021-06-11T10:58:42Z</time>
      </trkpt>
      <trkpt lat="47.01035" lon="-1.58303">
        <ele>18</ele>
        <time>2021-06-11T10:58:47Z</time>
      </trkpt>
      <trkpt lat="47.0109" lon="-1.58252">
        <ele>18</ele>
        <time>2021-06-11T10:58:59Z</time>
      </trkpt>
      <trkpt lat="47.01162" lon="-1.582">
        <ele>18</ele>
        <time>2021-06-11T10:59:13Z</time>
      </trkpt>
      <trkpt lat="47.01168" lon="-1.5819">
        <ele>18</ele>
        <time>2021-06-11T10:59:15Z</time>
      </trkpt>
      <trkpt lat="47.01176" lon="-1.58185">
        <ele>18</ele>
        <time>2021-06-11T10:59:16Z</time>
      </trkpt>
      <trkpt lat="47.01181" lon="-1.58175">
        <ele>19</ele>
        <time>2021-06-11T10:59:18Z</time>
      </trkpt>
      <trkpt lat="47.01185" lon="-1.58155">
        <ele>19</ele>
        <time>2021-06-11T10:59:20Z</time>
      </trkpt>
      <trkpt lat="47.01187" lon="-1.58153">
        <ele>19</ele>
        <time>2021-06-11T10:59:21Z</time>
      </trkpt>
      <trkpt lat="47.01187" lon="-1.58037">
        <ele>19</ele>
        <time>2021-06-11T10:59:35Z</time>
      </trkpt>
      <trkpt lat="47.01188" lon="-1.58017">
        <ele>19</ele>
        <time>2021-06-11T10:59:37Z</time>
      </trkpt>
      <trkpt lat="47.01248" lon="-1.57721">
        <ele>24</ele>
        <time>2021-06-11T11:00:15Z</time>
      </trkpt>
      <trkpt lat="47.01324" lon="-1.57278">
        <ele>22</ele>
        <time>2021-06-11T11:01:10Z</time>
      </trkpt>
      <trkpt lat="47.01343" lon="-1.572">
        <ele>22</ele>
        <time>2021-06-11T11:01:20Z</time>
      </trkpt>
      <trkpt lat="47.01383" lon="-1.57046">
        <ele>20</ele>
        <time>2021-06-11T11:01:40Z</time>
      </trkpt>
      <trkpt lat="47.01383" lon="-1.57028">
        <ele>19</ele>
        <time>2021-06-11T11:01:42Z</time>
      </trkpt>
      <trkpt lat="47.01397" lon="-1.57025">
        <ele>19</ele>
        <time>2021-06-11T11:01:45Z</time>
      </trkpt>
      <trkpt lat="47.01412" lon="-1.57024">
        <ele>18</ele>
        <time>2021-06-11T11:01:47Z</time>
      </trkpt>
      <trkpt lat="47.0144" lon="-1.57017">
        <ele>17</ele>
        <time>2021-06-11T11:01:52Z</time>
      </trkpt>
      <trkpt lat="47.01453" lon="-1.57011">
        <ele>17</ele>
        <time>2021-06-11T11:01:55Z</time>
      </trkpt>
      <trkpt lat="47.0149" lon="-1.5699">
        <ele>15</ele>
        <time>2021-06-11T11:02:02Z</time>
      </trkpt>
      <trkpt lat="47.01504" lon="-1.56974">
        <ele>15</ele>
        <time>2021-06-11T11:02:05Z</time>
      </trkpt>
      <trkpt lat="47.01513" lon="-1.56965">
        <ele>14</ele>
        <time>2021-06-11T11:02:07Z</time>
      </trkpt>
      <trkpt lat="47.01521" lon="-1.56956">
        <ele>14</ele>
        <time>2021-06-11T11:02:09Z</time>
      </trkpt>
      <trkpt lat="47.01541" lon="-1.56932">
        <ele>13</ele>
        <time>2021-06-11T11:02:13Z</time>
      </trkpt>
      <trkpt lat="47.01567" lon="-1.56901">
        <ele>12</ele>
        <time>2021-06-11T11:02:19Z</time>
      </trkpt>
      <trkpt lat="47.01574" lon="-1.56892">
        <ele>12</ele>
        <time>2021-06-11T11:02:21Z</time>
      </trkpt>
      <trkpt lat="47.01595" lon="-1.56869">
        <ele>11</ele>
        <time>2021-06-11T11:02:26Z</time>
      </trkpt>
      <trkpt lat="47.01611" lon="-1.5685">
        <ele>10</ele>
        <time>2021-06-11T11:02:29Z</time>
      </trkpt>
      <trkpt lat="47.01638" lon="-1.56818">
        <ele>9</ele>
        <time>2021-06-11T11:02:36Z</time>
      </trkpt>
      <trkpt lat="47.01641" lon="-1.56815">
        <ele>9</ele>
        <time>2021-06-11T11:02:36Z</time>
      </trkpt>
      <trkpt lat="47.01669" lon="-1.56783">
        <ele>8</ele>
        <time>2021-06-11T11:02:43Z</time>
      </trkpt>
      <trkpt lat="47.0169" lon="-1.56758">
        <ele>8</ele>
        <time>2021-06-11T11:02:47Z</time>
      </trkpt>
      <trkpt lat="47.01692" lon="-1.56755">
        <ele>8</ele>
        <time>2021-06-11T11:02:48Z</time>
      </trkpt>
      <trkpt lat="47.01712" lon="-1.56732">
        <ele>9</ele>
        <time>2021-06-11T11:02:52Z</time>
      </trkpt>
      <trkpt lat="47.01723" lon="-1.56719">
        <ele>9</ele>
        <time>2021-06-11T11:02:55Z</time>
      </trkpt>
      <trkpt lat="47.01732" lon="-1.56708">
        <ele>9</ele>
        <time>2021-06-11T11:02:57Z</time>
      </trkpt>
      <trkpt lat="47.01734" lon="-1.56706">
        <ele>9</ele>
        <time>2021-06-11T11:02:57Z</time>
      </trkpt>
      <trkpt lat="47.01749" lon="-1.56689">
        <ele>10</ele>
        <time>2021-06-11T11:03:01Z</time>
      </trkpt>
      <trkpt lat="47.01771" lon="-1.56663">
        <ele>10</ele>
        <time>2021-06-11T11:03:06Z</time>
      </trkpt>
      <trkpt lat="47.01767" lon="-1.5666">
        <ele>10</ele>
        <time>2021-06-11T11:03:07Z</time>
      </trkpt>
      <trkpt lat="47.01763" lon="-1.56653">
        <ele>10</ele>
        <time>2021-06-11T11:03:08Z</time>
      </trkpt>
      <trkpt lat="47.01762" lon="-1.56642">
        <ele>10</ele>
        <time>2021-06-11T11:03:09Z</time>
      </trkpt>
      <trkpt lat="47.01779" lon="-1.56566">
        <ele>10</ele>
        <time>2021-06-11T11:03:19Z</time>
      </trkpt>
      <trkpt lat="47.01816" lon="-1.56407">
        <ele>12</ele>
        <time>2021-06-11T11:03:39Z</time>
      </trkpt>
      <trkpt lat="47.01826" lon="-1.56365">
        <ele>13</ele>
        <time>2021-06-11T11:03:45Z</time>
      </trkpt>
      <trkpt lat="47.01834" lon="-1.56328">
        <ele>14</ele>
        <time>2021-06-11T11:03:49Z</time>
      </trkpt>
      <trkpt lat="47.01867" lon="-1.56182">
        <ele>15</ele>
        <time>2021-06-11T11:04:08Z</time>
      </trkpt>
      <trkpt lat="47.01878" lon="-1.56136">
        <ele>16</ele>
        <time>2021-06-11T11:04:14Z</time>
      </trkpt>
      <trkpt lat="47.01882" lon="-1.56122">
        <ele>16</ele>
        <time>2021-06-11T11:04:16Z</time>
      </trkpt>
      <trkpt lat="47.01898" lon="-1.56078">
        <ele>16</ele>
        <time>2021-06-11T11:04:22Z</time>
      </trkpt>
      <trkpt lat="47.01922" lon="-1.5603">
        <ele>17</ele>
        <time>2021-06-11T11:04:29Z</time>
      </trkpt>
      <trkpt lat="47.01936" lon="-1.56009">
        <ele>18</ele>
        <time>2021-06-11T11:04:32Z</time>
      </trkpt>
      <trkpt lat="47.01943" lon="-1.56">
        <ele>18</ele>
        <time>2021-06-11T11:04:34Z</time>
      </trkpt>
      <trkpt lat="47.01952" lon="-1.5599">
        <ele>18</ele>
        <time>2021-06-11T11:04:36Z</time>
      </trkpt>
      <trkpt lat="47.01975" lon="-1.5597">
        <ele>18</ele>
        <time>2021-06-11T11:04:41Z</time>
      </trkpt>
      <trkpt lat="47.01996" lon="-1.55953">
        <ele>19</ele>
        <time>2021-06-11T11:04:45Z</time>
      </trkpt>
      <trkpt lat="47.02042" lon="-1.55917">
        <ele>19</ele>
        <time>2021-06-11T11:04:54Z</time>
      </trkpt>
      <trkpt lat="47.0206" lon="-1.55904">
        <ele>19</ele>
        <time>2021-06-11T11:04:58Z</time>
      </trkpt>
      <trkpt lat="47.0212" lon="-1.55858">
        <ele>19</ele>
        <time>2021-06-11T11:05:10Z</time>
      </trkpt>
      <trkpt lat="47.02419" lon="-1.55632">
        <ele>19</ele>
        <time>2021-06-11T11:06:10Z</time>
      </trkpt>
      <trkpt lat="47.02464" lon="-1.5559">
        <ele>17</ele>
        <time>2021-06-11T11:06:19Z</time>
      </trkpt>
      <trkpt lat="47.02474" lon="-1.5558">
        <ele>17</ele>
        <time>2021-06-11T11:06:22Z</time>
      </trkpt>
      <trkpt lat="47.02553" lon="-1.55479">
        <ele>20</ele>
        <time>2021-06-11T11:06:40Z</time>
      </trkpt>
      <trkpt lat="47.02589" lon="-1.5544">
        <ele>21</ele>
        <time>2021-06-11T11:06:48Z</time>
      </trkpt>
      <trkpt lat="47.02628" lon="-1.55408">
        <ele>19</ele>
        <time>2021-06-11T11:06:56Z</time>
      </trkpt>
      <trkpt lat="47.02719" lon="-1.55341">
        <ele>19</ele>
        <time>2021-06-11T11:07:14Z</time>
      </trkpt>
      <trkpt lat="47.02743" lon="-1.55325">
        <ele>19</ele>
        <time>2021-06-11T11:07:19Z</time>
      </trkpt>
      <trkpt lat="47.02792" lon="-1.55291">
        <ele>18</ele>
        <time>2021-06-11T11:07:29Z</time>
      </trkpt>
      <trkpt lat="47.02847" lon="-1.55247">
        <ele>18</ele>
        <time>2021-06-11T11:07:40Z</time>
      </trkpt>
      <trkpt lat="47.02892" lon="-1.552">
        <ele>17</ele>
        <time>2021-06-11T11:07:50Z</time>
      </trkpt>
      <trkpt lat="47.02914" lon="-1.55169">
        <ele>17</ele>
        <time>2021-06-11T11:07:55Z</time>
      </trkpt>
      <trkpt lat="47.02935" lon="-1.55127">
        <ele>16</ele>
        <time>2021-06-11T11:08:01Z</time>
      </trkpt>
      <trkpt lat="47.02985" lon="-1.55018">
        <ele>14</ele>
        <time>2021-06-11T11:08:17Z</time>
      </trkpt>
      <trkpt lat="47.03006" lon="-1.54975">
        <ele>15</ele>
        <time>2021-06-11T11:08:24Z</time>
      </trkpt>
      <trkpt lat="47.03021" lon="-1.54943">
        <ele>16</ele>
        <time>2021-06-11T11:08:28Z</time>
      </trkpt>
      <trkpt lat="47.03035" lon="-1.54914">
        <ele>16</ele>
        <time>2021-06-11T11:08:33Z</time>
      </trkpt>
      <trkpt lat="47.03058" lon="-1.54864">
        <ele>17</ele>
        <time>2021-06-11T11:08:40Z</time>
      </trkpt>
      <trkpt lat="47.03072" lon="-1.54832">
        <ele>18</ele>
        <time>2021-06-11T11:08:45Z</time>
      </trkpt>
      <trkpt lat="47.03079" lon="-1.54817">
        <ele>18</ele>
        <time>2021-06-11T11:08:47Z</time>
      </trkpt>
      <trkpt lat="47.03089" lon="-1.5478">
        <ele>18</ele>
        <time>2021-06-11T11:08:52Z</time>
      </trkpt>
      <trkpt lat="47.03093" lon="-1.54764">
        <ele>18</ele>
        <time>2021-06-11T11:08:54Z</time>
      </trkpt>
      <trkpt lat="47.031" lon="-1.54708">
        <ele>19</ele>
        <time>2021-06-11T11:09:01Z</time>
      </trkpt>
      <trkpt lat="47.03108" lon="-1.54635">
        <ele>19</ele>
        <time>2021-06-11T11:09:10Z</time>
      </trkpt>
      <trkpt lat="47.03112" lon="-1.54606">
        <ele>19</ele>
        <time>2021-06-11T11:09:13Z</time>
      </trkpt>
      <trkpt lat="47.03122" lon="-1.54542">
        <ele>20</ele>
        <time>2021-06-11T11:09:21Z</time>
      </trkpt>
      <trkpt lat="47.03131" lon="-1.54494">
        <ele>20</ele>
        <time>2021-06-11T11:09:27Z</time>
      </trkpt>
      <trkpt lat="47.03134" lon="-1.54483">
        <ele>20</ele>
        <time>2021-06-11T11:09:29Z</time>
      </trkpt>
      <trkpt lat="47.03147" lon="-1.54451">
        <ele>20</ele>
        <time>2021-06-11T11:09:33Z</time>
      </trkpt>
      <trkpt lat="47.03164" lon="-1.5442">
        <ele>20</ele>
        <time>2021-06-11T11:09:38Z</time>
      </trkpt>
      <trkpt lat="47.03172" lon="-1.54406">
        <ele>20</ele>
        <time>2021-06-11T11:09:40Z</time>
      </trkpt>
      <trkpt lat="47.03243" lon="-1.54286">
        <ele>21</ele>
        <time>2021-06-11T11:09:59Z</time>
      </trkpt>
      <trkpt lat="47.03247" lon="-1.5428">
        <ele>21</ele>
        <time>2021-06-11T11:10:00Z</time>
      </trkpt>
      <trkpt lat="47.03272" lon="-1.54238">
        <ele>22</ele>
        <time>2021-06-11T11:10:07Z</time>
      </trkpt>
      <trkpt lat="47.03346" lon="-1.54107">
        <ele>26</ele>
        <time>2021-06-11T11:10:28Z</time>
      </trkpt>
      <trkpt lat="47.03353" lon="-1.54091">
        <ele>26</ele>
        <time>2021-06-11T11:10:30Z</time>
      </trkpt>
      <trkpt lat="47.03368" lon="-1.54049">
        <ele>26</ele>
        <time>2021-06-11T11:10:36Z</time>
      </trkpt>
      <trkpt lat="47.0339" lon="-1.53976">
        <ele>27</ele>
        <time>2021-06-11T11:10:46Z</time>
      </trkpt>
      <trkpt lat="47.03448" lon="-1.53774">
        <ele>28</ele>
        <time>2021-06-11T11:11:12Z</time>
      </trkpt>
      <trkpt lat="47.03482" lon="-1.53663">
        <ele>27</ele>
        <time>2021-06-11T11:11:27Z</time>
      </trkpt>
      <trkpt lat="47.03579" lon="-1.53324">
        <ele>27</ele>
        <time>2021-06-11T11:12:11Z</time>
      </trkpt>
      <trkpt lat="47.03625" lon="-1.5316">
        <ele>26</ele>
        <time>2021-06-11T11:12:33Z</time>
      </trkpt>
      <trkpt lat="47.03647" lon="-1.53091">
        <ele>26</ele>
        <time>2021-06-11T11:12:42Z</time>
      </trkpt>
      <trkpt lat="47.03656" lon="-1.53071">
        <ele>26</ele>
        <time>2021-06-11T11:12:45Z</time>
      </trkpt>
      <trkpt lat="47.03779" lon="-1.52858">
        <ele>28</ele>
        <time>2021-06-11T11:13:19Z</time>
      </trkpt>
      <trkpt lat="47.03868" lon="-1.52719">
        <ele>30</ele>
        <time>2021-06-11T11:13:42Z</time>
      </trkpt>
      <trkpt lat="47.03873" lon="-1.52711">
        <ele>30</ele>
        <time>2021-06-11T11:13:43Z</time>
      </trkpt>
      <trkpt lat="47.04016" lon="-1.5247">
        <ele>31</ele>
        <time>2021-06-11T11:14:22Z</time>
      </trkpt>
      <trkpt lat="47.04291" lon="-1.52016">
        <ele>32</ele>
        <time>2021-06-11T11:15:36Z</time>
      </trkpt>
      <trkpt lat="47.04304" lon="-1.51993">
        <ele>32</ele>
        <time>2021-06-11T11:15:39Z</time>
      </trkpt>
      <trkpt lat="47.04335" lon="-1.51941">
        <ele>32</ele>
        <time>2021-06-11T11:15:48Z</time>
      </trkpt>
      <trkpt lat="47.04451" lon="-1.51749">
        <ele>31</ele>
        <time>2021-06-11T11:16:19Z</time>
      </trkpt>
      <trkpt lat="47.04519" lon="-1.51635">
        <ele>30</ele>
        <time>2021-06-11T11:16:37Z</time>
      </trkpt>
      <trkpt lat="47.04548" lon="-1.51583">
        <ele>31</ele>
        <time>2021-06-11T11:16:45Z</time>
      </trkpt>
      <trkpt lat="47.04563" lon="-1.51551">
        <ele>31</ele>
        <time>2021-06-11T11:16:50Z</time>
      </trkpt>
      <trkpt lat="47.04565" lon="-1.51547">
        <ele>31</ele>
        <time>2021-06-11T11:16:51Z</time>
      </trkpt>
      <trkpt lat="47.04575" lon="-1.51522">
        <ele>31</ele>
        <time>2021-06-11T11:16:54Z</time>
      </trkpt>
      <trkpt lat="47.04585" lon="-1.51485">
        <ele>31</ele>
        <time>2021-06-11T11:16:59Z</time>
      </trkpt>
      <trkpt lat="47.04644" lon="-1.51252">
        <ele>29</ele>
        <time>2021-06-11T11:17:29Z</time>
      </trkpt>
      <trkpt lat="47.04656" lon="-1.51203">
        <ele>29</ele>
        <time>2021-06-11T11:17:36Z</time>
      </trkpt>
      <trkpt lat="47.04674" lon="-1.51126">
        <ele>29</ele>
        <time>2021-06-11T11:17:45Z</time>
      </trkpt>
      <trkpt lat="47.04693" lon="-1.51037">
        <ele>29</ele>
        <time>2021-06-11T11:17:57Z</time>
      </trkpt>
      <trkpt lat="47.04715" lon="-1.50914">
        <ele>30</ele>
        <time>2021-06-11T11:18:12Z</time>
      </trkpt>
      <trkpt lat="47.04717" lon="-1.50889">
        <ele>31</ele>
        <time>2021-06-11T11:18:15Z</time>
      </trkpt>
      <trkpt lat="47.04716" lon="-1.50866">
        <ele>31</ele>
        <time>2021-06-11T11:18:18Z</time>
      </trkpt>
      <trkpt lat="47.04718" lon="-1.50857">
        <ele>31</ele>
        <time>2021-06-11T11:18:19Z</time>
      </trkpt>
      <trkpt lat="47.04726" lon="-1.50843">
        <ele>31</ele>
        <time>2021-06-11T11:18:21Z</time>
      </trkpt>
      <trkpt lat="47.04733" lon="-1.50829">
        <ele>31</ele>
        <time>2021-06-11T11:18:23Z</time>
      </trkpt>
      <trkpt lat="47.04748" lon="-1.50802">
        <ele>31</ele>
        <time>2021-06-11T11:18:28Z</time>
      </trkpt>
      <trkpt lat="47.04763" lon="-1.50768">
        <ele>31</ele>
        <time>2021-06-11T11:18:33Z</time>
      </trkpt>
      <trkpt lat="47.04764" lon="-1.50764">
        <ele>31</ele>
        <time>2021-06-11T11:18:33Z</time>
      </trkpt>
      <trkpt lat="47.04834" lon="-1.50594">
        <ele>32</ele>
        <time>2021-06-11T11:18:57Z</time>
      </trkpt>
      <trkpt lat="47.04878" lon="-1.50511">
        <ele>31</ele>
        <time>2021-06-11T11:19:10Z</time>
      </trkpt>
      <trkpt lat="47.0493" lon="-1.50417">
        <ele>33</ele>
        <time>2021-06-11T11:19:25Z</time>
      </trkpt>
      <trkpt lat="47.04992" lon="-1.50302">
        <ele>32</ele>
        <time>2021-06-11T11:19:42Z</time>
      </trkpt>
      <trkpt lat="47.05071" lon="-1.50105">
        <ele>31</ele>
        <time>2021-06-11T11:20:10Z</time>
      </trkpt>
      <trkpt lat="47.05082" lon="-1.50081">
        <ele>30</ele>
        <time>2021-06-11T11:20:14Z</time>
      </trkpt>
      <trkpt lat="47.05095" lon="-1.50058">
        <ele>30</ele>
        <time>2021-06-11T11:20:17Z</time>
      </trkpt>
      <trkpt lat="47.05162" lon="-1.49964">
        <ele>30</ele>
        <time>2021-06-11T11:20:34Z</time>
      </trkpt>
      <trkpt lat="47.0521" lon="-1.499">
        <ele>31</ele>
        <time>2021-06-11T11:20:45Z</time>
      </trkpt>
      <trkpt lat="47.05227" lon="-1.49878">
        <ele>32</ele>
        <time>2021-06-11T11:20:49Z</time>
      </trkpt>
      <trkpt lat="47.05249" lon="-1.49843">
        <ele>32</ele>
        <time>2021-06-11T11:20:55Z</time>
      </trkpt>
      <trkpt lat="47.05271" lon="-1.49797">
        <ele>32</ele>
        <time>2021-06-11T11:21:02Z</time>
      </trkpt>
      <trkpt lat="47.05283" lon="-1.4977">
        <ele>32</ele>
        <time>2021-06-11T11:21:06Z</time>
      </trkpt>
      <trkpt lat="47.05367" lon="-1.49583">
        <ele>34</ele>
        <time>2021-06-11T11:21:33Z</time>
      </trkpt>
      <trkpt lat="47.05384" lon="-1.49539">
        <ele>33</ele>
        <time>2021-06-11T11:21:39Z</time>
      </trkpt>
      <trkpt lat="47.0539" lon="-1.49512">
        <ele>33</ele>
        <time>2021-06-11T11:21:43Z</time>
      </trkpt>
      <trkpt lat="47.05412" lon="-1.49386">
        <ele>32</ele>
        <time>2021-06-11T11:21:58Z</time>
      </trkpt>
      <trkpt lat="47.05418" lon="-1.49354">
        <ele>33</ele>
        <time>2021-06-11T11:22:02Z</time>
      </trkpt>
      <trkpt lat="47.05424" lon="-1.49318">
        <ele>33</ele>
        <time>2021-06-11T11:22:07Z</time>
      </trkpt>
      <trkpt lat="47.05435" lon="-1.49265">
        <ele>33</ele>
        <time>2021-06-11T11:22:14Z</time>
      </trkpt>
      <trkpt lat="47.0544" lon="-1.49251">
        <ele>33</ele>
        <time>2021-06-11T11:22:15Z</time>
      </trkpt>
      <trkpt lat="47.05451" lon="-1.49223">
        <ele>33</ele>
        <time>2021-06-11T11:22:19Z</time>
      </trkpt>
      <trkpt lat="47.05475" lon="-1.49167">
        <ele>33</ele>
        <time>2021-06-11T11:22:27Z</time>
      </trkpt>
      <trkpt lat="47.05479" lon="-1.49159">
        <ele>33</ele>
        <time>2021-06-11T11:22:29Z</time>
      </trkpt>
      <trkpt lat="47.05488" lon="-1.49135">
        <ele>32</ele>
        <time>2021-06-11T11:22:32Z</time>
      </trkpt>
      <trkpt lat="47.05496" lon="-1.49118">
        <ele>31</ele>
        <time>2021-06-11T11:22:34Z</time>
      </trkpt>
      <trkpt lat="47.05505" lon="-1.4909">
        <ele>30</ele>
        <time>2021-06-11T11:22:38Z</time>
      </trkpt>
      <trkpt lat="47.05513" lon="-1.49074">
        <ele>30</ele>
        <time>2021-06-11T11:22:41Z</time>
      </trkpt>
      <trkpt lat="47.05529" lon="-1.49038">
        <ele>28</ele>
        <time>2021-06-11T11:22:46Z</time>
      </trkpt>
      <trkpt lat="47.0554" lon="-1.49012">
        <ele>28</ele>
        <time>2021-06-11T11:22:49Z</time>
      </trkpt>
      <trkpt lat="47.05546" lon="-1.48995">
        <ele>27</ele>
        <time>2021-06-11T11:22:52Z</time>
      </trkpt>
      <trkpt lat="47.05557" lon="-1.48956">
        <ele>26</ele>
        <time>2021-06-11T11:22:57Z</time>
      </trkpt>
      <trkpt lat="47.05565" lon="-1.48904">
        <ele>25</ele>
        <time>2021-06-11T11:23:03Z</time>
      </trkpt>
      <trkpt lat="47.05587" lon="-1.4878">
        <ele>20</ele>
        <time>2021-06-11T11:23:19Z</time>
      </trkpt>
      <trkpt lat="47.05587" lon="-1.48774">
        <ele>20</ele>
        <time>2021-06-11T11:23:20Z</time>
      </trkpt>
      <trkpt lat="47.05601" lon="-1.48774">
        <ele>20</ele>
        <time>2021-06-11T11:23:22Z</time>
      </trkpt>
      <trkpt lat="47.05607" lon="-1.48774">
        <ele>20</ele>
        <time>2021-06-11T11:23:23Z</time>
      </trkpt>
      <trkpt lat="47.05611" lon="-1.48774">
        <ele>20</ele>
        <time>2021-06-11T11:23:24Z</time>
      </trkpt>
      <trkpt lat="47.05637" lon="-1.48774">
        <ele>19</ele>
        <time>2021-06-11T11:23:29Z</time>
      </trkpt>
      <trkpt lat="47.05659" lon="-1.48771">
        <ele>19</ele>
        <time>2021-06-11T11:23:32Z</time>
      </trkpt>
      <trkpt lat="47.05665" lon="-1.48769">
        <ele>19</ele>
        <time>2021-06-11T11:23:34Z</time>
      </trkpt>
      <trkpt lat="47.05665" lon="-1.48741">
        <ele>19</ele>
        <time>2021-06-11T11:23:37Z</time>
      </trkpt>
      <trkpt lat="47.05663" lon="-1.48724">
        <ele>18</ele>
        <time>2021-06-11T11:23:39Z</time>
      </trkpt>
      <trkpt lat="47.05661" lon="-1.4871">
        <ele>17</ele>
        <time>2021-06-11T11:23:41Z</time>
      </trkpt>
      <trkpt lat="47.05653" lon="-1.48667">
        <ele>15</ele>
        <time>2021-06-11T11:23:46Z</time>
      </trkpt>
      <trkpt lat="47.05648" lon="-1.4864">
        <ele>15</ele>
        <time>2021-06-11T11:23:50Z</time>
      </trkpt>
      <trkpt lat="47.05642" lon="-1.48603">
        <ele>14</ele>
        <time>2021-06-11T11:23:54Z</time>
      </trkpt>
      <trkpt lat="47.05639" lon="-1.48569">
        <ele>14</ele>
        <time>2021-06-11T11:23:58Z</time>
      </trkpt>
      <trkpt lat="47.05639" lon="-1.48543">
        <ele>14</ele>
        <time>2021-06-11T11:24:02Z</time>
      </trkpt>
      <trkpt lat="47.05662" lon="-1.48534">
        <ele>15</ele>
        <time>2021-06-11T11:24:06Z</time>
      </trkpt>
      <trkpt lat="47.05681" lon="-1.48522">
        <ele>15</ele>
        <time>2021-06-11T11:24:09Z</time>
      </trkpt>
      <trkpt lat="47.057" lon="-1.48505">
        <ele>15</ele>
        <time>2021-06-11T11:24:13Z</time>
      </trkpt>
      <trkpt lat="47.05717" lon="-1.48483">
        <ele>15</ele>
        <time>2021-06-11T11:24:17Z</time>
      </trkpt>
      <trkpt lat="47.05728" lon="-1.48466">
        <ele>16</ele>
        <time>2021-06-11T11:24:20Z</time>
      </trkpt>
      <trkpt lat="47.0575" lon="-1.48415">
        <ele>17</ele>
        <time>2021-06-11T11:24:28Z</time>
      </trkpt>
      <trkpt lat="47.05765" lon="-1.48388">
        <ele>17</ele>
        <time>2021-06-11T11:24:32Z</time>
      </trkpt>
      <trkpt lat="47.05774" lon="-1.48376">
        <ele>17</ele>
        <time>2021-06-11T11:24:34Z</time>
      </trkpt>
      <trkpt lat="47.05809" lon="-1.4834">
        <ele>18</ele>
        <time>2021-06-11T11:24:42Z</time>
      </trkpt>
      <trkpt lat="47.05823" lon="-1.4833">
        <ele>18</ele>
        <time>2021-06-11T11:24:44Z</time>
      </trkpt>
      <trkpt lat="47.05851" lon="-1.48317">
        <ele>18</ele>
        <time>2021-06-11T11:24:50Z</time>
      </trkpt>
      <trkpt lat="47.05863" lon="-1.48314">
        <ele>18</ele>
        <time>2021-06-11T11:24:52Z</time>
      </trkpt>
      <trkpt lat="47.05867" lon="-1.48309">
        <ele>18</ele>
        <time>2021-06-11T11:24:53Z</time>
      </trkpt>
      <trkpt lat="47.05898" lon="-1.483">
        <ele>18</ele>
        <time>2021-06-11T11:24:58Z</time>
      </trkpt>
      <trkpt lat="47.05929" lon="-1.48296">
        <ele>17</ele>
        <time>2021-06-11T11:25:04Z</time>
      </trkpt>
      <trkpt lat="47.05982" lon="-1.48297">
        <ele>17</ele>
        <time>2021-06-11T11:25:13Z</time>
      </trkpt>
      <trkpt lat="47.05995" lon="-1.48295">
        <ele>17</ele>
        <time>2021-06-11T11:25:16Z</time>
      </trkpt>
      <trkpt lat="47.06028" lon="-1.48282">
        <ele>17</ele>
        <time>2021-06-11T11:25:22Z</time>
      </trkpt>
      <trkpt lat="47.06068" lon="-1.48255">
        <ele>17</ele>
        <time>2021-06-11T11:25:29Z</time>
      </trkpt>
      <trkpt lat="47.06128" lon="-1.48209">
        <ele>18</ele>
        <time>2021-06-11T11:25:42Z</time>
      </trkpt>
      <trkpt lat="47.06156" lon="-1.48182">
        <ele>17</ele>
        <time>2021-06-11T11:25:47Z</time>
      </trkpt>
      <trkpt lat="47.06182" lon="-1.48151">
        <ele>17</ele>
        <time>2021-06-11T11:25:53Z</time>
      </trkpt>
      <trkpt lat="47.06197" lon="-1.4813">
        <ele>18</ele>
        <time>2021-06-11T11:25:57Z</time>
      </trkpt>
      <trkpt lat="47.06211" lon="-1.48099">
        <ele>18</ele>
        <time>2021-06-11T11:26:02Z</time>
      </trkpt>
      <trkpt lat="47.06236" lon="-1.48093">
        <ele>18</ele>
        <time>2021-06-11T11:26:06Z</time>
      </trkpt>
      <trkpt lat="47.06247" lon="-1.48087">
        <ele>18</ele>
        <time>2021-06-11T11:26:08Z</time>
      </trkpt>
      <trkpt lat="47.06315" lon="-1.48064">
        <ele>21</ele>
        <time>2021-06-11T11:26:21Z</time>
      </trkpt>
      <trkpt lat="47.06334" lon="-1.48052">
        <ele>21</ele>
        <time>2021-06-11T11:26:24Z</time>
      </trkpt>
      <trkpt lat="47.06344" lon="-1.48042">
        <ele>22</ele>
        <time>2021-06-11T11:26:26Z</time>
      </trkpt>
      <trkpt lat="47.0636" lon="-1.48016">
        <ele>22</ele>
        <time>2021-06-11T11:26:31Z</time>
      </trkpt>
      <trkpt lat="47.0645" lon="-1.47823">
        <ele>25</ele>
        <time>2021-06-11T11:26:59Z</time>
      </trkpt>
      <trkpt lat="47.0647" lon="-1.47789">
        <ele>25</ele>
        <time>2021-06-11T11:27:05Z</time>
      </trkpt>
      <trkpt lat="47.06511" lon="-1.47731">
        <ele>26</ele>
        <time>2021-06-11T11:27:15Z</time>
      </trkpt>
      <trkpt lat="47.06703" lon="-1.47402">
        <ele>33</ele>
        <time>2021-06-11T11:28:07Z</time>
      </trkpt>
      <trkpt lat="47.06716" lon="-1.4737">
        <ele>34</ele>
        <time>2021-06-11T11:28:12Z</time>
      </trkpt>
      <trkpt lat="47.0679" lon="-1.4711">
        <ele>36</ele>
        <time>2021-06-11T11:28:46Z</time>
      </trkpt>
      <trkpt lat="47.06803" lon="-1.47087">
        <ele>36</ele>
        <time>2021-06-11T11:28:49Z</time>
      </trkpt>
      <trkpt lat="47.06809" lon="-1.47081">
        <ele>36</ele>
        <time>2021-06-11T11:28:51Z</time>
      </trkpt>
      <trkpt lat="47.06824" lon="-1.47074">
        <ele>36</ele>
        <time>2021-06-11T11:28:54Z</time>
      </trkpt>
      <trkpt lat="47.06844" lon="-1.47074">
        <ele>36</ele>
        <time>2021-06-11T11:28:57Z</time>
      </trkpt>
      <trkpt lat="47.06931" lon="-1.47085">
        <ele>39</ele>
        <time>2021-06-11T11:29:13Z</time>
      </trkpt>
      <trkpt lat="47.06961" lon="-1.47085">
        <ele>39</ele>
        <time>2021-06-11T11:29:18Z</time>
      </trkpt>
      <trkpt lat="47.06994" lon="-1.47081">
        <ele>39</ele>
        <time>2021-06-11T11:29:24Z</time>
      </trkpt>
      <trkpt lat="47.07121" lon="-1.47057">
        <ele>36</ele>
        <time>2021-06-11T11:29:47Z</time>
      </trkpt>
      <trkpt lat="47.0714" lon="-1.47057">
        <ele>36</ele>
        <time>2021-06-11T11:29:50Z</time>
      </trkpt>
      <trkpt lat="47.07194" lon="-1.47066">
        <ele>35</ele>
        <time>2021-06-11T11:30:00Z</time>
      </trkpt>
      <trkpt lat="47.07235" lon="-1.47061">
        <ele>33</ele>
        <time>2021-06-11T11:30:07Z</time>
      </trkpt>
      <trkpt lat="47.0726" lon="-1.47054">
        <ele>33</ele>
        <time>2021-06-11T11:30:12Z</time>
      </trkpt>
      <trkpt lat="47.07294" lon="-1.47038">
        <ele>32</ele>
        <time>2021-06-11T11:30:18Z</time>
      </trkpt>
      <trkpt lat="47.07328" lon="-1.47015">
        <ele>31</ele>
        <time>2021-06-11T11:30:25Z</time>
      </trkpt>
      <trkpt lat="47.07351" lon="-1.46994">
        <ele>31</ele>
        <time>2021-06-11T11:30:29Z</time>
      </trkpt>
      <trkpt lat="47.07367" lon="-1.46977">
        <ele>31</ele>
        <time>2021-06-11T11:30:33Z</time>
      </trkpt>
      <trkpt lat="47.07384" lon="-1.46952">
        <ele>30</ele>
        <time>2021-06-11T11:30:37Z</time>
      </trkpt>
      <trkpt lat="47.0742" lon="-1.46884">
        <ele>29</ele>
        <time>2021-06-11T11:30:48Z</time>
      </trkpt>
      <trkpt lat="47.07429" lon="-1.4687">
        <ele>29</ele>
        <time>2021-06-11T11:30:50Z</time>
      </trkpt>
      <trkpt lat="47.07448" lon="-1.46845">
        <ele>29</ele>
        <time>2021-06-11T11:30:54Z</time>
      </trkpt>
      <trkpt lat="47.07461" lon="-1.46832">
        <ele>29</ele>
        <time>2021-06-11T11:30:57Z</time>
      </trkpt>
      <trkpt lat="47.07484" lon="-1.46813">
        <ele>29</ele>
        <time>2021-06-11T11:31:02Z</time>
      </trkpt>
      <trkpt lat="47.07509" lon="-1.46799">
        <ele>29</ele>
        <time>2021-06-11T11:31:07Z</time>
      </trkpt>
      <trkpt lat="47.07545" lon="-1.46787">
        <ele>29</ele>
        <time>2021-06-11T11:31:13Z</time>
      </trkpt>
      <trkpt lat="47.07569" lon="-1.46784">
        <ele>28</ele>
        <time>2021-06-11T11:31:18Z</time>
      </trkpt>
      <trkpt lat="47.0759" lon="-1.46786">
        <ele>28</ele>
        <time>2021-06-11T11:31:21Z</time>
      </trkpt>
      <trkpt lat="47.07716" lon="-1.46815">
        <ele>24</ele>
        <time>2021-06-11T11:31:44Z</time>
      </trkpt>
      <trkpt lat="47.07753" lon="-1.4682">
        <ele>23</ele>
        <time>2021-06-11T11:31:51Z</time>
      </trkpt>
      <trkpt lat="47.07768" lon="-1.46818">
        <ele>24</ele>
        <time>2021-06-11T11:31:53Z</time>
      </trkpt>
      <trkpt lat="47.08231" lon="-1.46696">
        <ele>31</ele>
        <time>2021-06-11T11:33:17Z</time>
      </trkpt>
      <trkpt lat="47.08252" lon="-1.46687">
        <ele>31</ele>
        <time>2021-06-11T11:33:21Z</time>
      </trkpt>
      <trkpt lat="47.08269" lon="-1.46678">
        <ele>31</ele>
        <time>2021-06-11T11:33:24Z</time>
      </trkpt>
      <trkpt lat="47.08284" lon="-1.46665">
        <ele>32</ele>
        <time>2021-06-11T11:33:27Z</time>
      </trkpt>
      <trkpt lat="47.08296" lon="-1.46653">
        <ele>32</ele>
        <time>2021-06-11T11:33:30Z</time>
      </trkpt>
      <trkpt lat="47.08324" lon="-1.46609">
        <ele>34</ele>
        <time>2021-06-11T11:33:37Z</time>
      </trkpt>
      <trkpt lat="47.08575" lon="-1.46183">
        <ele>38</ele>
        <time>2021-06-11T11:34:45Z</time>
      </trkpt>
      <trkpt lat="47.08594" lon="-1.46143">
        <ele>37</ele>
        <time>2021-06-11T11:34:51Z</time>
      </trkpt>
      <trkpt lat="47.08736" lon="-1.4574">
        <ele>33</ele>
        <time>2021-06-11T11:35:46Z</time>
      </trkpt>
      <trkpt lat="47.08746" lon="-1.45717">
        <ele>33</ele>
        <time>2021-06-11T11:35:50Z</time>
      </trkpt>
      <trkpt lat="47.08758" lon="-1.45694">
        <ele>34</ele>
        <time>2021-06-11T11:35:53Z</time>
      </trkpt>
      <trkpt lat="47.08792" lon="-1.45639">
        <ele>36</ele>
        <time>2021-06-11T11:36:02Z</time>
      </trkpt>
      <trkpt lat="47.08826" lon="-1.45584">
        <ele>40</ele>
        <time>2021-06-11T11:36:11Z</time>
      </trkpt>
      <trkpt lat="47.08841" lon="-1.45562">
        <ele>41</ele>
        <time>2021-06-11T11:36:15Z</time>
      </trkpt>
      <trkpt lat="47.08873" lon="-1.45512">
        <ele>43</ele>
        <time>2021-06-11T11:36:23Z</time>
      </trkpt>
      <trkpt lat="47.0889" lon="-1.45486">
        <ele>43</ele>
        <time>2021-06-11T11:36:28Z</time>
      </trkpt>
      <trkpt lat="47.08933" lon="-1.45427">
        <ele>43</ele>
        <time>2021-06-11T11:36:38Z</time>
      </trkpt>
      <trkpt lat="47.08962" lon="-1.45393">
        <ele>42</ele>
        <time>2021-06-11T11:36:45Z</time>
      </trkpt>
      <trkpt lat="47.08977" lon="-1.45377">
        <ele>42</ele>
        <time>2021-06-11T11:36:48Z</time>
      </trkpt>
      <trkpt lat="47.09025" lon="-1.45325">
        <ele>40</ele>
        <time>2021-06-11T11:36:58Z</time>
      </trkpt>
      <trkpt lat="47.09041" lon="-1.45307">
        <ele>40</ele>
        <time>2021-06-11T11:37:02Z</time>
      </trkpt>
      <trkpt lat="47.09073" lon="-1.45269">
        <ele>38</ele>
        <time>2021-06-11T11:37:09Z</time>
      </trkpt>
      <trkpt lat="47.09088" lon="-1.4525">
        <ele>38</ele>
        <time>2021-06-11T11:37:13Z</time>
      </trkpt>
      <trkpt lat="47.09113" lon="-1.45226">
        <ele>39</ele>
        <time>2021-06-11T11:37:18Z</time>
      </trkpt>
      <trkpt lat="47.09136" lon="-1.45208">
        <ele>39</ele>
        <time>2021-06-11T11:37:23Z</time>
      </trkpt>
      <trkpt lat="47.09184" lon="-1.45165">
        <ele>40</ele>
        <time>2021-06-11T11:37:33Z</time>
      </trkpt>
      <trkpt lat="47.09303" lon="-1.45062">
        <ele>43</ele>
        <time>2021-06-11T11:37:57Z</time>
      </trkpt>
      <trkpt lat="47.09374" lon="-1.44999">
        <ele>44</ele>
        <time>2021-06-11T11:38:12Z</time>
      </trkpt>
      <trkpt lat="47.09393" lon="-1.44983">
        <ele>44</ele>
        <time>2021-06-11T11:38:16Z</time>
      </trkpt>
      <trkpt lat="47.09426" lon="-1.4495">
        <ele>45</ele>
        <time>2021-06-11T11:38:23Z</time>
      </trkpt>
      <trkpt lat="47.0947" lon="-1.44896">
        <ele>46</ele>
        <time>2021-06-11T11:38:33Z</time>
      </trkpt>
      <trkpt lat="47.0948" lon="-1.44888">
        <ele>47</ele>
        <time>2021-06-11T11:38:35Z</time>
      </trkpt>
      <trkpt lat="47.0949" lon="-1.44884">
        <ele>47</ele>
        <time>2021-06-11T11:38:37Z</time>
      </trkpt>
      <trkpt lat="47.09499" lon="-1.44883">
        <ele>47</ele>
        <time>2021-06-11T11:38:39Z</time>
      </trkpt>
      <trkpt lat="47.09512" lon="-1.44885">
        <ele>47</ele>
        <time>2021-06-11T11:38:41Z</time>
      </trkpt>
      <trkpt lat="47.09522" lon="-1.44889">
        <ele>47</ele>
        <time>2021-06-11T11:38:43Z</time>
      </trkpt>
      <trkpt lat="47.09532" lon="-1.44898">
        <ele>47</ele>
        <time>2021-06-11T11:38:45Z</time>
      </trkpt>
      <trkpt lat="47.09553" lon="-1.44926">
        <ele>47</ele>
        <time>2021-06-11T11:38:50Z</time>
      </trkpt>
      <trkpt lat="47.09567" lon="-1.44935">
        <ele>48</ele>
        <time>2021-06-11T11:38:53Z</time>
      </trkpt>
      <trkpt lat="47.09582" lon="-1.44938">
        <ele>48</ele>
        <time>2021-06-11T11:38:56Z</time>
      </trkpt>
      <trkpt lat="47.09596" lon="-1.44936">
        <ele>48</ele>
        <time>2021-06-11T11:38:58Z</time>
      </trkpt>
      <trkpt lat="47.09607" lon="-1.44932">
        <ele>48</ele>
        <time>2021-06-11T11:39:00Z</time>
      </trkpt>
      <trkpt lat="47.09622" lon="-1.44921">
        <ele>48</ele>
        <time>2021-06-11T11:39:03Z</time>
      </trkpt>
      <trkpt lat="47.09626" lon="-1.44916">
        <ele>47</ele>
        <time>2021-06-11T11:39:04Z</time>
      </trkpt>
      <trkpt lat="47.09632" lon="-1.44899">
        <ele>48</ele>
        <time>2021-06-11T11:39:06Z</time>
      </trkpt>
      <trkpt lat="47.09641" lon="-1.4489">
        <ele>48</ele>
        <time>2021-06-11T11:39:08Z</time>
      </trkpt>
      <trkpt lat="47.09654" lon="-1.44887">
        <ele>47</ele>
        <time>2021-06-11T11:39:11Z</time>
      </trkpt>
      <trkpt lat="47.09657" lon="-1.44884">
        <ele>47</ele>
        <time>2021-06-11T11:39:11Z</time>
      </trkpt>
      <trkpt lat="47.09671" lon="-1.44866">
        <ele>47</ele>
        <time>2021-06-11T11:39:15Z</time>
      </trkpt>
      <trkpt lat="47.09676" lon="-1.44859">
        <ele>47</ele>
        <time>2021-06-11T11:39:16Z</time>
      </trkpt>
      <trkpt lat="47.09684" lon="-1.44836">
        <ele>47</ele>
        <time>2021-06-11T11:39:19Z</time>
      </trkpt>
      <trkpt lat="47.09687" lon="-1.448">
        <ele>47</ele>
        <time>2021-06-11T11:39:23Z</time>
      </trkpt>
      <trkpt lat="47.09685" lon="-1.44787">
        <ele>47</ele>
        <time>2021-06-11T11:39:25Z</time>
      </trkpt>
      <trkpt lat="47.09674" lon="-1.44764">
        <ele>48</ele>
        <time>2021-06-11T11:39:28Z</time>
      </trkpt>
      <trkpt lat="47.09655" lon="-1.44729">
        <ele>48</ele>
        <time>2021-06-11T11:39:34Z</time>
      </trkpt>
      <trkpt lat="47.09649" lon="-1.44715">
        <ele>48</ele>
        <time>2021-06-11T11:39:36Z</time>
      </trkpt>
      <trkpt lat="47.09647" lon="-1.44701">
        <ele>48</ele>
        <time>2021-06-11T11:39:38Z</time>
      </trkpt>
      <trkpt lat="47.09646" lon="-1.44687">
        <ele>48</ele>
        <time>2021-06-11T11:39:39Z</time>
      </trkpt>
      <trkpt lat="47.09646" lon="-1.44674">
        <ele>48</ele>
        <time>2021-06-11T11:39:41Z</time>
      </trkpt>
      <trkpt lat="47.09649" lon="-1.44658">
        <ele>48</ele>
        <time>2021-06-11T11:39:43Z</time>
      </trkpt>
      <trkpt lat="47.09656" lon="-1.44638">
        <ele>48</ele>
        <time>2021-06-11T11:39:46Z</time>
      </trkpt>
      <trkpt lat="47.09663" lon="-1.44627">
        <ele>48</ele>
        <time>2021-06-11T11:39:47Z</time>
      </trkpt>
      <trkpt lat="47.09672" lon="-1.44616">
        <ele>48</ele>
        <time>2021-06-11T11:39:49Z</time>
      </trkpt>
      <trkpt lat="47.09708" lon="-1.44589">
        <ele>47</ele>
        <time>2021-06-11T11:39:57Z</time>
      </trkpt>
      <trkpt lat="47.09739" lon="-1.44572">
        <ele>45</ele>
        <time>2021-06-11T11:40:03Z</time>
      </trkpt>
      <trkpt lat="47.09779" lon="-1.44553">
        <ele>44</ele>
        <time>2021-06-11T11:40:10Z</time>
      </trkpt>
      <trkpt lat="47.10065" lon="-1.44445">
        <ele>32</ele>
        <time>2021-06-11T11:41:03Z</time>
      </trkpt>
      <trkpt lat="47.10121" lon="-1.4442">
        <ele>31</ele>
        <time>2021-06-11T11:41:13Z</time>
      </trkpt>
      <trkpt lat="47.10145" lon="-1.44401">
        <ele>30</ele>
        <time>2021-06-11T11:41:18Z</time>
      </trkpt>
      <trkpt lat="47.10247" lon="-1.44282">
        <ele>28</ele>
        <time>2021-06-11T11:41:41Z</time>
      </trkpt>
      <trkpt lat="47.1027" lon="-1.44256">
        <ele>28</ele>
        <time>2021-06-11T11:41:46Z</time>
      </trkpt>
      <trkpt lat="47.10297" lon="-1.44233">
        <ele>28</ele>
        <time>2021-06-11T11:41:52Z</time>
      </trkpt>
      <trkpt lat="47.10435" lon="-1.44168">
        <ele>28</ele>
        <time>2021-06-11T11:42:17Z</time>
      </trkpt>
      <trkpt lat="47.10496" lon="-1.44136">
        <ele>29</ele>
        <time>2021-06-11T11:42:29Z</time>
      </trkpt>
      <trkpt lat="47.10541" lon="-1.44102">
        <ele>29</ele>
        <time>2021-06-11T11:42:38Z</time>
      </trkpt>
      <trkpt lat="47.10572" lon="-1.44075">
        <ele>30</ele>
        <time>2021-06-11T11:42:44Z</time>
      </trkpt>
      <trkpt lat="47.10588" lon="-1.44058">
        <ele>30</ele>
        <time>2021-06-11T11:42:48Z</time>
      </trkpt>
      <trkpt lat="47.10609" lon="-1.44041">
        <ele>31</ele>
        <time>2021-06-11T11:42:52Z</time>
      </trkpt>
      <trkpt lat="47.10711" lon="-1.43979">
        <ele>35</ele>
        <time>2021-06-11T11:43:12Z</time>
      </trkpt>
      <trkpt lat="47.10754" lon="-1.43936">
        <ele>36</ele>
        <time>2021-06-11T11:43:21Z</time>
      </trkpt>
      <trkpt lat="47.10768" lon="-1.43927">
        <ele>36</ele>
        <time>2021-06-11T11:43:24Z</time>
      </trkpt>
      <trkpt lat="47.1086" lon="-1.43842">
        <ele>39</ele>
        <time>2021-06-11T11:43:43Z</time>
      </trkpt>
      <trkpt lat="47.10886" lon="-1.4382">
        <ele>39</ele>
        <time>2021-06-11T11:43:49Z</time>
      </trkpt>
      <trkpt lat="47.10989" lon="-1.43715">
        <ele>42</ele>
        <time>2021-06-11T11:44:11Z</time>
      </trkpt>
      <trkpt lat="47.11077" lon="-1.43603">
        <ele>45</ele>
        <time>2021-06-11T11:44:32Z</time>
      </trkpt>
      <trkpt lat="47.11097" lon="-1.43586">
        <ele>45</ele>
        <time>2021-06-11T11:44:36Z</time>
      </trkpt>
      <trkpt lat="47.11106" lon="-1.43574">
        <ele>45</ele>
        <time>2021-06-11T11:44:38Z</time>
      </trkpt>
      <trkpt lat="47.11136" lon="-1.43525">
        <ele>45</ele>
        <time>2021-06-11T11:44:46Z</time>
      </trkpt>
      <trkpt lat="47.11253" lon="-1.43324">
        <ele>44</ele>
        <time>2021-06-11T11:45:18Z</time>
      </trkpt>
      <trkpt lat="47.11367" lon="-1.43187">
        <ele>42</ele>
        <time>2021-06-11T11:45:44Z</time>
      </trkpt>
      <trkpt lat="47.11436" lon="-1.43101">
        <ele>39</ele>
        <time>2021-06-11T11:46:00Z</time>
      </trkpt>
      <trkpt lat="47.11552" lon="-1.42992">
        <ele>36</ele>
        <time>2021-06-11T11:46:25Z</time>
      </trkpt>
      <trkpt lat="47.11607" lon="-1.42938">
        <ele>36</ele>
        <time>2021-06-11T11:46:36Z</time>
      </trkpt>
      <trkpt lat="47.11619" lon="-1.42923">
        <ele>36</ele>
        <time>2021-06-11T11:46:39Z</time>
      </trkpt>
      <trkpt lat="47.11628" lon="-1.42909">
        <ele>37</ele>
        <time>2021-06-11T11:46:42Z</time>
      </trkpt>
      <trkpt lat="47.11638" lon="-1.42887">
        <ele>37</ele>
        <time>2021-06-11T11:46:45Z</time>
      </trkpt>
      <trkpt lat="47.11672" lon="-1.42809">
        <ele>38</ele>
        <time>2021-06-11T11:46:56Z</time>
      </trkpt>
      <trkpt lat="47.11692" lon="-1.42731">
        <ele>39</ele>
        <time>2021-06-11T11:47:06Z</time>
      </trkpt>
      <trkpt lat="47.11705" lon="-1.42706">
        <ele>40</ele>
        <time>2021-06-11T11:47:10Z</time>
      </trkpt>
      <trkpt lat="47.11712" lon="-1.42698">
        <ele>41</ele>
        <time>2021-06-11T11:47:11Z</time>
      </trkpt>
      <trkpt lat="47.11724" lon="-1.42688">
        <ele>41</ele>
        <time>2021-06-11T11:47:14Z</time>
      </trkpt>
      <trkpt lat="47.11856" lon="-1.42606">
        <ele>47</ele>
        <time>2021-06-11T11:47:39Z</time>
      </trkpt>
      <trkpt lat="47.11887" lon="-1.4258">
        <ele>48</ele>
        <time>2021-06-11T11:47:46Z</time>
      </trkpt>
      <trkpt lat="47.11918" lon="-1.42548">
        <ele>49</ele>
        <time>2021-06-11T11:47:52Z</time>
      </trkpt>
      <trkpt lat="47.12035" lon="-1.42433">
        <ele>53</ele>
        <time>2021-06-11T11:48:18Z</time>
      </trkpt>
      <trkpt lat="47.12054" lon="-1.42409">
        <ele>53</ele>
        <time>2021-06-11T11:48:22Z</time>
      </trkpt>
      <trkpt lat="47.12062" lon="-1.42393">
        <ele>53</ele>
        <time>2021-06-11T11:48:24Z</time>
      </trkpt>
      <trkpt lat="47.12071" lon="-1.42369">
        <ele>54</ele>
        <time>2021-06-11T11:48:28Z</time>
      </trkpt>
      <trkpt lat="47.12109" lon="-1.4224">
        <ele>53</ele>
        <time>2021-06-11T11:48:45Z</time>
      </trkpt>
      <trkpt lat="47.12119" lon="-1.42209">
        <ele>53</ele>
        <time>2021-06-11T11:48:49Z</time>
      </trkpt>
      <trkpt lat="47.12132" lon="-1.42184">
        <ele>53</ele>
        <time>2021-06-11T11:48:53Z</time>
      </trkpt>
      <trkpt lat="47.12143" lon="-1.42172">
        <ele>53</ele>
        <time>2021-06-11T11:48:55Z</time>
      </trkpt>
      <trkpt lat="47.12155" lon="-1.42163">
        <ele>54</ele>
        <time>2021-06-11T11:48:58Z</time>
      </trkpt>
      <trkpt lat="47.12218" lon="-1.42129">
        <ele>53</ele>
        <time>2021-06-11T11:49:09Z</time>
      </trkpt>
      <trkpt lat="47.12303" lon="-1.42055">
        <ele>53</ele>
        <time>2021-06-11T11:49:27Z</time>
      </trkpt>
      <trkpt lat="47.12318" lon="-1.42043">
        <ele>52</ele>
        <time>2021-06-11T11:49:30Z</time>
      </trkpt>
      <trkpt lat="47.12325" lon="-1.42042">
        <ele>52</ele>
        <time>2021-06-11T11:49:31Z</time>
      </trkpt>
      <trkpt lat="47.1233" lon="-1.42046">
        <ele>53</ele>
        <time>2021-06-11T11:49:32Z</time>
      </trkpt>
      <trkpt lat="47.12336" lon="-1.42057">
        <ele>53</ele>
        <time>2021-06-11T11:49:34Z</time>
      </trkpt>
      <trkpt lat="47.1239" lon="-1.42014">
        <ele>52</ele>
        <time>2021-06-11T11:49:45Z</time>
      </trkpt>
      <trkpt lat="47.12399" lon="-1.42003">
        <ele>52</ele>
        <time>2021-06-11T11:49:47Z</time>
      </trkpt>
      <trkpt lat="47.12432" lon="-1.41948">
        <ele>50</ele>
        <time>2021-06-11T11:49:56Z</time>
      </trkpt>
      <trkpt lat="47.12456" lon="-1.41918">
        <ele>49</ele>
        <time>2021-06-11T11:50:02Z</time>
      </trkpt>
      <trkpt lat="47.12481" lon="-1.41894">
        <ele>48</ele>
        <time>2021-06-11T11:50:07Z</time>
      </trkpt>
      <trkpt lat="47.12516" lon="-1.4187">
        <ele>47</ele>
        <time>2021-06-11T11:50:14Z</time>
      </trkpt>
      <trkpt lat="47.12529" lon="-1.41864">
        <ele>47</ele>
        <time>2021-06-11T11:50:16Z</time>
      </trkpt>
      <trkpt lat="47.12558" lon="-1.41849">
        <ele>47</ele>
        <time>2021-06-11T11:50:22Z</time>
      </trkpt>
      <trkpt lat="47.12568" lon="-1.41839">
        <ele>47</ele>
        <time>2021-06-11T11:50:24Z</time>
      </trkpt>
      <trkpt lat="47.1257" lon="-1.41833">
        <ele>47</ele>
        <time>2021-06-11T11:50:25Z</time>
      </trkpt>
      <trkpt lat="47.12571" lon="-1.41827">
        <ele>46</ele>
        <time>2021-06-11T11:50:25Z</time>
      </trkpt>
      <trkpt lat="47.12573" lon="-1.41818">
        <ele>45</ele>
        <time>2021-06-11T11:50:26Z</time>
      </trkpt>
      <trkpt lat="47.12585" lon="-1.41765">
        <ele>41</ele>
        <time>2021-06-11T11:50:33Z</time>
      </trkpt>
      <trkpt lat="47.12595" lon="-1.41744">
        <ele>39</ele>
        <time>2021-06-11T11:50:36Z</time>
      </trkpt>
      <trkpt lat="47.126" lon="-1.41739">
        <ele>39</ele>
        <time>2021-06-11T11:50:37Z</time>
      </trkpt>
      <trkpt lat="47.12611" lon="-1.41733">
        <ele>38</ele>
        <time>2021-06-11T11:50:39Z</time>
      </trkpt>
      <trkpt lat="47.12645" lon="-1.41724">
        <ele>37</ele>
        <time>2021-06-11T11:50:46Z</time>
      </trkpt>
      <trkpt lat="47.12671" lon="-1.41705">
        <ele>36</ele>
        <time>2021-06-11T11:50:51Z</time>
      </trkpt>
      <trkpt lat="47.12692" lon="-1.41684">
        <ele>33</ele>
        <time>2021-06-11T11:50:55Z</time>
      </trkpt>
      <trkpt lat="47.12706" lon="-1.41676">
        <ele>32</ele>
        <time>2021-06-11T11:50:58Z</time>
      </trkpt>
      <trkpt lat="47.12721" lon="-1.41673">
        <ele>31</ele>
        <time>2021-06-11T11:51:01Z</time>
      </trkpt>
      <trkpt lat="47.12752" lon="-1.41674">
        <ele>31</ele>
        <time>2021-06-11T11:51:06Z</time>
      </trkpt>
      <trkpt lat="47.12767" lon="-1.41666">
        <ele>30</ele>
        <time>2021-06-11T11:51:09Z</time>
      </trkpt>
      <trkpt lat="47.12774" lon="-1.41657">
        <ele>29</ele>
        <time>2021-06-11T11:51:11Z</time>
      </trkpt>
      <trkpt lat="47.12778" lon="-1.41642">
        <ele>28</ele>
        <time>2021-06-11T11:51:13Z</time>
      </trkpt>
      <trkpt lat="47.12778" lon="-1.41618">
        <ele>25</ele>
        <time>2021-06-11T11:51:16Z</time>
      </trkpt>
      <trkpt lat="47.12771" lon="-1.41599">
        <ele>24</ele>
        <time>2021-06-11T11:51:18Z</time>
      </trkpt>
      <trkpt lat="47.12764" lon="-1.41591">
        <ele>23</ele>
        <time>2021-06-11T11:51:20Z</time>
      </trkpt>
      <trkpt lat="47.12759" lon="-1.41587">
        <ele>22</ele>
        <time>2021-06-11T11:51:21Z</time>
      </trkpt>
      <trkpt lat="47.12749" lon="-1.41585">
        <ele>22</ele>
        <time>2021-06-11T11:51:23Z</time>
      </trkpt>
      <trkpt lat="47.12716" lon="-1.41591">
        <ele>22</ele>
        <time>2021-06-11T11:51:28Z</time>
      </trkpt>
      <trkpt lat="47.127" lon="-1.41586">
        <ele>21</ele>
        <time>2021-06-11T11:51:31Z</time>
      </trkpt>
      <trkpt lat="47.12674" lon="-1.41571">
        <ele>19</ele>
        <time>2021-06-11T11:51:36Z</time>
      </trkpt>
      <trkpt lat="47.12665" lon="-1.41571">
        <ele>19</ele>
        <time>2021-06-11T11:51:38Z</time>
      </trkpt>
      <trkpt lat="47.12649" lon="-1.41582">
        <ele>19</ele>
        <time>2021-06-11T11:51:41Z</time>
      </trkpt>
      <trkpt lat="47.12635" lon="-1.41585">
        <ele>18</ele>
        <time>2021-06-11T11:51:44Z</time>
      </trkpt>
      <trkpt lat="47.12631" lon="-1.41586">
        <ele>18</ele>
        <time>2021-06-11T11:51:44Z</time>
      </trkpt>
      <trkpt lat="47.1262" lon="-1.41584">
        <ele>17</ele>
        <time>2021-06-11T11:51:46Z</time>
      </trkpt>
      <trkpt lat="47.12611" lon="-1.41577">
        <ele>16</ele>
        <time>2021-06-11T11:51:48Z</time>
      </trkpt>
      <trkpt lat="47.12606" lon="-1.41572">
        <ele>15</ele>
        <time>2021-06-11T11:51:49Z</time>
      </trkpt>
      <trkpt lat="47.12599" lon="-1.41561">
        <ele>14</ele>
        <time>2021-06-11T11:51:51Z</time>
      </trkpt>
      <trkpt lat="47.12586" lon="-1.41538">
        <ele>11</ele>
        <time>2021-06-11T11:51:55Z</time>
      </trkpt>
      <trkpt lat="47.12573" lon="-1.41515">
        <ele>9</ele>
        <time>2021-06-11T11:51:58Z</time>
      </trkpt>
      <trkpt lat="47.12569" lon="-1.41507">
        <ele>9</ele>
        <time>2021-06-11T11:51:59Z</time>
      </trkpt>
      <trkpt lat="47.1256" lon="-1.41492">
        <ele>9</ele>
        <time>2021-06-11T11:52:02Z</time>
      </trkpt>
      <trkpt lat="47.12553" lon="-1.41479">
        <ele>9</ele>
        <time>2021-06-11T11:52:04Z</time>
      </trkpt>
      <trkpt lat="47.12528" lon="-1.41435">
        <ele>13</ele>
        <time>2021-06-11T11:52:11Z</time>
      </trkpt>
      <trkpt lat="47.12522" lon="-1.41425">
        <ele>14</ele>
        <time>2021-06-11T11:52:12Z</time>
      </trkpt>
      <trkpt lat="47.12527" lon="-1.41415">
        <ele>15</ele>
        <time>2021-06-11T11:52:14Z</time>
      </trkpt>
      <trkpt lat="47.12531" lon="-1.41408">
        <ele>15</ele>
        <time>2021-06-11T11:52:15Z</time>
      </trkpt>
      <trkpt lat="47.12557" lon="-1.41365">
        <ele>19</ele>
        <time>2021-06-11T11:52:22Z</time>
      </trkpt>
      <trkpt lat="47.12581" lon="-1.41329">
        <ele>21</ele>
        <time>2021-06-11T11:52:28Z</time>
      </trkpt>
      <trkpt lat="47.12593" lon="-1.41305">
        <ele>25</ele>
        <time>2021-06-11T11:52:32Z</time>
      </trkpt>
      <trkpt lat="47.12601" lon="-1.41284">
        <ele>28</ele>
        <time>2021-06-11T11:52:35Z</time>
      </trkpt>
      <trkpt lat="47.12605" lon="-1.4128">
        <ele>28</ele>
        <time>2021-06-11T11:52:35Z</time>
      </trkpt>
      <trkpt lat="47.12626" lon="-1.41278">
        <ele>27</ele>
        <time>2021-06-11T11:52:39Z</time>
      </trkpt>
      <trkpt lat="47.12631" lon="-1.41275">
        <ele>27</ele>
        <time>2021-06-11T11:52:40Z</time>
      </trkpt>
      <trkpt lat="47.12645" lon="-1.41256">
        <ele>30</ele>
        <time>2021-06-11T11:52:44Z</time>
      </trkpt>
      <trkpt lat="47.12679" lon="-1.41248">
        <ele>29</ele>
        <time>2021-06-11T11:52:50Z</time>
      </trkpt>
      <trkpt lat="47.12695" lon="-1.41238">
        <ele>28</ele>
        <time>2021-06-11T11:52:53Z</time>
      </trkpt>
      <trkpt lat="47.12713" lon="-1.41224">
        <ele>28</ele>
        <time>2021-06-11T11:52:56Z</time>
      </trkpt>
      <trkpt lat="47.12747" lon="-1.41189">
        <ele>32</ele>
        <time>2021-06-11T11:53:04Z</time>
      </trkpt>
      <trkpt lat="47.12805" lon="-1.41079">
        <ele>38</ele>
        <time>2021-06-11T11:53:21Z</time>
      </trkpt>
      <trkpt lat="47.12809" lon="-1.41064">
        <ele>38</ele>
        <time>2021-06-11T11:53:23Z</time>
      </trkpt>
      <trkpt lat="47.12811" lon="-1.41052">
        <ele>38</ele>
        <time>2021-06-11T11:53:24Z</time>
      </trkpt>
      <trkpt lat="47.12808" lon="-1.41027">
        <ele>38</ele>
        <time>2021-06-11T11:53:27Z</time>
      </trkpt>
      <trkpt lat="47.12769" lon="-1.40941">
        <ele>43</ele>
        <time>2021-06-11T11:53:40Z</time>
      </trkpt>
      <trkpt lat="47.12758" lon="-1.40924">
        <ele>44</ele>
        <time>2021-06-11T11:53:43Z</time>
      </trkpt>
      <trkpt lat="47.12748" lon="-1.40915">
        <ele>45</ele>
        <time>2021-06-11T11:53:45Z</time>
      </trkpt>
      <trkpt lat="47.12744" lon="-1.40914">
        <ele>45</ele>
        <time>2021-06-11T11:53:45Z</time>
      </trkpt>
      <trkpt lat="47.12739" lon="-1.40912">
        <ele>45</ele>
        <time>2021-06-11T11:53:46Z</time>
      </trkpt>
      <trkpt lat="47.12727" lon="-1.40909">
        <ele>46</ele>
        <time>2021-06-11T11:53:48Z</time>
      </trkpt>
      <trkpt lat="47.12707" lon="-1.40905">
        <ele>46</ele>
        <time>2021-06-11T11:53:52Z</time>
      </trkpt>
      <trkpt lat="47.12676" lon="-1.40899">
        <ele>48</ele>
        <time>2021-06-11T11:53:58Z</time>
      </trkpt>
      <trkpt lat="47.12656" lon="-1.40895">
        <ele>48</ele>
        <time>2021-06-11T11:54:01Z</time>
      </trkpt>
      <trkpt lat="47.12611" lon="-1.40884">
        <ele>50</ele>
        <time>2021-06-11T11:54:09Z</time>
      </trkpt>
      <trkpt lat="47.1258" lon="-1.40878">
        <ele>52</ele>
        <time>2021-06-11T11:54:15Z</time>
      </trkpt>
      <trkpt lat="47.12531" lon="-1.40866">
        <ele>52</ele>
        <time>2021-06-11T11:54:24Z</time>
      </trkpt>
      <trkpt lat="47.12486" lon="-1.40857">
        <ele>52</ele>
        <time>2021-06-11T11:54:32Z</time>
      </trkpt>
      <trkpt lat="47.12465" lon="-1.40851">
        <ele>53</ele>
        <time>2021-06-11T11:54:36Z</time>
      </trkpt>
      <trkpt lat="47.12446" lon="-1.40841">
        <ele>53</ele>
        <time>2021-06-11T11:54:39Z</time>
      </trkpt>
      <trkpt lat="47.12437" lon="-1.40834">
        <ele>53</ele>
        <time>2021-06-11T11:54:41Z</time>
      </trkpt>
      <trkpt lat="47.12427" lon="-1.40823">
        <ele>54</ele>
        <time>2021-06-11T11:54:43Z</time>
      </trkpt>
      <trkpt lat="47.12417" lon="-1.40811">
        <ele>55</ele>
        <time>2021-06-11T11:54:46Z</time>
      </trkpt>
      <trkpt lat="47.12402" lon="-1.40786">
        <ele>55</ele>
        <time>2021-06-11T11:54:50Z</time>
      </trkpt>
      <trkpt lat="47.12391" lon="-1.40769">
        <ele>55</ele>
        <time>2021-06-11T11:54:52Z</time>
      </trkpt>
      <trkpt lat="47.12373" lon="-1.40741">
        <ele>56</ele>
        <time>2021-06-11T11:54:57Z</time>
      </trkpt>
      <trkpt lat="47.12358" lon="-1.40718">
        <ele>56</ele>
        <time>2021-06-11T11:55:01Z</time>
      </trkpt>
      <trkpt lat="47.12342" lon="-1.40703">
        <ele>57</ele>
        <time>2021-06-11T11:55:04Z</time>
      </trkpt>
      <trkpt lat="47.1229" lon="-1.40676">
        <ele>56</ele>
        <time>2021-06-11T11:55:14Z</time>
      </trkpt>
      <trkpt lat="47.12285" lon="-1.40672">
        <ele>56</ele>
        <time>2021-06-11T11:55:15Z</time>
      </trkpt>
      <trkpt lat="47.12277" lon="-1.4066">
        <ele>56</ele>
        <time>2021-06-11T11:55:17Z</time>
      </trkpt>
      <trkpt lat="47.12268" lon="-1.40641">
        <ele>56</ele>
        <time>2021-06-11T11:55:20Z</time>
      </trkpt>
      <trkpt lat="47.12256" lon="-1.40608">
        <ele>57</ele>
        <time>2021-06-11T11:55:24Z</time>
      </trkpt>
      <trkpt lat="47.12246" lon="-1.40577">
        <ele>57</ele>
        <time>2021-06-11T11:55:29Z</time>
      </trkpt>
      <trkpt lat="47.12236" lon="-1.4055">
        <ele>57</ele>
        <time>2021-06-11T11:55:32Z</time>
      </trkpt>
      <trkpt lat="47.12231" lon="-1.40531">
        <ele>57</ele>
        <time>2021-06-11T11:55:35Z</time>
      </trkpt>
      <trkpt lat="47.12225" lon="-1.40505">
        <ele>57</ele>
        <time>2021-06-11T11:55:38Z</time>
      </trkpt>
      <trkpt lat="47.12217" lon="-1.40471">
        <ele>58</ele>
        <time>2021-06-11T11:55:42Z</time>
      </trkpt>
      <trkpt lat="47.12209" lon="-1.40437">
        <ele>58</ele>
        <time>2021-06-11T11:55:47Z</time>
      </trkpt>
      <trkpt lat="47.12199" lon="-1.40382">
        <ele>58</ele>
        <time>2021-06-11T11:55:54Z</time>
      </trkpt>
      <trkpt lat="47.12184" lon="-1.4031">
        <ele>58</ele>
        <time>2021-06-11T11:56:03Z</time>
      </trkpt>
      <trkpt lat="47.12183" lon="-1.40303">
        <ele>58</ele>
        <time>2021-06-11T11:56:04Z</time>
      </trkpt>
      <trkpt lat="47.12157" lon="-1.40311">
        <ele>58</ele>
        <time>2021-06-11T11:56:08Z</time>
      </trkpt>
      <trkpt lat="47.12133" lon="-1.40308">
        <ele>58</ele>
        <time>2021-06-11T11:56:13Z</time>
      </trkpt>
      <trkpt lat="47.12105" lon="-1.40295">
        <ele>58</ele>
        <time>2021-06-11T11:56:18Z</time>
      </trkpt>
      <trkpt lat="47.12032" lon="-1.40255">
        <ele>56</ele>
        <time>2021-06-11T11:56:32Z</time>
      </trkpt>
      <trkpt lat="47.11991" lon="-1.40229">
        <ele>55</ele>
        <time>2021-06-11T11:56:40Z</time>
      </trkpt>
      <trkpt lat="47.11983" lon="-1.40221">
        <ele>55</ele>
        <time>2021-06-11T11:56:41Z</time>
      </trkpt>
      <trkpt lat="47.11956" lon="-1.40181">
        <ele>56</ele>
        <time>2021-06-11T11:56:48Z</time>
      </trkpt>
      <trkpt lat="47.11808" lon="-1.39938">
        <ele>54</ele>
        <time>2021-06-11T11:57:28Z</time>
      </trkpt>
      <trkpt lat="47.11791" lon="-1.39914">
        <ele>54</ele>
        <time>2021-06-11T11:57:32Z</time>
      </trkpt>
      <trkpt lat="47.11771" lon="-1.39893">
        <ele>54</ele>
        <time>2021-06-11T11:57:36Z</time>
      </trkpt>
      <trkpt lat="47.11248" lon="-1.3943">
        <ele>54</ele>
        <time>2021-06-11T11:59:25Z</time>
      </trkpt>
      <trkpt lat="47.11234" lon="-1.39415">
        <ele>54</ele>
        <time>2021-06-11T11:59:28Z</time>
      </trkpt>
      <trkpt lat="47.1122" lon="-1.39397">
        <ele>55</ele>
        <time>2021-06-11T11:59:31Z</time>
      </trkpt>
      <trkpt lat="47.11176" lon="-1.39337">
        <ele>56</ele>
        <time>2021-06-11T11:59:42Z</time>
      </trkpt>
      <trkpt lat="47.11095" lon="-1.39241">
        <ele>55</ele>
        <time>2021-06-11T12:00:01Z</time>
      </trkpt>
      <trkpt lat="47.11085" lon="-1.39226">
        <ele>55</ele>
        <time>2021-06-11T12:00:03Z</time>
      </trkpt>
      <trkpt lat="47.10806" lon="-1.38774">
        <ele>55</ele>
        <time>2021-06-11T12:01:17Z</time>
      </trkpt>
      <trkpt lat="47.10801" lon="-1.38765">
        <ele>55</ele>
        <time>2021-06-11T12:01:18Z</time>
      </trkpt>
      <trkpt lat="47.10789" lon="-1.38754">
        <ele>55</ele>
        <time>2021-06-11T12:01:21Z</time>
      </trkpt>
      <trkpt lat="47.10779" lon="-1.38748">
        <ele>55</ele>
        <time>2021-06-11T12:01:23Z</time>
      </trkpt>
      <trkpt lat="47.10761" lon="-1.38745">
        <ele>55</ele>
        <time>2021-06-11T12:01:26Z</time>
      </trkpt>
      <trkpt lat="47.10737" lon="-1.38747">
        <ele>55</ele>
        <time>2021-06-11T12:01:30Z</time>
      </trkpt>
      <trkpt lat="47.1065" lon="-1.38764">
        <ele>55</ele>
        <time>2021-06-11T12:01:46Z</time>
      </trkpt>
      <trkpt lat="47.1058" lon="-1.38775">
        <ele>54</ele>
        <time>2021-06-11T12:01:59Z</time>
      </trkpt>
      <trkpt lat="47.1056" lon="-1.38773">
        <ele>53</ele>
        <time>2021-06-11T12:02:02Z</time>
      </trkpt>
      <trkpt lat="47.10539" lon="-1.38766">
        <ele>52</ele>
        <time>2021-06-11T12:02:06Z</time>
      </trkpt>
      <trkpt lat="47.10463" lon="-1.38721">
        <ele>50</ele>
        <time>2021-06-11T12:02:21Z</time>
      </trkpt>
      <trkpt lat="47.10432" lon="-1.38707">
        <ele>49</ele>
        <time>2021-06-11T12:02:26Z</time>
      </trkpt>
      <trkpt lat="47.10412" lon="-1.38701">
        <ele>49</ele>
        <time>2021-06-11T12:02:30Z</time>
      </trkpt>
      <trkpt lat="47.10349" lon="-1.38688">
        <ele>51</ele>
        <time>2021-06-11T12:02:41Z</time>
      </trkpt>
      <trkpt lat="47.10286" lon="-1.38673">
        <ele>51</ele>
        <time>2021-06-11T12:02:53Z</time>
      </trkpt>
      <trkpt lat="47.10157" lon="-1.38646">
        <ele>49</ele>
        <time>2021-06-11T12:03:16Z</time>
      </trkpt>
      <trkpt lat="47.10128" lon="-1.38638">
        <ele>51</ele>
        <time>2021-06-11T12:03:21Z</time>
      </trkpt>
      <trkpt lat="47.10117" lon="-1.38632">
        <ele>51</ele>
        <time>2021-06-11T12:03:23Z</time>
      </trkpt>
      <trkpt lat="47.10095" lon="-1.38614">
        <ele>53</ele>
        <time>2021-06-11T12:03:28Z</time>
      </trkpt>
      <trkpt lat="47.10051" lon="-1.3856">
        <ele>57</ele>
        <time>2021-06-11T12:03:38Z</time>
      </trkpt>
      <trkpt lat="47.10041" lon="-1.38552">
        <ele>58</ele>
        <time>2021-06-11T12:03:40Z</time>
      </trkpt>
      <trkpt lat="47.10032" lon="-1.38548">
        <ele>58</ele>
        <time>2021-06-11T12:03:41Z</time>
      </trkpt>
      <trkpt lat="47.10009" lon="-1.38544">
        <ele>60</ele>
        <time>2021-06-11T12:03:46Z</time>
      </trkpt>
      <trkpt lat="47.09978" lon="-1.38542">
        <ele>60</ele>
        <time>2021-06-11T12:03:51Z</time>
      </trkpt>
      <trkpt lat="47.09978" lon="-1.38546">
        <ele>60</ele>
        <time>2021-06-11T12:03:52Z</time>
      </trkpt>
      <trkpt lat="47.09973" lon="-1.38557">
        <ele>60</ele>
        <time>2021-06-11T12:03:53Z</time>
      </trkpt>
      <trkpt lat="47.09971" lon="-1.38559">
        <ele>61</ele>
        <time>2021-06-11T12:03:54Z</time>
      </trkpt>
      <trkpt lat="47.09967" lon="-1.38559">
        <ele>61</ele>
        <time>2021-06-11T12:03:54Z</time>
      </trkpt>
      <trkpt lat="47.0996" lon="-1.38555">
        <ele>60</ele>
        <time>2021-06-11T12:03:56Z</time>
      </trkpt>
      <trkpt lat="47.09957" lon="-1.38545">
        <ele>60</ele>
        <time>2021-06-11T12:03:57Z</time>
      </trkpt>
      <trkpt lat="47.09958" lon="-1.38537">
        <ele>60</ele>
        <time>2021-06-11T12:03:58Z</time>
      </trkpt>
      <trkpt lat="47.0995" lon="-1.38534">
        <ele>60</ele>
        <time>2021-06-11T12:03:59Z</time>
      </trkpt>
      <trkpt lat="47.0993" lon="-1.3853">
        <ele>60</ele>
        <time>2021-06-11T12:04:03Z</time>
      </trkpt>
      <trkpt lat="47.09914" lon="-1.38528">
        <ele>60</ele>
        <time>2021-06-11T12:04:06Z</time>
      </trkpt>
      <trkpt lat="47.0991" lon="-1.38527">
        <ele>60</ele>
        <time>2021-06-11T12:04:07Z</time>
      </trkpt>
      <trkpt lat="47.09888" lon="-1.38525">
        <ele>61</ele>
        <time>2021-06-11T12:04:11Z</time>
      </trkpt>
      <trkpt lat="47.09849" lon="-1.38514">
        <ele>62</ele>
        <time>2021-06-11T12:04:18Z</time>
      </trkpt>
      <trkpt lat="47.09788" lon="-1.38492">
        <ele>60</ele>
        <time>2021-06-11T12:04:29Z</time>
      </trkpt>
      <trkpt lat="47.09741" lon="-1.38477">
        <ele>59</ele>
        <time>2021-06-11T12:04:37Z</time>
      </trkpt>
      <trkpt lat="47.09733" lon="-1.38475">
        <ele>58</ele>
        <time>2021-06-11T12:04:39Z</time>
      </trkpt>
      <trkpt lat="47.09729" lon="-1.38472">
        <ele>58</ele>
        <time>2021-06-11T12:04:40Z</time>
      </trkpt>
      <trkpt lat="47.09722" lon="-1.38476">
        <ele>58</ele>
        <time>2021-06-11T12:04:41Z</time>
      </trkpt>
      <trkpt lat="47.09719" lon="-1.38476">
        <ele>58</ele>
        <time>2021-06-11T12:04:41Z</time>
      </trkpt>
      <trkpt lat="47.09716" lon="-1.38476">
        <ele>58</ele>
        <time>2021-06-11T12:04:42Z</time>
      </trkpt>
      <trkpt lat="47.09713" lon="-1.38473">
        <ele>58</ele>
        <time>2021-06-11T12:04:43Z</time>
      </trkpt>
      <trkpt lat="47.09711" lon="-1.38469">
        <ele>58</ele>
        <time>2021-06-11T12:04:43Z</time>
      </trkpt>
      <trkpt lat="47.09709" lon="-1.38461">
        <ele>58</ele>
        <time>2021-06-11T12:04:44Z</time>
      </trkpt>
      <trkpt lat="47.09708" lon="-1.38448">
        <ele>58</ele>
        <time>2021-06-11T12:04:46Z</time>
      </trkpt>
      <trkpt lat="47.09707" lon="-1.38418">
        <ele>58</ele>
        <time>2021-06-11T12:04:50Z</time>
      </trkpt>
      <trkpt lat="47.09707" lon="-1.38415">
        <ele>58</ele>
        <time>2021-06-11T12:04:50Z</time>
      </trkpt>
      <trkpt lat="47.09707" lon="-1.38406">
        <ele>58</ele>
        <time>2021-06-11T12:04:51Z</time>
      </trkpt>
      <trkpt lat="47.09709" lon="-1.384">
        <ele>58</ele>
        <time>2021-06-11T12:04:52Z</time>
      </trkpt>
      <trkpt lat="47.09712" lon="-1.38399">
        <ele>58</ele>
        <time>2021-06-11T12:04:52Z</time>
      </trkpt>
      <trkpt lat="47.09721" lon="-1.38396">
        <ele>59</ele>
        <time>2021-06-11T12:04:54Z</time>
      </trkpt>
      <trkpt lat="47.09734" lon="-1.38395">
        <ele>59</ele>
        <time>2021-06-11T12:04:56Z</time>
      </trkpt>
      <trkpt lat="47.09735" lon="-1.38396">
        <ele>59</ele>
        <time>2021-06-11T12:04:56Z</time>
      </trkpt>
      <trkpt lat="47.09738" lon="-1.38385">
        <ele>59</ele>
        <time>2021-06-11T12:04:58Z</time>
      </trkpt>
      <trkpt lat="47.0974" lon="-1.38366">
        <ele>59</ele>
        <time>2021-06-11T12:05:00Z</time>
      </trkpt>
      <trkpt lat="47.09743" lon="-1.38358">
        <ele>60</ele>
        <time>2021-06-11T12:05:01Z</time>
      </trkpt>
      <trkpt lat="47.09748" lon="-1.38353">
        <ele>60</ele>
        <time>2021-06-11T12:05:02Z</time>
      </trkpt>
      <trkpt lat="47.09783" lon="-1.38335">
        <ele>60</ele>
        <time>2021-06-11T12:05:09Z</time>
      </trkpt>
      <trkpt lat="47.09785" lon="-1.38334">
        <ele>60</ele>
        <time>2021-06-11T12:05:09Z</time>
      </trkpt>
      <trkpt lat="47.09847" lon="-1.38289">
        <ele>60</ele>
        <time>2021-06-11T12:05:22Z</time>
      </trkpt>
      <trkpt lat="47.0986" lon="-1.38282">
        <ele>60</ele>
        <time>2021-06-11T12:05:24Z</time>
      </trkpt>
      <trkpt lat="47.09866" lon="-1.38278">
        <ele>60</ele>
        <time>2021-06-11T12:05:25Z</time>
      </trkpt>
      <trkpt lat="47.09873" lon="-1.38275">
        <ele>60</ele>
        <time>2021-06-11T12:05:27Z</time>
      </trkpt>
      <trkpt lat="47.09936" lon="-1.38254">
        <ele>60</ele>
        <time>2021-06-11T12:05:38Z</time>
      </trkpt>
      <trkpt lat="47.09943" lon="-1.38254">
        <ele>59</ele>
        <time>2021-06-11T12:05:39Z</time>
      </trkpt>
      <trkpt lat="47.09948" lon="-1.38246">
        <ele>59</ele>
        <time>2021-06-11T12:05:41Z</time>
      </trkpt>
      <trkpt lat="47.10024" lon="-1.38149">
        <ele>57</ele>
        <time>2021-06-11T12:05:59Z</time>
      </trkpt>
      <trkpt lat="47.10038" lon="-1.38137">
        <ele>57</ele>
        <time>2021-06-11T12:06:02Z</time>
      </trkpt>
      <trkpt lat="47.10051" lon="-1.38126">
        <ele>57</ele>
        <time>2021-06-11T12:06:04Z</time>
      </trkpt>
      <trkpt lat="47.10054" lon="-1.38124">
        <ele>57</ele>
        <time>2021-06-11T12:06:05Z</time>
      </trkpt>
      <trkpt lat="47.10062" lon="-1.38119">
        <ele>57</ele>
        <time>2021-06-11T12:06:06Z</time>
      </trkpt>
      <trkpt lat="47.10072" lon="-1.38115">
        <ele>57</ele>
        <time>2021-06-11T12:06:08Z</time>
      </trkpt>
      <trkpt lat="47.10106" lon="-1.381">
        <ele>57</ele>
        <time>2021-06-11T12:06:14Z</time>
      </trkpt>
      <trkpt lat="47.10127" lon="-1.3809">
        <ele>56</ele>
        <time>2021-06-11T12:06:18Z</time>
      </trkpt>
      <trkpt lat="47.1015" lon="-1.38075">
        <ele>56</ele>
        <time>2021-06-11T12:06:23Z</time>
      </trkpt>
      <trkpt lat="47.10203" lon="-1.38027">
        <ele>56</ele>
        <time>2021-06-11T12:06:34Z</time>
      </trkpt>
      <trkpt lat="47.10217" lon="-1.38014">
        <ele>56</ele>
        <time>2021-06-11T12:06:37Z</time>
      </trkpt>
      <trkpt lat="47.10224" lon="-1.38008">
        <ele>56</ele>
        <time>2021-06-11T12:06:38Z</time>
      </trkpt>
      <trkpt lat="47.10244" lon="-1.37997">
        <ele>55</ele>
        <time>2021-06-11T12:06:42Z</time>
      </trkpt>
      <trkpt lat="47.10267" lon="-1.37984">
        <ele>55</ele>
        <time>2021-06-11T12:06:47Z</time>
      </trkpt>
      <trkpt lat="47.10411" lon="-1.3792">
        <ele>54</ele>
        <time>2021-06-11T12:07:13Z</time>
      </trkpt>
      <trkpt lat="47.10449" lon="-1.379">
        <ele>54</ele>
        <time>2021-06-11T12:07:20Z</time>
      </trkpt>
      <trkpt lat="47.10477" lon="-1.37878">
        <ele>55</ele>
        <time>2021-06-11T12:07:26Z</time>
      </trkpt>
      <trkpt lat="47.11022" lon="-1.37281">
        <ele>59</ele>
        <time>2021-06-11T12:09:27Z</time>
      </trkpt>
      <trkpt lat="47.11131" lon="-1.37165">
        <ele>60</ele>
        <time>2021-06-11T12:09:51Z</time>
      </trkpt>
      <trkpt lat="47.11158" lon="-1.37138">
        <ele>59</ele>
        <time>2021-06-11T12:09:57Z</time>
      </trkpt>
      <trkpt lat="47.1139" lon="-1.36965">
        <ele>56</ele>
        <time>2021-06-11T12:10:43Z</time>
      </trkpt>
      <trkpt lat="47.11409" lon="-1.36934">
        <ele>56</ele>
        <time>2021-06-11T12:10:48Z</time>
      </trkpt>
      <trkpt lat="47.11449" lon="-1.36832">
        <ele>56</ele>
        <time>2021-06-11T12:11:02Z</time>
      </trkpt>
      <trkpt lat="47.11475" lon="-1.36792">
        <ele>56</ele>
        <time>2021-06-11T12:11:09Z</time>
      </trkpt>
      <trkpt lat="47.11605" lon="-1.36662">
        <ele>55</ele>
        <time>2021-06-11T12:11:37Z</time>
      </trkpt>
      <trkpt lat="47.1173" lon="-1.36545">
        <ele>55</ele>
        <time>2021-06-11T12:12:03Z</time>
      </trkpt>
      <trkpt lat="47.11747" lon="-1.36531">
        <ele>55</ele>
        <time>2021-06-11T12:12:07Z</time>
      </trkpt>
      <trkpt lat="47.11847" lon="-1.36468">
        <ele>51</ele>
        <time>2021-06-11T12:12:26Z</time>
      </trkpt>
      <trkpt lat="47.11875" lon="-1.36442">
        <ele>51</ele>
        <time>2021-06-11T12:12:32Z</time>
      </trkpt>
      <trkpt lat="47.11886" lon="-1.36441">
        <ele>50</ele>
        <time>2021-06-11T12:12:34Z</time>
      </trkpt>
      <trkpt lat="47.11902" lon="-1.36435">
        <ele>50</ele>
        <time>2021-06-11T12:12:37Z</time>
      </trkpt>
      <trkpt lat="47.12012" lon="-1.36365">
        <ele>47</ele>
        <time>2021-06-11T12:12:58Z</time>
      </trkpt>
      <trkpt lat="47.1214" lon="-1.36288">
        <ele>49</ele>
        <time>2021-06-11T12:13:23Z</time>
      </trkpt>
      <trkpt lat="47.1228" lon="-1.36199">
        <ele>50</ele>
        <time>2021-06-11T12:13:50Z</time>
      </trkpt>
      <trkpt lat="47.12362" lon="-1.36151">
        <ele>48</ele>
        <time>2021-06-11T12:14:06Z</time>
      </trkpt>
      <trkpt lat="47.12448" lon="-1.36082">
        <ele>47</ele>
        <time>2021-06-11T12:14:23Z</time>
      </trkpt>
      <trkpt lat="47.12735" lon="-1.35822">
        <ele>36</ele>
        <time>2021-06-11T12:15:23Z</time>
      </trkpt>
      <trkpt lat="47.12762" lon="-1.358">
        <ele>36</ele>
        <time>2021-06-11T12:15:29Z</time>
      </trkpt>
      <trkpt lat="47.12781" lon="-1.35787">
        <ele>35</ele>
        <time>2021-06-11T12:15:33Z</time>
      </trkpt>
      <trkpt lat="47.12805" lon="-1.35776">
        <ele>35</ele>
        <time>2021-06-11T12:15:37Z</time>
      </trkpt>
      <trkpt lat="47.12838" lon="-1.35764">
        <ele>34</ele>
        <time>2021-06-11T12:15:43Z</time>
      </trkpt>
      <trkpt lat="47.12874" lon="-1.35751">
        <ele>34</ele>
        <time>2021-06-11T12:15:50Z</time>
      </trkpt>
      <trkpt lat="47.12886" lon="-1.35746">
        <ele>34</ele>
        <time>2021-06-11T12:15:52Z</time>
      </trkpt>
      <trkpt lat="47.12901" lon="-1.35741">
        <ele>34</ele>
        <time>2021-06-11T12:15:55Z</time>
      </trkpt>
      <trkpt lat="47.12905" lon="-1.3574">
        <ele>34</ele>
        <time>2021-06-11T12:15:55Z</time>
      </trkpt>
      <trkpt lat="47.1293" lon="-1.35731">
        <ele>35</ele>
        <time>2021-06-11T12:16:00Z</time>
      </trkpt>
      <trkpt lat="47.12963" lon="-1.35718">
        <ele>35</ele>
        <time>2021-06-11T12:16:06Z</time>
      </trkpt>
      <trkpt lat="47.12987" lon="-1.35709">
        <ele>35</ele>
        <time>2021-06-11T12:16:10Z</time>
      </trkpt>
      <trkpt lat="47.12998" lon="-1.35705">
        <ele>35</ele>
        <time>2021-06-11T12:16:12Z</time>
      </trkpt>
      <trkpt lat="47.13019" lon="-1.35695">
        <ele>34</ele>
        <time>2021-06-11T12:16:16Z</time>
      </trkpt>
      <trkpt lat="47.13037" lon="-1.35688">
        <ele>34</ele>
        <time>2021-06-11T12:16:20Z</time>
      </trkpt>
      <trkpt lat="47.1304" lon="-1.35687">
        <ele>34</ele>
        <time>2021-06-11T12:16:20Z</time>
      </trkpt>
      <trkpt lat="47.13048" lon="-1.35685">
        <ele>33</ele>
        <time>2021-06-11T12:16:22Z</time>
      </trkpt>
      <trkpt lat="47.13049" lon="-1.35684">
        <ele>33</ele>
        <time>2021-06-11T12:16:22Z</time>
      </trkpt>
      <trkpt lat="47.13062" lon="-1.3568">
        <ele>33</ele>
        <time>2021-06-11T12:16:24Z</time>
      </trkpt>
      <trkpt lat="47.13073" lon="-1.35675">
        <ele>33</ele>
        <time>2021-06-11T12:16:26Z</time>
      </trkpt>
      <trkpt lat="47.13082" lon="-1.3567">
        <ele>33</ele>
        <time>2021-06-11T12:16:28Z</time>
      </trkpt>
      <trkpt lat="47.1311" lon="-1.35651">
        <ele>32</ele>
        <time>2021-06-11T12:16:33Z</time>
      </trkpt>
      <trkpt lat="47.13129" lon="-1.35632">
        <ele>31</ele>
        <time>2021-06-11T12:16:38Z</time>
      </trkpt>
      <trkpt lat="47.13133" lon="-1.35623">
        <ele>31</ele>
        <time>2021-06-11T12:16:39Z</time>
      </trkpt>
      <trkpt lat="47.13137" lon="-1.35611">
        <ele>31</ele>
        <time>2021-06-11T12:16:40Z</time>
      </trkpt>
      <trkpt lat="47.13149" lon="-1.3556">
        <ele>32</ele>
        <time>2021-06-11T12:16:47Z</time>
      </trkpt>
      <trkpt lat="47.13151" lon="-1.35552">
        <ele>32</ele>
        <time>2021-06-11T12:16:48Z</time>
      </trkpt>
      <trkpt lat="47.13163" lon="-1.35548">
        <ele>32</ele>
        <time>2021-06-11T12:16:50Z</time>
      </trkpt>
      <trkpt lat="47.13168" lon="-1.35543">
        <ele>31</ele>
        <time>2021-06-11T12:16:51Z</time>
      </trkpt>
      <trkpt lat="47.13183" lon="-1.35527">
        <ele>31</ele>
        <time>2021-06-11T12:16:55Z</time>
      </trkpt>
      <trkpt lat="47.13186" lon="-1.35522">
        <ele>31</ele>
        <time>2021-06-11T12:16:55Z</time>
      </trkpt>
      <trkpt lat="47.13207" lon="-1.35496">
        <ele>30</ele>
        <time>2021-06-11T12:17:00Z</time>
      </trkpt>
      <trkpt lat="47.13212" lon="-1.35491">
        <ele>29</ele>
        <time>2021-06-11T12:17:01Z</time>
      </trkpt>
      <trkpt lat="47.13233" lon="-1.35467">
        <ele>29</ele>
        <time>2021-06-11T12:17:06Z</time>
      </trkpt>
      <trkpt lat="47.13292" lon="-1.35391">
        <ele>27</ele>
        <time>2021-06-11T12:17:20Z</time>
      </trkpt>
      <trkpt lat="47.13295" lon="-1.35388">
        <ele>26</ele>
        <time>2021-06-11T12:17:21Z</time>
      </trkpt>
      <trkpt lat="47.13305" lon="-1.3538">
        <ele>26</ele>
        <time>2021-06-11T12:17:23Z</time>
      </trkpt>
      <trkpt lat="47.13341" lon="-1.3536">
        <ele>24</ele>
        <time>2021-06-11T12:17:30Z</time>
      </trkpt>
      <trkpt lat="47.13365" lon="-1.35351">
        <ele>24</ele>
        <time>2021-06-11T12:17:34Z</time>
      </trkpt>
      <trkpt lat="47.13388" lon="-1.35345">
        <ele>23</ele>
        <time>2021-06-11T12:17:38Z</time>
      </trkpt>
      <trkpt lat="47.134" lon="-1.35343">
        <ele>22</ele>
        <time>2021-06-11T12:17:40Z</time>
      </trkpt>
      <trkpt lat="47.13446" lon="-1.35338">
        <ele>21</ele>
        <time>2021-06-11T12:17:48Z</time>
      </trkpt>
      <trkpt lat="47.13478" lon="-1.35338">
        <ele>19</ele>
        <time>2021-06-11T12:17:54Z</time>
      </trkpt>
      <trkpt lat="47.13487" lon="-1.35339">
        <ele>19</ele>
        <time>2021-06-11T12:17:56Z</time>
      </trkpt>
      <trkpt lat="47.135" lon="-1.35343">
        <ele>18</ele>
        <time>2021-06-11T12:17:58Z</time>
      </trkpt>
      <trkpt lat="47.13512" lon="-1.35347">
        <ele>18</ele>
        <time>2021-06-11T12:18:00Z</time>
      </trkpt>
      <trkpt lat="47.1353" lon="-1.35352">
        <ele>18</ele>
        <time>2021-06-11T12:18:04Z</time>
      </trkpt>
      <trkpt lat="47.13537" lon="-1.35355">
        <ele>18</ele>
        <time>2021-06-11T12:18:05Z</time>
      </trkpt>
      <trkpt lat="47.13542" lon="-1.35357">
        <ele>18</ele>
        <time>2021-06-11T12:18:06Z</time>
      </trkpt>
      <trkpt lat="47.13548" lon="-1.35359">
        <ele>18</ele>
        <time>2021-06-11T12:18:07Z</time>
      </trkpt>
      <trkpt lat="47.1359" lon="-1.3537">
        <ele>17</ele>
        <time>2021-06-11T12:18:15Z</time>
      </trkpt>
      <trkpt lat="47.13608" lon="-1.35372">
        <ele>16</ele>
        <time>2021-06-11T12:18:18Z</time>
      </trkpt>
      <trkpt lat="47.13641" lon="-1.35373">
        <ele>15</ele>
        <time>2021-06-11T12:18:24Z</time>
      </trkpt>
      <trkpt lat="47.13661" lon="-1.35373">
        <ele>14</ele>
        <time>2021-06-11T12:18:27Z</time>
      </trkpt>
      <trkpt lat="47.13671" lon="-1.35372">
        <ele>13</ele>
        <time>2021-06-11T12:18:29Z</time>
      </trkpt>
      <trkpt lat="47.13691" lon="-1.35369">
        <ele>12</ele>
        <time>2021-06-11T12:18:33Z</time>
      </trkpt>
      <trkpt lat="47.13725" lon="-1.35367">
        <ele>10</ele>
        <time>2021-06-11T12:18:39Z</time>
      </trkpt>
      <trkpt lat="47.1374" lon="-1.35366">
        <ele>10</ele>
        <time>2021-06-11T12:18:41Z</time>
      </trkpt>
      <trkpt lat="47.1381" lon="-1.35361">
        <ele>6</ele>
        <time>2021-06-11T12:18:54Z</time>
      </trkpt>
      <trkpt lat="47.13828" lon="-1.3536">
        <ele>6</ele>
        <time>2021-06-11T12:18:57Z</time>
      </trkpt>
      <trkpt lat="47.13849" lon="-1.35374">
        <ele>6</ele>
        <time>2021-06-11T12:19:01Z</time>
      </trkpt>
      <trkpt lat="47.13864" lon="-1.3539">
        <ele>6</ele>
        <time>2021-06-11T12:19:04Z</time>
      </trkpt>
      <trkpt lat="47.13887" lon="-1.3542">
        <ele>7</ele>
        <time>2021-06-11T12:19:10Z</time>
      </trkpt>
      <trkpt lat="47.13924" lon="-1.35459">
        <ele>7</ele>
        <time>2021-06-11T12:19:18Z</time>
      </trkpt>
      <trkpt lat="47.13939" lon="-1.35469">
        <ele>7</ele>
        <time>2021-06-11T12:19:21Z</time>
      </trkpt>
      <trkpt lat="47.13956" lon="-1.35473">
        <ele>8</ele>
        <time>2021-06-11T12:19:24Z</time>
      </trkpt>
      <trkpt lat="47.14016" lon="-1.35476">
        <ele>11</ele>
        <time>2021-06-11T12:19:35Z</time>
      </trkpt>
      <trkpt lat="47.14227" lon="-1.35477">
        <ele>27</ele>
        <time>2021-06-11T12:20:12Z</time>
      </trkpt>
      <trkpt lat="47.14246" lon="-1.35471">
        <ele>28</ele>
        <time>2021-06-11T12:20:16Z</time>
      </trkpt>
      <trkpt lat="47.14292" lon="-1.35448">
        <ele>28</ele>
        <time>2021-06-11T12:20:24Z</time>
      </trkpt>
      <trkpt lat="47.14582" lon="-1.35282">
        <ele>32</ele>
        <time>2021-06-11T12:21:20Z</time>
      </trkpt>
      <trkpt lat="47.14597" lon="-1.35264">
        <ele>32</ele>
        <time>2021-06-11T12:21:23Z</time>
      </trkpt>
      <trkpt lat="47.14598" lon="-1.35257">
        <ele>32</ele>
        <time>2021-06-11T12:21:24Z</time>
      </trkpt>
      <trkpt lat="47.14601" lon="-1.35253">
        <ele>32</ele>
        <time>2021-06-11T12:21:25Z</time>
      </trkpt>
      <trkpt lat="47.14604" lon="-1.3525">
        <ele>32</ele>
        <time>2021-06-11T12:21:25Z</time>
      </trkpt>
      <trkpt lat="47.14612" lon="-1.35252">
        <ele>32</ele>
        <time>2021-06-11T12:21:27Z</time>
      </trkpt>
      <trkpt lat="47.14618" lon="-1.35251">
        <ele>32</ele>
        <time>2021-06-11T12:21:28Z</time>
      </trkpt>
      <trkpt lat="47.14631" lon="-1.35245">
        <ele>33</ele>
        <time>2021-06-11T12:21:30Z</time>
      </trkpt>
      <trkpt lat="47.14751" lon="-1.35134">
        <ele>31</ele>
        <time>2021-06-11T12:21:55Z</time>
      </trkpt>
      <trkpt lat="47.14861" lon="-1.35029">
        <ele>29</ele>
        <time>2021-06-11T12:22:19Z</time>
      </trkpt>
      <trkpt lat="47.14954" lon="-1.34935">
        <ele>28</ele>
        <time>2021-06-11T12:22:39Z</time>
      </trkpt>
      <trkpt lat="47.15089" lon="-1.34765">
        <ele>28</ele>
        <time>2021-06-11T12:23:10Z</time>
      </trkpt>
      <trkpt lat="47.15248" lon="-1.34558">
        <ele>29</ele>
        <time>2021-06-11T12:23:48Z</time>
      </trkpt>
      <trkpt lat="47.15317" lon="-1.34474">
        <ele>29</ele>
        <time>2021-06-11T12:24:04Z</time>
      </trkpt>
      <trkpt lat="47.15336" lon="-1.34453">
        <ele>30</ele>
        <time>2021-06-11T12:24:08Z</time>
      </trkpt>
      <trkpt lat="47.1535" lon="-1.34442">
        <ele>29</ele>
        <time>2021-06-11T12:24:11Z</time>
      </trkpt>
      <trkpt lat="47.15375" lon="-1.34427">
        <ele>29</ele>
        <time>2021-06-11T12:24:16Z</time>
      </trkpt>
      <trkpt lat="47.15392" lon="-1.34421">
        <ele>29</ele>
        <time>2021-06-11T12:24:19Z</time>
      </trkpt>
      <trkpt lat="47.15414" lon="-1.3442">
        <ele>28</ele>
        <time>2021-06-11T12:24:23Z</time>
      </trkpt>
      <trkpt lat="47.15438" lon="-1.34422">
        <ele>29</ele>
        <time>2021-06-11T12:24:27Z</time>
      </trkpt>
      <trkpt lat="47.15465" lon="-1.34427">
        <ele>30</ele>
        <time>2021-06-11T12:24:32Z</time>
      </trkpt>
      <trkpt lat="47.15539" lon="-1.34448">
        <ele>32</ele>
        <time>2021-06-11T12:24:46Z</time>
      </trkpt>
      <trkpt lat="47.15603" lon="-1.34463">
        <ele>33</ele>
        <time>2021-06-11T12:24:57Z</time>
      </trkpt>
      <trkpt lat="47.15621" lon="-1.34464">
        <ele>33</ele>
        <time>2021-06-11T12:25:00Z</time>
      </trkpt>
      <trkpt lat="47.15637" lon="-1.34461">
        <ele>34</ele>
        <time>2021-06-11T12:25:03Z</time>
      </trkpt>
      <trkpt lat="47.15657" lon="-1.34449">
        <ele>34</ele>
        <time>2021-06-11T12:25:07Z</time>
      </trkpt>
      <trkpt lat="47.15667" lon="-1.3444">
        <ele>35</ele>
        <time>2021-06-11T12:25:09Z</time>
      </trkpt>
      <trkpt lat="47.15738" lon="-1.34351">
        <ele>36</ele>
        <time>2021-06-11T12:25:26Z</time>
      </trkpt>
      <trkpt lat="47.15776" lon="-1.34313">
        <ele>36</ele>
        <time>2021-06-11T12:25:34Z</time>
      </trkpt>
      <trkpt lat="47.15808" lon="-1.34287">
        <ele>35</ele>
        <time>2021-06-11T12:25:40Z</time>
      </trkpt>
      <trkpt lat="47.15863" lon="-1.3425">
        <ele>35</ele>
        <time>2021-06-11T12:25:51Z</time>
      </trkpt>
      <trkpt lat="47.15903" lon="-1.34229">
        <ele>34</ele>
        <time>2021-06-11T12:25:59Z</time>
      </trkpt>
      <trkpt lat="47.15931" lon="-1.34213">
        <ele>35</ele>
        <time>2021-06-11T12:26:04Z</time>
      </trkpt>
      <trkpt lat="47.15986" lon="-1.34182">
        <ele>35</ele>
        <time>2021-06-11T12:26:15Z</time>
      </trkpt>
      <trkpt lat="47.16048" lon="-1.34157">
        <ele>34</ele>
        <time>2021-06-11T12:26:26Z</time>
      </trkpt>
      <trkpt lat="47.16104" lon="-1.34142">
        <ele>33</ele>
        <time>2021-06-11T12:26:36Z</time>
      </trkpt>
      <trkpt lat="47.16133" lon="-1.34138">
        <ele>32</ele>
        <time>2021-06-11T12:26:41Z</time>
      </trkpt>
      <trkpt lat="47.16154" lon="-1.34136">
        <ele>31</ele>
        <time>2021-06-11T12:26:45Z</time>
      </trkpt>
      <trkpt lat="47.16165" lon="-1.34136">
        <ele>31</ele>
        <time>2021-06-11T12:26:47Z</time>
      </trkpt>
      <trkpt lat="47.16212" lon="-1.34137">
        <ele>30</ele>
        <time>2021-06-11T12:26:55Z</time>
      </trkpt>
      <trkpt lat="47.16307" lon="-1.34144">
        <ele>29</ele>
        <time>2021-06-11T12:27:12Z</time>
      </trkpt>
      <trkpt lat="47.16339" lon="-1.34146">
        <ele>28</ele>
        <time>2021-06-11T12:27:18Z</time>
      </trkpt>
      <trkpt lat="47.16423" lon="-1.34135">
        <ele>28</ele>
        <time>2021-06-11T12:27:33Z</time>
      </trkpt>
      <trkpt lat="47.16609" lon="-1.34147">
        <ele>24</ele>
        <time>2021-06-11T12:28:06Z</time>
      </trkpt>
      <trkpt lat="47.16705" lon="-1.34157">
        <ele>23</ele>
        <time>2021-06-11T12:28:23Z</time>
      </trkpt>
      <trkpt lat="47.1687" lon="-1.34172">
        <ele>22</ele>
        <time>2021-06-11T12:28:53Z</time>
      </trkpt>
      <trkpt lat="47.16969" lon="-1.34179">
        <ele>20</ele>
        <time>2021-06-11T12:29:10Z</time>
      </trkpt>
      <trkpt lat="47.17204" lon="-1.34198">
        <ele>19</ele>
        <time>2021-06-11T12:29:52Z</time>
      </trkpt>
      <trkpt lat="47.17322" lon="-1.34216">
        <ele>18</ele>
        <time>2021-06-11T12:30:13Z</time>
      </trkpt>
      <trkpt lat="47.17348" lon="-1.34217">
        <ele>18</ele>
        <time>2021-06-11T12:30:18Z</time>
      </trkpt>
      <trkpt lat="47.17352" lon="-1.34207">
        <ele>18</ele>
        <time>2021-06-11T12:30:19Z</time>
      </trkpt>
      <trkpt lat="47.17357" lon="-1.34206">
        <ele>18</ele>
        <time>2021-06-11T12:30:20Z</time>
      </trkpt>
      <trkpt lat="47.17361" lon="-1.34209">
        <ele>18</ele>
        <time>2021-06-11T12:30:21Z</time>
      </trkpt>
      <trkpt lat="47.17364" lon="-1.3422">
        <ele>18</ele>
        <time>2021-06-11T12:30:22Z</time>
      </trkpt>
      <trkpt lat="47.17376" lon="-1.34224">
        <ele>18</ele>
        <time>2021-06-11T12:30:25Z</time>
      </trkpt>
      <trkpt lat="47.17425" lon="-1.3423">
        <ele>18</ele>
        <time>2021-06-11T12:30:33Z</time>
      </trkpt>
      <trkpt lat="47.17461" lon="-1.34226">
        <ele>17</ele>
        <time>2021-06-11T12:30:40Z</time>
      </trkpt>
      <trkpt lat="47.17508" lon="-1.34216">
        <ele>17</ele>
        <time>2021-06-11T12:30:48Z</time>
      </trkpt>
      <trkpt lat="47.17512" lon="-1.34217">
        <ele>17</ele>
        <time>2021-06-11T12:30:49Z</time>
      </trkpt>
      <trkpt lat="47.17516" lon="-1.34203">
        <ele>17</ele>
        <time>2021-06-11T12:30:51Z</time>
      </trkpt>
      <trkpt lat="47.17534" lon="-1.34153">
        <ele>17</ele>
        <time>2021-06-11T12:30:58Z</time>
      </trkpt>
      <trkpt lat="47.17531" lon="-1.34148">
        <ele>17</ele>
        <time>2021-06-11T12:30:58Z</time>
      </trkpt>
      <trkpt lat="47.17532" lon="-1.34143">
        <ele>17</ele>
        <time>2021-06-11T12:30:59Z</time>
      </trkpt>
      <trkpt lat="47.17535" lon="-1.34141">
        <ele>17</ele>
        <time>2021-06-11T12:31:00Z</time>
      </trkpt>
      <trkpt lat="47.17539" lon="-1.34145">
        <ele>17</ele>
        <time>2021-06-11T12:31:01Z</time>
      </trkpt>
      <trkpt lat="47.1754" lon="-1.34144">
        <ele>17</ele>
        <time>2021-06-11T12:31:01Z</time>
      </trkpt>
      <trkpt lat="47.17541" lon="-1.34137">
        <ele>17</ele>
        <time>2021-06-11T12:31:02Z</time>
      </trkpt>
      <trkpt lat="47.17544" lon="-1.34135">
        <ele>17</ele>
        <time>2021-06-11T12:31:02Z</time>
      </trkpt>
      <trkpt lat="47.17548" lon="-1.3414">
        <ele>17</ele>
        <time>2021-06-11T12:31:03Z</time>
      </trkpt>
      <trkpt lat="47.17562" lon="-1.34135">
        <ele>17</ele>
        <time>2021-06-11T12:31:06Z</time>
      </trkpt>
      <trkpt lat="47.17595" lon="-1.34106">
        <ele>16</ele>
        <time>2021-06-11T12:31:13Z</time>
      </trkpt>
      <trkpt lat="47.17604" lon="-1.34098">
        <ele>16</ele>
        <time>2021-06-11T12:31:14Z</time>
      </trkpt>
      <trkpt lat="47.17615" lon="-1.34089">
        <ele>16</ele>
        <time>2021-06-11T12:31:17Z</time>
      </trkpt>
      <trkpt lat="47.17627" lon="-1.3408">
        <ele>15</ele>
        <time>2021-06-11T12:31:19Z</time>
      </trkpt>
      <trkpt lat="47.17628" lon="-1.34086">
        <ele>15</ele>
        <time>2021-06-11T12:31:20Z</time>
      </trkpt>
      <trkpt lat="47.17627" lon="-1.3408">
        <ele>15</ele>
        <time>2021-06-11T12:31:21Z</time>
      </trkpt>
      <trkpt lat="47.17636" lon="-1.34069">
        <ele>15</ele>
        <time>2021-06-11T12:31:23Z</time>
      </trkpt>
      <trkpt lat="47.17639" lon="-1.34071">
        <ele>15</ele>
        <time>2021-06-11T12:31:23Z</time>
      </trkpt>
      <trkpt lat="47.17728" lon="-1.34073">
        <ele>14</ele>
        <time>2021-06-11T12:31:39Z</time>
      </trkpt>
      <trkpt lat="47.17742" lon="-1.34074">
        <ele>13</ele>
        <time>2021-06-11T12:31:42Z</time>
      </trkpt>
      <trkpt lat="47.17759" lon="-1.3408">
        <ele>13</ele>
        <time>2021-06-11T12:31:45Z</time>
      </trkpt>
      <trkpt lat="47.17761" lon="-1.34081">
        <ele>13</ele>
        <time>2021-06-11T12:31:45Z</time>
      </trkpt>
      <trkpt lat="47.17773" lon="-1.3409">
        <ele>12</ele>
        <time>2021-06-11T12:31:47Z</time>
      </trkpt>
      <trkpt lat="47.17796" lon="-1.34106">
        <ele>11</ele>
        <time>2021-06-11T12:31:52Z</time>
      </trkpt>
      <trkpt lat="47.1781" lon="-1.34114">
        <ele>11</ele>
        <time>2021-06-11T12:31:55Z</time>
      </trkpt>
      <trkpt lat="47.1782" lon="-1.34121">
        <ele>10</ele>
        <time>2021-06-11T12:31:57Z</time>
      </trkpt>
      <trkpt lat="47.17841" lon="-1.3413">
        <ele>10</ele>
        <time>2021-06-11T12:32:00Z</time>
      </trkpt>
      <trkpt lat="47.17859" lon="-1.34135">
        <ele>10</ele>
        <time>2021-06-11T12:32:04Z</time>
      </trkpt>
      <trkpt lat="47.17877" lon="-1.34139">
        <ele>9</ele>
        <time>2021-06-11T12:32:07Z</time>
      </trkpt>
      <trkpt lat="47.17896" lon="-1.34137">
        <ele>9</ele>
        <time>2021-06-11T12:32:10Z</time>
      </trkpt>
      <trkpt lat="47.17911" lon="-1.34134">
        <ele>9</ele>
        <time>2021-06-11T12:32:13Z</time>
      </trkpt>
      <trkpt lat="47.17933" lon="-1.34123">
        <ele>9</ele>
        <time>2021-06-11T12:32:17Z</time>
      </trkpt>
      <trkpt lat="47.17944" lon="-1.34115">
        <ele>9</ele>
        <time>2021-06-11T12:32:19Z</time>
      </trkpt>
      <trkpt lat="47.17955" lon="-1.34104">
        <ele>9</ele>
        <time>2021-06-11T12:32:22Z</time>
      </trkpt>
      <trkpt lat="47.17964" lon="-1.34092">
        <ele>9</ele>
        <time>2021-06-11T12:32:24Z</time>
      </trkpt>
      <trkpt lat="47.17982" lon="-1.34071">
        <ele>9</ele>
        <time>2021-06-11T12:32:28Z</time>
      </trkpt>
      <trkpt lat="47.17984" lon="-1.34068">
        <ele>9</ele>
        <time>2021-06-11T12:32:29Z</time>
      </trkpt>
      <trkpt lat="47.17995" lon="-1.34046">
        <ele>9</ele>
        <time>2021-06-11T12:32:32Z</time>
      </trkpt>
      <trkpt lat="47.17996" lon="-1.34042">
        <ele>10</ele>
        <time>2021-06-11T12:32:32Z</time>
      </trkpt>
      <trkpt lat="47.17997" lon="-1.34039">
        <ele>10</ele>
        <time>2021-06-11T12:32:33Z</time>
      </trkpt>
      <trkpt lat="47.17999" lon="-1.34037">
        <ele>10</ele>
        <time>2021-06-11T12:32:33Z</time>
      </trkpt>
      <trkpt lat="47.18001" lon="-1.34035">
        <ele>10</ele>
        <time>2021-06-11T12:32:34Z</time>
      </trkpt>
      <trkpt lat="47.18003" lon="-1.34034">
        <ele>10</ele>
        <time>2021-06-11T12:32:34Z</time>
      </trkpt>
      <trkpt lat="47.18006" lon="-1.34033">
        <ele>10</ele>
        <time>2021-06-11T12:32:35Z</time>
      </trkpt>
      <trkpt lat="47.18011" lon="-1.34035">
        <ele>9</ele>
        <time>2021-06-11T12:32:35Z</time>
      </trkpt>
      <trkpt lat="47.18013" lon="-1.34038">
        <ele>9</ele>
        <time>2021-06-11T12:32:36Z</time>
      </trkpt>
      <trkpt lat="47.18015" lon="-1.34042">
        <ele>9</ele>
        <time>2021-06-11T12:32:37Z</time>
      </trkpt>
      <trkpt lat="47.18015" lon="-1.34046">
        <ele>9</ele>
        <time>2021-06-11T12:32:37Z</time>
      </trkpt>
      <trkpt lat="47.18025" lon="-1.34057">
        <ele>9</ele>
        <time>2021-06-11T12:32:39Z</time>
      </trkpt>
      <trkpt lat="47.18052" lon="-1.34067">
        <ele>9</ele>
        <time>2021-06-11T12:32:44Z</time>
      </trkpt>
      <trkpt lat="47.18089" lon="-1.34081">
        <ele>8</ele>
        <time>2021-06-11T12:32:51Z</time>
      </trkpt>
      <trkpt lat="47.18107" lon="-1.34087">
        <ele>8</ele>
        <time>2021-06-11T12:32:54Z</time>
      </trkpt>
      <trkpt lat="47.18121" lon="-1.34091">
        <ele>8</ele>
        <time>2021-06-11T12:32:57Z</time>
      </trkpt>
      <trkpt lat="47.18168" lon="-1.34096">
        <ele>9</ele>
        <time>2021-06-11T12:33:05Z</time>
      </trkpt>
      <trkpt lat="47.18255" lon="-1.34099">
        <ele>10</ele>
        <time>2021-06-11T12:33:21Z</time>
      </trkpt>
      <trkpt lat="47.18367" lon="-1.34105">
        <ele>7</ele>
        <time>2021-06-11T12:33:41Z</time>
      </trkpt>
      <trkpt lat="47.18389" lon="-1.34107">
        <ele>7</ele>
        <time>2021-06-11T12:33:45Z</time>
      </trkpt>
      <trkpt lat="47.18413" lon="-1.34118">
        <ele>7</ele>
        <time>2021-06-11T12:33:49Z</time>
      </trkpt>
      <trkpt lat="47.1844" lon="-1.34138">
        <ele>7</ele>
        <time>2021-06-11T12:33:54Z</time>
      </trkpt>
      <trkpt lat="47.1851" lon="-1.34189">
        <ele>7</ele>
        <time>2021-06-11T12:34:08Z</time>
      </trkpt>
      <trkpt lat="47.18521" lon="-1.34195">
        <ele>7</ele>
        <time>2021-06-11T12:34:10Z</time>
      </trkpt>
      <trkpt lat="47.18531" lon="-1.34199">
        <ele>7</ele>
        <time>2021-06-11T12:34:12Z</time>
      </trkpt>
      <trkpt lat="47.18549" lon="-1.342">
        <ele>7</ele>
        <time>2021-06-11T12:34:15Z</time>
      </trkpt>
      <trkpt lat="47.18561" lon="-1.34197">
        <ele>7</ele>
        <time>2021-06-11T12:34:18Z</time>
      </trkpt>
      <trkpt lat="47.18694" lon="-1.34131">
        <ele>7</ele>
        <time>2021-06-11T12:34:43Z</time>
      </trkpt>
      <trkpt lat="47.18712" lon="-1.34124">
        <ele>7</ele>
        <time>2021-06-11T12:34:46Z</time>
      </trkpt>
      <trkpt lat="47.18723" lon="-1.34123">
        <ele>7</ele>
        <time>2021-06-11T12:34:48Z</time>
      </trkpt>
      <trkpt lat="47.18733" lon="-1.34123">
        <ele>7</ele>
        <time>2021-06-11T12:34:50Z</time>
      </trkpt>
      <trkpt lat="47.18744" lon="-1.34126">
        <ele>7</ele>
        <time>2021-06-11T12:34:52Z</time>
      </trkpt>
      <trkpt lat="47.18838" lon="-1.34154">
        <ele>7</ele>
        <time>2021-06-11T12:35:09Z</time>
      </trkpt>
      <trkpt lat="47.19014" lon="-1.34229">
        <ele>11</ele>
        <time>2021-06-11T12:35:41Z</time>
      </trkpt>
      <trkpt lat="47.19202" lon="-1.34308">
        <ele>8</ele>
        <time>2021-06-11T12:36:16Z</time>
      </trkpt>
      <trkpt lat="47.19246" lon="-1.34327">
        <ele>8</ele>
        <time>2021-06-11T12:36:24Z</time>
      </trkpt>
      <trkpt lat="47.19264" lon="-1.34335">
        <ele>8</ele>
        <time>2021-06-11T12:36:28Z</time>
      </trkpt>
      <trkpt lat="47.19282" lon="-1.34348">
        <ele>8</ele>
        <time>2021-06-11T12:36:31Z</time>
      </trkpt>
      <trkpt lat="47.19294" lon="-1.34358">
        <ele>8</ele>
        <time>2021-06-11T12:36:34Z</time>
      </trkpt>
      <trkpt lat="47.19305" lon="-1.34369">
        <ele>8</ele>
        <time>2021-06-11T12:36:36Z</time>
      </trkpt>
      <trkpt lat="47.19359" lon="-1.34426">
        <ele>8</ele>
        <time>2021-06-11T12:36:48Z</time>
      </trkpt>
      <trkpt lat="47.19421" lon="-1.34493">
        <ele>8</ele>
        <time>2021-06-11T12:37:01Z</time>
      </trkpt>
      <trkpt lat="47.19499" lon="-1.34579">
        <ele>8</ele>
        <time>2021-06-11T12:37:19Z</time>
      </trkpt>
      <trkpt lat="47.19527" lon="-1.34603">
        <ele>8</ele>
        <time>2021-06-11T12:37:25Z</time>
      </trkpt>
      <trkpt lat="47.19558" lon="-1.34626">
        <ele>7</ele>
        <time>2021-06-11T12:37:31Z</time>
      </trkpt>
      <trkpt lat="47.19603" lon="-1.34657">
        <ele>7</ele>
        <time>2021-06-11T12:37:40Z</time>
      </trkpt>
      <trkpt lat="47.19611" lon="-1.34663">
        <ele>6</ele>
        <time>2021-06-11T12:37:41Z</time>
      </trkpt>
      <trkpt lat="47.19612" lon="-1.34658">
        <ele>6</ele>
        <time>2021-06-11T12:37:42Z</time>
      </trkpt>
      <trkpt lat="47.19612" lon="-1.3465">
        <ele>6</ele>
        <time>2021-06-11T12:37:43Z</time>
      </trkpt>
      <trkpt lat="47.19608" lon="-1.34609">
        <ele>7</ele>
        <time>2021-06-11T12:37:48Z</time>
      </trkpt>
      <trkpt lat="47.19602" lon="-1.34543">
        <ele>7</ele>
        <time>2021-06-11T12:37:56Z</time>
      </trkpt>
      <trkpt lat="47.196" lon="-1.34521">
        <ele>7</ele>
        <time>2021-06-11T12:37:59Z</time>
      </trkpt>
      <trkpt lat="47.19591" lon="-1.34408">
        <ele>8</ele>
        <time>2021-06-11T12:38:12Z</time>
      </trkpt>
      <trkpt lat="47.19591" lon="-1.34403">
        <ele>8</ele>
        <time>2021-06-11T12:38:13Z</time>
      </trkpt>
      <trkpt lat="47.19579" lon="-1.34276">
        <ele>9</ele>
        <time>2021-06-11T12:38:28Z</time>
      </trkpt>
      <trkpt lat="47.1957" lon="-1.34183">
        <ele>8</ele>
        <time>2021-06-11T12:38:40Z</time>
      </trkpt>
      <trkpt lat="47.1956" lon="-1.34054">
        <ele>9</ele>
        <time>2021-06-11T12:38:55Z</time>
      </trkpt>
      <trkpt lat="47.19557" lon="-1.34023">
        <ele>8</ele>
        <time>2021-06-11T12:38:59Z</time>
      </trkpt>
      <trkpt lat="47.19554" lon="-1.33988">
        <ele>8</ele>
        <time>2021-06-11T12:39:04Z</time>
      </trkpt>
      <trkpt lat="47.19548" lon="-1.33904">
        <ele>9</ele>
        <time>2021-06-11T12:39:14Z</time>
      </trkpt>
      <trkpt lat="47.19548" lon="-1.33876">
        <ele>9</ele>
        <time>2021-06-11T12:39:17Z</time>
      </trkpt>
      <trkpt lat="47.19556" lon="-1.33822">
        <ele>9</ele>
        <time>2021-06-11T12:39:24Z</time>
      </trkpt>
      <trkpt lat="47.19562" lon="-1.33797">
        <ele>9</ele>
        <time>2021-06-11T12:39:27Z</time>
      </trkpt>
      <trkpt lat="47.19627" lon="-1.33596">
        <ele>9</ele>
        <time>2021-06-11T12:39:54Z</time>
      </trkpt>
      <trkpt lat="47.19669" lon="-1.33459">
        <ele>10</ele>
        <time>2021-06-11T12:40:12Z</time>
      </trkpt>
      <trkpt lat="47.19695" lon="-1.33381">
        <ele>11</ele>
        <time>2021-06-11T12:40:23Z</time>
      </trkpt>
      <trkpt lat="47.19717" lon="-1.33309">
        <ele>12</ele>
        <time>2021-06-11T12:40:32Z</time>
      </trkpt>
      <trkpt lat="47.19729" lon="-1.33255">
        <ele>13</ele>
        <time>2021-06-11T12:40:39Z</time>
      </trkpt>
      <trkpt lat="47.19741" lon="-1.33194">
        <ele>13</ele>
        <time>2021-06-11T12:40:47Z</time>
      </trkpt>
      <trkpt lat="47.19744" lon="-1.33141">
        <ele>13</ele>
        <time>2021-06-11T12:40:53Z</time>
      </trkpt>
      <trkpt lat="47.19743" lon="-1.33116">
        <ele>12</ele>
        <time>2021-06-11T12:40:56Z</time>
      </trkpt>
      <trkpt lat="47.1973" lon="-1.33046">
        <ele>13</ele>
        <time>2021-06-11T12:41:05Z</time>
      </trkpt>
      <trkpt lat="47.19725" lon="-1.33015">
        <ele>13</ele>
        <time>2021-06-11T12:41:09Z</time>
      </trkpt>
      <trkpt lat="47.19718" lon="-1.32971">
        <ele>14</ele>
        <time>2021-06-11T12:41:14Z</time>
      </trkpt>
      <trkpt lat="47.19713" lon="-1.32925">
        <ele>14</ele>
        <time>2021-06-11T12:41:20Z</time>
      </trkpt>
      <trkpt lat="47.19712" lon="-1.32904">
        <ele>14</ele>
        <time>2021-06-11T12:41:22Z</time>
      </trkpt>
      <trkpt lat="47.19715" lon="-1.32846">
        <ele>14</ele>
        <time>2021-06-11T12:41:29Z</time>
      </trkpt>
      <trkpt lat="47.1972" lon="-1.32811">
        <ele>14</ele>
        <time>2021-06-11T12:41:34Z</time>
      </trkpt>
      <trkpt lat="47.1973" lon="-1.32774">
        <ele>15</ele>
        <time>2021-06-11T12:41:39Z</time>
      </trkpt>
      <trkpt lat="47.19756" lon="-1.32694">
        <ele>16</ele>
        <time>2021-06-11T12:41:49Z</time>
      </trkpt>
      <trkpt lat="47.19793" lon="-1.3258">
        <ele>17</ele>
        <time>2021-06-11T12:42:05Z</time>
      </trkpt>
      <trkpt lat="47.19866" lon="-1.32359">
        <ele>16</ele>
        <time>2021-06-11T12:42:34Z</time>
      </trkpt>
      <trkpt lat="47.19891" lon="-1.32288">
        <ele>17</ele>
        <time>2021-06-11T12:42:44Z</time>
      </trkpt>
      <trkpt lat="47.19898" lon="-1.32269">
        <ele>17</ele>
        <time>2021-06-11T12:42:47Z</time>
      </trkpt>
      <trkpt lat="47.19912" lon="-1.32226">
        <ele>18</ele>
        <time>2021-06-11T12:42:52Z</time>
      </trkpt>
      <trkpt lat="47.19954" lon="-1.32049">
        <ele>25</ele>
        <time>2021-06-11T12:43:15Z</time>
      </trkpt>
      <trkpt lat="47.19959" lon="-1.32024">
        <ele>26</ele>
        <time>2021-06-11T12:43:18Z</time>
      </trkpt>
      <trkpt lat="47.19966" lon="-1.31987">
        <ele>27</ele>
        <time>2021-06-11T12:43:23Z</time>
      </trkpt>
      <trkpt lat="47.20001" lon="-1.31755">
        <ele>31</ele>
        <time>2021-06-11T12:43:52Z</time>
      </trkpt>
      <trkpt lat="47.20006" lon="-1.31725">
        <ele>31</ele>
        <time>2021-06-11T12:43:55Z</time>
      </trkpt>
      <trkpt lat="47.20019" lon="-1.31644">
        <ele>32</ele>
        <time>2021-06-11T12:44:05Z</time>
      </trkpt>
      <trkpt lat="47.20025" lon="-1.3162">
        <ele>33</ele>
        <time>2021-06-11T12:44:08Z</time>
      </trkpt>
      <trkpt lat="47.20033" lon="-1.31594">
        <ele>33</ele>
        <time>2021-06-11T12:44:12Z</time>
      </trkpt>
      <trkpt lat="47.20044" lon="-1.31567">
        <ele>34</ele>
        <time>2021-06-11T12:44:16Z</time>
      </trkpt>
      <trkpt lat="47.20066" lon="-1.31524">
        <ele>35</ele>
        <time>2021-06-11T12:44:22Z</time>
      </trkpt>
      <trkpt lat="47.20067" lon="-1.31521">
        <ele>35</ele>
        <time>2021-06-11T12:44:23Z</time>
      </trkpt>
      <trkpt lat="47.20072" lon="-1.31506">
        <ele>36</ele>
        <time>2021-06-11T12:44:25Z</time>
      </trkpt>
      <trkpt lat="47.20076" lon="-1.31491">
        <ele>36</ele>
        <time>2021-06-11T12:44:27Z</time>
      </trkpt>
      <trkpt lat="47.20081" lon="-1.31465">
        <ele>35</ele>
        <time>2021-06-11T12:44:30Z</time>
      </trkpt>
      <trkpt lat="47.20085" lon="-1.31432">
        <ele>34</ele>
        <time>2021-06-11T12:44:34Z</time>
      </trkpt>
      <trkpt lat="47.20089" lon="-1.31407">
        <ele>34</ele>
        <time>2021-06-11T12:44:37Z</time>
      </trkpt>
      <trkpt lat="47.20094" lon="-1.31381">
        <ele>33</ele>
        <time>2021-06-11T12:44:40Z</time>
      </trkpt>
      <trkpt lat="47.20097" lon="-1.31372">
        <ele>33</ele>
        <time>2021-06-11T12:44:41Z</time>
      </trkpt>
      <trkpt lat="47.2011" lon="-1.3133">
        <ele>33</ele>
        <time>2021-06-11T12:44:47Z</time>
      </trkpt>
      <trkpt lat="47.20125" lon="-1.31296">
        <ele>34</ele>
        <time>2021-06-11T12:44:52Z</time>
      </trkpt>
      <trkpt lat="47.20143" lon="-1.3127">
        <ele>35</ele>
        <time>2021-06-11T12:44:56Z</time>
      </trkpt>
      <trkpt lat="47.20192" lon="-1.31205">
        <ele>37</ele>
        <time>2021-06-11T12:45:08Z</time>
      </trkpt>
      <trkpt lat="47.20235" lon="-1.31146">
        <ele>40</ele>
        <time>2021-06-11T12:45:19Z</time>
      </trkpt>
      <trkpt lat="47.20257" lon="-1.31118">
        <ele>41</ele>
        <time>2021-06-11T12:45:24Z</time>
      </trkpt>
      <trkpt lat="47.20284" lon="-1.31079">
        <ele>43</ele>
        <time>2021-06-11T12:45:31Z</time>
      </trkpt>
      <trkpt lat="47.20309" lon="-1.31043">
        <ele>44</ele>
        <time>2021-06-11T12:45:37Z</time>
      </trkpt>
      <trkpt lat="47.20332" lon="-1.31005">
        <ele>45</ele>
        <time>2021-06-11T12:45:43Z</time>
      </trkpt>
      <trkpt lat="47.20349" lon="-1.30972">
        <ele>47</ele>
        <time>2021-06-11T12:45:48Z</time>
      </trkpt>
      <trkpt lat="47.20353" lon="-1.30964">
        <ele>48</ele>
        <time>2021-06-11T12:45:49Z</time>
      </trkpt>
      <trkpt lat="47.20368" lon="-1.30933">
        <ele>50</ele>
        <time>2021-06-11T12:45:54Z</time>
      </trkpt>
      <trkpt lat="47.20397" lon="-1.3086">
        <ele>55</ele>
        <time>2021-06-11T12:46:04Z</time>
      </trkpt>
      <trkpt lat="47.20399" lon="-1.30856">
        <ele>55</ele>
        <time>2021-06-11T12:46:05Z</time>
      </trkpt>
      <trkpt lat="47.20457" lon="-1.30705">
        <ele>62</ele>
        <time>2021-06-11T12:46:25Z</time>
      </trkpt>
      <trkpt lat="47.20485" lon="-1.30636">
        <ele>65</ele>
        <time>2021-06-11T12:46:35Z</time>
      </trkpt>
      <trkpt lat="47.20487" lon="-1.3063">
        <ele>65</ele>
        <time>2021-06-11T12:46:36Z</time>
      </trkpt>
      <trkpt lat="47.2049" lon="-1.30618">
        <ele>65</ele>
        <time>2021-06-11T12:46:38Z</time>
      </trkpt>
      <trkpt lat="47.20494" lon="-1.30607">
        <ele>66</ele>
        <time>2021-06-11T12:46:39Z</time>
      </trkpt>
      <trkpt lat="47.20446" lon="-1.30554">
        <ele>65</ele>
        <time>2021-06-11T12:46:50Z</time>
      </trkpt>
      <trkpt lat="47.20477" lon="-1.30506">
        <ele>67</ele>
        <time>2021-06-11T12:46:58Z</time>
      </trkpt>
      <trkpt lat="47.20551" lon="-1.30412">
        <ele>70</ele>
        <time>2021-06-11T12:47:15Z</time>
      </trkpt>
      <trkpt lat="47.20606" lon="-1.30354">
        <ele>71</ele>
        <time>2021-06-11T12:47:27Z</time>
      </trkpt>
      <trkpt lat="47.20632" lon="-1.30324">
        <ele>71</ele>
        <time>2021-06-11T12:47:33Z</time>
      </trkpt>
      <trkpt lat="47.20648" lon="-1.303">
        <ele>71</ele>
        <time>2021-06-11T12:47:37Z</time>
      </trkpt>
      <trkpt lat="47.20685" lon="-1.30234">
        <ele>73</ele>
        <time>2021-06-11T12:47:47Z</time>
      </trkpt>
      <trkpt lat="47.20707" lon="-1.30186">
        <ele>73</ele>
        <time>2021-06-11T12:47:54Z</time>
      </trkpt>
      <trkpt lat="47.20793" lon="-1.29972">
        <ele>77</ele>
        <time>2021-06-11T12:48:25Z</time>
      </trkpt>
      <trkpt lat="47.20809" lon="-1.29941">
        <ele>77</ele>
        <time>2021-06-11T12:48:29Z</time>
      </trkpt>
      <trkpt lat="47.20823" lon="-1.29918">
        <ele>78</ele>
        <time>2021-06-11T12:48:33Z</time>
      </trkpt>
      <trkpt lat="47.20976" lon="-1.2971">
        <ele>79</ele>
        <time>2021-06-11T12:49:10Z</time>
      </trkpt>
      <trkpt lat="47.21136" lon="-1.29498">
        <ele>81</ele>
        <time>2021-06-11T12:49:48Z</time>
      </trkpt>
      <trkpt lat="47.21251" lon="-1.29317">
        <ele>81</ele>
        <time>2021-06-11T12:50:18Z</time>
      </trkpt>
      <trkpt lat="47.21427" lon="-1.29007">
        <ele>87</ele>
        <time>2021-06-11T12:51:07Z</time>
      </trkpt>
      <trkpt lat="47.21705" lon="-1.28616">
        <ele>87</ele>
        <time>2021-06-11T12:52:16Z</time>
      </trkpt>
      <trkpt lat="47.21715" lon="-1.286">
        <ele>87</ele>
        <time>2021-06-11T12:52:18Z</time>
      </trkpt>
      <trkpt lat="47.21736" lon="-1.28554">
        <ele>87</ele>
        <time>2021-06-11T12:52:25Z</time>
      </trkpt>
      <trkpt lat="47.21858" lon="-1.2824">
        <ele>87</ele>
        <time>2021-06-11T12:53:09Z</time>
      </trkpt>
      <trkpt lat="47.21874" lon="-1.28204">
        <ele>87</ele>
        <time>2021-06-11T12:53:14Z</time>
      </trkpt>
      <trkpt lat="47.22001" lon="-1.27983">
        <ele>87</ele>
        <time>2021-06-11T12:53:49Z</time>
      </trkpt>
      <trkpt lat="47.22048" lon="-1.27905">
        <ele>88</ele>
        <time>2021-06-11T12:54:01Z</time>
      </trkpt>
      <trkpt lat="47.22719" lon="-1.2696">
        <ele>81</ele>
        <time>2021-06-11T12:56:47Z</time>
      </trkpt>
      <trkpt lat="47.22738" lon="-1.26924">
        <ele>82</ele>
        <time>2021-06-11T12:56:52Z</time>
      </trkpt>
      <trkpt lat="47.22754" lon="-1.26876">
        <ele>82</ele>
        <time>2021-06-11T12:56:59Z</time>
      </trkpt>
      <trkpt lat="47.22805" lon="-1.26666">
        <ele>86</ele>
        <time>2021-06-11T12:57:25Z</time>
      </trkpt>
      <trkpt lat="47.22859" lon="-1.26455">
        <ele>87</ele>
        <time>2021-06-11T12:57:53Z</time>
      </trkpt>
      <trkpt lat="47.22886" lon="-1.26382">
        <ele>87</ele>
        <time>2021-06-11T12:58:03Z</time>
      </trkpt>
      <trkpt lat="47.22917" lon="-1.26317">
        <ele>86</ele>
        <time>2021-06-11T12:58:12Z</time>
      </trkpt>
      <trkpt lat="47.22953" lon="-1.26256">
        <ele>87</ele>
        <time>2021-06-11T12:58:22Z</time>
      </trkpt>
      <trkpt lat="47.23442" lon="-1.25458">
        <ele>88</ele>
        <time>2021-06-11T13:00:32Z</time>
      </trkpt>
      <trkpt lat="47.23487" lon="-1.25401">
        <ele>87</ele>
        <time>2021-06-11T13:00:43Z</time>
      </trkpt>
      <trkpt lat="47.23572" lon="-1.25312">
        <ele>87</ele>
        <time>2021-06-11T13:01:01Z</time>
      </trkpt>
      <trkpt lat="47.23589" lon="-1.25287">
        <ele>87</ele>
        <time>2021-06-11T13:01:05Z</time>
      </trkpt>
      <trkpt lat="47.23611" lon="-1.25242">
        <ele>87</ele>
        <time>2021-06-11T13:01:12Z</time>
      </trkpt>
      <trkpt lat="47.23709" lon="-1.24957">
        <ele>82</ele>
        <time>2021-06-11T13:01:51Z</time>
      </trkpt>
      <trkpt lat="47.23723" lon="-1.24925">
        <ele>80</ele>
        <time>2021-06-11T13:01:55Z</time>
      </trkpt>
      <trkpt lat="47.2374" lon="-1.24896">
        <ele>79</ele>
        <time>2021-06-11T13:02:00Z</time>
      </trkpt>
      <trkpt lat="47.23889" lon="-1.2469">
        <ele>73</ele>
        <time>2021-06-11T13:02:36Z</time>
      </trkpt>
      <trkpt lat="47.23892" lon="-1.24686">
        <ele>73</ele>
        <time>2021-06-11T13:02:37Z</time>
      </trkpt>
      <trkpt lat="47.23894" lon="-1.2469">
        <ele>73</ele>
        <time>2021-06-11T13:02:38Z</time>
      </trkpt>
      <trkpt lat="47.23884" lon="-1.24658">
        <ele>73</ele>
        <time>2021-06-11T13:02:42Z</time>
      </trkpt>
      <trkpt lat="47.23864" lon="-1.24568">
        <ele>73</ele>
        <time>2021-06-11T13:02:53Z</time>
      </trkpt>
      <trkpt lat="47.23857" lon="-1.24551">
        <ele>73</ele>
        <time>2021-06-11T13:02:56Z</time>
      </trkpt>
      <trkpt lat="47.23846" lon="-1.2453">
        <ele>73</ele>
        <time>2021-06-11T13:02:59Z</time>
      </trkpt>
      <trkpt lat="47.23818" lon="-1.24499">
        <ele>75</ele>
        <time>2021-06-11T13:03:05Z</time>
      </trkpt>
      <trkpt lat="47.23794" lon="-1.24479">
        <ele>76</ele>
        <time>2021-06-11T13:03:10Z</time>
      </trkpt>
      <trkpt lat="47.23788" lon="-1.2447">
        <ele>76</ele>
        <time>2021-06-11T13:03:12Z</time>
      </trkpt>
      <trkpt lat="47.23783" lon="-1.24455">
        <ele>76</ele>
        <time>2021-06-11T13:03:14Z</time>
      </trkpt>
      <trkpt lat="47.2377" lon="-1.24383">
        <ele>77</ele>
        <time>2021-06-11T13:03:23Z</time>
      </trkpt>
      <trkpt lat="47.23766" lon="-1.24377">
        <ele>78</ele>
        <time>2021-06-11T13:03:24Z</time>
      </trkpt>
      <trkpt lat="47.2376" lon="-1.24352">
        <ele>78</ele>
        <time>2021-06-11T13:03:27Z</time>
      </trkpt>
      <trkpt lat="47.23757" lon="-1.2435">
        <ele>78</ele>
        <time>2021-06-11T13:03:27Z</time>
      </trkpt>
      <trkpt lat="47.23755" lon="-1.24346">
        <ele>78</ele>
        <time>2021-06-11T13:03:28Z</time>
      </trkpt>
      <trkpt lat="47.23757" lon="-1.24339">
        <ele>78</ele>
        <time>2021-06-11T13:03:29Z</time>
      </trkpt>
      <trkpt lat="47.23762" lon="-1.24334">
        <ele>78</ele>
        <time>2021-06-11T13:03:30Z</time>
      </trkpt>
      <trkpt lat="47.23782" lon="-1.24257">
        <ele>78</ele>
        <time>2021-06-11T13:03:40Z</time>
      </trkpt>
      <trkpt lat="47.2379" lon="-1.24205">
        <ele>76</ele>
        <time>2021-06-11T13:03:46Z</time>
      </trkpt>
      <trkpt lat="47.23793" lon="-1.24199">
        <ele>76</ele>
        <time>2021-06-11T13:03:47Z</time>
      </trkpt>
      <trkpt lat="47.23792" lon="-1.24138">
        <ele>74</ele>
        <time>2021-06-11T13:03:55Z</time>
      </trkpt>
      <trkpt lat="47.23786" lon="-1.24088">
        <ele>72</ele>
        <time>2021-06-11T13:04:01Z</time>
      </trkpt>
      <trkpt lat="47.23779" lon="-1.24055">
        <ele>73</ele>
        <time>2021-06-11T13:04:05Z</time>
      </trkpt>
      <trkpt lat="47.23769" lon="-1.24014">
        <ele>73</ele>
        <time>2021-06-11T13:04:10Z</time>
      </trkpt>
      <trkpt lat="47.23764" lon="-1.23995">
        <ele>74</ele>
        <time>2021-06-11T13:04:13Z</time>
      </trkpt>
      <trkpt lat="47.23744" lon="-1.23943">
        <ele>77</ele>
        <time>2021-06-11T13:04:20Z</time>
      </trkpt>
      <trkpt lat="47.23556" lon="-1.235">
        <ele>78</ele>
        <time>2021-06-11T13:05:23Z</time>
      </trkpt>
      <trkpt lat="47.23537" lon="-1.23448">
        <ele>79</ele>
        <time>2021-06-11T13:05:30Z</time>
      </trkpt>
      <trkpt lat="47.23522" lon="-1.23395">
        <ele>79</ele>
        <time>2021-06-11T13:05:37Z</time>
      </trkpt>
      <trkpt lat="47.23508" lon="-1.23316">
        <ele>78</ele>
        <time>2021-06-11T13:05:47Z</time>
      </trkpt>
      <trkpt lat="47.23499" lon="-1.23221">
        <ele>75</ele>
        <time>2021-06-11T13:05:59Z</time>
      </trkpt>
      <trkpt lat="47.23483" lon="-1.23099">
        <ele>74</ele>
        <time>2021-06-11T13:06:14Z</time>
      </trkpt>
      <trkpt lat="47.23468" lon="-1.22997">
        <ele>67</ele>
        <time>2021-06-11T13:06:26Z</time>
      </trkpt>
      <trkpt lat="47.2344" lon="-1.22763">
        <ele>55</ele>
        <time>2021-06-11T13:06:55Z</time>
      </trkpt>
      <trkpt lat="47.23434" lon="-1.22744">
        <ele>56</ele>
        <time>2021-06-11T13:06:57Z</time>
      </trkpt>
      <trkpt lat="47.2342" lon="-1.22712">
        <ele>58</ele>
        <time>2021-06-11T13:07:02Z</time>
      </trkpt>
      <trkpt lat="47.23383" lon="-1.22642">
        <ele>62</ele>
        <time>2021-06-11T13:07:13Z</time>
      </trkpt>
      <trkpt lat="47.23357" lon="-1.22588">
        <ele>66</ele>
        <time>2021-06-11T13:07:21Z</time>
      </trkpt>
      <trkpt lat="47.23309" lon="-1.22503">
        <ele>71</ele>
        <time>2021-06-11T13:07:34Z</time>
      </trkpt>
      <trkpt lat="47.23266" lon="-1.22416">
        <ele>73</ele>
        <time>2021-06-11T13:07:47Z</time>
      </trkpt>
      <trkpt lat="47.23244" lon="-1.2238">
        <ele>75</ele>
        <time>2021-06-11T13:07:53Z</time>
      </trkpt>
      <trkpt lat="47.23227" lon="-1.22357">
        <ele>76</ele>
        <time>2021-06-11T13:07:57Z</time>
      </trkpt>
      <trkpt lat="47.23175" lon="-1.22291">
        <ele>78</ele>
        <time>2021-06-11T13:08:09Z</time>
      </trkpt>
      <trkpt lat="47.23168" lon="-1.22279">
        <ele>78</ele>
        <time>2021-06-11T13:08:11Z</time>
      </trkpt>
      <trkpt lat="47.23161" lon="-1.22264">
        <ele>78</ele>
        <time>2021-06-11T13:08:13Z</time>
      </trkpt>
      <trkpt lat="47.23157" lon="-1.22237">
        <ele>79</ele>
        <time>2021-06-11T13:08:17Z</time>
      </trkpt>
      <trkpt lat="47.23157" lon="-1.22223">
        <ele>79</ele>
        <time>2021-06-11T13:08:18Z</time>
      </trkpt>
      <trkpt lat="47.23164" lon="-1.22172">
        <ele>81</ele>
        <time>2021-06-11T13:08:25Z</time>
      </trkpt>
      <trkpt lat="47.2318" lon="-1.22098">
        <ele>82</ele>
        <time>2021-06-11T13:08:34Z</time>
      </trkpt>
      <trkpt lat="47.23191" lon="-1.22076">
        <ele>83</ele>
        <time>2021-06-11T13:08:37Z</time>
      </trkpt>
      <trkpt lat="47.23195" lon="-1.22074">
        <ele>83</ele>
        <time>2021-06-11T13:08:38Z</time>
      </trkpt>
      <trkpt lat="47.23213" lon="-1.22072">
        <ele>83</ele>
        <time>2021-06-11T13:08:41Z</time>
      </trkpt>
      <trkpt lat="47.23217" lon="-1.22068">
        <ele>84</ele>
        <time>2021-06-11T13:08:42Z</time>
      </trkpt>
      <trkpt lat="47.23236" lon="-1.22025">
        <ele>85</ele>
        <time>2021-06-11T13:08:48Z</time>
      </trkpt>
      <trkpt lat="47.2324" lon="-1.22004">
        <ele>86</ele>
        <time>2021-06-11T13:08:51Z</time>
      </trkpt>
      <trkpt lat="47.2325" lon="-1.22">
        <ele>86</ele>
        <time>2021-06-11T13:08:53Z</time>
      </trkpt>
      <trkpt lat="47.23256" lon="-1.21994">
        <ele>86</ele>
        <time>2021-06-11T13:08:54Z</time>
      </trkpt>
      <trkpt lat="47.23346" lon="-1.2185">
        <ele>86</ele>
        <time>2021-06-11T13:09:18Z</time>
      </trkpt>
      <trkpt lat="47.23358" lon="-1.21831">
        <ele>86</ele>
        <time>2021-06-11T13:09:21Z</time>
      </trkpt>
      <trkpt lat="47.23381" lon="-1.21809">
        <ele>87</ele>
        <time>2021-06-11T13:09:26Z</time>
      </trkpt>
      <trkpt lat="47.23885" lon="-1.21489">
        <ele>90</ele>
        <time>2021-06-11T13:11:03Z</time>
      </trkpt>
      <trkpt lat="47.23899" lon="-1.21475">
        <ele>91</ele>
        <time>2021-06-11T13:11:06Z</time>
      </trkpt>
      <trkpt lat="47.23915" lon="-1.21456">
        <ele>92</ele>
        <time>2021-06-11T13:11:10Z</time>
      </trkpt>
      <trkpt lat="47.23919" lon="-1.21442">
        <ele>92</ele>
        <time>2021-06-11T13:11:12Z</time>
      </trkpt>
      <trkpt lat="47.23917" lon="-1.21415">
        <ele>93</ele>
        <time>2021-06-11T13:11:15Z</time>
      </trkpt>
      <trkpt lat="47.23913" lon="-1.21399">
        <ele>93</ele>
        <time>2021-06-11T13:11:17Z</time>
      </trkpt>
      <trkpt lat="47.23908" lon="-1.21364">
        <ele>93</ele>
        <time>2021-06-11T13:11:22Z</time>
      </trkpt>
      <trkpt lat="47.23882" lon="-1.20965">
        <ele>96</ele>
        <time>2021-06-11T13:12:10Z</time>
      </trkpt>
      <trkpt lat="47.23884" lon="-1.2093">
        <ele>97</ele>
        <time>2021-06-11T13:12:14Z</time>
      </trkpt>
      <trkpt lat="47.23929" lon="-1.20761">
        <ele>97</ele>
        <time>2021-06-11T13:12:36Z</time>
      </trkpt>
      <trkpt lat="47.23936" lon="-1.20725">
        <ele>98</ele>
        <time>2021-06-11T13:12:41Z</time>
      </trkpt>
      <trkpt lat="47.23951" lon="-1.20642">
        <ele>98</ele>
        <time>2021-06-11T13:12:51Z</time>
      </trkpt>
      <trkpt lat="47.23958" lon="-1.2061">
        <ele>98</ele>
        <time>2021-06-11T13:12:55Z</time>
      </trkpt>
      <trkpt lat="47.23977" lon="-1.20542">
        <ele>98</ele>
        <time>2021-06-11T13:13:04Z</time>
      </trkpt>
      <trkpt lat="47.24103" lon="-1.20197">
        <ele>100</ele>
        <time>2021-06-11T13:13:51Z</time>
      </trkpt>
      <trkpt lat="47.24121" lon="-1.20157">
        <ele>100</ele>
        <time>2021-06-11T13:13:57Z</time>
      </trkpt>
      <trkpt lat="47.24138" lon="-1.20125">
        <ele>101</ele>
        <time>2021-06-11T13:14:02Z</time>
      </trkpt>
      <trkpt lat="47.2416" lon="-1.20088">
        <ele>101</ele>
        <time>2021-06-11T13:14:08Z</time>
      </trkpt>
      <trkpt lat="47.24305" lon="-1.199">
        <ele>104</ele>
        <time>2021-06-11T13:14:42Z</time>
      </trkpt>
      <trkpt lat="47.24361" lon="-1.19788">
        <ele>106</ele>
        <time>2021-06-11T13:14:59Z</time>
      </trkpt>
      <trkpt lat="47.24381" lon="-1.19756">
        <ele>106</ele>
        <time>2021-06-11T13:15:04Z</time>
      </trkpt>
      <trkpt lat="47.24406" lon="-1.19725">
        <ele>105</ele>
        <time>2021-06-11T13:15:10Z</time>
      </trkpt>
      <trkpt lat="47.24635" lon="-1.19479">
        <ele>105</ele>
        <time>2021-06-11T13:16:01Z</time>
      </trkpt>
      <trkpt lat="47.24703" lon="-1.1938">
        <ele>102</ele>
        <time>2021-06-11T13:16:18Z</time>
      </trkpt>
      <trkpt lat="47.24725" lon="-1.19352">
        <ele>100</ele>
        <time>2021-06-11T13:16:23Z</time>
      </trkpt>
      <trkpt lat="47.24759" lon="-1.19318">
        <ele>100</ele>
        <time>2021-06-11T13:16:30Z</time>
      </trkpt>
      <trkpt lat="47.2493" lon="-1.19171">
        <ele>101</ele>
        <time>2021-06-11T13:17:05Z</time>
      </trkpt>
      <trkpt lat="47.24949" lon="-1.19154">
        <ele>101</ele>
        <time>2021-06-11T13:17:09Z</time>
      </trkpt>
      <trkpt lat="47.24965" lon="-1.19135">
        <ele>100</ele>
        <time>2021-06-11T13:17:13Z</time>
      </trkpt>
      <trkpt lat="47.24975" lon="-1.19119">
        <ele>100</ele>
        <time>2021-06-11T13:17:16Z</time>
      </trkpt>
      <trkpt lat="47.24985" lon="-1.191">
        <ele>100</ele>
        <time>2021-06-11T13:17:19Z</time>
      </trkpt>
      <trkpt lat="47.24994" lon="-1.19075">
        <ele>100</ele>
        <time>2021-06-11T13:17:22Z</time>
      </trkpt>
      <trkpt lat="47.25006" lon="-1.19032">
        <ele>99</ele>
        <time>2021-06-11T13:17:28Z</time>
      </trkpt>
      <trkpt lat="47.25042" lon="-1.18873">
        <ele>97</ele>
        <time>2021-06-11T13:17:48Z</time>
      </trkpt>
      <trkpt lat="47.25069" lon="-1.18788">
        <ele>96</ele>
        <time>2021-06-11T13:17:59Z</time>
      </trkpt>
      <trkpt lat="47.2508" lon="-1.18759">
        <ele>95</ele>
        <time>2021-06-11T13:18:03Z</time>
      </trkpt>
      <trkpt lat="47.25094" lon="-1.18733">
        <ele>95</ele>
        <time>2021-06-11T13:18:07Z</time>
      </trkpt>
      <trkpt lat="47.25192" lon="-1.18576">
        <ele>95</ele>
        <time>2021-06-11T13:18:33Z</time>
      </trkpt>
      <trkpt lat="47.25204" lon="-1.18554">
        <ele>95</ele>
        <time>2021-06-11T13:18:36Z</time>
      </trkpt>
      <trkpt lat="47.25218" lon="-1.18521">
        <ele>95</ele>
        <time>2021-06-11T13:18:41Z</time>
      </trkpt>
      <trkpt lat="47.25263" lon="-1.18404">
        <ele>93</ele>
        <time>2021-06-11T13:18:57Z</time>
      </trkpt>
      <trkpt lat="47.25307" lon="-1.18279">
        <ele>89</ele>
        <time>2021-06-11T13:19:14Z</time>
      </trkpt>
      <trkpt lat="47.25324" lon="-1.18238">
        <ele>88</ele>
        <time>2021-06-11T13:19:20Z</time>
      </trkpt>
      <trkpt lat="47.25432" lon="-1.18043">
        <ele>92</ele>
        <time>2021-06-11T13:19:50Z</time>
      </trkpt>
      <trkpt lat="47.25443" lon="-1.18035">
        <ele>93</ele>
        <time>2021-06-11T13:19:53Z</time>
      </trkpt>
      <trkpt lat="47.25453" lon="-1.18036">
        <ele>93</ele>
        <time>2021-06-11T13:19:54Z</time>
      </trkpt>
      <trkpt lat="47.25503" lon="-1.18073">
        <ele>92</ele>
        <time>2021-06-11T13:20:04Z</time>
      </trkpt>
      <trkpt lat="47.25511" lon="-1.18075">
        <ele>93</ele>
        <time>2021-06-11T13:20:06Z</time>
      </trkpt>
      <trkpt lat="47.2553" lon="-1.18076">
        <ele>93</ele>
        <time>2021-06-11T13:20:09Z</time>
      </trkpt>
      <trkpt lat="47.25552" lon="-1.18071">
        <ele>94</ele>
        <time>2021-06-11T13:20:13Z</time>
      </trkpt>
      <trkpt lat="47.25569" lon="-1.18059">
        <ele>95</ele>
        <time>2021-06-11T13:20:17Z</time>
      </trkpt>
      <trkpt lat="47.25627" lon="-1.17988">
        <ele>96</ele>
        <time>2021-06-11T13:20:30Z</time>
      </trkpt>
      <trkpt lat="47.25647" lon="-1.17969">
        <ele>97</ele>
        <time>2021-06-11T13:20:34Z</time>
      </trkpt>
      <trkpt lat="47.25664" lon="-1.17955">
        <ele>97</ele>
        <time>2021-06-11T13:20:38Z</time>
      </trkpt>
      <trkpt lat="47.258" lon="-1.17865">
        <ele>100</ele>
        <time>2021-06-11T13:21:04Z</time>
      </trkpt>
      <trkpt lat="47.25828" lon="-1.1784">
        <ele>99</ele>
        <time>2021-06-11T13:21:10Z</time>
      </trkpt>
      <trkpt lat="47.25858" lon="-1.17803">
        <ele>100</ele>
        <time>2021-06-11T13:21:17Z</time>
      </trkpt>
      <trkpt lat="47.25865" lon="-1.17798">
        <ele>100</ele>
        <time>2021-06-11T13:21:18Z</time>
      </trkpt>
      <trkpt lat="47.25864" lon="-1.17773">
        <ele>100</ele>
        <time>2021-06-11T13:21:21Z</time>
      </trkpt>
      <trkpt lat="47.2587" lon="-1.17743">
        <ele>100</ele>
        <time>2021-06-11T13:21:25Z</time>
      </trkpt>
      <trkpt lat="47.25953" lon="-1.17432">
        <ele>96</ele>
        <time>2021-06-11T13:22:06Z</time>
      </trkpt>
      <trkpt lat="47.2596" lon="-1.17404">
        <ele>96</ele>
        <time>2021-06-11T13:22:09Z</time>
      </trkpt>
      <trkpt lat="47.2597" lon="-1.17331">
        <ele>95</ele>
        <time>2021-06-11T13:22:18Z</time>
      </trkpt>
      <trkpt lat="47.25977" lon="-1.17307">
        <ele>95</ele>
        <time>2021-06-11T13:22:21Z</time>
      </trkpt>
      <trkpt lat="47.26157" lon="-1.16885">
        <ele>93</ele>
        <time>2021-06-11T13:23:21Z</time>
      </trkpt>
      <trkpt lat="47.26174" lon="-1.1685">
        <ele>95</ele>
        <time>2021-06-11T13:23:27Z</time>
      </trkpt>
      <trkpt lat="47.26185" lon="-1.16836">
        <ele>95</ele>
        <time>2021-06-11T13:23:29Z</time>
      </trkpt>
      <trkpt lat="47.26203" lon="-1.16823">
        <ele>96</ele>
        <time>2021-06-11T13:23:33Z</time>
      </trkpt>
      <trkpt lat="47.26216" lon="-1.16819">
        <ele>96</ele>
        <time>2021-06-11T13:23:35Z</time>
      </trkpt>
      <trkpt lat="47.26273" lon="-1.16812">
        <ele>97</ele>
        <time>2021-06-11T13:23:45Z</time>
      </trkpt>
      <trkpt lat="47.26286" lon="-1.16806">
        <ele>97</ele>
        <time>2021-06-11T13:23:48Z</time>
      </trkpt>
      <trkpt lat="47.26294" lon="-1.16794">
        <ele>97</ele>
        <time>2021-06-11T13:23:50Z</time>
      </trkpt>
      <trkpt lat="47.26301" lon="-1.16771">
        <ele>97</ele>
        <time>2021-06-11T13:23:53Z</time>
      </trkpt>
      <trkpt lat="47.26312" lon="-1.16661">
        <ele>99</ele>
        <time>2021-06-11T13:24:06Z</time>
      </trkpt>
      <trkpt lat="47.26312" lon="-1.1662">
        <ele>99</ele>
        <time>2021-06-11T13:24:11Z</time>
      </trkpt>
      <trkpt lat="47.26309" lon="-1.16578">
        <ele>99</ele>
        <time>2021-06-11T13:24:16Z</time>
      </trkpt>
      <trkpt lat="47.26309" lon="-1.1655">
        <ele>99</ele>
        <time>2021-06-11T13:24:20Z</time>
      </trkpt>
      <trkpt lat="47.26314" lon="-1.16516">
        <ele>99</ele>
        <time>2021-06-11T13:24:24Z</time>
      </trkpt>
      <trkpt lat="47.26324" lon="-1.16465">
        <ele>101</ele>
        <time>2021-06-11T13:24:30Z</time>
      </trkpt>
      <trkpt lat="47.26333" lon="-1.1643">
        <ele>102</ele>
        <time>2021-06-11T13:24:35Z</time>
      </trkpt>
      <trkpt lat="47.26363" lon="-1.16319">
        <ele>104</ele>
        <time>2021-06-11T13:24:49Z</time>
      </trkpt>
      <trkpt lat="47.26458" lon="-1.15998">
        <ele>104</ele>
        <time>2021-06-11T13:25:32Z</time>
      </trkpt>
      <trkpt lat="47.26465" lon="-1.15968">
        <ele>105</ele>
        <time>2021-06-11T13:25:35Z</time>
      </trkpt>
      <trkpt lat="47.26478" lon="-1.15942">
        <ele>105</ele>
        <time>2021-06-11T13:25:39Z</time>
      </trkpt>
      <trkpt lat="47.26497" lon="-1.15911">
        <ele>107</ele>
        <time>2021-06-11T13:25:44Z</time>
      </trkpt>
      <trkpt lat="47.26564" lon="-1.15832">
        <ele>108</ele>
        <time>2021-06-11T13:26:00Z</time>
      </trkpt>
      <trkpt lat="47.26623" lon="-1.15748">
        <ele>107</ele>
        <time>2021-06-11T13:26:14Z</time>
      </trkpt>
      <trkpt lat="47.26628" lon="-1.15738">
        <ele>107</ele>
        <time>2021-06-11T13:26:16Z</time>
      </trkpt>
      <trkpt lat="47.2663" lon="-1.15716">
        <ele>107</ele>
        <time>2021-06-11T13:26:18Z</time>
      </trkpt>
      <trkpt lat="47.26625" lon="-1.15666">
        <ele>109</ele>
        <time>2021-06-11T13:26:24Z</time>
      </trkpt>
      <trkpt lat="47.26625" lon="-1.15642">
        <ele>110</ele>
        <time>2021-06-11T13:26:27Z</time>
      </trkpt>
      <trkpt lat="47.26628" lon="-1.15619">
        <ele>111</ele>
        <time>2021-06-11T13:26:30Z</time>
      </trkpt>
      <trkpt lat="47.2667" lon="-1.15479">
        <ele>116</ele>
        <time>2021-06-11T13:26:49Z</time>
      </trkpt>
      <trkpt lat="47.26676" lon="-1.15451">
        <ele>116</ele>
        <time>2021-06-11T13:26:52Z</time>
      </trkpt>
      <trkpt lat="47.26681" lon="-1.15423">
        <ele>116</ele>
        <time>2021-06-11T13:26:56Z</time>
      </trkpt>
      <trkpt lat="47.26695" lon="-1.15169">
        <ele>108</ele>
        <time>2021-06-11T13:27:26Z</time>
      </trkpt>
      <trkpt lat="47.26697" lon="-1.15096">
        <ele>105</ele>
        <time>2021-06-11T13:27:35Z</time>
      </trkpt>
      <trkpt lat="47.26702" lon="-1.15049">
        <ele>105</ele>
        <time>2021-06-11T13:27:41Z</time>
      </trkpt>
      <trkpt lat="47.26708" lon="-1.15024">
        <ele>105</ele>
        <time>2021-06-11T13:27:44Z</time>
      </trkpt>
      <trkpt lat="47.2672" lon="-1.14982">
        <ele>105</ele>
        <time>2021-06-11T13:27:50Z</time>
      </trkpt>
      <trkpt lat="47.26738" lon="-1.14938">
        <ele>104</ele>
        <time>2021-06-11T13:27:56Z</time>
      </trkpt>
      <trkpt lat="47.26743" lon="-1.14915">
        <ele>103</ele>
        <time>2021-06-11T13:27:59Z</time>
      </trkpt>
      <trkpt lat="47.26744" lon="-1.149">
        <ele>103</ele>
        <time>2021-06-11T13:28:01Z</time>
      </trkpt>
      <trkpt lat="47.26742" lon="-1.14883">
        <ele>102</ele>
        <time>2021-06-11T13:28:03Z</time>
      </trkpt>
      <trkpt lat="47.26728" lon="-1.14828">
        <ele>99</ele>
        <time>2021-06-11T13:28:10Z</time>
      </trkpt>
      <trkpt lat="47.26726" lon="-1.14745">
        <ele>101</ele>
        <time>2021-06-11T13:28:20Z</time>
      </trkpt>
      <trkpt lat="47.26725" lon="-1.14715">
        <ele>101</ele>
        <time>2021-06-11T13:28:24Z</time>
      </trkpt>
      <trkpt lat="47.26719" lon="-1.14665">
        <ele>102</ele>
        <time>2021-06-11T13:28:30Z</time>
      </trkpt>
      <trkpt lat="47.26718" lon="-1.14622">
        <ele>102</ele>
        <time>2021-06-11T13:28:35Z</time>
      </trkpt>
      <trkpt lat="47.26718" lon="-1.14576">
        <ele>102</ele>
        <time>2021-06-11T13:28:40Z</time>
      </trkpt>
      <trkpt lat="47.26725" lon="-1.1442">
        <ele>102</ele>
        <time>2021-06-11T13:28:59Z</time>
      </trkpt>
      <trkpt lat="47.26724" lon="-1.1438">
        <ele>102</ele>
        <time>2021-06-11T13:29:04Z</time>
      </trkpt>
      <trkpt lat="47.26719" lon="-1.14331">
        <ele>102</ele>
        <time>2021-06-11T13:29:10Z</time>
      </trkpt>
      <trkpt lat="47.2672" lon="-1.14315">
        <ele>102</ele>
        <time>2021-06-11T13:29:12Z</time>
      </trkpt>
      <trkpt lat="47.26749" lon="-1.14167">
        <ele>104</ele>
        <time>2021-06-11T13:29:31Z</time>
      </trkpt>
      <trkpt lat="47.26751" lon="-1.14142">
        <ele>103</ele>
        <time>2021-06-11T13:29:34Z</time>
      </trkpt>
      <trkpt lat="47.2675" lon="-1.1412">
        <ele>103</ele>
        <time>2021-06-11T13:29:36Z</time>
      </trkpt>
      <trkpt lat="47.2673" lon="-1.14003">
        <ele>100</ele>
        <time>2021-06-11T13:29:51Z</time>
      </trkpt>
      <trkpt lat="47.26728" lon="-1.13967">
        <ele>100</ele>
        <time>2021-06-11T13:29:55Z</time>
      </trkpt>
      <trkpt lat="47.26729" lon="-1.13948">
        <ele>100</ele>
        <time>2021-06-11T13:29:58Z</time>
      </trkpt>
      <trkpt lat="47.26732" lon="-1.13933">
        <ele>100</ele>
        <time>2021-06-11T13:29:59Z</time>
      </trkpt>
      <trkpt lat="47.26739" lon="-1.13912">
        <ele>100</ele>
        <time>2021-06-11T13:30:02Z</time>
      </trkpt>
      <trkpt lat="47.26753" lon="-1.13893">
        <ele>100</ele>
        <time>2021-06-11T13:30:06Z</time>
      </trkpt>
      <trkpt lat="47.26767" lon="-1.13878">
        <ele>101</ele>
        <time>2021-06-11T13:30:09Z</time>
      </trkpt>
      <trkpt lat="47.26911" lon="-1.13749">
        <ele>101</ele>
        <time>2021-06-11T13:30:39Z</time>
      </trkpt>
      <trkpt lat="47.26924" lon="-1.13732">
        <ele>100</ele>
        <time>2021-06-11T13:30:42Z</time>
      </trkpt>
      <trkpt lat="47.26932" lon="-1.13717">
        <ele>100</ele>
        <time>2021-06-11T13:30:44Z</time>
      </trkpt>
      <trkpt lat="47.27088" lon="-1.13355">
        <ele>103</ele>
        <time>2021-06-11T13:31:36Z</time>
      </trkpt>
      <trkpt lat="47.27168" lon="-1.13161">
        <ele>103</ele>
        <time>2021-06-11T13:32:03Z</time>
      </trkpt>
      <trkpt lat="47.27211" lon="-1.13053">
        <ele>104</ele>
        <time>2021-06-11T13:32:18Z</time>
      </trkpt>
      <trkpt lat="47.27218" lon="-1.13029">
        <ele>104</ele>
        <time>2021-06-11T13:32:22Z</time>
      </trkpt>
      <trkpt lat="47.27219" lon="-1.13011">
        <ele>105</ele>
        <time>2021-06-11T13:32:24Z</time>
      </trkpt>
      <trkpt lat="47.27216" lon="-1.13002">
        <ele>105</ele>
        <time>2021-06-11T13:32:25Z</time>
      </trkpt>
      <trkpt lat="47.27333" lon="-1.12872">
        <ele>103</ele>
        <time>2021-06-11T13:32:51Z</time>
      </trkpt>
      <trkpt lat="47.27355" lon="-1.12854">
        <ele>102</ele>
        <time>2021-06-11T13:32:56Z</time>
      </trkpt>
      <trkpt lat="47.27365" lon="-1.12851">
        <ele>102</ele>
        <time>2021-06-11T13:32:57Z</time>
      </trkpt>
      <trkpt lat="47.27365" lon="-1.12845">
        <ele>102</ele>
        <time>2021-06-11T13:32:58Z</time>
      </trkpt>
      <trkpt lat="47.2737" lon="-1.12828">
        <ele>102</ele>
        <time>2021-06-11T13:33:00Z</time>
      </trkpt>
      <trkpt lat="47.27393" lon="-1.12788">
        <ele>101</ele>
        <time>2021-06-11T13:33:07Z</time>
      </trkpt>
      <trkpt lat="47.27406" lon="-1.1275">
        <ele>101</ele>
        <time>2021-06-11T13:33:12Z</time>
      </trkpt>
      <trkpt lat="47.27421" lon="-1.12714">
        <ele>100</ele>
        <time>2021-06-11T13:33:17Z</time>
      </trkpt>
      <trkpt lat="47.27452" lon="-1.12659">
        <ele>100</ele>
        <time>2021-06-11T13:33:25Z</time>
      </trkpt>
      <trkpt lat="47.27469" lon="-1.12623">
        <ele>100</ele>
        <time>2021-06-11T13:33:31Z</time>
      </trkpt>
      <trkpt lat="47.27552" lon="-1.12386">
        <ele>98</ele>
        <time>2021-06-11T13:34:03Z</time>
      </trkpt>
      <trkpt lat="47.27579" lon="-1.12327">
        <ele>97</ele>
        <time>2021-06-11T13:34:12Z</time>
      </trkpt>
      <trkpt lat="47.27602" lon="-1.12286">
        <ele>98</ele>
        <time>2021-06-11T13:34:18Z</time>
      </trkpt>
      <trkpt lat="47.27624" lon="-1.12257">
        <ele>98</ele>
        <time>2021-06-11T13:34:23Z</time>
      </trkpt>
      <trkpt lat="47.27655" lon="-1.1222">
        <ele>98</ele>
        <time>2021-06-11T13:34:30Z</time>
      </trkpt>
      <trkpt lat="47.27674" lon="-1.12196">
        <ele>99</ele>
        <time>2021-06-11T13:34:35Z</time>
      </trkpt>
      <trkpt lat="47.2769" lon="-1.12168">
        <ele>99</ele>
        <time>2021-06-11T13:34:39Z</time>
      </trkpt>
      <trkpt lat="47.27721" lon="-1.12105">
        <ele>99</ele>
        <time>2021-06-11T13:34:49Z</time>
      </trkpt>
      <trkpt lat="47.27762" lon="-1.12043">
        <ele>97</ele>
        <time>2021-06-11T13:34:59Z</time>
      </trkpt>
      <trkpt lat="47.27793" lon="-1.11991">
        <ele>93</ele>
        <time>2021-06-11T13:35:07Z</time>
      </trkpt>
      <trkpt lat="47.27862" lon="-1.11873">
        <ele>91</ele>
        <time>2021-06-11T13:35:26Z</time>
      </trkpt>
      <trkpt lat="47.2791" lon="-1.11786">
        <ele>89</ele>
        <time>2021-06-11T13:35:40Z</time>
      </trkpt>
      <trkpt lat="47.27931" lon="-1.11751">
        <ele>89</ele>
        <time>2021-06-11T13:35:45Z</time>
      </trkpt>
      <trkpt lat="47.27966" lon="-1.11705">
        <ele>87</ele>
        <time>2021-06-11T13:35:54Z</time>
      </trkpt>
      <trkpt lat="47.27994" lon="-1.11673">
        <ele>85</ele>
        <time>2021-06-11T13:36:00Z</time>
      </trkpt>
      <trkpt lat="47.28006" lon="-1.11665">
        <ele>85</ele>
        <time>2021-06-11T13:36:02Z</time>
      </trkpt>
      <trkpt lat="47.28017" lon="-1.11662">
        <ele>85</ele>
        <time>2021-06-11T13:36:04Z</time>
      </trkpt>
      <trkpt lat="47.28057" lon="-1.11654">
        <ele>85</ele>
        <time>2021-06-11T13:36:12Z</time>
      </trkpt>
      <trkpt lat="47.28071" lon="-1.11643">
        <ele>85</ele>
        <time>2021-06-11T13:36:14Z</time>
      </trkpt>
      <trkpt lat="47.28083" lon="-1.11619">
        <ele>85</ele>
        <time>2021-06-11T13:36:18Z</time>
      </trkpt>
      <trkpt lat="47.28108" lon="-1.11553">
        <ele>84</ele>
        <time>2021-06-11T13:36:27Z</time>
      </trkpt>
      <trkpt lat="47.28126" lon="-1.11532">
        <ele>84</ele>
        <time>2021-06-11T13:36:31Z</time>
      </trkpt>
      <trkpt lat="47.2813" lon="-1.11531">
        <ele>84</ele>
        <time>2021-06-11T13:36:32Z</time>
      </trkpt>
      <trkpt lat="47.28165" lon="-1.1154">
        <ele>85</ele>
        <time>2021-06-11T13:36:38Z</time>
      </trkpt>
      <trkpt lat="47.28247" lon="-1.11544">
        <ele>91</ele>
        <time>2021-06-11T13:36:53Z</time>
      </trkpt>
      <trkpt lat="47.28274" lon="-1.11542">
        <ele>92</ele>
        <time>2021-06-11T13:36:58Z</time>
      </trkpt>
      <trkpt lat="47.28356" lon="-1.11531">
        <ele>96</ele>
        <time>2021-06-11T13:37:12Z</time>
      </trkpt>
      <trkpt lat="47.28366" lon="-1.11531">
        <ele>96</ele>
        <time>2021-06-11T13:37:14Z</time>
      </trkpt>
      <trkpt lat="47.2839" lon="-1.11541">
        <ele>97</ele>
        <time>2021-06-11T13:37:19Z</time>
      </trkpt>
      <trkpt lat="47.28412" lon="-1.11553">
        <ele>97</ele>
        <time>2021-06-11T13:37:23Z</time>
      </trkpt>
      <trkpt lat="47.28459" lon="-1.1157">
        <ele>98</ele>
        <time>2021-06-11T13:37:31Z</time>
      </trkpt>
      <trkpt lat="47.28477" lon="-1.11569">
        <ele>98</ele>
        <time>2021-06-11T13:37:35Z</time>
      </trkpt>
      <trkpt lat="47.2849" lon="-1.11565">
        <ele>98</ele>
        <time>2021-06-11T13:37:37Z</time>
      </trkpt>
      <trkpt lat="47.28649" lon="-1.11481">
        <ele>99</ele>
        <time>2021-06-11T13:38:07Z</time>
      </trkpt>
      <trkpt lat="47.28685" lon="-1.11467">
        <ele>99</ele>
        <time>2021-06-11T13:38:14Z</time>
      </trkpt>
      <trkpt lat="47.28771" lon="-1.11443">
        <ele>98</ele>
        <time>2021-06-11T13:38:29Z</time>
      </trkpt>
      <trkpt lat="47.28801" lon="-1.11426">
        <ele>97</ele>
        <time>2021-06-11T13:38:35Z</time>
      </trkpt>
      <trkpt lat="47.28847" lon="-1.1139">
        <ele>97</ele>
        <time>2021-06-11T13:38:44Z</time>
      </trkpt>
      <trkpt lat="47.28878" lon="-1.11361">
        <ele>96</ele>
        <time>2021-06-11T13:38:51Z</time>
      </trkpt>
      <trkpt lat="47.28924" lon="-1.11313">
        <ele>95</ele>
        <time>2021-06-11T13:39:01Z</time>
      </trkpt>
      <trkpt lat="47.28947" lon="-1.11283">
        <ele>95</ele>
        <time>2021-06-11T13:39:06Z</time>
      </trkpt>
      <trkpt lat="47.2897" lon="-1.11239">
        <ele>94</ele>
        <time>2021-06-11T13:39:13Z</time>
      </trkpt>
      <trkpt lat="47.28979" lon="-1.1123">
        <ele>94</ele>
        <time>2021-06-11T13:39:15Z</time>
      </trkpt>
      <trkpt lat="47.28986" lon="-1.11226">
        <ele>94</ele>
        <time>2021-06-11T13:39:16Z</time>
      </trkpt>
      <trkpt lat="47.28996" lon="-1.11224">
        <ele>94</ele>
        <time>2021-06-11T13:39:18Z</time>
      </trkpt>
      <trkpt lat="47.29076" lon="-1.11241">
        <ele>94</ele>
        <time>2021-06-11T13:39:32Z</time>
      </trkpt>
      <trkpt lat="47.29107" lon="-1.11243">
        <ele>94</ele>
        <time>2021-06-11T13:39:38Z</time>
      </trkpt>
      <trkpt lat="47.29135" lon="-1.1124">
        <ele>93</ele>
        <time>2021-06-11T13:39:43Z</time>
      </trkpt>
      <trkpt lat="47.2916" lon="-1.11234">
        <ele>93</ele>
        <time>2021-06-11T13:39:47Z</time>
      </trkpt>
      <trkpt lat="47.2928" lon="-1.11178">
        <ele>85</ele>
        <time>2021-06-11T13:40:10Z</time>
      </trkpt>
      <trkpt lat="47.29297" lon="-1.11173">
        <ele>84</ele>
        <time>2021-06-11T13:40:13Z</time>
      </trkpt>
      <trkpt lat="47.29319" lon="-1.11169">
        <ele>83</ele>
        <time>2021-06-11T13:40:17Z</time>
      </trkpt>
      <trkpt lat="47.29402" lon="-1.11173">
        <ele>76</ele>
        <time>2021-06-11T13:40:31Z</time>
      </trkpt>
      <trkpt lat="47.29424" lon="-1.11169">
        <ele>74</ele>
        <time>2021-06-11T13:40:35Z</time>
      </trkpt>
      <trkpt lat="47.29478" lon="-1.11148">
        <ele>70</ele>
        <time>2021-06-11T13:40:45Z</time>
      </trkpt>
      <trkpt lat="47.29548" lon="-1.11138">
        <ele>68</ele>
        <time>2021-06-11T13:40:58Z</time>
      </trkpt>
      <trkpt lat="47.29564" lon="-1.11141">
        <ele>67</ele>
        <time>2021-06-11T13:41:01Z</time>
      </trkpt>
      <trkpt lat="47.29575" lon="-1.11147">
        <ele>67</ele>
        <time>2021-06-11T13:41:03Z</time>
      </trkpt>
      <trkpt lat="47.29586" lon="-1.11155">
        <ele>67</ele>
        <time>2021-06-11T13:41:05Z</time>
      </trkpt>
      <trkpt lat="47.29643" lon="-1.11212">
        <ele>73</ele>
        <time>2021-06-11T13:41:17Z</time>
      </trkpt>
      <trkpt lat="47.29789" lon="-1.11084">
        <ele>74</ele>
        <time>2021-06-11T13:41:48Z</time>
      </trkpt>
      <trkpt lat="47.298" lon="-1.11071">
        <ele>74</ele>
        <time>2021-06-11T13:41:50Z</time>
      </trkpt>
      <trkpt lat="47.2981" lon="-1.11054">
        <ele>74</ele>
        <time>2021-06-11T13:41:53Z</time>
      </trkpt>
      <trkpt lat="47.29817" lon="-1.11037">
        <ele>73</ele>
        <time>2021-06-11T13:41:55Z</time>
      </trkpt>
      <trkpt lat="47.29821" lon="-1.11015">
        <ele>72</ele>
        <time>2021-06-11T13:41:58Z</time>
      </trkpt>
      <trkpt lat="47.2983" lon="-1.10804">
        <ele>75</ele>
        <time>2021-06-11T13:42:23Z</time>
      </trkpt>
      <trkpt lat="47.29836" lon="-1.10766">
        <ele>76</ele>
        <time>2021-06-11T13:42:28Z</time>
      </trkpt>
      <trkpt lat="47.2985" lon="-1.10726">
        <ele>77</ele>
        <time>2021-06-11T13:42:34Z</time>
      </trkpt>
      <trkpt lat="47.29861" lon="-1.10706">
        <ele>77</ele>
        <time>2021-06-11T13:42:37Z</time>
      </trkpt>
      <trkpt lat="47.2991" lon="-1.10638">
        <ele>80</ele>
        <time>2021-06-11T13:42:49Z</time>
      </trkpt>
      <trkpt lat="47.29941" lon="-1.10587">
        <ele>83</ele>
        <time>2021-06-11T13:42:57Z</time>
      </trkpt>
      <trkpt lat="47.29961" lon="-1.10547">
        <ele>83</ele>
        <time>2021-06-11T13:43:03Z</time>
      </trkpt>
      <trkpt lat="47.29975" lon="-1.10513">
        <ele>84</ele>
        <time>2021-06-11T13:43:08Z</time>
      </trkpt>
      <trkpt lat="47.2998" lon="-1.10494">
        <ele>84</ele>
        <time>2021-06-11T13:43:10Z</time>
      </trkpt>
      <trkpt lat="47.29985" lon="-1.10471">
        <ele>83</ele>
        <time>2021-06-11T13:43:13Z</time>
      </trkpt>
      <trkpt lat="47.29986" lon="-1.10432">
        <ele>82</ele>
        <time>2021-06-11T13:43:18Z</time>
      </trkpt>
      <trkpt lat="47.29968" lon="-1.10239">
        <ele>78</ele>
        <time>2021-06-11T13:43:41Z</time>
      </trkpt>
      <trkpt lat="47.29967" lon="-1.10166">
        <ele>76</ele>
        <time>2021-06-11T13:43:50Z</time>
      </trkpt>
      <trkpt lat="47.2997" lon="-1.10136">
        <ele>75</ele>
        <time>2021-06-11T13:43:54Z</time>
      </trkpt>
      <trkpt lat="47.29982" lon="-1.10074">
        <ele>74</ele>
        <time>2021-06-11T13:44:02Z</time>
      </trkpt>
      <trkpt lat="47.29985" lon="-1.09989">
        <ele>73</ele>
        <time>2021-06-11T13:44:12Z</time>
      </trkpt>
      <trkpt lat="47.29992" lon="-1.09936">
        <ele>72</ele>
        <time>2021-06-11T13:44:18Z</time>
      </trkpt>
      <trkpt lat="47.30014" lon="-1.09829">
        <ele>73</ele>
        <time>2021-06-11T13:44:32Z</time>
      </trkpt>
      <trkpt lat="47.30017" lon="-1.09788">
        <ele>74</ele>
        <time>2021-06-11T13:44:37Z</time>
      </trkpt>
      <trkpt lat="47.30017" lon="-1.09768">
        <ele>74</ele>
        <time>2021-06-11T13:44:39Z</time>
      </trkpt>
      <trkpt lat="47.30014" lon="-1.09715">
        <ele>75</ele>
        <time>2021-06-11T13:44:46Z</time>
      </trkpt>
      <trkpt lat="47.30011" lon="-1.09683">
        <ele>75</ele>
        <time>2021-06-11T13:44:49Z</time>
      </trkpt>
      <trkpt lat="47.29989" lon="-1.09553">
        <ele>74</ele>
        <time>2021-06-11T13:45:06Z</time>
      </trkpt>
      <trkpt lat="47.29979" lon="-1.09455">
        <ele>72</ele>
        <time>2021-06-11T13:45:18Z</time>
      </trkpt>
      <trkpt lat="47.29955" lon="-1.09285">
        <ele>70</ele>
        <time>2021-06-11T13:45:39Z</time>
      </trkpt>
      <trkpt lat="47.29949" lon="-1.09218">
        <ele>70</ele>
        <time>2021-06-11T13:45:47Z</time>
      </trkpt>
      <trkpt lat="47.2995" lon="-1.09172">
        <ele>69</ele>
        <time>2021-06-11T13:45:52Z</time>
      </trkpt>
      <trkpt lat="47.29959" lon="-1.09097">
        <ele>70</ele>
        <time>2021-06-11T13:46:01Z</time>
      </trkpt>
      <trkpt lat="47.29966" lon="-1.09066">
        <ele>71</ele>
        <time>2021-06-11T13:46:05Z</time>
      </trkpt>
      <trkpt lat="47.29974" lon="-1.0904">
        <ele>72</ele>
        <time>2021-06-11T13:46:09Z</time>
      </trkpt>
      <trkpt lat="47.3" lon="-1.08974">
        <ele>73</ele>
        <time>2021-06-11T13:46:18Z</time>
      </trkpt>
      <trkpt lat="47.30028" lon="-1.08914">
        <ele>71</ele>
        <time>2021-06-11T13:46:27Z</time>
      </trkpt>
      <trkpt lat="47.3006" lon="-1.08862">
        <ele>72</ele>
        <time>2021-06-11T13:46:35Z</time>
      </trkpt>
      <trkpt lat="47.30072" lon="-1.08836">
        <ele>72</ele>
        <time>2021-06-11T13:46:39Z</time>
      </trkpt>
      <trkpt lat="47.30074" lon="-1.08826">
        <ele>72</ele>
        <time>2021-06-11T13:46:40Z</time>
      </trkpt>
      <trkpt lat="47.3007" lon="-1.08808">
        <ele>73</ele>
        <time>2021-06-11T13:46:43Z</time>
      </trkpt>
      <trkpt lat="47.30045" lon="-1.08751">
        <ele>76</ele>
        <time>2021-06-11T13:46:51Z</time>
      </trkpt>
      <trkpt lat="47.30033" lon="-1.08712">
        <ele>77</ele>
        <time>2021-06-11T13:46:56Z</time>
      </trkpt>
      <trkpt lat="47.29999" lon="-1.08494">
        <ele>80</ele>
        <time>2021-06-11T13:47:23Z</time>
      </trkpt>
      <trkpt lat="47.29997" lon="-1.08458">
        <ele>80</ele>
        <time>2021-06-11T13:47:27Z</time>
      </trkpt>
      <trkpt lat="47.29993" lon="-1.08188">
        <ele>75</ele>
        <time>2021-06-11T13:48:00Z</time>
      </trkpt>
      <trkpt lat="47.29975" lon="-1.08096">
        <ele>74</ele>
        <time>2021-06-11T13:48:12Z</time>
      </trkpt>
      <trkpt lat="47.29964" lon="-1.08072">
        <ele>74</ele>
        <time>2021-06-11T13:48:15Z</time>
      </trkpt>
      <trkpt lat="47.29944" lon="-1.08048">
        <ele>73</ele>
        <time>2021-06-11T13:48:20Z</time>
      </trkpt>
      <trkpt lat="47.30015" lon="-1.08023">
        <ele>75</ele>
        <time>2021-06-11T13:48:33Z</time>
      </trkpt>
      <trkpt lat="47.30028" lon="-1.08022">
        <ele>75</ele>
        <time>2021-06-11T13:48:35Z</time>
      </trkpt>
      <trkpt lat="47.30038" lon="-1.08025">
        <ele>76</ele>
        <time>2021-06-11T13:48:37Z</time>
      </trkpt>
      <trkpt lat="47.30059" lon="-1.0804">
        <ele>76</ele>
        <time>2021-06-11T13:48:41Z</time>
      </trkpt>
      <trkpt lat="47.30074" lon="-1.08041">
        <ele>77</ele>
        <time>2021-06-11T13:48:44Z</time>
      </trkpt>
      <trkpt lat="47.3011" lon="-1.08033">
        <ele>77</ele>
        <time>2021-06-11T13:48:50Z</time>
      </trkpt>
      <trkpt lat="47.30125" lon="-1.08026">
        <ele>78</ele>
        <time>2021-06-11T13:48:53Z</time>
      </trkpt>
      <trkpt lat="47.30137" lon="-1.08011">
        <ele>78</ele>
        <time>2021-06-11T13:48:56Z</time>
      </trkpt>
      <trkpt lat="47.30143" lon="-1.08008">
        <ele>78</ele>
        <time>2021-06-11T13:48:57Z</time>
      </trkpt>
      <trkpt lat="47.30168" lon="-1.08004">
        <ele>78</ele>
        <time>2021-06-11T13:49:01Z</time>
      </trkpt>
      <trkpt lat="47.3019" lon="-1.08012">
        <ele>79</ele>
        <time>2021-06-11T13:49:05Z</time>
      </trkpt>
      <trkpt lat="47.30201" lon="-1.0802">
        <ele>79</ele>
        <time>2021-06-11T13:49:07Z</time>
      </trkpt>
      <trkpt lat="47.30237" lon="-1.08031">
        <ele>81</ele>
        <time>2021-06-11T13:49:14Z</time>
      </trkpt>
      <trkpt lat="47.30275" lon="-1.0805">
        <ele>82</ele>
        <time>2021-06-11T13:49:21Z</time>
      </trkpt>
      <trkpt lat="47.30303" lon="-1.08052">
        <ele>83</ele>
        <time>2021-06-11T13:49:26Z</time>
      </trkpt>
      <trkpt lat="47.30469" lon="-1.08083">
        <ele>87</ele>
        <time>2021-06-11T13:49:56Z</time>
      </trkpt>
      <trkpt lat="47.30625" lon="-1.0813">
        <ele>89</ele>
        <time>2021-06-11T13:50:24Z</time>
      </trkpt>
      <trkpt lat="47.30759" lon="-1.08166">
        <ele>90</ele>
        <time>2021-06-11T13:50:48Z</time>
      </trkpt>
      <trkpt lat="47.3078" lon="-1.08174">
        <ele>90</ele>
        <time>2021-06-11T13:50:52Z</time>
      </trkpt>
      <trkpt lat="47.30803" lon="-1.08186">
        <ele>91</ele>
        <time>2021-06-11T13:50:57Z</time>
      </trkpt>
      <trkpt lat="47.30939" lon="-1.0826">
        <ele>93</ele>
        <time>2021-06-11T13:51:22Z</time>
      </trkpt>
      <trkpt lat="47.31071" lon="-1.08315">
        <ele>96</ele>
        <time>2021-06-11T13:51:47Z</time>
      </trkpt>
      <trkpt lat="47.3108" lon="-1.08291">
        <ele>95</ele>
        <time>2021-06-11T13:51:50Z</time>
      </trkpt>
      <trkpt lat="47.31087" lon="-1.08284">
        <ele>95</ele>
        <time>2021-06-11T13:51:52Z</time>
      </trkpt>
      <trkpt lat="47.31114" lon="-1.0827">
        <ele>95</ele>
        <time>2021-06-11T13:51:57Z</time>
      </trkpt>
      <trkpt lat="47.31139" lon="-1.08246">
        <ele>95</ele>
        <time>2021-06-11T13:52:02Z</time>
      </trkpt>
      <trkpt lat="47.31306" lon="-1.08054">
        <ele>91</ele>
        <time>2021-06-11T13:52:40Z</time>
      </trkpt>
      <trkpt lat="47.31338" lon="-1.08013">
        <ele>92</ele>
        <time>2021-06-11T13:52:47Z</time>
      </trkpt>
      <trkpt lat="47.31356" lon="-1.07986">
        <ele>93</ele>
        <time>2021-06-11T13:52:52Z</time>
      </trkpt>
      <trkpt lat="47.31374" lon="-1.07954">
        <ele>94</ele>
        <time>2021-06-11T13:52:57Z</time>
      </trkpt>
      <trkpt lat="47.31452" lon="-1.0779">
        <ele>96</ele>
        <time>2021-06-11T13:53:21Z</time>
      </trkpt>
      <trkpt lat="47.31647" lon="-1.07479">
        <ele>99</ele>
        <time>2021-06-11T13:54:12Z</time>
      </trkpt>
      <trkpt lat="47.31651" lon="-1.07469">
        <ele>99</ele>
        <time>2021-06-11T13:54:14Z</time>
      </trkpt>
      <trkpt lat="47.31657" lon="-1.07446">
        <ele>100</ele>
        <time>2021-06-11T13:54:16Z</time>
      </trkpt>
      <trkpt lat="47.31658" lon="-1.0742">
        <ele>100</ele>
        <time>2021-06-11T13:54:20Z</time>
      </trkpt>
      <trkpt lat="47.31662" lon="-1.07395">
        <ele>100</ele>
        <time>2021-06-11T13:54:23Z</time>
      </trkpt>
      <trkpt lat="47.31722" lon="-1.07236">
        <ele>99</ele>
        <time>2021-06-11T13:54:45Z</time>
      </trkpt>
      <trkpt lat="47.31732" lon="-1.07215">
        <ele>99</ele>
        <time>2021-06-11T13:54:48Z</time>
      </trkpt>
      <trkpt lat="47.3192" lon="-1.06907">
        <ele>97</ele>
        <time>2021-06-11T13:55:38Z</time>
      </trkpt>
      <trkpt lat="47.31937" lon="-1.0688">
        <ele>98</ele>
        <time>2021-06-11T13:55:42Z</time>
      </trkpt>
      <trkpt lat="47.32061" lon="-1.06713">
        <ele>100</ele>
        <time>2021-06-11T13:56:12Z</time>
      </trkpt>
      <trkpt lat="47.32087" lon="-1.06681">
        <ele>99</ele>
        <time>2021-06-11T13:56:18Z</time>
      </trkpt>
      <trkpt lat="47.32119" lon="-1.06656">
        <ele>98</ele>
        <time>2021-06-11T13:56:25Z</time>
      </trkpt>
      <trkpt lat="47.32372" lon="-1.06501">
        <ele>89</ele>
        <time>2021-06-11T13:57:13Z</time>
      </trkpt>
      <trkpt lat="47.32628" lon="-1.06361">
        <ele>90</ele>
        <time>2021-06-11T13:58:02Z</time>
      </trkpt>
      <trkpt lat="47.3274" lon="-1.06295">
        <ele>93</ele>
        <time>2021-06-11T13:58:23Z</time>
      </trkpt>
      <trkpt lat="47.32761" lon="-1.06279">
        <ele>94</ele>
        <time>2021-06-11T13:58:28Z</time>
      </trkpt>
      <trkpt lat="47.3281" lon="-1.06232">
        <ele>94</ele>
        <time>2021-06-11T13:58:38Z</time>
      </trkpt>
      <trkpt lat="47.32846" lon="-1.06195">
        <ele>95</ele>
        <time>2021-06-11T13:58:46Z</time>
      </trkpt>
      <trkpt lat="47.32992" lon="-1.06053">
        <ele>95</ele>
        <time>2021-06-11T13:59:17Z</time>
      </trkpt>
      <trkpt lat="47.33007" lon="-1.06045">
        <ele>95</ele>
        <time>2021-06-11T13:59:20Z</time>
      </trkpt>
      <trkpt lat="47.33022" lon="-1.0604">
        <ele>95</ele>
        <time>2021-06-11T13:59:22Z</time>
      </trkpt>
      <trkpt lat="47.33036" lon="-1.06039">
        <ele>95</ele>
        <time>2021-06-11T13:59:25Z</time>
      </trkpt>
      <trkpt lat="47.33051" lon="-1.06042">
        <ele>95</ele>
        <time>2021-06-11T13:59:28Z</time>
      </trkpt>
      <trkpt lat="47.33115" lon="-1.0607">
        <ele>95</ele>
        <time>2021-06-11T13:59:40Z</time>
      </trkpt>
      <trkpt lat="47.33126" lon="-1.0607">
        <ele>95</ele>
        <time>2021-06-11T13:59:41Z</time>
      </trkpt>
      <trkpt lat="47.33139" lon="-1.06065">
        <ele>95</ele>
        <time>2021-06-11T13:59:44Z</time>
      </trkpt>
      <trkpt lat="47.33149" lon="-1.06058">
        <ele>94</ele>
        <time>2021-06-11T13:59:46Z</time>
      </trkpt>
      <trkpt lat="47.33158" lon="-1.06048">
        <ele>94</ele>
        <time>2021-06-11T13:59:48Z</time>
      </trkpt>
      <trkpt lat="47.3317" lon="-1.06026">
        <ele>94</ele>
        <time>2021-06-11T13:59:51Z</time>
      </trkpt>
      <trkpt lat="47.33177" lon="-1.06003">
        <ele>94</ele>
        <time>2021-06-11T13:59:54Z</time>
      </trkpt>
      <trkpt lat="47.33185" lon="-1.05967">
        <ele>94</ele>
        <time>2021-06-11T13:59:59Z</time>
      </trkpt>
      <trkpt lat="47.33192" lon="-1.05924">
        <ele>94</ele>
        <time>2021-06-11T14:00:04Z</time>
      </trkpt>
      <trkpt lat="47.33195" lon="-1.05894">
        <ele>93</ele>
        <time>2021-06-11T14:00:08Z</time>
      </trkpt>
      <trkpt lat="47.33201" lon="-1.05796">
        <ele>92</ele>
        <time>2021-06-11T14:00:20Z</time>
      </trkpt>
      <trkpt lat="47.33204" lon="-1.05778">
        <ele>92</ele>
        <time>2021-06-11T14:00:22Z</time>
      </trkpt>
      <trkpt lat="47.33208" lon="-1.05761">
        <ele>92</ele>
        <time>2021-06-11T14:00:24Z</time>
      </trkpt>
      <trkpt lat="47.33268" lon="-1.0563">
        <ele>89</ele>
        <time>2021-06-11T14:00:43Z</time>
      </trkpt>
      <trkpt lat="47.33292" lon="-1.05558">
        <ele>87</ele>
        <time>2021-06-11T14:00:53Z</time>
      </trkpt>
      <trkpt lat="47.33303" lon="-1.05565">
        <ele>87</ele>
        <time>2021-06-11T14:00:55Z</time>
      </trkpt>
      <trkpt lat="47.33378" lon="-1.05601">
        <ele>83</ele>
        <time>2021-06-11T14:01:09Z</time>
      </trkpt>
      <trkpt lat="47.3346" lon="-1.05669">
        <ele>78</ele>
        <time>2021-06-11T14:01:26Z</time>
      </trkpt>
      <trkpt lat="47.33477" lon="-1.0568">
        <ele>77</ele>
        <time>2021-06-11T14:01:29Z</time>
      </trkpt>
      <trkpt lat="47.33502" lon="-1.05692">
        <ele>76</ele>
        <time>2021-06-11T14:01:34Z</time>
      </trkpt>
      <trkpt lat="47.33518" lon="-1.05696">
        <ele>76</ele>
        <time>2021-06-11T14:01:37Z</time>
      </trkpt>
      <trkpt lat="47.33523" lon="-1.05695">
        <ele>76</ele>
        <time>2021-06-11T14:01:38Z</time>
      </trkpt>
      <trkpt lat="47.33524" lon="-1.057">
        <ele>76</ele>
        <time>2021-06-11T14:01:38Z</time>
      </trkpt>
      <trkpt lat="47.33582" lon="-1.05811">
        <ele>78</ele>
        <time>2021-06-11T14:01:55Z</time>
      </trkpt>
      <trkpt lat="47.33594" lon="-1.05838">
        <ele>78</ele>
        <time>2021-06-11T14:01:59Z</time>
      </trkpt>
      <trkpt lat="47.33608" lon="-1.05891">
        <ele>77</ele>
        <time>2021-06-11T14:02:06Z</time>
      </trkpt>
      <trkpt lat="47.33616" lon="-1.05939">
        <ele>76</ele>
        <time>2021-06-11T14:02:12Z</time>
      </trkpt>
      <trkpt lat="47.33636" lon="-1.06101">
        <ele>75</ele>
        <time>2021-06-11T14:02:32Z</time>
      </trkpt>
      <trkpt lat="47.33638" lon="-1.06125">
        <ele>74</ele>
        <time>2021-06-11T14:02:35Z</time>
      </trkpt>
      <trkpt lat="47.33638" lon="-1.06155">
        <ele>73</ele>
        <time>2021-06-11T14:02:38Z</time>
      </trkpt>
      <trkpt lat="47.33635" lon="-1.06208">
        <ele>71</ele>
        <time>2021-06-11T14:02:45Z</time>
      </trkpt>
      <trkpt lat="47.33631" lon="-1.06235">
        <ele>70</ele>
        <time>2021-06-11T14:02:48Z</time>
      </trkpt>
      <trkpt lat="47.33614" lon="-1.06303">
        <ele>68</ele>
        <time>2021-06-11T14:02:57Z</time>
      </trkpt>
      <trkpt lat="47.33614" lon="-1.06328">
        <ele>68</ele>
        <time>2021-06-11T14:03:00Z</time>
      </trkpt>
      <trkpt lat="47.33621" lon="-1.06351">
        <ele>68</ele>
        <time>2021-06-11T14:03:03Z</time>
      </trkpt>
      <trkpt lat="47.33676" lon="-1.06438">
        <ele>67</ele>
        <time>2021-06-11T14:03:17Z</time>
      </trkpt>
      <trkpt lat="47.33693" lon="-1.06468">
        <ele>66</ele>
        <time>2021-06-11T14:03:22Z</time>
      </trkpt>
      <trkpt lat="47.33722" lon="-1.06551">
        <ele>65</ele>
        <time>2021-06-11T14:03:33Z</time>
      </trkpt>
      <trkpt lat="47.33735" lon="-1.06591">
        <ele>65</ele>
        <time>2021-06-11T14:03:38Z</time>
      </trkpt>
      <trkpt lat="47.3374" lon="-1.06623">
        <ele>66</ele>
        <time>2021-06-11T14:03:42Z</time>
      </trkpt>
      <trkpt lat="47.33742" lon="-1.06681">
        <ele>68</ele>
        <time>2021-06-11T14:03:49Z</time>
      </trkpt>
      <trkpt lat="47.33749" lon="-1.0671">
        <ele>69</ele>
        <time>2021-06-11T14:03:53Z</time>
      </trkpt>
      <trkpt lat="47.33755" lon="-1.06719">
        <ele>69</ele>
        <time>2021-06-11T14:03:55Z</time>
      </trkpt>
      <trkpt lat="47.33774" lon="-1.06732">
        <ele>68</ele>
        <time>2021-06-11T14:03:58Z</time>
      </trkpt>
      <trkpt lat="47.33811" lon="-1.06747">
        <ele>67</ele>
        <time>2021-06-11T14:04:05Z</time>
      </trkpt>
      <trkpt lat="47.33824" lon="-1.06755">
        <ele>67</ele>
        <time>2021-06-11T14:04:08Z</time>
      </trkpt>
      <trkpt lat="47.33833" lon="-1.06772">
        <ele>67</ele>
        <time>2021-06-11T14:04:10Z</time>
      </trkpt>
      <trkpt lat="47.33837" lon="-1.06789">
        <ele>67</ele>
        <time>2021-06-11T14:04:12Z</time>
      </trkpt>
      <trkpt lat="47.33844" lon="-1.06834">
        <ele>67</ele>
        <time>2021-06-11T14:04:18Z</time>
      </trkpt>
      <trkpt lat="47.33852" lon="-1.06872">
        <ele>68</ele>
        <time>2021-06-11T14:04:23Z</time>
      </trkpt>
      <trkpt lat="47.33856" lon="-1.06882">
        <ele>68</ele>
        <time>2021-06-11T14:04:24Z</time>
      </trkpt>
      <trkpt lat="47.33879" lon="-1.06933">
        <ele>67</ele>
        <time>2021-06-11T14:04:32Z</time>
      </trkpt>
      <trkpt lat="47.33885" lon="-1.06942">
        <ele>66</ele>
        <time>2021-06-11T14:04:33Z</time>
      </trkpt>
      <trkpt lat="47.33894" lon="-1.06952">
        <ele>65</ele>
        <time>2021-06-11T14:04:35Z</time>
      </trkpt>
      <trkpt lat="47.33903" lon="-1.06956">
        <ele>65</ele>
        <time>2021-06-11T14:04:37Z</time>
      </trkpt>
      <trkpt lat="47.33941" lon="-1.06962">
        <ele>61</ele>
        <time>2021-06-11T14:04:44Z</time>
      </trkpt>
      <trkpt lat="47.33957" lon="-1.06972">
        <ele>60</ele>
        <time>2021-06-11T14:04:47Z</time>
      </trkpt>
      <trkpt lat="47.33965" lon="-1.06981">
        <ele>59</ele>
        <time>2021-06-11T14:04:48Z</time>
      </trkpt>
      <trkpt lat="47.33974" lon="-1.06998">
        <ele>58</ele>
        <time>2021-06-11T14:04:51Z</time>
      </trkpt>
      <trkpt lat="47.33979" lon="-1.07014">
        <ele>58</ele>
        <time>2021-06-11T14:04:53Z</time>
      </trkpt>
      <trkpt lat="47.33994" lon="-1.07087">
        <ele>56</ele>
        <time>2021-06-11T14:05:02Z</time>
      </trkpt>
      <trkpt lat="47.34004" lon="-1.07107">
        <ele>55</ele>
        <time>2021-06-11T14:05:05Z</time>
      </trkpt>
      <trkpt lat="47.34019" lon="-1.0712">
        <ele>53</ele>
        <time>2021-06-11T14:05:08Z</time>
      </trkpt>
      <trkpt lat="47.34037" lon="-1.07131">
        <ele>52</ele>
        <time>2021-06-11T14:05:12Z</time>
      </trkpt>
      <trkpt lat="47.34049" lon="-1.07143">
        <ele>51</ele>
        <time>2021-06-11T14:05:14Z</time>
      </trkpt>
      <trkpt lat="47.34081" lon="-1.07194">
        <ele>48</ele>
        <time>2021-06-11T14:05:23Z</time>
      </trkpt>
      <trkpt lat="47.34155" lon="-1.07285">
        <ele>43</ele>
        <time>2021-06-11T14:05:40Z</time>
      </trkpt>
      <trkpt lat="47.3418" lon="-1.07326">
        <ele>43</ele>
        <time>2021-06-11T14:05:47Z</time>
      </trkpt>
      <trkpt lat="47.34304" lon="-1.0754">
        <ele>39</ele>
        <time>2021-06-11T14:06:21Z</time>
      </trkpt>
      <trkpt lat="47.34314" lon="-1.07561">
        <ele>39</ele>
        <time>2021-06-11T14:06:24Z</time>
      </trkpt>
      <trkpt lat="47.34317" lon="-1.07573">
        <ele>38</ele>
        <time>2021-06-11T14:06:25Z</time>
      </trkpt>
      <trkpt lat="47.34319" lon="-1.07587">
        <ele>38</ele>
        <time>2021-06-11T14:06:27Z</time>
      </trkpt>
      <trkpt lat="47.3432" lon="-1.07643">
        <ele>40</ele>
        <time>2021-06-11T14:06:34Z</time>
      </trkpt>
      <trkpt lat="47.34323" lon="-1.07669">
        <ele>40</ele>
        <time>2021-06-11T14:06:37Z</time>
      </trkpt>
      <trkpt lat="47.3435" lon="-1.07799">
        <ele>37</ele>
        <time>2021-06-11T14:06:53Z</time>
      </trkpt>
      <trkpt lat="47.34352" lon="-1.07814">
        <ele>37</ele>
        <time>2021-06-11T14:06:55Z</time>
      </trkpt>
      <trkpt lat="47.34353" lon="-1.0783">
        <ele>37</ele>
        <time>2021-06-11T14:06:57Z</time>
      </trkpt>
      <trkpt lat="47.3435" lon="-1.07866">
        <ele>37</ele>
        <time>2021-06-11T14:07:01Z</time>
      </trkpt>
      <trkpt lat="47.34341" lon="-1.07921">
        <ele>38</ele>
        <time>2021-06-11T14:07:08Z</time>
      </trkpt>
      <trkpt lat="47.34338" lon="-1.0795">
        <ele>37</ele>
        <time>2021-06-11T14:07:12Z</time>
      </trkpt>
      <trkpt lat="47.3434" lon="-1.07989">
        <ele>37</ele>
        <time>2021-06-11T14:07:17Z</time>
      </trkpt>
      <trkpt lat="47.34353" lon="-1.08154">
        <ele>35</ele>
        <time>2021-06-11T14:07:37Z</time>
      </trkpt>
      <trkpt lat="47.34359" lon="-1.08194">
        <ele>35</ele>
        <time>2021-06-11T14:07:41Z</time>
      </trkpt>
      <trkpt lat="47.34368" lon="-1.08232">
        <ele>35</ele>
        <time>2021-06-11T14:07:46Z</time>
      </trkpt>
      <trkpt lat="47.34389" lon="-1.08296">
        <ele>35</ele>
        <time>2021-06-11T14:07:55Z</time>
      </trkpt>
      <trkpt lat="47.34398" lon="-1.08337">
        <ele>35</ele>
        <time>2021-06-11T14:08:00Z</time>
      </trkpt>
      <trkpt lat="47.34401" lon="-1.08389">
        <ele>34</ele>
        <time>2021-06-11T14:08:06Z</time>
      </trkpt>
      <trkpt lat="47.34402" lon="-1.08521">
        <ele>30</ele>
        <time>2021-06-11T14:08:22Z</time>
      </trkpt>
      <trkpt lat="47.34398" lon="-1.08548">
        <ele>29</ele>
        <time>2021-06-11T14:08:26Z</time>
      </trkpt>
      <trkpt lat="47.34379" lon="-1.08614">
        <ele>29</ele>
        <time>2021-06-11T14:08:34Z</time>
      </trkpt>
      <trkpt lat="47.34367" lon="-1.08642">
        <ele>30</ele>
        <time>2021-06-11T14:08:38Z</time>
      </trkpt>
      <trkpt lat="47.34176" lon="-1.08985">
        <ele>49</ele>
        <time>2021-06-11T14:09:32Z</time>
      </trkpt>
      <trkpt lat="47.34162" lon="-1.09014">
        <ele>50</ele>
        <time>2021-06-11T14:09:36Z</time>
      </trkpt>
      <trkpt lat="47.3415" lon="-1.09049">
        <ele>52</ele>
        <time>2021-06-11T14:09:41Z</time>
      </trkpt>
      <trkpt lat="47.34143" lon="-1.09078">
        <ele>53</ele>
        <time>2021-06-11T14:09:45Z</time>
      </trkpt>
      <trkpt lat="47.34136" lon="-1.09117">
        <ele>53</ele>
        <time>2021-06-11T14:09:49Z</time>
      </trkpt>
      <trkpt lat="47.34134" lon="-1.09135">
        <ele>54</ele>
        <time>2021-06-11T14:09:52Z</time>
      </trkpt>
      <trkpt lat="47.34133" lon="-1.09185">
        <ele>55</ele>
        <time>2021-06-11T14:09:58Z</time>
      </trkpt>
      <trkpt lat="47.34135" lon="-1.0932">
        <ele>57</ele>
        <time>2021-06-11T14:10:14Z</time>
      </trkpt>
      <trkpt lat="47.34133" lon="-1.09351">
        <ele>58</ele>
        <time>2021-06-11T14:10:18Z</time>
      </trkpt>
      <trkpt lat="47.34127" lon="-1.09388">
        <ele>59</ele>
        <time>2021-06-11T14:10:22Z</time>
      </trkpt>
      <trkpt lat="47.3409" lon="-1.09546">
        <ele>63</ele>
        <time>2021-06-11T14:10:42Z</time>
      </trkpt>
      <trkpt lat="47.3408" lon="-1.096">
        <ele>64</ele>
        <time>2021-06-11T14:10:49Z</time>
      </trkpt>
      <trkpt lat="47.34046" lon="-1.09819">
        <ele>64</ele>
        <time>2021-06-11T14:11:16Z</time>
      </trkpt>
      <trkpt lat="47.3404" lon="-1.09869">
        <ele>65</ele>
        <time>2021-06-11T14:11:22Z</time>
      </trkpt>
      <trkpt lat="47.34032" lon="-1.09989">
        <ele>66</ele>
        <time>2021-06-11T14:11:37Z</time>
      </trkpt>
      <trkpt lat="47.34035" lon="-1.10041">
        <ele>66</ele>
        <time>2021-06-11T14:11:43Z</time>
      </trkpt>
      <trkpt lat="47.34036" lon="-1.10087">
        <ele>66</ele>
        <time>2021-06-11T14:11:49Z</time>
      </trkpt>
      <trkpt lat="47.34025" lon="-1.1016">
        <ele>66</ele>
        <time>2021-06-11T14:11:58Z</time>
      </trkpt>
      <trkpt lat="47.34024" lon="-1.10185">
        <ele>66</ele>
        <time>2021-06-11T14:12:01Z</time>
      </trkpt>
      <trkpt lat="47.34026" lon="-1.10382">
        <ele>63</ele>
        <time>2021-06-11T14:12:25Z</time>
      </trkpt>
      <trkpt lat="47.34028" lon="-1.10393">
        <ele>62</ele>
        <time>2021-06-11T14:12:26Z</time>
      </trkpt>
      <trkpt lat="47.34032" lon="-1.10399">
        <ele>62</ele>
        <time>2021-06-11T14:12:27Z</time>
      </trkpt>
      <trkpt lat="47.34008" lon="-1.10467">
        <ele>63</ele>
        <time>2021-06-11T14:12:36Z</time>
      </trkpt>
      <trkpt lat="47.33995" lon="-1.10502">
        <ele>64</ele>
        <time>2021-06-11T14:12:41Z</time>
      </trkpt>
      <trkpt lat="47.33962" lon="-1.10573">
        <ele>68</ele>
        <time>2021-06-11T14:12:51Z</time>
      </trkpt>
      <trkpt lat="47.33933" lon="-1.10629">
        <ele>72</ele>
        <time>2021-06-11T14:13:00Z</time>
      </trkpt>
      <trkpt lat="47.33923" lon="-1.10653">
        <ele>73</ele>
        <time>2021-06-11T14:13:03Z</time>
      </trkpt>
      <trkpt lat="47.33918" lon="-1.10668">
        <ele>73</ele>
        <time>2021-06-11T14:13:05Z</time>
      </trkpt>
      <trkpt lat="47.33899" lon="-1.10741">
        <ele>75</ele>
        <time>2021-06-11T14:13:15Z</time>
      </trkpt>
      <trkpt lat="47.33888" lon="-1.10774">
        <ele>76</ele>
        <time>2021-06-11T14:13:19Z</time>
      </trkpt>
      <trkpt lat="47.33883" lon="-1.10788">
        <ele>76</ele>
        <time>2021-06-11T14:13:21Z</time>
      </trkpt>
      <trkpt lat="47.3388" lon="-1.10796">
        <ele>76</ele>
        <time>2021-06-11T14:13:22Z</time>
      </trkpt>
      <trkpt lat="47.33868" lon="-1.10825">
        <ele>76</ele>
        <time>2021-06-11T14:13:26Z</time>
      </trkpt>
      <trkpt lat="47.33849" lon="-1.10874">
        <ele>77</ele>
        <time>2021-06-11T14:13:33Z</time>
      </trkpt>
      <trkpt lat="47.33843" lon="-1.10888">
        <ele>78</ele>
        <time>2021-06-11T14:13:35Z</time>
      </trkpt>
      <trkpt lat="47.33838" lon="-1.10905">
        <ele>78</ele>
        <time>2021-06-11T14:13:37Z</time>
      </trkpt>
      <trkpt lat="47.33833" lon="-1.10937">
        <ele>78</ele>
        <time>2021-06-11T14:13:41Z</time>
      </trkpt>
      <trkpt lat="47.33833" lon="-1.1094">
        <ele>78</ele>
        <time>2021-06-11T14:13:42Z</time>
      </trkpt>
      <trkpt lat="47.33831" lon="-1.10948">
        <ele>78</ele>
        <time>2021-06-11T14:13:43Z</time>
      </trkpt>
      <trkpt lat="47.33829" lon="-1.10968">
        <ele>79</ele>
        <time>2021-06-11T14:13:45Z</time>
      </trkpt>
      <trkpt lat="47.33821" lon="-1.11022">
        <ele>79</ele>
        <time>2021-06-11T14:13:52Z</time>
      </trkpt>
      <trkpt lat="47.33819" lon="-1.11037">
        <ele>79</ele>
        <time>2021-06-11T14:13:54Z</time>
      </trkpt>
      <trkpt lat="47.33812" lon="-1.11074">
        <ele>78</ele>
        <time>2021-06-11T14:13:58Z</time>
      </trkpt>
      <trkpt lat="47.3381" lon="-1.1109">
        <ele>78</ele>
        <time>2021-06-11T14:14:00Z</time>
      </trkpt>
      <trkpt lat="47.33814" lon="-1.11137">
        <ele>75</ele>
        <time>2021-06-11T14:14:06Z</time>
      </trkpt>
      <trkpt lat="47.33816" lon="-1.11157">
        <ele>74</ele>
        <time>2021-06-11T14:14:08Z</time>
      </trkpt>
      <trkpt lat="47.33819" lon="-1.11168">
        <ele>74</ele>
        <time>2021-06-11T14:14:10Z</time>
      </trkpt>
      <trkpt lat="47.33823" lon="-1.11172">
        <ele>74</ele>
        <time>2021-06-11T14:14:11Z</time>
      </trkpt>
      <trkpt lat="47.33835" lon="-1.11173">
        <ele>73</ele>
        <time>2021-06-11T14:14:13Z</time>
      </trkpt>
      <trkpt lat="47.33836" lon="-1.11173">
        <ele>73</ele>
        <time>2021-06-11T14:14:13Z</time>
      </trkpt>
      <trkpt lat="47.3387" lon="-1.11167">
        <ele>70</ele>
        <time>2021-06-11T14:14:19Z</time>
      </trkpt>
      <trkpt lat="47.33891" lon="-1.11164">
        <ele>68</ele>
        <time>2021-06-11T14:14:23Z</time>
      </trkpt>
      <trkpt lat="47.33905" lon="-1.11164">
        <ele>67</ele>
        <time>2021-06-11T14:14:25Z</time>
      </trkpt>
      <trkpt lat="47.33918" lon="-1.11166">
        <ele>66</ele>
        <time>2021-06-11T14:14:28Z</time>
      </trkpt>
      <trkpt lat="47.33922" lon="-1.11166">
        <ele>66</ele>
        <time>2021-06-11T14:14:28Z</time>
      </trkpt>
      <trkpt lat="47.33943" lon="-1.1117">
        <ele>64</ele>
        <time>2021-06-11T14:14:32Z</time>
      </trkpt>
      <trkpt lat="47.33948" lon="-1.11172">
        <ele>63</ele>
        <time>2021-06-11T14:14:33Z</time>
      </trkpt>
      <trkpt lat="47.33952" lon="-1.11175">
        <ele>63</ele>
        <time>2021-06-11T14:14:34Z</time>
      </trkpt>
      <trkpt lat="47.33955" lon="-1.1118">
        <ele>63</ele>
        <time>2021-06-11T14:14:35Z</time>
      </trkpt>
      <trkpt lat="47.33958" lon="-1.11187">
        <ele>63</ele>
        <time>2021-06-11T14:14:36Z</time>
      </trkpt>
      <trkpt lat="47.33975" lon="-1.11228">
        <ele>62</ele>
        <time>2021-06-11T14:14:41Z</time>
      </trkpt>
      <trkpt lat="47.33978" lon="-1.11236">
        <ele>62</ele>
        <time>2021-06-11T14:14:42Z</time>
      </trkpt>
      <trkpt lat="47.33983" lon="-1.11247">
        <ele>62</ele>
        <time>2021-06-11T14:14:44Z</time>
      </trkpt>
      <trkpt lat="47.33989" lon="-1.11271">
        <ele>62</ele>
        <time>2021-06-11T14:14:47Z</time>
      </trkpt>
      <trkpt lat="47.33994" lon="-1.11312">
        <ele>62</ele>
        <time>2021-06-11T14:14:52Z</time>
      </trkpt>
      <trkpt lat="47.33995" lon="-1.11325">
        <ele>61</ele>
        <time>2021-06-11T14:14:54Z</time>
      </trkpt>
      <trkpt lat="47.34004" lon="-1.114">
        <ele>61</ele>
        <time>2021-06-11T14:15:03Z</time>
      </trkpt>
      <trkpt lat="47.34005" lon="-1.11421">
        <ele>61</ele>
        <time>2021-06-11T14:15:06Z</time>
      </trkpt>
      <trkpt lat="47.34004" lon="-1.11557">
        <ele>59</ele>
        <time>2021-06-11T14:15:22Z</time>
      </trkpt>
      <trkpt lat="47.34006" lon="-1.11575">
        <ele>58</ele>
        <time>2021-06-11T14:15:24Z</time>
      </trkpt>
      <trkpt lat="47.3401" lon="-1.1159">
        <ele>58</ele>
        <time>2021-06-11T14:15:26Z</time>
      </trkpt>
      <trkpt lat="47.34015" lon="-1.11604">
        <ele>57</ele>
        <time>2021-06-11T14:15:28Z</time>
      </trkpt>
      <trkpt lat="47.34051" lon="-1.11662">
        <ele>51</ele>
        <time>2021-06-11T14:15:37Z</time>
      </trkpt>
      <trkpt lat="47.34098" lon="-1.11716">
        <ele>46</ele>
        <time>2021-06-11T14:15:48Z</time>
      </trkpt>
      <trkpt lat="47.34113" lon="-1.11735">
        <ele>45</ele>
        <time>2021-06-11T14:15:52Z</time>
      </trkpt>
      <trkpt lat="47.34118" lon="-1.11746">
        <ele>45</ele>
        <time>2021-06-11T14:15:53Z</time>
      </trkpt>
      <trkpt lat="47.34123" lon="-1.11757">
        <ele>45</ele>
        <time>2021-06-11T14:15:55Z</time>
      </trkpt>
      <trkpt lat="47.34132" lon="-1.11786">
        <ele>44</ele>
        <time>2021-06-11T14:15:59Z</time>
      </trkpt>
      <trkpt lat="47.34149" lon="-1.11852">
        <ele>42</ele>
        <time>2021-06-11T14:16:07Z</time>
      </trkpt>
      <trkpt lat="47.34157" lon="-1.11911">
        <ele>42</ele>
        <time>2021-06-11T14:16:14Z</time>
      </trkpt>
      <trkpt lat="47.34159" lon="-1.1195">
        <ele>41</ele>
        <time>2021-06-11T14:16:19Z</time>
      </trkpt>
      <trkpt lat="47.34163" lon="-1.11996">
        <ele>40</ele>
        <time>2021-06-11T14:16:25Z</time>
      </trkpt>
      <trkpt lat="47.34176" lon="-1.12083">
        <ele>39</ele>
        <time>2021-06-11T14:16:35Z</time>
      </trkpt>
      <trkpt lat="47.34176" lon="-1.12088">
        <ele>39</ele>
        <time>2021-06-11T14:16:36Z</time>
      </trkpt>
      <trkpt lat="47.34178" lon="-1.12116">
        <ele>40</ele>
        <time>2021-06-11T14:16:39Z</time>
      </trkpt>
      <trkpt lat="47.34177" lon="-1.12174">
        <ele>40</ele>
        <time>2021-06-11T14:16:46Z</time>
      </trkpt>
      <trkpt lat="47.34156" lon="-1.12432">
        <ele>44</ele>
        <time>2021-06-11T14:17:18Z</time>
      </trkpt>
      <trkpt lat="47.34148" lon="-1.12493">
        <ele>44</ele>
        <time>2021-06-11T14:17:25Z</time>
      </trkpt>
      <trkpt lat="47.34147" lon="-1.1252">
        <ele>44</ele>
        <time>2021-06-11T14:17:28Z</time>
      </trkpt>
      <trkpt lat="47.3415" lon="-1.12563">
        <ele>42</ele>
        <time>2021-06-11T14:17:34Z</time>
      </trkpt>
      <trkpt lat="47.34153" lon="-1.12583">
        <ele>41</ele>
        <time>2021-06-11T14:17:36Z</time>
      </trkpt>
      <trkpt lat="47.34163" lon="-1.1262">
        <ele>39</ele>
        <time>2021-06-11T14:17:41Z</time>
      </trkpt>
      <trkpt lat="47.34172" lon="-1.12661">
        <ele>39</ele>
        <time>2021-06-11T14:17:46Z</time>
      </trkpt>
      <trkpt lat="47.34176" lon="-1.12687">
        <ele>39</ele>
        <time>2021-06-11T14:17:49Z</time>
      </trkpt>
      <trkpt lat="47.34177" lon="-1.12711">
        <ele>39</ele>
        <time>2021-06-11T14:17:52Z</time>
      </trkpt>
      <trkpt lat="47.34178" lon="-1.12769">
        <ele>39</ele>
        <time>2021-06-11T14:17:59Z</time>
      </trkpt>
      <trkpt lat="47.34179" lon="-1.12863">
        <ele>39</ele>
        <time>2021-06-11T14:18:11Z</time>
      </trkpt>
      <trkpt lat="47.34176" lon="-1.13001">
        <ele>37</ele>
        <time>2021-06-11T14:18:27Z</time>
      </trkpt>
      <trkpt lat="47.34179" lon="-1.13132">
        <ele>32</ele>
        <time>2021-06-11T14:18:43Z</time>
      </trkpt>
      <trkpt lat="47.34178" lon="-1.13169">
        <ele>31</ele>
        <time>2021-06-11T14:18:48Z</time>
      </trkpt>
      <trkpt lat="47.34177" lon="-1.13178">
        <ele>32</ele>
        <time>2021-06-11T14:18:49Z</time>
      </trkpt>
      <trkpt lat="47.34172" lon="-1.1321">
        <ele>32</ele>
        <time>2021-06-11T14:18:53Z</time>
      </trkpt>
      <trkpt lat="47.34145" lon="-1.13376">
        <ele>36</ele>
        <time>2021-06-11T14:19:13Z</time>
      </trkpt>
      <trkpt lat="47.34142" lon="-1.13407">
        <ele>37</ele>
        <time>2021-06-11T14:19:17Z</time>
      </trkpt>
      <trkpt lat="47.34141" lon="-1.13431">
        <ele>38</ele>
        <time>2021-06-11T14:19:20Z</time>
      </trkpt>
      <trkpt lat="47.34143" lon="-1.13456">
        <ele>38</ele>
        <time>2021-06-11T14:19:23Z</time>
      </trkpt>
      <trkpt lat="47.34149" lon="-1.13486">
        <ele>37</ele>
        <time>2021-06-11T14:19:27Z</time>
      </trkpt>
      <trkpt lat="47.34158" lon="-1.13525">
        <ele>37</ele>
        <time>2021-06-11T14:19:32Z</time>
      </trkpt>
      <trkpt lat="47.34162" lon="-1.13553">
        <ele>37</ele>
        <time>2021-06-11T14:19:35Z</time>
      </trkpt>
      <trkpt lat="47.34161" lon="-1.1358">
        <ele>38</ele>
        <time>2021-06-11T14:19:38Z</time>
      </trkpt>
      <trkpt lat="47.34158" lon="-1.13608">
        <ele>38</ele>
        <time>2021-06-11T14:19:42Z</time>
      </trkpt>
      <trkpt lat="47.3411" lon="-1.13823">
        <ele>43</ele>
        <time>2021-06-11T14:20:09Z</time>
      </trkpt>
      <trkpt lat="47.34089" lon="-1.13921">
        <ele>43</ele>
        <time>2021-06-11T14:20:21Z</time>
      </trkpt>
      <trkpt lat="47.34084" lon="-1.13949">
        <ele>44</ele>
        <time>2021-06-11T14:20:25Z</time>
      </trkpt>
      <trkpt lat="47.34083" lon="-1.13973">
        <ele>44</ele>
        <time>2021-06-11T14:20:28Z</time>
      </trkpt>
      <trkpt lat="47.34083" lon="-1.14">
        <ele>44</ele>
        <time>2021-06-11T14:20:31Z</time>
      </trkpt>
      <trkpt lat="47.34086" lon="-1.14025">
        <ele>43</ele>
        <time>2021-06-11T14:20:34Z</time>
      </trkpt>
      <trkpt lat="47.34124" lon="-1.14281">
        <ele>32</ele>
        <time>2021-06-11T14:21:06Z</time>
      </trkpt>
      <trkpt lat="47.34127" lon="-1.14297">
        <ele>32</ele>
        <time>2021-06-11T14:21:08Z</time>
      </trkpt>
      <trkpt lat="47.34129" lon="-1.14308">
        <ele>31</ele>
        <time>2021-06-11T14:21:09Z</time>
      </trkpt>
      <trkpt lat="47.34132" lon="-1.14324">
        <ele>31</ele>
        <time>2021-06-11T14:21:11Z</time>
      </trkpt>
      <trkpt lat="47.34142" lon="-1.14367">
        <ele>30</ele>
        <time>2021-06-11T14:21:17Z</time>
      </trkpt>
      <trkpt lat="47.34176" lon="-1.14476">
        <ele>29</ele>
        <time>2021-06-11T14:21:31Z</time>
      </trkpt>
      <trkpt lat="47.3418" lon="-1.1449">
        <ele>29</ele>
        <time>2021-06-11T14:21:33Z</time>
      </trkpt>
      <trkpt lat="47.34201" lon="-1.14556">
        <ele>30</ele>
        <time>2021-06-11T14:21:42Z</time>
      </trkpt>
      <trkpt lat="47.34213" lon="-1.14604">
        <ele>30</ele>
        <time>2021-06-11T14:21:48Z</time>
      </trkpt>
      <trkpt lat="47.34217" lon="-1.14627">
        <ele>30</ele>
        <time>2021-06-11T14:21:51Z</time>
      </trkpt>
      <trkpt lat="47.34241" lon="-1.14791">
        <ele>31</ele>
        <time>2021-06-11T14:22:11Z</time>
      </trkpt>
      <trkpt lat="47.34251" lon="-1.14864">
        <ele>31</ele>
        <time>2021-06-11T14:22:20Z</time>
      </trkpt>
      <trkpt lat="47.34256" lon="-1.14887">
        <ele>31</ele>
        <time>2021-06-11T14:22:23Z</time>
      </trkpt>
      <trkpt lat="47.34267" lon="-1.14924">
        <ele>30</ele>
        <time>2021-06-11T14:22:28Z</time>
      </trkpt>
      <trkpt lat="47.34287" lon="-1.14966">
        <ele>30</ele>
        <time>2021-06-11T14:22:34Z</time>
      </trkpt>
      <trkpt lat="47.34292" lon="-1.14978">
        <ele>30</ele>
        <time>2021-06-11T14:22:36Z</time>
      </trkpt>
      <trkpt lat="47.34299" lon="-1.14996">
        <ele>30</ele>
        <time>2021-06-11T14:22:38Z</time>
      </trkpt>
      <trkpt lat="47.34304" lon="-1.15011">
        <ele>30</ele>
        <time>2021-06-11T14:22:40Z</time>
      </trkpt>
      <trkpt lat="47.3431" lon="-1.15042">
        <ele>30</ele>
        <time>2021-06-11T14:22:44Z</time>
      </trkpt>
      <trkpt lat="47.34323" lon="-1.15171">
        <ele>31</ele>
        <time>2021-06-11T14:23:00Z</time>
      </trkpt>
      <trkpt lat="47.34325" lon="-1.15209">
        <ele>31</ele>
        <time>2021-06-11T14:23:04Z</time>
      </trkpt>
      <trkpt lat="47.34322" lon="-1.15246">
        <ele>30</ele>
        <time>2021-06-11T14:23:09Z</time>
      </trkpt>
      <trkpt lat="47.34318" lon="-1.15269">
        <ele>30</ele>
        <time>2021-06-11T14:23:12Z</time>
      </trkpt>
      <trkpt lat="47.34311" lon="-1.15316">
        <ele>31</ele>
        <time>2021-06-11T14:23:17Z</time>
      </trkpt>
      <trkpt lat="47.34311" lon="-1.15336">
        <ele>31</ele>
        <time>2021-06-11T14:23:20Z</time>
      </trkpt>
      <trkpt lat="47.34314" lon="-1.15356">
        <ele>31</ele>
        <time>2021-06-11T14:23:22Z</time>
      </trkpt>
      <trkpt lat="47.34319" lon="-1.15371">
        <ele>31</ele>
        <time>2021-06-11T14:23:24Z</time>
      </trkpt>
      <trkpt lat="47.34333" lon="-1.15404">
        <ele>31</ele>
        <time>2021-06-11T14:23:29Z</time>
      </trkpt>
      <trkpt lat="47.34388" lon="-1.15528">
        <ele>28</ele>
        <time>2021-06-11T14:23:47Z</time>
      </trkpt>
      <trkpt lat="47.34441" lon="-1.15647">
        <ele>24</ele>
        <time>2021-06-11T14:24:04Z</time>
      </trkpt>
      <trkpt lat="47.34475" lon="-1.15724">
        <ele>22</ele>
        <time>2021-06-11T14:24:15Z</time>
      </trkpt>
      <trkpt lat="47.34497" lon="-1.15773">
        <ele>20</ele>
        <time>2021-06-11T14:24:22Z</time>
      </trkpt>
      <trkpt lat="47.34504" lon="-1.15789">
        <ele>19</ele>
        <time>2021-06-11T14:24:25Z</time>
      </trkpt>
      <trkpt lat="47.34511" lon="-1.15808">
        <ele>19</ele>
        <time>2021-06-11T14:24:27Z</time>
      </trkpt>
      <trkpt lat="47.34518" lon="-1.1583">
        <ele>18</ele>
        <time>2021-06-11T14:24:30Z</time>
      </trkpt>
      <trkpt lat="47.34523" lon="-1.15855">
        <ele>18</ele>
        <time>2021-06-11T14:24:33Z</time>
      </trkpt>
      <trkpt lat="47.34527" lon="-1.15878">
        <ele>17</ele>
        <time>2021-06-11T14:24:36Z</time>
      </trkpt>
      <trkpt lat="47.34531" lon="-1.15926">
        <ele>17</ele>
        <time>2021-06-11T14:24:42Z</time>
      </trkpt>
      <trkpt lat="47.34532" lon="-1.15949">
        <ele>15</ele>
        <time>2021-06-11T14:24:45Z</time>
      </trkpt>
      <trkpt lat="47.3453" lon="-1.15988">
        <ele>14</ele>
        <time>2021-06-11T14:24:49Z</time>
      </trkpt>
      <trkpt lat="47.34527" lon="-1.16018">
        <ele>12</ele>
        <time>2021-06-11T14:24:53Z</time>
      </trkpt>
      <trkpt lat="47.3452" lon="-1.16055">
        <ele>10</ele>
        <time>2021-06-11T14:24:58Z</time>
      </trkpt>
      <trkpt lat="47.34507" lon="-1.16109">
        <ele>10</ele>
        <time>2021-06-11T14:25:05Z</time>
      </trkpt>
      <trkpt lat="47.34503" lon="-1.16123">
        <ele>10</ele>
        <time>2021-06-11T14:25:06Z</time>
      </trkpt>
      <trkpt lat="47.34473" lon="-1.16183">
        <ele>13</ele>
        <time>2021-06-11T14:25:15Z</time>
      </trkpt>
      <trkpt lat="47.34469" lon="-1.16197">
        <ele>14</ele>
        <time>2021-06-11T14:25:17Z</time>
      </trkpt>
      <trkpt lat="47.34464" lon="-1.1623">
        <ele>16</ele>
        <time>2021-06-11T14:25:21Z</time>
      </trkpt>
      <trkpt lat="47.34465" lon="-1.1628">
        <ele>19</ele>
        <time>2021-06-11T14:25:27Z</time>
      </trkpt>
      <trkpt lat="47.34468" lon="-1.16282">
        <ele>18</ele>
        <time>2021-06-11T14:25:28Z</time>
      </trkpt>
      <trkpt lat="47.34469" lon="-1.16289">
        <ele>19</ele>
        <time>2021-06-11T14:25:29Z</time>
      </trkpt>
      <trkpt lat="47.34466" lon="-1.16295">
        <ele>19</ele>
        <time>2021-06-11T14:25:30Z</time>
      </trkpt>
      <trkpt lat="47.34463" lon="-1.16296">
        <ele>19</ele>
        <time>2021-06-11T14:25:30Z</time>
      </trkpt>
      <trkpt lat="47.34459" lon="-1.16288">
        <ele>19</ele>
        <time>2021-06-11T14:25:31Z</time>
      </trkpt>
      <trkpt lat="47.3446" lon="-1.16282">
        <ele>19</ele>
        <time>2021-06-11T14:25:32Z</time>
      </trkpt>
      <trkpt lat="47.34463" lon="-1.1628">
        <ele>19</ele>
        <time>2021-06-11T14:25:33Z</time>
      </trkpt>
      <trkpt lat="47.34468" lon="-1.16282">
        <ele>18</ele>
        <time>2021-06-11T14:25:34Z</time>
      </trkpt>
      <trkpt lat="47.3447" lon="-1.16287">
        <ele>18</ele>
        <time>2021-06-11T14:25:34Z</time>
      </trkpt>
      <trkpt lat="47.34469" lon="-1.16289">
        <ele>19</ele>
        <time>2021-06-11T14:25:35Z</time>
      </trkpt>
      <trkpt lat="47.34465" lon="-1.16296">
        <ele>19</ele>
        <time>2021-06-11T14:25:36Z</time>
      </trkpt>
      <trkpt lat="47.34468" lon="-1.16434">
        <ele>21</ele>
        <time>2021-06-11T14:25:52Z</time>
      </trkpt>
      <trkpt lat="47.34471" lon="-1.16476">
        <ele>20</ele>
        <time>2021-06-11T14:25:58Z</time>
      </trkpt>
      <trkpt lat="47.34512" lon="-1.1679">
        <ele>15</ele>
        <time>2021-06-11T14:26:36Z</time>
      </trkpt>
      <trkpt lat="47.34515" lon="-1.16835">
        <ele>14</ele>
        <time>2021-06-11T14:26:42Z</time>
      </trkpt>
      <trkpt lat="47.34516" lon="-1.16873">
        <ele>14</ele>
        <time>2021-06-11T14:26:46Z</time>
      </trkpt>
      <trkpt lat="47.34504" lon="-1.17502">
        <ele>14</ele>
        <time>2021-06-11T14:28:02Z</time>
      </trkpt>
      <trkpt lat="47.34481" lon="-1.18128">
        <ele>16</ele>
        <time>2021-06-11T14:29:18Z</time>
      </trkpt>
      <trkpt lat="47.34471" lon="-1.18356">
        <ele>13</ele>
        <time>2021-06-11T14:29:45Z</time>
      </trkpt>
      <trkpt lat="47.34474" lon="-1.18434">
        <ele>14</ele>
        <time>2021-06-11T14:29:55Z</time>
      </trkpt>
      <trkpt lat="47.34489" lon="-1.186">
        <ele>18</ele>
        <time>2021-06-11T14:30:15Z</time>
      </trkpt>
      <trkpt lat="47.34516" lon="-1.18931">
        <ele>15</ele>
        <time>2021-06-11T14:30:55Z</time>
      </trkpt>
      <trkpt lat="47.34518" lon="-1.19006">
        <ele>14</ele>
        <time>2021-06-11T14:31:04Z</time>
      </trkpt>
      <trkpt lat="47.34516" lon="-1.19061">
        <ele>13</ele>
        <time>2021-06-11T14:31:11Z</time>
      </trkpt>
      <trkpt lat="47.34495" lon="-1.19272">
        <ele>13</ele>
        <time>2021-06-11T14:31:36Z</time>
      </trkpt>
      <trkpt lat="47.34485" lon="-1.19403">
        <ele>16</ele>
        <time>2021-06-11T14:31:52Z</time>
      </trkpt>
      <trkpt lat="47.3447" lon="-1.19668">
        <ele>17</ele>
        <time>2021-06-11T14:32:24Z</time>
      </trkpt>
      <trkpt lat="47.3446" lon="-1.19841">
        <ele>15</ele>
        <time>2021-06-11T14:32:45Z</time>
      </trkpt>
      <trkpt lat="47.34451" lon="-1.19891">
        <ele>15</ele>
        <time>2021-06-11T14:32:51Z</time>
      </trkpt>
      <trkpt lat="47.3442" lon="-1.20024">
        <ele>14</ele>
        <time>2021-06-11T14:33:08Z</time>
      </trkpt>
      <trkpt lat="47.34417" lon="-1.2004">
        <ele>14</ele>
        <time>2021-06-11T14:33:10Z</time>
      </trkpt>
      <trkpt lat="47.34415" lon="-1.20075">
        <ele>14</ele>
        <time>2021-06-11T14:33:15Z</time>
      </trkpt>
      <trkpt lat="47.34415" lon="-1.20094">
        <ele>15</ele>
        <time>2021-06-11T14:33:17Z</time>
      </trkpt>
      <trkpt lat="47.34422" lon="-1.20187">
        <ele>16</ele>
        <time>2021-06-11T14:33:28Z</time>
      </trkpt>
      <trkpt lat="47.34423" lon="-1.20232">
        <ele>14</ele>
        <time>2021-06-11T14:33:34Z</time>
      </trkpt>
      <trkpt lat="47.3442" lon="-1.20276">
        <ele>13</ele>
        <time>2021-06-11T14:33:39Z</time>
      </trkpt>
      <trkpt lat="47.344" lon="-1.20403">
        <ele>14</ele>
        <time>2021-06-11T14:33:55Z</time>
      </trkpt>
      <trkpt lat="47.34389" lon="-1.20439">
        <ele>15</ele>
        <time>2021-06-11T14:33:59Z</time>
      </trkpt>
      <trkpt lat="47.34373" lon="-1.20473">
        <ele>16</ele>
        <time>2021-06-11T14:34:04Z</time>
      </trkpt>
      <trkpt lat="47.34322" lon="-1.20553">
        <ele>19</ele>
        <time>2021-06-11T14:34:18Z</time>
      </trkpt>
      <trkpt lat="47.34308" lon="-1.2058">
        <ele>20</ele>
        <time>2021-06-11T14:34:22Z</time>
      </trkpt>
      <trkpt lat="47.34298" lon="-1.20606">
        <ele>21</ele>
        <time>2021-06-11T14:34:25Z</time>
      </trkpt>
      <trkpt lat="47.34292" lon="-1.20627">
        <ele>23</ele>
        <time>2021-06-11T14:34:28Z</time>
      </trkpt>
      <trkpt lat="47.34272" lon="-1.20734">
        <ele>26</ele>
        <time>2021-06-11T14:34:42Z</time>
      </trkpt>
      <trkpt lat="47.34222" lon="-1.21035">
        <ele>22</ele>
        <time>2021-06-11T14:35:19Z</time>
      </trkpt>
      <trkpt lat="47.34207" lon="-1.211">
        <ele>21</ele>
        <time>2021-06-11T14:35:27Z</time>
      </trkpt>
      <trkpt lat="47.34179" lon="-1.21197">
        <ele>18</ele>
        <time>2021-06-11T14:35:40Z</time>
      </trkpt>
      <trkpt lat="47.34168" lon="-1.21251">
        <ele>19</ele>
        <time>2021-06-11T14:35:47Z</time>
      </trkpt>
      <trkpt lat="47.34163" lon="-1.21284">
        <ele>20</ele>
        <time>2021-06-11T14:35:51Z</time>
      </trkpt>
      <trkpt lat="47.34161" lon="-1.2132">
        <ele>21</ele>
        <time>2021-06-11T14:35:55Z</time>
      </trkpt>
      <trkpt lat="47.34159" lon="-1.21476">
        <ele>22</ele>
        <time>2021-06-11T14:36:14Z</time>
      </trkpt>
      <trkpt lat="47.34161" lon="-1.21724">
        <ele>21</ele>
        <time>2021-06-11T14:36:44Z</time>
      </trkpt>
      <trkpt lat="47.34171" lon="-1.21797">
        <ele>17</ele>
        <time>2021-06-11T14:36:53Z</time>
      </trkpt>
      <trkpt lat="47.34173" lon="-1.21828">
        <ele>16</ele>
        <time>2021-06-11T14:36:57Z</time>
      </trkpt>
      <trkpt lat="47.34172" lon="-1.21862">
        <ele>16</ele>
        <time>2021-06-11T14:37:01Z</time>
      </trkpt>
      <trkpt lat="47.34153" lon="-1.22131">
        <ele>19</ele>
        <time>2021-06-11T14:37:33Z</time>
      </trkpt>
      <trkpt lat="47.34143" lon="-1.22208">
        <ele>20</ele>
        <time>2021-06-11T14:37:43Z</time>
      </trkpt>
      <trkpt lat="47.34122" lon="-1.22308">
        <ele>20</ele>
        <time>2021-06-11T14:37:55Z</time>
      </trkpt>
      <trkpt lat="47.34104" lon="-1.22405">
        <ele>19</ele>
        <time>2021-06-11T14:38:08Z</time>
      </trkpt>
      <trkpt lat="47.34061" lon="-1.22728">
        <ele>14</ele>
        <time>2021-06-11T14:38:47Z</time>
      </trkpt>
      <trkpt lat="47.34055" lon="-1.22751">
        <ele>14</ele>
        <time>2021-06-11T14:38:50Z</time>
      </trkpt>
      <trkpt lat="47.34034" lon="-1.2281">
        <ele>16</ele>
        <time>2021-06-11T14:38:58Z</time>
      </trkpt>
      <trkpt lat="47.34027" lon="-1.22844">
        <ele>17</ele>
        <time>2021-06-11T14:39:02Z</time>
      </trkpt>
      <trkpt lat="47.33997" lon="-1.23097">
        <ele>11</ele>
        <time>2021-06-11T14:39:33Z</time>
      </trkpt>
      <trkpt lat="47.33994" lon="-1.23267">
        <ele>15</ele>
        <time>2021-06-11T14:39:54Z</time>
      </trkpt>
      <trkpt lat="47.33992" lon="-1.23316">
        <ele>14</ele>
        <time>2021-06-11T14:40:00Z</time>
      </trkpt>
      <trkpt lat="47.33952" lon="-1.23581">
        <ele>13</ele>
        <time>2021-06-11T14:40:33Z</time>
      </trkpt>
      <trkpt lat="47.33946" lon="-1.23609">
        <ele>13</ele>
        <time>2021-06-11T14:40:36Z</time>
      </trkpt>
      <trkpt lat="47.33936" lon="-1.23644">
        <ele>13</ele>
        <time>2021-06-11T14:40:41Z</time>
      </trkpt>
      <trkpt lat="47.33881" lon="-1.23804">
        <ele>13</ele>
        <time>2021-06-11T14:41:02Z</time>
      </trkpt>
      <trkpt lat="47.33872" lon="-1.23835">
        <ele>13</ele>
        <time>2021-06-11T14:41:06Z</time>
      </trkpt>
      <trkpt lat="47.33861" lon="-1.2388">
        <ele>13</ele>
        <time>2021-06-11T14:41:12Z</time>
      </trkpt>
      <trkpt lat="47.33812" lon="-1.24118">
        <ele>16</ele>
        <time>2021-06-11T14:41:42Z</time>
      </trkpt>
      <trkpt lat="47.33808" lon="-1.24158">
        <ele>16</ele>
        <time>2021-06-11T14:41:47Z</time>
      </trkpt>
      <trkpt lat="47.33804" lon="-1.24272">
        <ele>14</ele>
        <time>2021-06-11T14:42:01Z</time>
      </trkpt>
      <trkpt lat="47.33799" lon="-1.24317">
        <ele>15</ele>
        <time>2021-06-11T14:42:06Z</time>
      </trkpt>
      <trkpt lat="47.3377" lon="-1.24491">
        <ele>16</ele>
        <time>2021-06-11T14:42:28Z</time>
      </trkpt>
      <trkpt lat="47.33768" lon="-1.24528">
        <ele>17</ele>
        <time>2021-06-11T14:42:32Z</time>
      </trkpt>
      <trkpt lat="47.33771" lon="-1.24552">
        <ele>18</ele>
        <time>2021-06-11T14:42:35Z</time>
      </trkpt>
      <trkpt lat="47.33777" lon="-1.24573">
        <ele>18</ele>
        <time>2021-06-11T14:42:38Z</time>
      </trkpt>
      <trkpt lat="47.33809" lon="-1.2463">
        <ele>17</ele>
        <time>2021-06-11T14:42:47Z</time>
      </trkpt>
      <trkpt lat="47.3382" lon="-1.24655">
        <ele>16</ele>
        <time>2021-06-11T14:42:51Z</time>
      </trkpt>
      <trkpt lat="47.3386" lon="-1.24774">
        <ele>14</ele>
        <time>2021-06-11T14:43:07Z</time>
      </trkpt>
      <trkpt lat="47.33864" lon="-1.24802">
        <ele>14</ele>
        <time>2021-06-11T14:43:10Z</time>
      </trkpt>
      <trkpt lat="47.33863" lon="-1.24816">
        <ele>14</ele>
        <time>2021-06-11T14:43:12Z</time>
      </trkpt>
      <trkpt lat="47.33858" lon="-1.24831">
        <ele>15</ele>
        <time>2021-06-11T14:43:14Z</time>
      </trkpt>
      <trkpt lat="47.33851" lon="-1.24843">
        <ele>15</ele>
        <time>2021-06-11T14:43:16Z</time>
      </trkpt>
      <trkpt lat="47.338" lon="-1.24892">
        <ele>24</ele>
        <time>2021-06-11T14:43:27Z</time>
      </trkpt>
      <trkpt lat="47.33791" lon="-1.24903">
        <ele>26</ele>
        <time>2021-06-11T14:43:29Z</time>
      </trkpt>
      <trkpt lat="47.33788" lon="-1.24914">
        <ele>26</ele>
        <time>2021-06-11T14:43:30Z</time>
      </trkpt>
      <trkpt lat="47.33788" lon="-1.24928">
        <ele>27</ele>
        <time>2021-06-11T14:43:32Z</time>
      </trkpt>
      <trkpt lat="47.33789" lon="-1.2494">
        <ele>28</ele>
        <time>2021-06-11T14:43:33Z</time>
      </trkpt>
      <trkpt lat="47.33795" lon="-1.24952">
        <ele>28</ele>
        <time>2021-06-11T14:43:35Z</time>
      </trkpt>
      <trkpt lat="47.33805" lon="-1.24959">
        <ele>26</ele>
        <time>2021-06-11T14:43:37Z</time>
      </trkpt>
      <trkpt lat="47.33838" lon="-1.24975">
        <ele>23</ele>
        <time>2021-06-11T14:43:43Z</time>
      </trkpt>
      <trkpt lat="47.33852" lon="-1.24986">
        <ele>22</ele>
        <time>2021-06-11T14:43:46Z</time>
      </trkpt>
      <trkpt lat="47.33863" lon="-1.24999">
        <ele>21</ele>
        <time>2021-06-11T14:43:48Z</time>
      </trkpt>
      <trkpt lat="47.33875" lon="-1.25019">
        <ele>21</ele>
        <time>2021-06-11T14:43:52Z</time>
      </trkpt>
      <trkpt lat="47.33928" lon="-1.25145">
        <ele>23</ele>
        <time>2021-06-11T14:44:10Z</time>
      </trkpt>
      <trkpt lat="47.33935" lon="-1.25185">
        <ele>24</ele>
        <time>2021-06-11T14:44:15Z</time>
      </trkpt>
      <trkpt lat="47.33936" lon="-1.25207">
        <ele>24</ele>
        <time>2021-06-11T14:44:17Z</time>
      </trkpt>
      <trkpt lat="47.33935" lon="-1.2523">
        <ele>25</ele>
        <time>2021-06-11T14:44:20Z</time>
      </trkpt>
      <trkpt lat="47.33931" lon="-1.25265">
        <ele>27</ele>
        <time>2021-06-11T14:44:24Z</time>
      </trkpt>
      <trkpt lat="47.33918" lon="-1.25352">
        <ele>30</ele>
        <time>2021-06-11T14:44:35Z</time>
      </trkpt>
      <trkpt lat="47.33886" lon="-1.25552">
        <ele>34</ele>
        <time>2021-06-11T14:45:00Z</time>
      </trkpt>
      <trkpt lat="47.33879" lon="-1.25578">
        <ele>34</ele>
        <time>2021-06-11T14:45:03Z</time>
      </trkpt>
      <trkpt lat="47.33865" lon="-1.25599">
        <ele>36</ele>
        <time>2021-06-11T14:45:07Z</time>
      </trkpt>
      <trkpt lat="47.33857" lon="-1.25609">
        <ele>37</ele>
        <time>2021-06-11T14:45:09Z</time>
      </trkpt>
      <trkpt lat="47.33841" lon="-1.25622">
        <ele>39</ele>
        <time>2021-06-11T14:45:12Z</time>
      </trkpt>
      <trkpt lat="47.33825" lon="-1.25626">
        <ele>41</ele>
        <time>2021-06-11T14:45:15Z</time>
      </trkpt>
      <trkpt lat="47.33817" lon="-1.25624">
        <ele>42</ele>
        <time>2021-06-11T14:45:16Z</time>
      </trkpt>
      <trkpt lat="47.3381" lon="-1.25619">
        <ele>43</ele>
        <time>2021-06-11T14:45:18Z</time>
      </trkpt>
      <trkpt lat="47.33796" lon="-1.25604">
        <ele>46</ele>
        <time>2021-06-11T14:45:21Z</time>
      </trkpt>
      <trkpt lat="47.33787" lon="-1.25597">
        <ele>47</ele>
        <time>2021-06-11T14:45:22Z</time>
      </trkpt>
      <trkpt lat="47.33775" lon="-1.25594">
        <ele>49</ele>
        <time>2021-06-11T14:45:25Z</time>
      </trkpt>
      <trkpt lat="47.33769" lon="-1.25596">
        <ele>50</ele>
        <time>2021-06-11T14:45:26Z</time>
      </trkpt>
      <trkpt lat="47.33765" lon="-1.25599">
        <ele>50</ele>
        <time>2021-06-11T14:45:26Z</time>
      </trkpt>
      <trkpt lat="47.33759" lon="-1.25613">
        <ele>50</ele>
        <time>2021-06-11T14:45:28Z</time>
      </trkpt>
      <trkpt lat="47.33758" lon="-1.25633">
        <ele>50</ele>
        <time>2021-06-11T14:45:31Z</time>
      </trkpt>
      <trkpt lat="47.3376" lon="-1.25667">
        <ele>48</ele>
        <time>2021-06-11T14:45:35Z</time>
      </trkpt>
      <trkpt lat="47.33757" lon="-1.25685">
        <ele>49</ele>
        <time>2021-06-11T14:45:37Z</time>
      </trkpt>
      <trkpt lat="47.33739" lon="-1.25714">
        <ele>52</ele>
        <time>2021-06-11T14:45:42Z</time>
      </trkpt>
      <trkpt lat="47.33734" lon="-1.2573">
        <ele>52</ele>
        <time>2021-06-11T14:45:44Z</time>
      </trkpt>
      <trkpt lat="47.33733" lon="-1.25758">
        <ele>53</ele>
        <time>2021-06-11T14:45:48Z</time>
      </trkpt>
      <trkpt lat="47.33736" lon="-1.25773">
        <ele>53</ele>
        <time>2021-06-11T14:45:49Z</time>
      </trkpt>
      <trkpt lat="47.33741" lon="-1.25786">
        <ele>53</ele>
        <time>2021-06-11T14:45:51Z</time>
      </trkpt>
      <trkpt lat="47.33754" lon="-1.25799">
        <ele>51</ele>
        <time>2021-06-11T14:45:54Z</time>
      </trkpt>
      <trkpt lat="47.3378" lon="-1.25811">
        <ele>49</ele>
        <time>2021-06-11T14:45:59Z</time>
      </trkpt>
      <trkpt lat="47.33788" lon="-1.25825">
        <ele>48</ele>
        <time>2021-06-11T14:46:01Z</time>
      </trkpt>
      <trkpt lat="47.33791" lon="-1.25844">
        <ele>49</ele>
        <time>2021-06-11T14:46:03Z</time>
      </trkpt>
      <trkpt lat="47.3377" lon="-1.26138">
        <ele>62</ele>
        <time>2021-06-11T14:46:39Z</time>
      </trkpt>
      <trkpt lat="47.33766" lon="-1.26163">
        <ele>63</ele>
        <time>2021-06-11T14:46:42Z</time>
      </trkpt>
      <trkpt lat="47.3376" lon="-1.26184">
        <ele>64</ele>
        <time>2021-06-11T14:46:45Z</time>
      </trkpt>
      <trkpt lat="47.33735" lon="-1.26232">
        <ele>68</ele>
        <time>2021-06-11T14:46:52Z</time>
      </trkpt>
      <trkpt lat="47.33732" lon="-1.26234">
        <ele>68</ele>
        <time>2021-06-11T14:46:53Z</time>
      </trkpt>
      <trkpt lat="47.33732" lon="-1.2624">
        <ele>68</ele>
        <time>2021-06-11T14:46:53Z</time>
      </trkpt>
      <trkpt lat="47.33729" lon="-1.26248">
        <ele>68</ele>
        <time>2021-06-11T14:46:55Z</time>
      </trkpt>
      <trkpt lat="47.33739" lon="-1.26349">
        <ele>69</ele>
        <time>2021-06-11T14:47:07Z</time>
      </trkpt>
      <trkpt lat="47.3374" lon="-1.26352">
        <ele>69</ele>
        <time>2021-06-11T14:47:07Z</time>
      </trkpt>
      <trkpt lat="47.33749" lon="-1.26355">
        <ele>69</ele>
        <time>2021-06-11T14:47:09Z</time>
      </trkpt>
      <trkpt lat="47.3379" lon="-1.26352">
        <ele>67</ele>
        <time>2021-06-11T14:47:16Z</time>
      </trkpt>
      <trkpt lat="47.33841" lon="-1.26352">
        <ele>64</ele>
        <time>2021-06-11T14:47:25Z</time>
      </trkpt>
      <trkpt lat="47.33851" lon="-1.26354">
        <ele>61</ele>
        <time>2021-06-11T14:47:27Z</time>
      </trkpt>
      <trkpt lat="47.33859" lon="-1.26358">
        <ele>60</ele>
        <time>2021-06-11T14:47:29Z</time>
      </trkpt>
      <trkpt lat="47.33868" lon="-1.26365">
        <ele>58</ele>
        <time>2021-06-11T14:47:30Z</time>
      </trkpt>
      <trkpt lat="47.33897" lon="-1.26443">
        <ele>58</ele>
        <time>2021-06-11T14:47:41Z</time>
      </trkpt>
      <trkpt lat="47.33934" lon="-1.26549">
        <ele>49</ele>
        <time>2021-06-11T14:47:56Z</time>
      </trkpt>
      <trkpt lat="47.33938" lon="-1.26564">
        <ele>47</ele>
        <time>2021-06-11T14:47:57Z</time>
      </trkpt>
      <trkpt lat="47.3394" lon="-1.26591">
        <ele>45</ele>
        <time>2021-06-11T14:48:01Z</time>
      </trkpt>
      <trkpt lat="47.33935" lon="-1.26634">
        <ele>44</ele>
        <time>2021-06-11T14:48:06Z</time>
      </trkpt>
      <trkpt lat="47.33923" lon="-1.26688">
        <ele>44</ele>
        <time>2021-06-11T14:48:13Z</time>
      </trkpt>
      <trkpt lat="47.33914" lon="-1.26711">
        <ele>44</ele>
        <time>2021-06-11T14:48:16Z</time>
      </trkpt>
      <trkpt lat="47.33896" lon="-1.26722">
        <ele>49</ele>
        <time>2021-06-11T14:48:20Z</time>
      </trkpt>
      <trkpt lat="47.33889" lon="-1.26729">
        <ele>50</ele>
        <time>2021-06-11T14:48:21Z</time>
      </trkpt>
      <trkpt lat="47.33886" lon="-1.26736">
        <ele>50</ele>
        <time>2021-06-11T14:48:22Z</time>
      </trkpt>
      <trkpt lat="47.33884" lon="-1.26751">
        <ele>50</ele>
        <time>2021-06-11T14:48:24Z</time>
      </trkpt>
      <trkpt lat="47.33889" lon="-1.26771">
        <ele>47</ele>
        <time>2021-06-11T14:48:26Z</time>
      </trkpt>
      <trkpt lat="47.33901" lon="-1.26799">
        <ele>42</ele>
        <time>2021-06-11T14:48:30Z</time>
      </trkpt>
      <trkpt lat="47.33907" lon="-1.26828">
        <ele>38</ele>
        <time>2021-06-11T14:48:34Z</time>
      </trkpt>
      <trkpt lat="47.33903" lon="-1.26854">
        <ele>39</ele>
        <time>2021-06-11T14:48:37Z</time>
      </trkpt>
      <trkpt lat="47.33899" lon="-1.26865">
        <ele>40</ele>
        <time>2021-06-11T14:48:39Z</time>
      </trkpt>
      <trkpt lat="47.33886" lon="-1.26891">
        <ele>43</ele>
        <time>2021-06-11T14:48:43Z</time>
      </trkpt>
      <trkpt lat="47.33884" lon="-1.26899">
        <ele>44</ele>
        <time>2021-06-11T14:48:44Z</time>
      </trkpt>
      <trkpt lat="47.33885" lon="-1.26914">
        <ele>43</ele>
        <time>2021-06-11T14:48:46Z</time>
      </trkpt>
      <trkpt lat="47.33889" lon="-1.26927">
        <ele>42</ele>
        <time>2021-06-11T14:48:47Z</time>
      </trkpt>
      <trkpt lat="47.339" lon="-1.26944">
        <ele>38</ele>
        <time>2021-06-11T14:48:50Z</time>
      </trkpt>
      <trkpt lat="47.33907" lon="-1.26967">
        <ele>36</ele>
        <time>2021-06-11T14:48:53Z</time>
      </trkpt>
      <trkpt lat="47.33909" lon="-1.2698">
        <ele>35</ele>
        <time>2021-06-11T14:48:55Z</time>
      </trkpt>
      <trkpt lat="47.33915" lon="-1.27134">
        <ele>37</ele>
        <time>2021-06-11T14:49:13Z</time>
      </trkpt>
      <trkpt lat="47.33929" lon="-1.27234">
        <ele>29</ele>
        <time>2021-06-11T14:49:26Z</time>
      </trkpt>
      <trkpt lat="47.33929" lon="-1.27247">
        <ele>29</ele>
        <time>2021-06-11T14:49:27Z</time>
      </trkpt>
      <trkpt lat="47.33916" lon="-1.27368">
        <ele>21</ele>
        <time>2021-06-11T14:49:42Z</time>
      </trkpt>
      <trkpt lat="47.33896" lon="-1.27436">
        <ele>22</ele>
        <time>2021-06-11T14:49:51Z</time>
      </trkpt>
      <trkpt lat="47.33878" lon="-1.27477">
        <ele>25</ele>
        <time>2021-06-11T14:49:57Z</time>
      </trkpt>
      <trkpt lat="47.33823" lon="-1.27617">
        <ele>15</ele>
        <time>2021-06-11T14:50:16Z</time>
      </trkpt>
      <trkpt lat="47.33805" lon="-1.27657">
        <ele>15</ele>
        <time>2021-06-11T14:50:22Z</time>
      </trkpt>
      <trkpt lat="47.33789" lon="-1.27682">
        <ele>16</ele>
        <time>2021-06-11T14:50:26Z</time>
      </trkpt>
      <trkpt lat="47.33777" lon="-1.27696">
        <ele>17</ele>
        <time>2021-06-11T14:50:29Z</time>
      </trkpt>
      <trkpt lat="47.33751" lon="-1.27721">
        <ele>16</ele>
        <time>2021-06-11T14:50:35Z</time>
      </trkpt>
      <trkpt lat="47.33763" lon="-1.27738">
        <ele>13</ele>
        <time>2021-06-11T14:50:38Z</time>
      </trkpt>
      <trkpt lat="47.33787" lon="-1.2775">
        <ele>11</ele>
        <time>2021-06-11T14:50:42Z</time>
      </trkpt>
      <trkpt lat="47.33804" lon="-1.27755">
        <ele>11</ele>
        <time>2021-06-11T14:50:45Z</time>
      </trkpt>
      <trkpt lat="47.33879" lon="-1.27778">
        <ele>8</ele>
        <time>2021-06-11T14:50:59Z</time>
      </trkpt>
      <trkpt lat="47.34381" lon="-1.27936">
        <ele>8</ele>
        <time>2021-06-11T14:52:30Z</time>
      </trkpt>
      <trkpt lat="47.34418" lon="-1.27951">
        <ele>9</ele>
        <time>2021-06-11T14:52:37Z</time>
      </trkpt>
      <trkpt lat="47.34448" lon="-1.27972">
        <ele>9</ele>
        <time>2021-06-11T14:52:43Z</time>
      </trkpt>
      <trkpt lat="47.34461" lon="-1.27986">
        <ele>9</ele>
        <time>2021-06-11T14:52:46Z</time>
      </trkpt>
      <trkpt lat="47.34468" lon="-1.27994">
        <ele>9</ele>
        <time>2021-06-11T14:52:47Z</time>
      </trkpt>
      <trkpt lat="47.34492" lon="-1.28034">
        <ele>9</ele>
        <time>2021-06-11T14:52:54Z</time>
      </trkpt>
      <trkpt lat="47.34503" lon="-1.28059">
        <ele>9</ele>
        <time>2021-06-11T14:52:57Z</time>
      </trkpt>
      <trkpt lat="47.34513" lon="-1.28095">
        <ele>7</ele>
        <time>2021-06-11T14:53:02Z</time>
      </trkpt>
      <trkpt lat="47.34517" lon="-1.28113">
        <ele>7</ele>
        <time>2021-06-11T14:53:04Z</time>
      </trkpt>
      <trkpt lat="47.3452" lon="-1.28135">
        <ele>7</ele>
        <time>2021-06-11T14:53:07Z</time>
      </trkpt>
      <trkpt lat="47.34521" lon="-1.28156">
        <ele>6</ele>
        <time>2021-06-11T14:53:09Z</time>
      </trkpt>
      <trkpt lat="47.34521" lon="-1.28173">
        <ele>6</ele>
        <time>2021-06-11T14:53:12Z</time>
      </trkpt>
      <trkpt lat="47.34521" lon="-1.28192">
        <ele>6</ele>
        <time>2021-06-11T14:53:14Z</time>
      </trkpt>
      <trkpt lat="47.3452" lon="-1.28207">
        <ele>6</ele>
        <time>2021-06-11T14:53:16Z</time>
      </trkpt>
      <trkpt lat="47.34516" lon="-1.28253">
        <ele>6</ele>
        <time>2021-06-11T14:53:21Z</time>
      </trkpt>
      <trkpt lat="47.34512" lon="-1.28289">
        <ele>6</ele>
        <time>2021-06-11T14:53:26Z</time>
      </trkpt>
      <trkpt lat="47.34508" lon="-1.28337">
        <ele>6</ele>
        <time>2021-06-11T14:53:31Z</time>
      </trkpt>
      <trkpt lat="47.34509" lon="-1.28369">
        <ele>7</ele>
        <time>2021-06-11T14:53:35Z</time>
      </trkpt>
      <trkpt lat="47.34516" lon="-1.28412">
        <ele>7</ele>
        <time>2021-06-11T14:53:41Z</time>
      </trkpt>
      <trkpt lat="47.34521" lon="-1.28432">
        <ele>7</ele>
        <time>2021-06-11T14:53:43Z</time>
      </trkpt>
      <trkpt lat="47.34528" lon="-1.28456">
        <ele>8</ele>
        <time>2021-06-11T14:53:46Z</time>
      </trkpt>
      <trkpt lat="47.34545" lon="-1.2849">
        <ele>8</ele>
        <time>2021-06-11T14:53:51Z</time>
      </trkpt>
      <trkpt lat="47.34555" lon="-1.28505">
        <ele>9</ele>
        <time>2021-06-11T14:53:54Z</time>
      </trkpt>
      <trkpt lat="47.34577" lon="-1.28532">
        <ele>9</ele>
        <time>2021-06-11T14:53:59Z</time>
      </trkpt>
      <trkpt lat="47.34586" lon="-1.2854">
        <ele>10</ele>
        <time>2021-06-11T14:54:01Z</time>
      </trkpt>
      <trkpt lat="47.34608" lon="-1.2856">
        <ele>11</ele>
        <time>2021-06-11T14:54:06Z</time>
      </trkpt>
      <trkpt lat="47.34629" lon="-1.28578">
        <ele>13</ele>
        <time>2021-06-11T14:54:10Z</time>
      </trkpt>
      <trkpt lat="47.34638" lon="-1.28586">
        <ele>14</ele>
        <time>2021-06-11T14:54:12Z</time>
      </trkpt>
      <trkpt lat="47.34643" lon="-1.28591">
        <ele>14</ele>
        <time>2021-06-11T14:54:13Z</time>
      </trkpt>
      <trkpt lat="47.34644" lon="-1.28592">
        <ele>14</ele>
        <time>2021-06-11T14:54:13Z</time>
      </trkpt>
      <trkpt lat="47.3465" lon="-1.286">
        <ele>14</ele>
        <time>2021-06-11T14:54:14Z</time>
      </trkpt>
      <trkpt lat="47.34643" lon="-1.28611">
        <ele>14</ele>
        <time>2021-06-11T14:54:16Z</time>
      </trkpt>
      <trkpt lat="47.34632" lon="-1.28628">
        <ele>13</ele>
        <time>2021-06-11T14:54:19Z</time>
      </trkpt>
      <trkpt lat="47.34621" lon="-1.28647">
        <ele>12</ele>
        <time>2021-06-11T14:54:22Z</time>
      </trkpt>
      <trkpt lat="47.34618" lon="-1.28653">
        <ele>12</ele>
        <time>2021-06-11T14:54:23Z</time>
      </trkpt>
      <trkpt lat="47.34609" lon="-1.28673">
        <ele>11</ele>
        <time>2021-06-11T14:54:26Z</time>
      </trkpt>
      <trkpt lat="47.34603" lon="-1.28685">
        <ele>11</ele>
        <time>2021-06-11T14:54:28Z</time>
      </trkpt>
      <trkpt lat="47.34598" lon="-1.28695">
        <ele>10</ele>
        <time>2021-06-11T14:54:29Z</time>
      </trkpt>
      <trkpt lat="47.34594" lon="-1.28706">
        <ele>10</ele>
        <time>2021-06-11T14:54:31Z</time>
      </trkpt>
      <trkpt lat="47.34566" lon="-1.28799">
        <ele>9</ele>
        <time>2021-06-11T14:54:43Z</time>
      </trkpt>
      <trkpt lat="47.34564" lon="-1.28807">
        <ele>9</ele>
        <time>2021-06-11T14:54:44Z</time>
      </trkpt>
      <trkpt lat="47.34562" lon="-1.28813">
        <ele>9</ele>
        <time>2021-06-11T14:54:45Z</time>
      </trkpt>
      <trkpt lat="47.34554" lon="-1.2885">
        <ele>10</ele>
        <time>2021-06-11T14:54:50Z</time>
      </trkpt>
      <trkpt lat="47.34547" lon="-1.28876">
        <ele>12</ele>
        <time>2021-06-11T14:54:53Z</time>
      </trkpt>
      <trkpt lat="47.34545" lon="-1.28883">
        <ele>13</ele>
        <time>2021-06-11T14:54:54Z</time>
      </trkpt>
      <trkpt lat="47.34543" lon="-1.28888">
        <ele>13</ele>
        <time>2021-06-11T14:54:55Z</time>
      </trkpt>
      <trkpt lat="47.34539" lon="-1.28899">
        <ele>14</ele>
        <time>2021-06-11T14:54:56Z</time>
      </trkpt>
      <trkpt lat="47.34535" lon="-1.28906">
        <ele>14</ele>
        <time>2021-06-11T14:54:57Z</time>
      </trkpt>
      <trkpt lat="47.34514" lon="-1.28945">
        <ele>16</ele>
        <time>2021-06-11T14:55:03Z</time>
      </trkpt>
      <trkpt lat="47.34511" lon="-1.28952">
        <ele>16</ele>
        <time>2021-06-11T14:55:04Z</time>
      </trkpt>
      <trkpt lat="47.34498" lon="-1.28977">
        <ele>16</ele>
        <time>2021-06-11T14:55:08Z</time>
      </trkpt>
      <trkpt lat="47.34493" lon="-1.28988">
        <ele>16</ele>
        <time>2021-06-11T14:55:10Z</time>
      </trkpt>
      <trkpt lat="47.34483" lon="-1.29014">
        <ele>15</ele>
        <time>2021-06-11T14:55:13Z</time>
      </trkpt>
      <trkpt lat="47.34477" lon="-1.29034">
        <ele>15</ele>
        <time>2021-06-11T14:55:16Z</time>
      </trkpt>
      <trkpt lat="47.34472" lon="-1.29048">
        <ele>15</ele>
        <time>2021-06-11T14:55:18Z</time>
      </trkpt>
      <trkpt lat="47.34465" lon="-1.29073">
        <ele>15</ele>
        <time>2021-06-11T14:55:21Z</time>
      </trkpt>
      <trkpt lat="47.34457" lon="-1.29107">
        <ele>13</ele>
        <time>2021-06-11T14:55:25Z</time>
      </trkpt>
      <trkpt lat="47.34456" lon="-1.29114">
        <ele>13</ele>
        <time>2021-06-11T14:55:26Z</time>
      </trkpt>
      <trkpt lat="47.34457" lon="-1.29122">
        <ele>13</ele>
        <time>2021-06-11T14:55:27Z</time>
      </trkpt>
      <trkpt lat="47.34459" lon="-1.29131">
        <ele>13</ele>
        <time>2021-06-11T14:55:28Z</time>
      </trkpt>
      <trkpt lat="47.34438" lon="-1.29127">
        <ele>11</ele>
        <time>2021-06-11T14:55:32Z</time>
      </trkpt>
      <trkpt lat="47.34438" lon="-1.29192">
        <ele>10</ele>
        <time>2021-06-11T14:55:40Z</time>
      </trkpt>
      <trkpt lat="47.34439" lon="-1.29253">
        <ele>9</ele>
        <time>2021-06-11T14:55:47Z</time>
      </trkpt>
      <trkpt lat="47.34441" lon="-1.29371">
        <ele>10</ele>
        <time>2021-06-11T14:56:01Z</time>
      </trkpt>
      <trkpt lat="47.3444" lon="-1.29426">
        <ele>9</ele>
        <time>2021-06-11T14:56:08Z</time>
      </trkpt>
      <trkpt lat="47.34438" lon="-1.29449">
        <ele>9</ele>
        <time>2021-06-11T14:56:11Z</time>
      </trkpt>
      <trkpt lat="47.34425" lon="-1.29545">
        <ele>10</ele>
        <time>2021-06-11T14:56:23Z</time>
      </trkpt>
      <trkpt lat="47.34415" lon="-1.29609">
        <ele>10</ele>
        <time>2021-06-11T14:56:31Z</time>
      </trkpt>
      <trkpt lat="47.3441" lon="-1.29634">
        <ele>10</ele>
        <time>2021-06-11T14:56:34Z</time>
      </trkpt>
      <trkpt lat="47.34403" lon="-1.29657">
        <ele>10</ele>
        <time>2021-06-11T14:56:37Z</time>
      </trkpt>
      <trkpt lat="47.34389" lon="-1.29683">
        <ele>10</ele>
        <time>2021-06-11T14:56:41Z</time>
      </trkpt>
      <trkpt lat="47.34368" lon="-1.29725">
        <ele>10</ele>
        <time>2021-06-11T14:56:47Z</time>
      </trkpt>
      <trkpt lat="47.3432" lon="-1.29827">
        <ele>10</ele>
        <time>2021-06-11T14:57:02Z</time>
      </trkpt>
      <trkpt lat="47.34279" lon="-1.29955">
        <ele>10</ele>
        <time>2021-06-11T14:57:19Z</time>
      </trkpt>
      <trkpt lat="47.34276" lon="-1.29967">
        <ele>10</ele>
        <time>2021-06-11T14:57:21Z</time>
      </trkpt>
      <trkpt lat="47.34273" lon="-1.29988">
        <ele>10</ele>
        <time>2021-06-11T14:57:23Z</time>
      </trkpt>
      <trkpt lat="47.34273" lon="-1.30002">
        <ele>10</ele>
        <time>2021-06-11T14:57:25Z</time>
      </trkpt>
      <trkpt lat="47.34274" lon="-1.3001">
        <ele>11</ele>
        <time>2021-06-11T14:57:26Z</time>
      </trkpt>
      <trkpt lat="47.34275" lon="-1.30023">
        <ele>11</ele>
        <time>2021-06-11T14:57:28Z</time>
      </trkpt>
      <trkpt lat="47.34291" lon="-1.30076">
        <ele>12</ele>
        <time>2021-06-11T14:57:34Z</time>
      </trkpt>
      <trkpt lat="47.34303" lon="-1.30109">
        <ele>14</ele>
        <time>2021-06-11T14:57:39Z</time>
      </trkpt>
      <trkpt lat="47.34305" lon="-1.3013">
        <ele>16</ele>
        <time>2021-06-11T14:57:42Z</time>
      </trkpt>
      <trkpt lat="47.34305" lon="-1.3015">
        <ele>18</ele>
        <time>2021-06-11T14:57:44Z</time>
      </trkpt>
      <trkpt lat="47.34302" lon="-1.30164">
        <ele>19</ele>
        <time>2021-06-11T14:57:46Z</time>
      </trkpt>
      <trkpt lat="47.34294" lon="-1.30181">
        <ele>19</ele>
        <time>2021-06-11T14:57:48Z</time>
      </trkpt>
      <trkpt lat="47.34284" lon="-1.30195">
        <ele>20</ele>
        <time>2021-06-11T14:57:51Z</time>
      </trkpt>
      <trkpt lat="47.34246" lon="-1.30232">
        <ele>19</ele>
        <time>2021-06-11T14:57:59Z</time>
      </trkpt>
      <trkpt lat="47.34235" lon="-1.3025">
        <ele>19</ele>
        <time>2021-06-11T14:58:02Z</time>
      </trkpt>
      <trkpt lat="47.34229" lon="-1.30268">
        <ele>20</ele>
        <time>2021-06-11T14:58:04Z</time>
      </trkpt>
      <trkpt lat="47.34214" lon="-1.30324">
        <ele>22</ele>
        <time>2021-06-11T14:58:11Z</time>
      </trkpt>
      <trkpt lat="47.34213" lon="-1.30342">
        <ele>23</ele>
        <time>2021-06-11T14:58:14Z</time>
      </trkpt>
      <trkpt lat="47.34212" lon="-1.30375">
        <ele>25</ele>
        <time>2021-06-11T14:58:18Z</time>
      </trkpt>
      <trkpt lat="47.34213" lon="-1.30397">
        <ele>27</ele>
        <time>2021-06-11T14:58:20Z</time>
      </trkpt>
      <trkpt lat="47.34217" lon="-1.30428">
        <ele>29</ele>
        <time>2021-06-11T14:58:24Z</time>
      </trkpt>
      <trkpt lat="47.34232" lon="-1.30562">
        <ele>32</ele>
        <time>2021-06-11T14:58:40Z</time>
      </trkpt>
      <trkpt lat="47.34241" lon="-1.30584">
        <ele>33</ele>
        <time>2021-06-11T14:58:43Z</time>
      </trkpt>
      <trkpt lat="47.34248" lon="-1.30592">
        <ele>34</ele>
        <time>2021-06-11T14:58:45Z</time>
      </trkpt>
      <trkpt lat="47.34282" lon="-1.3062">
        <ele>39</ele>
        <time>2021-06-11T14:58:52Z</time>
      </trkpt>
      <trkpt lat="47.34292" lon="-1.30629">
        <ele>41</ele>
        <time>2021-06-11T14:58:54Z</time>
      </trkpt>
      <trkpt lat="47.343" lon="-1.30641">
        <ele>42</ele>
        <time>2021-06-11T14:58:56Z</time>
      </trkpt>
      <trkpt lat="47.34317" lon="-1.30669">
        <ele>45</ele>
        <time>2021-06-11T14:59:01Z</time>
      </trkpt>
      <trkpt lat="47.34324" lon="-1.30678">
        <ele>47</ele>
        <time>2021-06-11T14:59:02Z</time>
      </trkpt>
      <trkpt lat="47.34333" lon="-1.30685">
        <ele>48</ele>
        <time>2021-06-11T14:59:04Z</time>
      </trkpt>
      <trkpt lat="47.34342" lon="-1.30687">
        <ele>48</ele>
        <time>2021-06-11T14:59:06Z</time>
      </trkpt>
      <trkpt lat="47.34372" lon="-1.30678">
        <ele>48</ele>
        <time>2021-06-11T14:59:11Z</time>
      </trkpt>
      <trkpt lat="47.34377" lon="-1.30677">
        <ele>48</ele>
        <time>2021-06-11T14:59:12Z</time>
      </trkpt>
      <trkpt lat="47.34381" lon="-1.30676">
        <ele>48</ele>
        <time>2021-06-11T14:59:13Z</time>
      </trkpt>
      <trkpt lat="47.34388" lon="-1.30677">
        <ele>48</ele>
        <time>2021-06-11T14:59:14Z</time>
      </trkpt>
      <trkpt lat="47.34408" lon="-1.30687">
        <ele>49</ele>
        <time>2021-06-11T14:59:18Z</time>
      </trkpt>
      <trkpt lat="47.34429" lon="-1.30703">
        <ele>49</ele>
        <time>2021-06-11T14:59:22Z</time>
      </trkpt>
      <trkpt lat="47.34432" lon="-1.30708">
        <ele>49</ele>
        <time>2021-06-11T14:59:23Z</time>
      </trkpt>
      <trkpt lat="47.34435" lon="-1.30714">
        <ele>49</ele>
        <time>2021-06-11T14:59:24Z</time>
      </trkpt>
      <trkpt lat="47.34439" lon="-1.30734">
        <ele>50</ele>
        <time>2021-06-11T14:59:26Z</time>
      </trkpt>
      <trkpt lat="47.34432" lon="-1.30782">
        <ele>52</ele>
        <time>2021-06-11T14:59:32Z</time>
      </trkpt>
      <trkpt lat="47.3442" lon="-1.30825">
        <ele>55</ele>
        <time>2021-06-11T14:59:38Z</time>
      </trkpt>
      <trkpt lat="47.34379" lon="-1.30933">
        <ele>59</ele>
        <time>2021-06-11T14:59:53Z</time>
      </trkpt>
      <trkpt lat="47.34377" lon="-1.30945">
        <ele>60</ele>
        <time>2021-06-11T14:59:54Z</time>
      </trkpt>
      <trkpt lat="47.34376" lon="-1.30957">
        <ele>60</ele>
        <time>2021-06-11T14:59:56Z</time>
      </trkpt>
      <trkpt lat="47.34378" lon="-1.30978">
        <ele>61</ele>
        <time>2021-06-11T14:59:58Z</time>
      </trkpt>
      <trkpt lat="47.34411" lon="-1.31098">
        <ele>66</ele>
        <time>2021-06-11T15:00:14Z</time>
      </trkpt>
      <trkpt lat="47.34416" lon="-1.31124">
        <ele>67</ele>
        <time>2021-06-11T15:00:17Z</time>
      </trkpt>
      <trkpt lat="47.34422" lon="-1.31181">
        <ele>69</ele>
        <time>2021-06-11T15:00:24Z</time>
      </trkpt>
      <trkpt lat="47.34422" lon="-1.3123">
        <ele>70</ele>
        <time>2021-06-11T15:00:30Z</time>
      </trkpt>
      <trkpt lat="47.3442" lon="-1.3129">
        <ele>72</ele>
        <time>2021-06-11T15:00:37Z</time>
      </trkpt>
      <trkpt lat="47.34413" lon="-1.31371">
        <ele>73</ele>
        <time>2021-06-11T15:00:47Z</time>
      </trkpt>
      <trkpt lat="47.34409" lon="-1.31391">
        <ele>73</ele>
        <time>2021-06-11T15:00:50Z</time>
      </trkpt>
      <trkpt lat="47.3439" lon="-1.31444">
        <ele>74</ele>
        <time>2021-06-11T15:00:57Z</time>
      </trkpt>
      <trkpt lat="47.34373" lon="-1.31481">
        <ele>74</ele>
        <time>2021-06-11T15:01:02Z</time>
      </trkpt>
      <trkpt lat="47.34368" lon="-1.31497">
        <ele>75</ele>
        <time>2021-06-11T15:01:04Z</time>
      </trkpt>
      <trkpt lat="47.34367" lon="-1.31512">
        <ele>75</ele>
        <time>2021-06-11T15:01:06Z</time>
      </trkpt>
      <trkpt lat="47.34368" lon="-1.31529">
        <ele>74</ele>
        <time>2021-06-11T15:01:08Z</time>
      </trkpt>
      <trkpt lat="47.3438" lon="-1.31576">
        <ele>74</ele>
        <time>2021-06-11T15:01:14Z</time>
      </trkpt>
      <trkpt lat="47.34383" lon="-1.31596">
        <ele>74</ele>
        <time>2021-06-11T15:01:17Z</time>
      </trkpt>
      <trkpt lat="47.34384" lon="-1.31664">
        <ele>75</ele>
        <time>2021-06-11T15:01:25Z</time>
      </trkpt>
      <trkpt lat="47.3438" lon="-1.31684">
        <ele>75</ele>
        <time>2021-06-11T15:01:27Z</time>
      </trkpt>
      <trkpt lat="47.34374" lon="-1.31703">
        <ele>75</ele>
        <time>2021-06-11T15:01:30Z</time>
      </trkpt>
      <trkpt lat="47.34352" lon="-1.31745">
        <ele>76</ele>
        <time>2021-06-11T15:01:36Z</time>
      </trkpt>
      <trkpt lat="47.34407" lon="-1.3182">
        <ele>74</ele>
        <time>2021-06-11T15:01:50Z</time>
      </trkpt>
      <trkpt lat="47.34474" lon="-1.31918">
        <ele>72</ele>
        <time>2021-06-11T15:02:06Z</time>
      </trkpt>
      <trkpt lat="47.34498" lon="-1.31961">
        <ele>71</ele>
        <time>2021-06-11T15:02:13Z</time>
      </trkpt>
      <trkpt lat="47.34537" lon="-1.32017">
        <ele>69</ele>
        <time>2021-06-11T15:02:23Z</time>
      </trkpt>
      <trkpt lat="47.34563" lon="-1.32049">
        <ele>68</ele>
        <time>2021-06-11T15:02:29Z</time>
      </trkpt>
      <trkpt lat="47.34588" lon="-1.32077">
        <ele>68</ele>
        <time>2021-06-11T15:02:34Z</time>
      </trkpt>
      <trkpt lat="47.34626" lon="-1.32107">
        <ele>67</ele>
        <time>2021-06-11T15:02:42Z</time>
      </trkpt>
      <trkpt lat="47.34637" lon="-1.32119">
        <ele>67</ele>
        <time>2021-06-11T15:02:45Z</time>
      </trkpt>
      <trkpt lat="47.34655" lon="-1.32144">
        <ele>67</ele>
        <time>2021-06-11T15:02:49Z</time>
      </trkpt>
      <trkpt lat="47.34708" lon="-1.32266">
        <ele>68</ele>
        <time>2021-06-11T15:03:06Z</time>
      </trkpt>
      <trkpt lat="47.34728" lon="-1.32314">
        <ele>69</ele>
        <time>2021-06-11T15:03:13Z</time>
      </trkpt>
      <trkpt lat="47.34761" lon="-1.32401">
        <ele>70</ele>
        <time>2021-06-11T15:03:25Z</time>
      </trkpt>
      <trkpt lat="47.3481" lon="-1.32508">
        <ele>72</ele>
        <time>2021-06-11T15:03:41Z</time>
      </trkpt>
      <trkpt lat="47.34826" lon="-1.32538">
        <ele>71</ele>
        <time>2021-06-11T15:03:45Z</time>
      </trkpt>
      <trkpt lat="47.34842" lon="-1.32565">
        <ele>71</ele>
        <time>2021-06-11T15:03:50Z</time>
      </trkpt>
      <trkpt lat="47.3484" lon="-1.32569">
        <ele>71</ele>
        <time>2021-06-11T15:03:50Z</time>
      </trkpt>
      <trkpt lat="47.34839" lon="-1.32591">
        <ele>71</ele>
        <time>2021-06-11T15:03:53Z</time>
      </trkpt>
      <trkpt lat="47.3484" lon="-1.32611">
        <ele>71</ele>
        <time>2021-06-11T15:03:55Z</time>
      </trkpt>
      <trkpt lat="47.34838" lon="-1.32635">
        <ele>70</ele>
        <time>2021-06-11T15:03:58Z</time>
      </trkpt>
      <trkpt lat="47.34834" lon="-1.32651">
        <ele>70</ele>
        <time>2021-06-11T15:04:00Z</time>
      </trkpt>
      <trkpt lat="47.34818" lon="-1.327">
        <ele>70</ele>
        <time>2021-06-11T15:04:07Z</time>
      </trkpt>
      <trkpt lat="47.34805" lon="-1.32734">
        <ele>71</ele>
        <time>2021-06-11T15:04:12Z</time>
      </trkpt>
      <trkpt lat="47.34798" lon="-1.32746">
        <ele>71</ele>
        <time>2021-06-11T15:04:14Z</time>
      </trkpt>
      <trkpt lat="47.34788" lon="-1.3275">
        <ele>70</ele>
        <time>2021-06-11T15:04:15Z</time>
      </trkpt>
      <trkpt lat="47.34767" lon="-1.32747">
        <ele>70</ele>
        <time>2021-06-11T15:04:19Z</time>
      </trkpt>
      <trkpt lat="47.34745" lon="-1.32739">
        <ele>70</ele>
        <time>2021-06-11T15:04:23Z</time>
      </trkpt>
      <trkpt lat="47.34729" lon="-1.32724">
        <ele>70</ele>
        <time>2021-06-11T15:04:27Z</time>
      </trkpt>
      <trkpt lat="47.3471" lon="-1.32711">
        <ele>70</ele>
        <time>2021-06-11T15:04:30Z</time>
      </trkpt>
      <trkpt lat="47.34694" lon="-1.32709">
        <ele>69</ele>
        <time>2021-06-11T15:04:33Z</time>
      </trkpt>
      <trkpt lat="47.34664" lon="-1.3272">
        <ele>69</ele>
        <time>2021-06-11T15:04:39Z</time>
      </trkpt>
      <trkpt lat="47.34645" lon="-1.32732">
        <ele>68</ele>
        <time>2021-06-11T15:04:42Z</time>
      </trkpt>
      <trkpt lat="47.34637" lon="-1.32741">
        <ele>67</ele>
        <time>2021-06-11T15:04:44Z</time>
      </trkpt>
      <trkpt lat="47.34633" lon="-1.32747">
        <ele>67</ele>
        <time>2021-06-11T15:04:45Z</time>
      </trkpt>
      <trkpt lat="47.34615" lon="-1.32791">
        <ele>65</ele>
        <time>2021-06-11T15:04:51Z</time>
      </trkpt>
      <trkpt lat="47.34606" lon="-1.3283">
        <ele>64</ele>
        <time>2021-06-11T15:04:56Z</time>
      </trkpt>
      <trkpt lat="47.34597" lon="-1.32929">
        <ele>63</ele>
        <time>2021-06-11T15:05:08Z</time>
      </trkpt>
      <trkpt lat="47.34598" lon="-1.32943">
        <ele>64</ele>
        <time>2021-06-11T15:05:10Z</time>
      </trkpt>
      <trkpt lat="47.34599" lon="-1.32952">
        <ele>64</ele>
        <time>2021-06-11T15:05:11Z</time>
      </trkpt>
      <trkpt lat="47.34621" lon="-1.32983">
        <ele>65</ele>
        <time>2021-06-11T15:05:16Z</time>
      </trkpt>
      <trkpt lat="47.34631" lon="-1.33002">
        <ele>65</ele>
        <time>2021-06-11T15:05:19Z</time>
      </trkpt>
      <trkpt lat="47.34636" lon="-1.33015">
        <ele>65</ele>
        <time>2021-06-11T15:05:21Z</time>
      </trkpt>
      <trkpt lat="47.34643" lon="-1.33034">
        <ele>66</ele>
        <time>2021-06-11T15:05:24Z</time>
      </trkpt>
      <trkpt lat="47.34652" lon="-1.3307">
        <ele>67</ele>
        <time>2021-06-11T15:05:28Z</time>
      </trkpt>
      <trkpt lat="47.34656" lon="-1.33106">
        <ele>68</ele>
        <time>2021-06-11T15:05:33Z</time>
      </trkpt>
      <trkpt lat="47.34656" lon="-1.33188">
        <ele>71</ele>
        <time>2021-06-11T15:05:43Z</time>
      </trkpt>
      <trkpt lat="47.34661" lon="-1.33215">
        <ele>72</ele>
        <time>2021-06-11T15:05:46Z</time>
      </trkpt>
      <trkpt lat="47.34663" lon="-1.33221">
        <ele>72</ele>
        <time>2021-06-11T15:05:47Z</time>
      </trkpt>
      <trkpt lat="47.34655" lon="-1.33235">
        <ele>72</ele>
        <time>2021-06-11T15:05:49Z</time>
      </trkpt>
      <trkpt lat="47.34592" lon="-1.3335">
        <ele>72</ele>
        <time>2021-06-11T15:06:07Z</time>
      </trkpt>
      <trkpt lat="47.34576" lon="-1.33368">
        <ele>72</ele>
        <time>2021-06-11T15:06:11Z</time>
      </trkpt>
      <trkpt lat="47.34555" lon="-1.33373">
        <ele>71</ele>
        <time>2021-06-11T15:06:14Z</time>
      </trkpt>
      <trkpt lat="47.3455" lon="-1.33376">
        <ele>71</ele>
        <time>2021-06-11T15:06:15Z</time>
      </trkpt>
      <trkpt lat="47.34547" lon="-1.33381">
        <ele>71</ele>
        <time>2021-06-11T15:06:16Z</time>
      </trkpt>
      <trkpt lat="47.34547" lon="-1.33387">
        <ele>71</ele>
        <time>2021-06-11T15:06:17Z</time>
      </trkpt>
      <trkpt lat="47.34553" lon="-1.33399">
        <ele>71</ele>
        <time>2021-06-11T15:06:19Z</time>
      </trkpt>
      <trkpt lat="47.34634" lon="-1.33491">
        <ele>74</ele>
        <time>2021-06-11T15:06:37Z</time>
      </trkpt>
      <trkpt lat="47.3464" lon="-1.33508">
        <ele>74</ele>
        <time>2021-06-11T15:06:39Z</time>
      </trkpt>
      <trkpt lat="47.34641" lon="-1.33692">
        <ele>71</ele>
        <time>2021-06-11T15:07:01Z</time>
      </trkpt>
      <trkpt lat="47.34639" lon="-1.3373">
        <ele>70</ele>
        <time>2021-06-11T15:07:06Z</time>
      </trkpt>
      <trkpt lat="47.34641" lon="-1.33765">
        <ele>69</ele>
        <time>2021-06-11T15:07:10Z</time>
      </trkpt>
      <trkpt lat="47.3465" lon="-1.3381">
        <ele>68</ele>
        <time>2021-06-11T15:07:16Z</time>
      </trkpt>
      <trkpt lat="47.34649" lon="-1.33825">
        <ele>68</ele>
        <time>2021-06-11T15:07:18Z</time>
      </trkpt>
      <trkpt lat="47.34647" lon="-1.33837">
        <ele>67</ele>
        <time>2021-06-11T15:07:19Z</time>
      </trkpt>
      <trkpt lat="47.34643" lon="-1.33846">
        <ele>67</ele>
        <time>2021-06-11T15:07:20Z</time>
      </trkpt>
      <trkpt lat="47.34635" lon="-1.33857">
        <ele>67</ele>
        <time>2021-06-11T15:07:22Z</time>
      </trkpt>
      <trkpt lat="47.34603" lon="-1.33889">
        <ele>65</ele>
        <time>2021-06-11T15:07:29Z</time>
      </trkpt>
      <trkpt lat="47.34533" lon="-1.3394">
        <ele>65</ele>
        <time>2021-06-11T15:07:43Z</time>
      </trkpt>
      <trkpt lat="47.34495" lon="-1.33982">
        <ele>66</ele>
        <time>2021-06-11T15:07:52Z</time>
      </trkpt>
      <trkpt lat="47.34453" lon="-1.34042">
        <ele>69</ele>
        <time>2021-06-11T15:08:02Z</time>
      </trkpt>
      <trkpt lat="47.34442" lon="-1.34052">
        <ele>70</ele>
        <time>2021-06-11T15:08:04Z</time>
      </trkpt>
      <trkpt lat="47.34371" lon="-1.34096">
        <ele>71</ele>
        <time>2021-06-11T15:08:18Z</time>
      </trkpt>
      <trkpt lat="47.34356" lon="-1.3411">
        <ele>71</ele>
        <time>2021-06-11T15:08:21Z</time>
      </trkpt>
      <trkpt lat="47.34344" lon="-1.34129">
        <ele>71</ele>
        <time>2021-06-11T15:08:24Z</time>
      </trkpt>
      <trkpt lat="47.34335" lon="-1.34148">
        <ele>72</ele>
        <time>2021-06-11T15:08:27Z</time>
      </trkpt>
      <trkpt lat="47.3433" lon="-1.34169">
        <ele>72</ele>
        <time>2021-06-11T15:08:30Z</time>
      </trkpt>
      <trkpt lat="47.34316" lon="-1.34241">
        <ele>75</ele>
        <time>2021-06-11T15:08:39Z</time>
      </trkpt>
      <trkpt lat="47.34297" lon="-1.34304">
        <ele>77</ele>
        <time>2021-06-11T15:08:47Z</time>
      </trkpt>
      <trkpt lat="47.34293" lon="-1.34317">
        <ele>78</ele>
        <time>2021-06-11T15:08:49Z</time>
      </trkpt>
      <trkpt lat="47.34292" lon="-1.34329">
        <ele>78</ele>
        <time>2021-06-11T15:08:50Z</time>
      </trkpt>
      <trkpt lat="47.34284" lon="-1.34343">
        <ele>78</ele>
        <time>2021-06-11T15:08:52Z</time>
      </trkpt>
      <trkpt lat="47.34185" lon="-1.34474">
        <ele>81</ele>
        <time>2021-06-11T15:09:16Z</time>
      </trkpt>
      <trkpt lat="47.34175" lon="-1.34485">
        <ele>81</ele>
        <time>2021-06-11T15:09:18Z</time>
      </trkpt>
      <trkpt lat="47.34153" lon="-1.34498">
        <ele>81</ele>
        <time>2021-06-11T15:09:23Z</time>
      </trkpt>
      <trkpt lat="47.34127" lon="-1.3452">
        <ele>80</ele>
        <time>2021-06-11T15:09:28Z</time>
      </trkpt>
      <trkpt lat="47.34089" lon="-1.34567">
        <ele>78</ele>
        <time>2021-06-11T15:09:37Z</time>
      </trkpt>
      <trkpt lat="47.34078" lon="-1.3459">
        <ele>78</ele>
        <time>2021-06-11T15:09:40Z</time>
      </trkpt>
      <trkpt lat="47.34067" lon="-1.3458">
        <ele>78</ele>
        <time>2021-06-11T15:09:42Z</time>
      </trkpt>
      <trkpt lat="47.34044" lon="-1.3455">
        <ele>79</ele>
        <time>2021-06-11T15:09:48Z</time>
      </trkpt>
      <trkpt lat="47.34019" lon="-1.34513">
        <ele>80</ele>
        <time>2021-06-11T15:09:54Z</time>
      </trkpt>
      <trkpt lat="47.33901" lon="-1.34327">
        <ele>77</ele>
        <time>2021-06-11T15:10:25Z</time>
      </trkpt>
      <trkpt lat="47.33854" lon="-1.34246">
        <ele>76</ele>
        <time>2021-06-11T15:10:38Z</time>
      </trkpt>
      <trkpt lat="47.33807" lon="-1.34159">
        <ele>77</ele>
        <time>2021-06-11T15:10:51Z</time>
      </trkpt>
      <trkpt lat="47.33782" lon="-1.34208">
        <ele>78</ele>
        <time>2021-06-11T15:10:59Z</time>
      </trkpt>
      <trkpt lat="47.33639" lon="-1.3448">
        <ele>79</ele>
        <time>2021-06-11T15:11:40Z</time>
      </trkpt>
      <trkpt lat="47.33607" lon="-1.34456">
        <ele>79</ele>
        <time>2021-06-11T15:11:46Z</time>
      </trkpt>
      <trkpt lat="47.33357" lon="-1.34333">
        <ele>76</ele>
        <time>2021-06-11T15:12:33Z</time>
      </trkpt>
      <trkpt lat="47.33305" lon="-1.3431">
        <ele>75</ele>
        <time>2021-06-11T15:12:43Z</time>
      </trkpt>
      <trkpt lat="47.33284" lon="-1.34305">
        <ele>75</ele>
        <time>2021-06-11T15:12:47Z</time>
      </trkpt>
      <trkpt lat="47.33172" lon="-1.34289">
        <ele>73</ele>
        <time>2021-06-11T15:13:07Z</time>
      </trkpt>
      <trkpt lat="47.33152" lon="-1.34281">
        <ele>72</ele>
        <time>2021-06-11T15:13:10Z</time>
      </trkpt>
      <trkpt lat="47.33119" lon="-1.34263">
        <ele>71</ele>
        <time>2021-06-11T15:13:17Z</time>
      </trkpt>
      <trkpt lat="47.33084" lon="-1.34242">
        <ele>67</ele>
        <time>2021-06-11T15:13:23Z</time>
      </trkpt>
      <trkpt lat="47.32997" lon="-1.34181">
        <ele>63</ele>
        <time>2021-06-11T15:13:41Z</time>
      </trkpt>
      <trkpt lat="47.32978" lon="-1.34165">
        <ele>63</ele>
        <time>2021-06-11T15:13:44Z</time>
      </trkpt>
      <trkpt lat="47.32962" lon="-1.34146">
        <ele>62</ele>
        <time>2021-06-11T15:13:48Z</time>
      </trkpt>
      <trkpt lat="47.32952" lon="-1.34127">
        <ele>61</ele>
        <time>2021-06-11T15:13:51Z</time>
      </trkpt>
      <trkpt lat="47.32944" lon="-1.34103">
        <ele>61</ele>
        <time>2021-06-11T15:13:54Z</time>
      </trkpt>
      <trkpt lat="47.32939" lon="-1.34076">
        <ele>60</ele>
        <time>2021-06-11T15:13:58Z</time>
      </trkpt>
      <trkpt lat="47.32934" lon="-1.34076">
        <ele>61</ele>
        <time>2021-06-11T15:13:59Z</time>
      </trkpt>
      <trkpt lat="47.32915" lon="-1.34082">
        <ele>65</ele>
        <time>2021-06-11T15:14:02Z</time>
      </trkpt>
      <trkpt lat="47.32906" lon="-1.34088">
        <ele>65</ele>
        <time>2021-06-11T15:14:04Z</time>
      </trkpt>
      <trkpt lat="47.32738" lon="-1.34156">
        <ele>73</ele>
        <time>2021-06-11T15:14:35Z</time>
      </trkpt>
      <trkpt lat="47.32626" lon="-1.34203">
        <ele>72</ele>
        <time>2021-06-11T15:14:55Z</time>
      </trkpt>
      <trkpt lat="47.32623" lon="-1.34204">
        <ele>72</ele>
        <time>2021-06-11T15:14:56Z</time>
      </trkpt>
      <trkpt lat="47.32361" lon="-1.34313">
        <ele>70</ele>
        <time>2021-06-11T15:15:44Z</time>
      </trkpt>
      <trkpt lat="47.32354" lon="-1.34316">
        <ele>70</ele>
        <time>2021-06-11T15:15:46Z</time>
      </trkpt>
      <trkpt lat="47.3232" lon="-1.34332">
        <ele>71</ele>
        <time>2021-06-11T15:15:52Z</time>
      </trkpt>
      <trkpt lat="47.32295" lon="-1.34343">
        <ele>72</ele>
        <time>2021-06-11T15:15:57Z</time>
      </trkpt>
      <trkpt lat="47.32241" lon="-1.34366">
        <ele>72</ele>
        <time>2021-06-11T15:16:07Z</time>
      </trkpt>
      <trkpt lat="47.32164" lon="-1.34394">
        <ele>72</ele>
        <time>2021-06-11T15:16:21Z</time>
      </trkpt>
      <trkpt lat="47.32154" lon="-1.34402">
        <ele>72</ele>
        <time>2021-06-11T15:16:23Z</time>
      </trkpt>
      <trkpt lat="47.32122" lon="-1.34428">
        <ele>70</ele>
        <time>2021-06-11T15:16:29Z</time>
      </trkpt>
      <trkpt lat="47.32085" lon="-1.34464">
        <ele>69</ele>
        <time>2021-06-11T15:16:37Z</time>
      </trkpt>
      <trkpt lat="47.32034" lon="-1.34509">
        <ele>64</ele>
        <time>2021-06-11T15:16:48Z</time>
      </trkpt>
      <trkpt lat="47.32009" lon="-1.34532">
        <ele>62</ele>
        <time>2021-06-11T15:16:53Z</time>
      </trkpt>
      <trkpt lat="47.31998" lon="-1.34541">
        <ele>61</ele>
        <time>2021-06-11T15:16:55Z</time>
      </trkpt>
      <trkpt lat="47.31986" lon="-1.34551">
        <ele>60</ele>
        <time>2021-06-11T15:16:58Z</time>
      </trkpt>
      <trkpt lat="47.31962" lon="-1.34575">
        <ele>59</ele>
        <time>2021-06-11T15:17:03Z</time>
      </trkpt>
      <trkpt lat="47.31935" lon="-1.34594">
        <ele>57</ele>
        <time>2021-06-11T15:17:08Z</time>
      </trkpt>
      <trkpt lat="47.31908" lon="-1.34613">
        <ele>55</ele>
        <time>2021-06-11T15:17:14Z</time>
      </trkpt>
      <trkpt lat="47.31881" lon="-1.34632">
        <ele>53</ele>
        <time>2021-06-11T15:17:19Z</time>
      </trkpt>
      <trkpt lat="47.31874" lon="-1.34638">
        <ele>52</ele>
        <time>2021-06-11T15:17:20Z</time>
      </trkpt>
      <trkpt lat="47.31859" lon="-1.3465">
        <ele>51</ele>
        <time>2021-06-11T15:17:23Z</time>
      </trkpt>
      <trkpt lat="47.31852" lon="-1.34657">
        <ele>51</ele>
        <time>2021-06-11T15:17:25Z</time>
      </trkpt>
      <trkpt lat="47.31849" lon="-1.3466">
        <ele>51</ele>
        <time>2021-06-11T15:17:25Z</time>
      </trkpt>
      <trkpt lat="47.31839" lon="-1.34671">
        <ele>51</ele>
        <time>2021-06-11T15:17:28Z</time>
      </trkpt>
      <trkpt lat="47.31826" lon="-1.34686">
        <ele>50</ele>
        <time>2021-06-11T15:17:31Z</time>
      </trkpt>
      <trkpt lat="47.31816" lon="-1.34695">
        <ele>49</ele>
        <time>2021-06-11T15:17:33Z</time>
      </trkpt>
      <trkpt lat="47.31807" lon="-1.34701">
        <ele>49</ele>
        <time>2021-06-11T15:17:34Z</time>
      </trkpt>
      <trkpt lat="47.31795" lon="-1.34705">
        <ele>48</ele>
        <time>2021-06-11T15:17:37Z</time>
      </trkpt>
      <trkpt lat="47.31723" lon="-1.34727">
        <ele>42</ele>
        <time>2021-06-11T15:17:50Z</time>
      </trkpt>
      <trkpt lat="47.31694" lon="-1.34738">
        <ele>40</ele>
        <time>2021-06-11T15:17:55Z</time>
      </trkpt>
      <trkpt lat="47.31639" lon="-1.34756">
        <ele>33</ele>
        <time>2021-06-11T15:18:05Z</time>
      </trkpt>
      <trkpt lat="47.31607" lon="-1.34778">
        <ele>30</ele>
        <time>2021-06-11T15:18:11Z</time>
      </trkpt>
      <trkpt lat="47.31587" lon="-1.34796">
        <ele>28</ele>
        <time>2021-06-11T15:18:16Z</time>
      </trkpt>
      <trkpt lat="47.31547" lon="-1.34839">
        <ele>26</ele>
        <time>2021-06-11T15:18:24Z</time>
      </trkpt>
      <trkpt lat="47.31473" lon="-1.3492">
        <ele>20</ele>
        <time>2021-06-11T15:18:41Z</time>
      </trkpt>
      <trkpt lat="47.31423" lon="-1.34976">
        <ele>15</ele>
        <time>2021-06-11T15:18:52Z</time>
      </trkpt>
      <trkpt lat="47.31408" lon="-1.34994">
        <ele>14</ele>
        <time>2021-06-11T15:18:55Z</time>
      </trkpt>
      <trkpt lat="47.31389" lon="-1.35018">
        <ele>13</ele>
        <time>2021-06-11T15:19:00Z</time>
      </trkpt>
      <trkpt lat="47.3138" lon="-1.35034">
        <ele>12</ele>
        <time>2021-06-11T15:19:02Z</time>
      </trkpt>
      <trkpt lat="47.31355" lon="-1.35072">
        <ele>10</ele>
        <time>2021-06-11T15:19:09Z</time>
      </trkpt>
      <trkpt lat="47.31351" lon="-1.35078">
        <ele>10</ele>
        <time>2021-06-11T15:19:10Z</time>
      </trkpt>
      <trkpt lat="47.31327" lon="-1.35115">
        <ele>9</ele>
        <time>2021-06-11T15:19:16Z</time>
      </trkpt>
      <trkpt lat="47.31311" lon="-1.35136">
        <ele>10</ele>
        <time>2021-06-11T15:19:20Z</time>
      </trkpt>
      <trkpt lat="47.31293" lon="-1.3517">
        <ele>11</ele>
        <time>2021-06-11T15:19:25Z</time>
      </trkpt>
      <trkpt lat="47.31278" lon="-1.35198">
        <ele>13</ele>
        <time>2021-06-11T15:19:29Z</time>
      </trkpt>
      <trkpt lat="47.31271" lon="-1.35215">
        <ele>14</ele>
        <time>2021-06-11T15:19:32Z</time>
      </trkpt>
      <trkpt lat="47.31266" lon="-1.35228">
        <ele>14</ele>
        <time>2021-06-11T15:19:33Z</time>
      </trkpt>
      <trkpt lat="47.31263" lon="-1.35249">
        <ele>15</ele>
        <time>2021-06-11T15:19:36Z</time>
      </trkpt>
      <trkpt lat="47.31256" lon="-1.35271">
        <ele>17</ele>
        <time>2021-06-11T15:19:39Z</time>
      </trkpt>
      <trkpt lat="47.31235" lon="-1.35313">
        <ele>20</ele>
        <time>2021-06-11T15:19:45Z</time>
      </trkpt>
      <trkpt lat="47.31233" lon="-1.3532">
        <ele>21</ele>
        <time>2021-06-11T15:19:46Z</time>
      </trkpt>
      <trkpt lat="47.31234" lon="-1.35334">
        <ele>23</ele>
        <time>2021-06-11T15:19:48Z</time>
      </trkpt>
      <trkpt lat="47.31237" lon="-1.3534">
        <ele>24</ele>
        <time>2021-06-11T15:19:49Z</time>
      </trkpt>
      <trkpt lat="47.31242" lon="-1.35345">
        <ele>26</ele>
        <time>2021-06-11T15:19:50Z</time>
      </trkpt>
      <trkpt lat="47.31252" lon="-1.35347">
        <ele>28</ele>
        <time>2021-06-11T15:19:52Z</time>
      </trkpt>
      <trkpt lat="47.31265" lon="-1.35336">
        <ele>27</ele>
        <time>2021-06-11T15:19:54Z</time>
      </trkpt>
      <trkpt lat="47.31287" lon="-1.35298">
        <ele>24</ele>
        <time>2021-06-11T15:20:00Z</time>
      </trkpt>
      <trkpt lat="47.31293" lon="-1.35292">
        <ele>24</ele>
        <time>2021-06-11T15:20:02Z</time>
      </trkpt>
      <trkpt lat="47.31305" lon="-1.35287">
        <ele>24</ele>
        <time>2021-06-11T15:20:04Z</time>
      </trkpt>
      <trkpt lat="47.31316" lon="-1.35292">
        <ele>26</ele>
        <time>2021-06-11T15:20:06Z</time>
      </trkpt>
      <trkpt lat="47.3132" lon="-1.35296">
        <ele>27</ele>
        <time>2021-06-11T15:20:07Z</time>
      </trkpt>
      <trkpt lat="47.31322" lon="-1.35302">
        <ele>28</ele>
        <time>2021-06-11T15:20:08Z</time>
      </trkpt>
      <trkpt lat="47.31324" lon="-1.3531">
        <ele>29</ele>
        <time>2021-06-11T15:20:09Z</time>
      </trkpt>
      <trkpt lat="47.31324" lon="-1.35326">
        <ele>32</ele>
        <time>2021-06-11T15:20:11Z</time>
      </trkpt>
      <trkpt lat="47.31322" lon="-1.35335">
        <ele>33</ele>
        <time>2021-06-11T15:20:12Z</time>
      </trkpt>
      <trkpt lat="47.31317" lon="-1.35341">
        <ele>33</ele>
        <time>2021-06-11T15:20:13Z</time>
      </trkpt>
      <trkpt lat="47.31311" lon="-1.35347">
        <ele>34</ele>
        <time>2021-06-11T15:20:14Z</time>
      </trkpt>
      <trkpt lat="47.31272" lon="-1.35375">
        <ele>34</ele>
        <time>2021-06-11T15:20:22Z</time>
      </trkpt>
      <trkpt lat="47.31252" lon="-1.35394">
        <ele>35</ele>
        <time>2021-06-11T15:20:26Z</time>
      </trkpt>
      <trkpt lat="47.31233" lon="-1.35416">
        <ele>36</ele>
        <time>2021-06-11T15:20:30Z</time>
      </trkpt>
      <trkpt lat="47.31216" lon="-1.35438">
        <ele>36</ele>
        <time>2021-06-11T15:20:34Z</time>
      </trkpt>
      <trkpt lat="47.31206" lon="-1.3546">
        <ele>37</ele>
        <time>2021-06-11T15:20:38Z</time>
      </trkpt>
      <trkpt lat="47.31197" lon="-1.35488">
        <ele>41</ele>
        <time>2021-06-11T15:20:41Z</time>
      </trkpt>
      <trkpt lat="47.31189" lon="-1.35504">
        <ele>43</ele>
        <time>2021-06-11T15:20:44Z</time>
      </trkpt>
      <trkpt lat="47.31172" lon="-1.35532">
        <ele>45</ele>
        <time>2021-06-11T15:20:48Z</time>
      </trkpt>
      <trkpt lat="47.31159" lon="-1.3555">
        <ele>46</ele>
        <time>2021-06-11T15:20:51Z</time>
      </trkpt>
      <trkpt lat="47.31131" lon="-1.35577">
        <ele>47</ele>
        <time>2021-06-11T15:20:57Z</time>
      </trkpt>
      <trkpt lat="47.31122" lon="-1.35587">
        <ele>48</ele>
        <time>2021-06-11T15:20:59Z</time>
      </trkpt>
      <trkpt lat="47.311" lon="-1.35623">
        <ele>50</ele>
        <time>2021-06-11T15:21:05Z</time>
      </trkpt>
      <trkpt lat="47.31094" lon="-1.35633">
        <ele>51</ele>
        <time>2021-06-11T15:21:07Z</time>
      </trkpt>
      <trkpt lat="47.31079" lon="-1.3566">
        <ele>53</ele>
        <time>2021-06-11T15:21:11Z</time>
      </trkpt>
      <trkpt lat="47.31063" lon="-1.35687">
        <ele>54</ele>
        <time>2021-06-11T15:21:15Z</time>
      </trkpt>
      <trkpt lat="47.3104" lon="-1.35718">
        <ele>55</ele>
        <time>2021-06-11T15:21:21Z</time>
      </trkpt>
      <trkpt lat="47.31028" lon="-1.35741">
        <ele>57</ele>
        <time>2021-06-11T15:21:24Z</time>
      </trkpt>
      <trkpt lat="47.31022" lon="-1.35764">
        <ele>59</ele>
        <time>2021-06-11T15:21:27Z</time>
      </trkpt>
      <trkpt lat="47.31019" lon="-1.35802">
        <ele>62</ele>
        <time>2021-06-11T15:21:32Z</time>
      </trkpt>
      <trkpt lat="47.31021" lon="-1.35816">
        <ele>63</ele>
        <time>2021-06-11T15:21:34Z</time>
      </trkpt>
      <trkpt lat="47.31026" lon="-1.35835">
        <ele>64</ele>
        <time>2021-06-11T15:21:36Z</time>
      </trkpt>
      <trkpt lat="47.31041" lon="-1.35867">
        <ele>65</ele>
        <time>2021-06-11T15:21:41Z</time>
      </trkpt>
      <trkpt lat="47.31068" lon="-1.3592">
        <ele>66</ele>
        <time>2021-06-11T15:21:49Z</time>
      </trkpt>
      <trkpt lat="47.31075" lon="-1.35935">
        <ele>66</ele>
        <time>2021-06-11T15:21:51Z</time>
      </trkpt>
      <trkpt lat="47.31078" lon="-1.35943">
        <ele>66</ele>
        <time>2021-06-11T15:21:52Z</time>
      </trkpt>
      <trkpt lat="47.31102" lon="-1.35948">
        <ele>66</ele>
        <time>2021-06-11T15:21:56Z</time>
      </trkpt>
      <trkpt lat="47.31154" lon="-1.35945">
        <ele>69</ele>
        <time>2021-06-11T15:22:06Z</time>
      </trkpt>
      <trkpt lat="47.3117" lon="-1.35947">
        <ele>69</ele>
        <time>2021-06-11T15:22:09Z</time>
      </trkpt>
      <trkpt lat="47.31195" lon="-1.35954">
        <ele>69</ele>
        <time>2021-06-11T15:22:13Z</time>
      </trkpt>
      <trkpt lat="47.312" lon="-1.35964">
        <ele>69</ele>
        <time>2021-06-11T15:22:15Z</time>
      </trkpt>
      <trkpt lat="47.3123" lon="-1.36001">
        <ele>69</ele>
        <time>2021-06-11T15:22:22Z</time>
      </trkpt>
      <trkpt lat="47.31238" lon="-1.36008">
        <ele>69</ele>
        <time>2021-06-11T15:22:23Z</time>
      </trkpt>
      <trkpt lat="47.31252" lon="-1.36013">
        <ele>69</ele>
        <time>2021-06-11T15:22:26Z</time>
      </trkpt>
      <trkpt lat="47.31256" lon="-1.36021">
        <ele>69</ele>
        <time>2021-06-11T15:22:27Z</time>
      </trkpt>
      <trkpt lat="47.31261" lon="-1.36025">
        <ele>69</ele>
        <time>2021-06-11T15:22:28Z</time>
      </trkpt>
      <trkpt lat="47.31278" lon="-1.36032">
        <ele>70</ele>
        <time>2021-06-11T15:22:31Z</time>
      </trkpt>
      <trkpt lat="47.31291" lon="-1.36034">
        <ele>70</ele>
        <time>2021-06-11T15:22:33Z</time>
      </trkpt>
      <trkpt lat="47.31318" lon="-1.36031">
        <ele>71</ele>
        <time>2021-06-11T15:22:38Z</time>
      </trkpt>
      <trkpt lat="47.31462" lon="-1.35991">
        <ele>74</ele>
        <time>2021-06-11T15:23:04Z</time>
      </trkpt>
      <trkpt lat="47.31488" lon="-1.36006">
        <ele>75</ele>
        <time>2021-06-11T15:23:09Z</time>
      </trkpt>
      <trkpt lat="47.315" lon="-1.36015">
        <ele>75</ele>
        <time>2021-06-11T15:23:12Z</time>
      </trkpt>
      <trkpt lat="47.31537" lon="-1.36054">
        <ele>74</ele>
        <time>2021-06-11T15:23:20Z</time>
      </trkpt>
      <trkpt lat="47.31579" lon="-1.36111">
        <ele>73</ele>
        <time>2021-06-11T15:23:30Z</time>
      </trkpt>
      <trkpt lat="47.31602" lon="-1.36145">
        <ele>74</ele>
        <time>2021-06-11T15:23:36Z</time>
      </trkpt>
      <trkpt lat="47.31636" lon="-1.36218">
        <ele>73</ele>
        <time>2021-06-11T15:23:46Z</time>
      </trkpt>
      <trkpt lat="47.31663" lon="-1.36284">
        <ele>73</ele>
        <time>2021-06-11T15:23:56Z</time>
      </trkpt>
      <trkpt lat="47.31674" lon="-1.36318">
        <ele>73</ele>
        <time>2021-06-11T15:24:00Z</time>
      </trkpt>
      <trkpt lat="47.31691" lon="-1.36382">
        <ele>73</ele>
        <time>2021-06-11T15:24:09Z</time>
      </trkpt>
      <trkpt lat="47.31757" lon="-1.36649">
        <ele>74</ele>
        <time>2021-06-11T15:24:43Z</time>
      </trkpt>
      <trkpt lat="47.31771" lon="-1.36723">
        <ele>75</ele>
        <time>2021-06-11T15:24:52Z</time>
      </trkpt>
      <trkpt lat="47.31819" lon="-1.37065">
        <ele>78</ele>
        <time>2021-06-11T15:25:34Z</time>
      </trkpt>
      <trkpt lat="47.31832" lon="-1.37146">
        <ele>78</ele>
        <time>2021-06-11T15:25:44Z</time>
      </trkpt>
      <trkpt lat="47.31874" lon="-1.37368">
        <ele>77</ele>
        <time>2021-06-11T15:26:12Z</time>
      </trkpt>
      <trkpt lat="47.31904" lon="-1.37516">
        <ele>77</ele>
        <time>2021-06-11T15:26:31Z</time>
      </trkpt>
      <trkpt lat="47.31907" lon="-1.37524">
        <ele>78</ele>
        <time>2021-06-11T15:26:32Z</time>
      </trkpt>
      <trkpt lat="47.31907" lon="-1.37536">
        <ele>78</ele>
        <time>2021-06-11T15:26:33Z</time>
      </trkpt>
      <trkpt lat="47.31919" lon="-1.37594">
        <ele>80</ele>
        <time>2021-06-11T15:26:41Z</time>
      </trkpt>
      <trkpt lat="47.31968" lon="-1.37871">
        <ele>79</ele>
        <time>2021-06-11T15:27:15Z</time>
      </trkpt>
      <trkpt lat="47.31979" lon="-1.37901">
        <ele>80</ele>
        <time>2021-06-11T15:27:19Z</time>
      </trkpt>
      <trkpt lat="47.31996" lon="-1.37933">
        <ele>80</ele>
        <time>2021-06-11T15:27:24Z</time>
      </trkpt>
      <trkpt lat="47.32012" lon="-1.37952">
        <ele>80</ele>
        <time>2021-06-11T15:27:28Z</time>
      </trkpt>
      <trkpt lat="47.32018" lon="-1.37955">
        <ele>80</ele>
        <time>2021-06-11T15:27:29Z</time>
      </trkpt>
      <trkpt lat="47.32025" lon="-1.37965">
        <ele>80</ele>
        <time>2021-06-11T15:27:31Z</time>
      </trkpt>
      <trkpt lat="47.32027" lon="-1.37978">
        <ele>80</ele>
        <time>2021-06-11T15:27:32Z</time>
      </trkpt>
      <trkpt lat="47.32025" lon="-1.37989">
        <ele>81</ele>
        <time>2021-06-11T15:27:34Z</time>
      </trkpt>
      <trkpt lat="47.32023" lon="-1.38001">
        <ele>81</ele>
        <time>2021-06-11T15:27:35Z</time>
      </trkpt>
      <trkpt lat="47.32026" lon="-1.38037">
        <ele>80</ele>
        <time>2021-06-11T15:27:40Z</time>
      </trkpt>
      <trkpt lat="47.32023" lon="-1.38057">
        <ele>80</ele>
        <time>2021-06-11T15:27:42Z</time>
      </trkpt>
      <trkpt lat="47.32017" lon="-1.38082">
        <ele>80</ele>
        <time>2021-06-11T15:27:45Z</time>
      </trkpt>
      <trkpt lat="47.32012" lon="-1.38099">
        <ele>80</ele>
        <time>2021-06-11T15:27:47Z</time>
      </trkpt>
      <trkpt lat="47.32011" lon="-1.38105">
        <ele>80</ele>
        <time>2021-06-11T15:27:48Z</time>
      </trkpt>
      <trkpt lat="47.32006" lon="-1.3813">
        <ele>81</ele>
        <time>2021-06-11T15:27:51Z</time>
      </trkpt>
      <trkpt lat="47.32006" lon="-1.38152">
        <ele>81</ele>
        <time>2021-06-11T15:27:54Z</time>
      </trkpt>
      <trkpt lat="47.3201" lon="-1.38181">
        <ele>81</ele>
        <time>2021-06-11T15:27:58Z</time>
      </trkpt>
      <trkpt lat="47.32011" lon="-1.38192">
        <ele>81</ele>
        <time>2021-06-11T15:27:59Z</time>
      </trkpt>
      <trkpt lat="47.32016" lon="-1.38249">
        <ele>80</ele>
        <time>2021-06-11T15:28:06Z</time>
      </trkpt>
      <trkpt lat="47.32029" lon="-1.38389">
        <ele>80</ele>
        <time>2021-06-11T15:28:23Z</time>
      </trkpt>
      <trkpt lat="47.3203" lon="-1.38399">
        <ele>80</ele>
        <time>2021-06-11T15:28:24Z</time>
      </trkpt>
      <trkpt lat="47.3203" lon="-1.38412">
        <ele>80</ele>
        <time>2021-06-11T15:28:26Z</time>
      </trkpt>
      <trkpt lat="47.32057" lon="-1.38601">
        <ele>78</ele>
        <time>2021-06-11T15:28:49Z</time>
      </trkpt>
      <trkpt lat="47.32063" lon="-1.38641">
        <ele>78</ele>
        <time>2021-06-11T15:28:54Z</time>
      </trkpt>
      <trkpt lat="47.32104" lon="-1.388">
        <ele>76</ele>
        <time>2021-06-11T15:29:14Z</time>
      </trkpt>
      <trkpt lat="47.32113" lon="-1.38827">
        <ele>75</ele>
        <time>2021-06-11T15:29:18Z</time>
      </trkpt>
      <trkpt lat="47.32151" lon="-1.38928">
        <ele>75</ele>
        <time>2021-06-11T15:29:32Z</time>
      </trkpt>
      <trkpt lat="47.32174" lon="-1.38995">
        <ele>76</ele>
        <time>2021-06-11T15:29:41Z</time>
      </trkpt>
      <trkpt lat="47.32179" lon="-1.39062">
        <ele>74</ele>
        <time>2021-06-11T15:29:49Z</time>
      </trkpt>
      <trkpt lat="47.32179" lon="-1.39111">
        <ele>72</ele>
        <time>2021-06-11T15:29:55Z</time>
      </trkpt>
      <trkpt lat="47.32178" lon="-1.39189">
        <ele>71</ele>
        <time>2021-06-11T15:30:04Z</time>
      </trkpt>
      <trkpt lat="47.32254" lon="-1.39284">
        <ele>70</ele>
        <time>2021-06-11T15:30:22Z</time>
      </trkpt>
      <trkpt lat="47.32272" lon="-1.39301">
        <ele>69</ele>
        <time>2021-06-11T15:30:26Z</time>
      </trkpt>
      <trkpt lat="47.32332" lon="-1.39339">
        <ele>69</ele>
        <time>2021-06-11T15:30:38Z</time>
      </trkpt>
      <trkpt lat="47.3235" lon="-1.39345">
        <ele>69</ele>
        <time>2021-06-11T15:30:41Z</time>
      </trkpt>
      <trkpt lat="47.32367" lon="-1.39345">
        <ele>69</ele>
        <time>2021-06-11T15:30:44Z</time>
      </trkpt>
      <trkpt lat="47.32397" lon="-1.39358">
        <ele>69</ele>
        <time>2021-06-11T15:30:49Z</time>
      </trkpt>
      <trkpt lat="47.32432" lon="-1.39378">
        <ele>69</ele>
        <time>2021-06-11T15:30:56Z</time>
      </trkpt>
      <trkpt lat="47.32444" lon="-1.39379">
        <ele>69</ele>
        <time>2021-06-11T15:30:58Z</time>
      </trkpt>
      <trkpt lat="47.32463" lon="-1.39375">
        <ele>69</ele>
        <time>2021-06-11T15:31:02Z</time>
      </trkpt>
      <trkpt lat="47.32489" lon="-1.39359">
        <ele>69</ele>
        <time>2021-06-11T15:31:07Z</time>
      </trkpt>
      <trkpt lat="47.32513" lon="-1.39344">
        <ele>70</ele>
        <time>2021-06-11T15:31:11Z</time>
      </trkpt>
      <trkpt lat="47.32522" lon="-1.39338">
        <ele>70</ele>
        <time>2021-06-11T15:31:13Z</time>
      </trkpt>
      <trkpt lat="47.32534" lon="-1.39335">
        <ele>70</ele>
        <time>2021-06-11T15:31:15Z</time>
      </trkpt>
      <trkpt lat="47.32566" lon="-1.39337">
        <ele>69</ele>
        <time>2021-06-11T15:31:21Z</time>
      </trkpt>
      <trkpt lat="47.32578" lon="-1.39341">
        <ele>69</ele>
        <time>2021-06-11T15:31:23Z</time>
      </trkpt>
      <trkpt lat="47.32591" lon="-1.39345">
        <ele>69</ele>
        <time>2021-06-11T15:31:26Z</time>
      </trkpt>
      <trkpt lat="47.32659" lon="-1.39368">
        <ele>71</ele>
        <time>2021-06-11T15:31:38Z</time>
      </trkpt>
      <trkpt lat="47.32699" lon="-1.39379">
        <ele>72</ele>
        <time>2021-06-11T15:31:45Z</time>
      </trkpt>
      <trkpt lat="47.32817" lon="-1.39399">
        <ele>73</ele>
        <time>2021-06-11T15:32:06Z</time>
      </trkpt>
      <trkpt lat="47.32914" lon="-1.39414">
        <ele>71</ele>
        <time>2021-06-11T15:32:24Z</time>
      </trkpt>
      <trkpt lat="47.32919" lon="-1.39415">
        <ele>71</ele>
        <time>2021-06-11T15:32:25Z</time>
      </trkpt>
      <trkpt lat="47.32918" lon="-1.39423">
        <ele>71</ele>
        <time>2021-06-11T15:32:26Z</time>
      </trkpt>
      <trkpt lat="47.32909" lon="-1.39524">
        <ele>70</ele>
        <time>2021-06-11T15:32:38Z</time>
      </trkpt>
      <trkpt lat="47.32899" lon="-1.39567">
        <ele>69</ele>
        <time>2021-06-11T15:32:43Z</time>
      </trkpt>
      <trkpt lat="47.32894" lon="-1.39591">
        <ele>68</ele>
        <time>2021-06-11T15:32:46Z</time>
      </trkpt>
      <trkpt lat="47.32866" lon="-1.39691">
        <ele>68</ele>
        <time>2021-06-11T15:32:59Z</time>
      </trkpt>
      <trkpt lat="47.32861" lon="-1.39711">
        <ele>68</ele>
        <time>2021-06-11T15:33:02Z</time>
      </trkpt>
      <trkpt lat="47.32859" lon="-1.39732">
        <ele>68</ele>
        <time>2021-06-11T15:33:05Z</time>
      </trkpt>
      <trkpt lat="47.32861" lon="-1.39774">
        <ele>67</ele>
        <time>2021-06-11T15:33:10Z</time>
      </trkpt>
      <trkpt lat="47.32866" lon="-1.39791">
        <ele>66</ele>
        <time>2021-06-11T15:33:12Z</time>
      </trkpt>
      <trkpt lat="47.32911" lon="-1.39923">
        <ele>61</ele>
        <time>2021-06-11T15:33:30Z</time>
      </trkpt>
      <trkpt lat="47.32914" lon="-1.39939">
        <ele>61</ele>
        <time>2021-06-11T15:33:32Z</time>
      </trkpt>
      <trkpt lat="47.32914" lon="-1.39949">
        <ele>61</ele>
        <time>2021-06-11T15:33:33Z</time>
      </trkpt>
      <trkpt lat="47.32905" lon="-1.39973">
        <ele>62</ele>
        <time>2021-06-11T15:33:36Z</time>
      </trkpt>
      <trkpt lat="47.32896" lon="-1.40006">
        <ele>62</ele>
        <time>2021-06-11T15:33:40Z</time>
      </trkpt>
      <trkpt lat="47.32893" lon="-1.40029">
        <ele>62</ele>
        <time>2021-06-11T15:33:43Z</time>
      </trkpt>
      <trkpt lat="47.32893" lon="-1.40045">
        <ele>62</ele>
        <time>2021-06-11T15:33:45Z</time>
      </trkpt>
      <trkpt lat="47.32903" lon="-1.40078">
        <ele>63</ele>
        <time>2021-06-11T15:33:50Z</time>
      </trkpt>
      <trkpt lat="47.32928" lon="-1.40115">
        <ele>65</ele>
        <time>2021-06-11T15:33:56Z</time>
      </trkpt>
      <trkpt lat="47.32954" lon="-1.40145">
        <ele>65</ele>
        <time>2021-06-11T15:34:02Z</time>
      </trkpt>
      <trkpt lat="47.32969" lon="-1.40163">
        <ele>65</ele>
        <time>2021-06-11T15:34:05Z</time>
      </trkpt>
      <trkpt lat="47.32984" lon="-1.40191">
        <ele>65</ele>
        <time>2021-06-11T15:34:09Z</time>
      </trkpt>
      <trkpt lat="47.3299" lon="-1.40207">
        <ele>65</ele>
        <time>2021-06-11T15:34:12Z</time>
      </trkpt>
      <trkpt lat="47.32993" lon="-1.40224">
        <ele>65</ele>
        <time>2021-06-11T15:34:14Z</time>
      </trkpt>
      <trkpt lat="47.32992" lon="-1.40268">
        <ele>66</ele>
        <time>2021-06-11T15:34:19Z</time>
      </trkpt>
      <trkpt lat="47.32992" lon="-1.4028">
        <ele>66</ele>
        <time>2021-06-11T15:34:21Z</time>
      </trkpt>
      <trkpt lat="47.32993" lon="-1.40298">
        <ele>66</ele>
        <time>2021-06-11T15:34:23Z</time>
      </trkpt>
      <trkpt lat="47.32996" lon="-1.40318">
        <ele>67</ele>
        <time>2021-06-11T15:34:25Z</time>
      </trkpt>
      <trkpt lat="47.33" lon="-1.40338">
        <ele>67</ele>
        <time>2021-06-11T15:34:28Z</time>
      </trkpt>
      <trkpt lat="47.33012" lon="-1.40377">
        <ele>67</ele>
        <time>2021-06-11T15:34:33Z</time>
      </trkpt>
      <trkpt lat="47.33019" lon="-1.40396">
        <ele>67</ele>
        <time>2021-06-11T15:34:36Z</time>
      </trkpt>
      <trkpt lat="47.3303" lon="-1.40439">
        <ele>67</ele>
        <time>2021-06-11T15:34:41Z</time>
      </trkpt>
      <trkpt lat="47.33037" lon="-1.40468">
        <ele>67</ele>
        <time>2021-06-11T15:34:45Z</time>
      </trkpt>
      <trkpt lat="47.33052" lon="-1.40555">
        <ele>67</ele>
        <time>2021-06-11T15:34:56Z</time>
      </trkpt>
      <trkpt lat="47.33056" lon="-1.40584">
        <ele>68</ele>
        <time>2021-06-11T15:34:59Z</time>
      </trkpt>
      <trkpt lat="47.33067" lon="-1.4064">
        <ele>68</ele>
        <time>2021-06-11T15:35:06Z</time>
      </trkpt>
      <trkpt lat="47.33079" lon="-1.40686">
        <ele>69</ele>
        <time>2021-06-11T15:35:12Z</time>
      </trkpt>
      <trkpt lat="47.33098" lon="-1.40768">
        <ele>71</ele>
        <time>2021-06-11T15:35:23Z</time>
      </trkpt>
      <trkpt lat="47.33152" lon="-1.40997">
        <ele>73</ele>
        <time>2021-06-11T15:35:52Z</time>
      </trkpt>
      <trkpt lat="47.33169" lon="-1.41078">
        <ele>71</ele>
        <time>2021-06-11T15:36:02Z</time>
      </trkpt>
      <trkpt lat="47.33171" lon="-1.41085">
        <ele>71</ele>
        <time>2021-06-11T15:36:03Z</time>
      </trkpt>
      <trkpt lat="47.33172" lon="-1.41092">
        <ele>71</ele>
        <time>2021-06-11T15:36:04Z</time>
      </trkpt>
      <trkpt lat="47.33216" lon="-1.41316">
        <ele>70</ele>
        <time>2021-06-11T15:36:32Z</time>
      </trkpt>
      <trkpt lat="47.3326" lon="-1.41558">
        <ele>71</ele>
        <time>2021-06-11T15:37:02Z</time>
      </trkpt>
      <trkpt lat="47.3327" lon="-1.41605">
        <ele>70</ele>
        <time>2021-06-11T15:37:08Z</time>
      </trkpt>
      <trkpt lat="47.33299" lon="-1.41762">
        <ele>68</ele>
        <time>2021-06-11T15:37:28Z</time>
      </trkpt>
      <trkpt lat="47.33327" lon="-1.41916">
        <ele>68</ele>
        <time>2021-06-11T15:37:47Z</time>
      </trkpt>
      <trkpt lat="47.33421" lon="-1.42409">
        <ele>68</ele>
        <time>2021-06-11T15:38:49Z</time>
      </trkpt>
      <trkpt lat="47.33451" lon="-1.42577">
        <ele>68</ele>
        <time>2021-06-11T15:39:10Z</time>
      </trkpt>
      <trkpt lat="47.33453" lon="-1.42584">
        <ele>68</ele>
        <time>2021-06-11T15:39:11Z</time>
      </trkpt>
      <trkpt lat="47.33454" lon="-1.42593">
        <ele>68</ele>
        <time>2021-06-11T15:39:12Z</time>
      </trkpt>
      <trkpt lat="47.33466" lon="-1.42832">
        <ele>67</ele>
        <time>2021-06-11T15:39:41Z</time>
      </trkpt>
      <trkpt lat="47.33466" lon="-1.42839">
        <ele>67</ele>
        <time>2021-06-11T15:39:41Z</time>
      </trkpt>
      <trkpt lat="47.33479" lon="-1.4285">
        <ele>66</ele>
        <time>2021-06-11T15:39:44Z</time>
      </trkpt>
      <trkpt lat="47.33495" lon="-1.42858">
        <ele>66</ele>
        <time>2021-06-11T15:39:47Z</time>
      </trkpt>
      <trkpt lat="47.33536" lon="-1.42872">
        <ele>65</ele>
        <time>2021-06-11T15:39:55Z</time>
      </trkpt>
      <trkpt lat="47.33554" lon="-1.42874">
        <ele>65</ele>
        <time>2021-06-11T15:39:58Z</time>
      </trkpt>
      <trkpt lat="47.33657" lon="-1.42872">
        <ele>62</ele>
        <time>2021-06-11T15:40:16Z</time>
      </trkpt>
      <trkpt lat="47.33698" lon="-1.42877">
        <ele>61</ele>
        <time>2021-06-11T15:40:23Z</time>
      </trkpt>
      <trkpt lat="47.33717" lon="-1.42883">
        <ele>61</ele>
        <time>2021-06-11T15:40:27Z</time>
      </trkpt>
      <trkpt lat="47.33745" lon="-1.429">
        <ele>60</ele>
        <time>2021-06-11T15:40:32Z</time>
      </trkpt>
      <trkpt lat="47.33768" lon="-1.4292">
        <ele>60</ele>
        <time>2021-06-11T15:40:37Z</time>
      </trkpt>
      <trkpt lat="47.33788" lon="-1.42945">
        <ele>61</ele>
        <time>2021-06-11T15:40:42Z</time>
      </trkpt>
      <trkpt lat="47.33796" lon="-1.42959">
        <ele>61</ele>
        <time>2021-06-11T15:40:44Z</time>
      </trkpt>
      <trkpt lat="47.33825" lon="-1.43017">
        <ele>61</ele>
        <time>2021-06-11T15:40:53Z</time>
      </trkpt>
      <trkpt lat="47.33917" lon="-1.43266">
        <ele>64</ele>
        <time>2021-06-11T15:41:27Z</time>
      </trkpt>
      <trkpt lat="47.33945" lon="-1.43324">
        <ele>63</ele>
        <time>2021-06-11T15:41:35Z</time>
      </trkpt>
      <trkpt lat="47.33994" lon="-1.43414">
        <ele>60</ele>
        <time>2021-06-11T15:41:49Z</time>
      </trkpt>
      <trkpt lat="47.34001" lon="-1.4343">
        <ele>60</ele>
        <time>2021-06-11T15:41:52Z</time>
      </trkpt>
      <trkpt lat="47.34024" lon="-1.43498">
        <ele>59</ele>
        <time>2021-06-11T15:42:01Z</time>
      </trkpt>
      <trkpt lat="47.34043" lon="-1.43565">
        <ele>58</ele>
        <time>2021-06-11T15:42:10Z</time>
      </trkpt>
      <trkpt lat="47.34051" lon="-1.43583">
        <ele>58</ele>
        <time>2021-06-11T15:42:12Z</time>
      </trkpt>
      <trkpt lat="47.34073" lon="-1.43629">
        <ele>58</ele>
        <time>2021-06-11T15:42:19Z</time>
      </trkpt>
      <trkpt lat="47.34079" lon="-1.43647">
        <ele>58</ele>
        <time>2021-06-11T15:42:21Z</time>
      </trkpt>
      <trkpt lat="47.34106" lon="-1.43746">
        <ele>59</ele>
        <time>2021-06-11T15:42:34Z</time>
      </trkpt>
      <trkpt lat="47.34115" lon="-1.43764">
        <ele>59</ele>
        <time>2021-06-11T15:42:37Z</time>
      </trkpt>
      <trkpt lat="47.34213" lon="-1.43901">
        <ele>56</ele>
        <time>2021-06-11T15:43:01Z</time>
      </trkpt>
      <trkpt lat="47.34152" lon="-1.44096">
        <ele>52</ele>
        <time>2021-06-11T15:43:27Z</time>
      </trkpt>
      <trkpt lat="47.34156" lon="-1.44101">
        <ele>52</ele>
        <time>2021-06-11T15:43:28Z</time>
      </trkpt>
      <trkpt lat="47.34215" lon="-1.44215">
        <ele>49</ele>
        <time>2021-06-11T15:43:45Z</time>
      </trkpt>
      <trkpt lat="47.34227" lon="-1.44241">
        <ele>48</ele>
        <time>2021-06-11T15:43:49Z</time>
      </trkpt>
      <trkpt lat="47.34277" lon="-1.4438">
        <ele>47</ele>
        <time>2021-06-11T15:44:08Z</time>
      </trkpt>
      <trkpt lat="47.343" lon="-1.44479">
        <ele>45</ele>
        <time>2021-06-11T15:44:20Z</time>
      </trkpt>
      <trkpt lat="47.34323" lon="-1.44526">
        <ele>45</ele>
        <time>2021-06-11T15:44:27Z</time>
      </trkpt>
      <trkpt lat="47.34324" lon="-1.44534">
        <ele>45</ele>
        <time>2021-06-11T15:44:28Z</time>
      </trkpt>
      <trkpt lat="47.34322" lon="-1.44545">
        <ele>45</ele>
        <time>2021-06-11T15:44:30Z</time>
      </trkpt>
      <trkpt lat="47.34316" lon="-1.44564">
        <ele>44</ele>
        <time>2021-06-11T15:44:32Z</time>
      </trkpt>
      <trkpt lat="47.34314" lon="-1.44581">
        <ele>44</ele>
        <time>2021-06-11T15:44:34Z</time>
      </trkpt>
      <trkpt lat="47.34315" lon="-1.446">
        <ele>44</ele>
        <time>2021-06-11T15:44:37Z</time>
      </trkpt>
      <trkpt lat="47.3434" lon="-1.44794">
        <ele>44</ele>
        <time>2021-06-11T15:45:00Z</time>
      </trkpt>
      <trkpt lat="47.3435" lon="-1.44881">
        <ele>46</ele>
        <time>2021-06-11T15:45:11Z</time>
      </trkpt>
      <trkpt lat="47.3436" lon="-1.44991">
        <ele>47</ele>
        <time>2021-06-11T15:45:24Z</time>
      </trkpt>
      <trkpt lat="47.34357" lon="-1.45039">
        <ele>47</ele>
        <time>2021-06-11T15:45:30Z</time>
      </trkpt>
      <trkpt lat="47.34331" lon="-1.45135">
        <ele>49</ele>
        <time>2021-06-11T15:45:43Z</time>
      </trkpt>
      <trkpt lat="47.34317" lon="-1.45245">
        <ele>50</ele>
        <time>2021-06-11T15:45:56Z</time>
      </trkpt>
      <trkpt lat="47.34317" lon="-1.45263">
        <ele>49</ele>
        <time>2021-06-11T15:45:58Z</time>
      </trkpt>
      <trkpt lat="47.34323" lon="-1.4528">
        <ele>49</ele>
        <time>2021-06-11T15:46:01Z</time>
      </trkpt>
      <trkpt lat="47.3433" lon="-1.45287">
        <ele>49</ele>
        <time>2021-06-11T15:46:02Z</time>
      </trkpt>
      <trkpt lat="47.3446" lon="-1.45401">
        <ele>45</ele>
        <time>2021-06-11T15:46:29Z</time>
      </trkpt>
      <trkpt lat="47.3448" lon="-1.45423">
        <ele>45</ele>
        <time>2021-06-11T15:46:34Z</time>
      </trkpt>
      <trkpt lat="47.34518" lon="-1.45493">
        <ele>45</ele>
        <time>2021-06-11T15:46:44Z</time>
      </trkpt>
      <trkpt lat="47.34561" lon="-1.4558">
        <ele>46</ele>
        <time>2021-06-11T15:46:57Z</time>
      </trkpt>
      <trkpt lat="47.34567" lon="-1.45586">
        <ele>46</ele>
        <time>2021-06-11T15:46:59Z</time>
      </trkpt>
      <trkpt lat="47.34585" lon="-1.45597">
        <ele>45</ele>
        <time>2021-06-11T15:47:02Z</time>
      </trkpt>
      <trkpt lat="47.34602" lon="-1.45602">
        <ele>44</ele>
        <time>2021-06-11T15:47:05Z</time>
      </trkpt>
      <trkpt lat="47.34645" lon="-1.4561">
        <ele>42</ele>
        <time>2021-06-11T15:47:13Z</time>
      </trkpt>
      <trkpt lat="47.3467" lon="-1.45627">
        <ele>41</ele>
        <time>2021-06-11T15:47:18Z</time>
      </trkpt>
      <trkpt lat="47.34691" lon="-1.4565">
        <ele>40</ele>
        <time>2021-06-11T15:47:22Z</time>
      </trkpt>
      <trkpt lat="47.34698" lon="-1.45663">
        <ele>40</ele>
        <time>2021-06-11T15:47:24Z</time>
      </trkpt>
      <trkpt lat="47.34703" lon="-1.45676">
        <ele>40</ele>
        <time>2021-06-11T15:47:26Z</time>
      </trkpt>
      <trkpt lat="47.34707" lon="-1.45698">
        <ele>40</ele>
        <time>2021-06-11T15:47:29Z</time>
      </trkpt>
      <trkpt lat="47.34713" lon="-1.45742">
        <ele>40</ele>
        <time>2021-06-11T15:47:34Z</time>
      </trkpt>
      <trkpt lat="47.34722" lon="-1.45774">
        <ele>41</ele>
        <time>2021-06-11T15:47:39Z</time>
      </trkpt>
      <trkpt lat="47.34764" lon="-1.45879">
        <ele>43</ele>
        <time>2021-06-11T15:47:53Z</time>
      </trkpt>
      <trkpt lat="47.34812" lon="-1.46005">
        <ele>41</ele>
        <time>2021-06-11T15:48:11Z</time>
      </trkpt>
      <trkpt lat="47.34824" lon="-1.46047">
        <ele>41</ele>
        <time>2021-06-11T15:48:16Z</time>
      </trkpt>
      <trkpt lat="47.34862" lon="-1.46217">
        <ele>40</ele>
        <time>2021-06-11T15:48:38Z</time>
      </trkpt>
      <trkpt lat="47.3494" lon="-1.46458">
        <ele>35</ele>
        <time>2021-06-11T15:49:10Z</time>
      </trkpt>
      <trkpt lat="47.3494" lon="-1.46465">
        <ele>35</ele>
        <time>2021-06-11T15:49:11Z</time>
      </trkpt>
      <trkpt lat="47.34941" lon="-1.46473">
        <ele>35</ele>
        <time>2021-06-11T15:49:12Z</time>
      </trkpt>
      <trkpt lat="47.3496" lon="-1.46538">
        <ele>32</ele>
        <time>2021-06-11T15:49:20Z</time>
      </trkpt>
      <trkpt lat="47.34983" lon="-1.46587">
        <ele>30</ele>
        <time>2021-06-11T15:49:28Z</time>
      </trkpt>
      <trkpt lat="47.35087" lon="-1.46787">
        <ele>25</ele>
        <time>2021-06-11T15:49:58Z</time>
      </trkpt>
      <trkpt lat="47.35093" lon="-1.46825">
        <ele>24</ele>
        <time>2021-06-11T15:50:03Z</time>
      </trkpt>
      <trkpt lat="47.35094" lon="-1.46845">
        <ele>24</ele>
        <time>2021-06-11T15:50:05Z</time>
      </trkpt>
      <trkpt lat="47.35091" lon="-1.46867">
        <ele>23</ele>
        <time>2021-06-11T15:50:08Z</time>
      </trkpt>
      <trkpt lat="47.35088" lon="-1.46877">
        <ele>23</ele>
        <time>2021-06-11T15:50:09Z</time>
      </trkpt>
      <trkpt lat="47.35077" lon="-1.46895">
        <ele>23</ele>
        <time>2021-06-11T15:50:12Z</time>
      </trkpt>
      <trkpt lat="47.35035" lon="-1.46942">
        <ele>21</ele>
        <time>2021-06-11T15:50:21Z</time>
      </trkpt>
      <trkpt lat="47.35006" lon="-1.46992">
        <ele>19</ele>
        <time>2021-06-11T15:50:29Z</time>
      </trkpt>
      <trkpt lat="47.34991" lon="-1.47027">
        <ele>17</ele>
        <time>2021-06-11T15:50:34Z</time>
      </trkpt>
      <trkpt lat="47.34983" lon="-1.47066">
        <ele>16</ele>
        <time>2021-06-11T15:50:39Z</time>
      </trkpt>
      <trkpt lat="47.34983" lon="-1.47116">
        <ele>15</ele>
        <time>2021-06-11T15:50:45Z</time>
      </trkpt>
      <trkpt lat="47.34975" lon="-1.47189">
        <ele>12</ele>
        <time>2021-06-11T15:50:54Z</time>
      </trkpt>
      <trkpt lat="47.34971" lon="-1.4721">
        <ele>12</ele>
        <time>2021-06-11T15:50:57Z</time>
      </trkpt>
      <trkpt lat="47.34961" lon="-1.47233">
        <ele>11</ele>
        <time>2021-06-11T15:51:00Z</time>
      </trkpt>
      <trkpt lat="47.34945" lon="-1.4726">
        <ele>9</ele>
        <time>2021-06-11T15:51:04Z</time>
      </trkpt>
      <trkpt lat="47.34856" lon="-1.47332">
        <ele>7</ele>
        <time>2021-06-11T15:51:22Z</time>
      </trkpt>
      <trkpt lat="47.34836" lon="-1.47356">
        <ele>7</ele>
        <time>2021-06-11T15:51:27Z</time>
      </trkpt>
      <trkpt lat="47.34817" lon="-1.47388">
        <ele>7</ele>
        <time>2021-06-11T15:51:32Z</time>
      </trkpt>
      <trkpt lat="47.34786" lon="-1.47469">
        <ele>7</ele>
        <time>2021-06-11T15:51:43Z</time>
      </trkpt>
      <trkpt lat="47.3477" lon="-1.475">
        <ele>7</ele>
        <time>2021-06-11T15:51:48Z</time>
      </trkpt>
      <trkpt lat="47.34756" lon="-1.47522">
        <ele>7</ele>
        <time>2021-06-11T15:51:52Z</time>
      </trkpt>
      <trkpt lat="47.34659" lon="-1.47634">
        <ele>7</ele>
        <time>2021-06-11T15:52:14Z</time>
      </trkpt>
      <trkpt lat="47.34481" lon="-1.47834">
        <ele>7</ele>
        <time>2021-06-11T15:52:53Z</time>
      </trkpt>
      <trkpt lat="47.34403" lon="-1.47926">
        <ele>8</ele>
        <time>2021-06-11T15:53:11Z</time>
      </trkpt>
      <trkpt lat="47.3439" lon="-1.47943">
        <ele>8</ele>
        <time>2021-06-11T15:53:14Z</time>
      </trkpt>
      <trkpt lat="47.34289" lon="-1.48103">
        <ele>6</ele>
        <time>2021-06-11T15:53:41Z</time>
      </trkpt>
      <trkpt lat="47.34227" lon="-1.48208">
        <ele>6</ele>
        <time>2021-06-11T15:53:57Z</time>
      </trkpt>
      <trkpt lat="47.34208" lon="-1.48239">
        <ele>5</ele>
        <time>2021-06-11T15:54:03Z</time>
      </trkpt>
      <trkpt lat="47.34079" lon="-1.48496">
        <ele>7</ele>
        <time>2021-06-11T15:54:41Z</time>
      </trkpt>
      <trkpt lat="47.34021" lon="-1.48612">
        <ele>6</ele>
        <time>2021-06-11T15:54:58Z</time>
      </trkpt>
      <trkpt lat="47.34018" lon="-1.4862">
        <ele>6</ele>
        <time>2021-06-11T15:55:00Z</time>
      </trkpt>
      <trkpt lat="47.33987" lon="-1.48676">
        <ele>8</ele>
        <time>2021-06-11T15:55:08Z</time>
      </trkpt>
      <trkpt lat="47.33795" lon="-1.48977">
        <ele>14</ele>
        <time>2021-06-11T15:55:58Z</time>
      </trkpt>
      <trkpt lat="47.33727" lon="-1.49055">
        <ele>14</ele>
        <time>2021-06-11T15:56:13Z</time>
      </trkpt>
      <trkpt lat="47.33704" lon="-1.49093">
        <ele>13</ele>
        <time>2021-06-11T15:56:20Z</time>
      </trkpt>
      <trkpt lat="47.337" lon="-1.49106">
        <ele>13</ele>
        <time>2021-06-11T15:56:21Z</time>
      </trkpt>
      <trkpt lat="47.33696" lon="-1.49141">
        <ele>12</ele>
        <time>2021-06-11T15:56:26Z</time>
      </trkpt>
      <trkpt lat="47.33692" lon="-1.49158">
        <ele>12</ele>
        <time>2021-06-11T15:56:28Z</time>
      </trkpt>
      <trkpt lat="47.33686" lon="-1.49174">
        <ele>12</ele>
        <time>2021-06-11T15:56:30Z</time>
      </trkpt>
      <trkpt lat="47.33671" lon="-1.49196">
        <ele>12</ele>
        <time>2021-06-11T15:56:34Z</time>
      </trkpt>
      <trkpt lat="47.3356" lon="-1.49336">
        <ele>10</ele>
        <time>2021-06-11T15:57:00Z</time>
      </trkpt>
      <trkpt lat="47.33557" lon="-1.4934">
        <ele>10</ele>
        <time>2021-06-11T15:57:00Z</time>
      </trkpt>
      <trkpt lat="47.33615" lon="-1.49468">
        <ele>9</ele>
        <time>2021-06-11T15:57:19Z</time>
      </trkpt>
      <trkpt lat="47.33624" lon="-1.49495">
        <ele>9</ele>
        <time>2021-06-11T15:57:23Z</time>
      </trkpt>
      <trkpt lat="47.33631" lon="-1.49522">
        <ele>9</ele>
        <time>2021-06-11T15:57:26Z</time>
      </trkpt>
      <trkpt lat="47.33638" lon="-1.49561">
        <ele>9</ele>
        <time>2021-06-11T15:57:31Z</time>
      </trkpt>
      <trkpt lat="47.3364" lon="-1.49581">
        <ele>9</ele>
        <time>2021-06-11T15:57:33Z</time>
      </trkpt>
      <trkpt lat="47.33639" lon="-1.49637">
        <ele>9</ele>
        <time>2021-06-11T15:57:40Z</time>
      </trkpt>
      <trkpt lat="47.33639" lon="-1.49666">
        <ele>9</ele>
        <time>2021-06-11T15:57:44Z</time>
      </trkpt>
      <trkpt lat="47.33652" lon="-1.49788">
        <ele>8</ele>
        <time>2021-06-11T15:57:59Z</time>
      </trkpt>
      <trkpt lat="47.3366" lon="-1.49837">
        <ele>9</ele>
        <time>2021-06-11T15:58:05Z</time>
      </trkpt>
      <trkpt lat="47.33665" lon="-1.49853">
        <ele>9</ele>
        <time>2021-06-11T15:58:07Z</time>
      </trkpt>
      <trkpt lat="47.33681" lon="-1.49886">
        <ele>10</ele>
        <time>2021-06-11T15:58:12Z</time>
      </trkpt>
      <trkpt lat="47.33717" lon="-1.49926">
        <ele>12</ele>
        <time>2021-06-11T15:58:20Z</time>
      </trkpt>
      <trkpt lat="47.33724" lon="-1.4994">
        <ele>13</ele>
        <time>2021-06-11T15:58:22Z</time>
      </trkpt>
      <trkpt lat="47.33739" lon="-1.49991">
        <ele>14</ele>
        <time>2021-06-11T15:58:28Z</time>
      </trkpt>
      <trkpt lat="47.33749" lon="-1.50043">
        <ele>15</ele>
        <time>2021-06-11T15:58:35Z</time>
      </trkpt>
      <trkpt lat="47.33753" lon="-1.50079">
        <ele>15</ele>
        <time>2021-06-11T15:58:39Z</time>
      </trkpt>
      <trkpt lat="47.33753" lon="-1.5011">
        <ele>15</ele>
        <time>2021-06-11T15:58:43Z</time>
      </trkpt>
      <trkpt lat="47.33756" lon="-1.50138">
        <ele>14</ele>
        <time>2021-06-11T15:58:47Z</time>
      </trkpt>
      <trkpt lat="47.33789" lon="-1.50362">
        <ele>11</ele>
        <time>2021-06-11T15:59:14Z</time>
      </trkpt>
      <trkpt lat="47.33791" lon="-1.50383">
        <ele>10</ele>
        <time>2021-06-11T15:59:17Z</time>
      </trkpt>
      <trkpt lat="47.33788" lon="-1.50405">
        <ele>10</ele>
        <time>2021-06-11T15:59:19Z</time>
      </trkpt>
      <trkpt lat="47.33754" lon="-1.50574">
        <ele>10</ele>
        <time>2021-06-11T15:59:41Z</time>
      </trkpt>
      <trkpt lat="47.33695" lon="-1.5089">
        <ele>13</ele>
        <time>2021-06-11T16:00:20Z</time>
      </trkpt>
      <trkpt lat="47.33654" lon="-1.51092">
        <ele>16</ele>
        <time>2021-06-11T16:00:46Z</time>
      </trkpt>
      <trkpt lat="47.33652" lon="-1.51117">
        <ele>16</ele>
        <time>2021-06-11T16:00:49Z</time>
      </trkpt>
      <trkpt lat="47.33651" lon="-1.51139">
        <ele>16</ele>
        <time>2021-06-11T16:00:51Z</time>
      </trkpt>
      <trkpt lat="47.3365" lon="-1.51184">
        <ele>16</ele>
        <time>2021-06-11T16:00:57Z</time>
      </trkpt>
      <trkpt lat="47.33651" lon="-1.51202">
        <ele>17</ele>
        <time>2021-06-11T16:00:59Z</time>
      </trkpt>
      <trkpt lat="47.33656" lon="-1.51273">
        <ele>18</ele>
        <time>2021-06-11T16:01:08Z</time>
      </trkpt>
      <trkpt lat="47.33669" lon="-1.51343">
        <ele>19</ele>
        <time>2021-06-11T16:01:16Z</time>
      </trkpt>
      <trkpt lat="47.3367" lon="-1.51351">
        <ele>19</ele>
        <time>2021-06-11T16:01:17Z</time>
      </trkpt>
      <trkpt lat="47.33682" lon="-1.51401">
        <ele>21</ele>
        <time>2021-06-11T16:01:24Z</time>
      </trkpt>
      <trkpt lat="47.33686" lon="-1.5142">
        <ele>21</ele>
        <time>2021-06-11T16:01:26Z</time>
      </trkpt>
      <trkpt lat="47.3369" lon="-1.5144">
        <ele>21</ele>
        <time>2021-06-11T16:01:29Z</time>
      </trkpt>
      <trkpt lat="47.33692" lon="-1.51479">
        <ele>22</ele>
        <time>2021-06-11T16:01:33Z</time>
      </trkpt>
      <trkpt lat="47.33695" lon="-1.51519">
        <ele>23</ele>
        <time>2021-06-11T16:01:38Z</time>
      </trkpt>
      <trkpt lat="47.33711" lon="-1.51588">
        <ele>23</ele>
        <time>2021-06-11T16:01:47Z</time>
      </trkpt>
      <trkpt lat="47.33716" lon="-1.51606">
        <ele>23</ele>
        <time>2021-06-11T16:01:49Z</time>
      </trkpt>
      <trkpt lat="47.33721" lon="-1.51624">
        <ele>24</ele>
        <time>2021-06-11T16:01:52Z</time>
      </trkpt>
      <trkpt lat="47.33732" lon="-1.51673">
        <ele>25</ele>
        <time>2021-06-11T16:01:58Z</time>
      </trkpt>
      <trkpt lat="47.33739" lon="-1.5175">
        <ele>26</ele>
        <time>2021-06-11T16:02:07Z</time>
      </trkpt>
      <trkpt lat="47.33741" lon="-1.51796">
        <ele>25</ele>
        <time>2021-06-11T16:02:13Z</time>
      </trkpt>
      <trkpt lat="47.33744" lon="-1.5188">
        <ele>24</ele>
        <time>2021-06-11T16:02:23Z</time>
      </trkpt>
      <trkpt lat="47.33745" lon="-1.51897">
        <ele>24</ele>
        <time>2021-06-11T16:02:25Z</time>
      </trkpt>
      <trkpt lat="47.33747" lon="-1.51949">
        <ele>24</ele>
        <time>2021-06-11T16:02:31Z</time>
      </trkpt>
      <trkpt lat="47.33757" lon="-1.52022">
        <ele>23</ele>
        <time>2021-06-11T16:02:40Z</time>
      </trkpt>
      <trkpt lat="47.33757" lon="-1.52042">
        <ele>23</ele>
        <time>2021-06-11T16:02:43Z</time>
      </trkpt>
      <trkpt lat="47.33759" lon="-1.52065">
        <ele>23</ele>
        <time>2021-06-11T16:02:45Z</time>
      </trkpt>
      <trkpt lat="47.33745" lon="-1.5221">
        <ele>20</ele>
        <time>2021-06-11T16:03:03Z</time>
      </trkpt>
      <trkpt lat="47.33732" lon="-1.52274">
        <ele>19</ele>
        <time>2021-06-11T16:03:11Z</time>
      </trkpt>
      <trkpt lat="47.33694" lon="-1.52472">
        <ele>11</ele>
        <time>2021-06-11T16:03:36Z</time>
      </trkpt>
      <trkpt lat="47.33698" lon="-1.52476">
        <ele>10</ele>
        <time>2021-06-11T16:03:37Z</time>
      </trkpt>
      <trkpt lat="47.33698" lon="-1.52482">
        <ele>10</ele>
        <time>2021-06-11T16:03:38Z</time>
      </trkpt>
      <trkpt lat="47.33707" lon="-1.52501">
        <ele>8</ele>
        <time>2021-06-11T16:03:40Z</time>
      </trkpt>
      <trkpt lat="47.33716" lon="-1.52511">
        <ele>7</ele>
        <time>2021-06-11T16:03:42Z</time>
      </trkpt>
      <trkpt lat="47.33725" lon="-1.52518">
        <ele>7</ele>
        <time>2021-06-11T16:03:44Z</time>
      </trkpt>
      <trkpt lat="47.33761" lon="-1.52532">
        <ele>6</ele>
        <time>2021-06-11T16:03:51Z</time>
      </trkpt>
      <trkpt lat="47.33791" lon="-1.52544">
        <ele>4</ele>
        <time>2021-06-11T16:03:56Z</time>
      </trkpt>
      <trkpt lat="47.33807" lon="-1.5255">
        <ele>4</ele>
        <time>2021-06-11T16:03:59Z</time>
      </trkpt>
      <trkpt lat="47.33928" lon="-1.52598">
        <ele>6</ele>
        <time>2021-06-11T16:04:22Z</time>
      </trkpt>
      <trkpt lat="47.33939" lon="-1.52603">
        <ele>7</ele>
        <time>2021-06-11T16:04:24Z</time>
      </trkpt>
      <trkpt lat="47.33953" lon="-1.52608">
        <ele>8</ele>
        <time>2021-06-11T16:04:26Z</time>
      </trkpt>
      <trkpt lat="47.33967" lon="-1.52614">
        <ele>9</ele>
        <time>2021-06-11T16:04:29Z</time>
      </trkpt>
      <trkpt lat="47.33978" lon="-1.52618">
        <ele>9</ele>
        <time>2021-06-11T16:04:31Z</time>
      </trkpt>
      <trkpt lat="47.34002" lon="-1.52628">
        <ele>11</ele>
        <time>2021-06-11T16:04:35Z</time>
      </trkpt>
      <trkpt lat="47.34008" lon="-1.5263">
        <ele>11</ele>
        <time>2021-06-11T16:04:36Z</time>
      </trkpt>
      <trkpt lat="47.3405" lon="-1.52646">
        <ele>14</ele>
        <time>2021-06-11T16:04:44Z</time>
      </trkpt>
      <trkpt lat="47.34058" lon="-1.5265">
        <ele>14</ele>
        <time>2021-06-11T16:04:46Z</time>
      </trkpt>
      <trkpt lat="47.3404" lon="-1.52728">
        <ele>12</ele>
        <time>2021-06-11T16:04:56Z</time>
      </trkpt>
      <trkpt lat="47.34029" lon="-1.52784">
        <ele>11</ele>
        <time>2021-06-11T16:05:03Z</time>
      </trkpt>
      <trkpt lat="47.34017" lon="-1.52813">
        <ele>11</ele>
        <time>2021-06-11T16:05:07Z</time>
      </trkpt>
      <trkpt lat="47.34009" lon="-1.52872">
        <ele>10</ele>
        <time>2021-06-11T16:05:14Z</time>
      </trkpt>
      <trkpt lat="47.34007" lon="-1.52892">
        <ele>10</ele>
        <time>2021-06-11T16:05:16Z</time>
      </trkpt>
      <trkpt lat="47.34006" lon="-1.52909">
        <ele>10</ele>
        <time>2021-06-11T16:05:18Z</time>
      </trkpt>
      <trkpt lat="47.33999" lon="-1.52959">
        <ele>10</ele>
        <time>2021-06-11T16:05:25Z</time>
      </trkpt>
      <trkpt lat="47.33988" lon="-1.53064">
        <ele>10</ele>
        <time>2021-06-11T16:05:37Z</time>
      </trkpt>
      <trkpt lat="47.33987" lon="-1.53071">
        <ele>10</ele>
        <time>2021-06-11T16:05:38Z</time>
      </trkpt>
      <trkpt lat="47.33991" lon="-1.53082">
        <ele>10</ele>
        <time>2021-06-11T16:05:40Z</time>
      </trkpt>
      <trkpt lat="47.33993" lon="-1.53094">
        <ele>10</ele>
        <time>2021-06-11T16:05:41Z</time>
      </trkpt>
      <trkpt lat="47.33994" lon="-1.531">
        <ele>10</ele>
        <time>2021-06-11T16:05:42Z</time>
      </trkpt>
      <trkpt lat="47.33994" lon="-1.53101">
        <ele>10</ele>
        <time>2021-06-11T16:05:42Z</time>
      </trkpt>
      <trkpt lat="47.33997" lon="-1.53103">
        <ele>10</ele>
        <time>2021-06-11T16:05:43Z</time>
      </trkpt>
      <trkpt lat="47.33998" lon="-1.53106">
        <ele>10</ele>
        <time>2021-06-11T16:05:43Z</time>
      </trkpt>
      <trkpt lat="47.33999" lon="-1.5311">
        <ele>11</ele>
        <time>2021-06-11T16:05:44Z</time>
      </trkpt>
      <trkpt lat="47.34" lon="-1.53113">
        <ele>11</ele>
        <time>2021-06-11T16:05:44Z</time>
      </trkpt>
      <trkpt lat="47.33999" lon="-1.53118">
        <ele>11</ele>
        <time>2021-06-11T16:05:45Z</time>
      </trkpt>
      <trkpt lat="47.33998" lon="-1.53123">
        <ele>11</ele>
        <time>2021-06-11T16:05:45Z</time>
      </trkpt>
      <trkpt lat="47.33994" lon="-1.5313">
        <ele>11</ele>
        <time>2021-06-11T16:05:46Z</time>
      </trkpt>
      <trkpt lat="47.3399" lon="-1.53131">
        <ele>11</ele>
        <time>2021-06-11T16:05:47Z</time>
      </trkpt>
      <trkpt lat="47.3399" lon="-1.53147">
        <ele>11</ele>
        <time>2021-06-11T16:05:49Z</time>
      </trkpt>
      <trkpt lat="47.33982" lon="-1.53167">
        <ele>12</ele>
        <time>2021-06-11T16:05:52Z</time>
      </trkpt>
      <trkpt lat="47.33963" lon="-1.53194">
        <ele>12</ele>
        <time>2021-06-11T16:05:56Z</time>
      </trkpt>
      <trkpt lat="47.33956" lon="-1.53199">
        <ele>12</ele>
        <time>2021-06-11T16:05:58Z</time>
      </trkpt>
      <trkpt lat="47.33955" lon="-1.532">
        <ele>12</ele>
        <time>2021-06-11T16:05:58Z</time>
      </trkpt>
      <trkpt lat="47.33958" lon="-1.53206">
        <ele>13</ele>
        <time>2021-06-11T16:05:59Z</time>
      </trkpt>
      <trkpt lat="47.33959" lon="-1.53215">
        <ele>13</ele>
        <time>2021-06-11T16:06:00Z</time>
      </trkpt>
      <trkpt lat="47.33956" lon="-1.53226">
        <ele>13</ele>
        <time>2021-06-11T16:06:02Z</time>
      </trkpt>
      <trkpt lat="47.33901" lon="-1.53362">
        <ele>19</ele>
        <time>2021-06-11T16:06:21Z</time>
      </trkpt>
      <trkpt lat="47.33897" lon="-1.53376">
        <ele>19</ele>
        <time>2021-06-11T16:06:22Z</time>
      </trkpt>
      <trkpt lat="47.33896" lon="-1.53398">
        <ele>20</ele>
        <time>2021-06-11T16:06:25Z</time>
      </trkpt>
      <trkpt lat="47.33899" lon="-1.53417">
        <ele>20</ele>
        <time>2021-06-11T16:06:27Z</time>
      </trkpt>
      <trkpt lat="47.33902" lon="-1.53424">
        <ele>21</ele>
        <time>2021-06-11T16:06:28Z</time>
      </trkpt>
      <trkpt lat="47.33907" lon="-1.53437">
        <ele>21</ele>
        <time>2021-06-11T16:06:30Z</time>
      </trkpt>
      <trkpt lat="47.33914" lon="-1.53459">
        <ele>22</ele>
        <time>2021-06-11T16:06:33Z</time>
      </trkpt>
      <trkpt lat="47.33915" lon="-1.5347">
        <ele>23</ele>
        <time>2021-06-11T16:06:35Z</time>
      </trkpt>
      <trkpt lat="47.33913" lon="-1.53544">
        <ele>24</ele>
        <time>2021-06-11T16:06:43Z</time>
      </trkpt>
      <trkpt lat="47.33916" lon="-1.53561">
        <ele>25</ele>
        <time>2021-06-11T16:06:46Z</time>
      </trkpt>
      <trkpt lat="47.33923" lon="-1.5358">
        <ele>25</ele>
        <time>2021-06-11T16:06:48Z</time>
      </trkpt>
      <trkpt lat="47.33939" lon="-1.53603">
        <ele>26</ele>
        <time>2021-06-11T16:06:52Z</time>
      </trkpt>
      <trkpt lat="47.33968" lon="-1.53635">
        <ele>28</ele>
        <time>2021-06-11T16:06:59Z</time>
      </trkpt>
      <trkpt lat="47.34005" lon="-1.5367">
        <ele>31</ele>
        <time>2021-06-11T16:07:06Z</time>
      </trkpt>
      <trkpt lat="47.34039" lon="-1.53705">
        <ele>31</ele>
        <time>2021-06-11T16:07:14Z</time>
      </trkpt>
      <trkpt lat="47.34056" lon="-1.53723">
        <ele>31</ele>
        <time>2021-06-11T16:07:18Z</time>
      </trkpt>
      <trkpt lat="47.34068" lon="-1.53736">
        <ele>32</ele>
        <time>2021-06-11T16:07:20Z</time>
      </trkpt>
      <trkpt lat="47.34076" lon="-1.53744">
        <ele>32</ele>
        <time>2021-06-11T16:07:22Z</time>
      </trkpt>
      <trkpt lat="47.34158" lon="-1.53832">
        <ele>32</ele>
        <time>2021-06-11T16:07:40Z</time>
      </trkpt>
      <trkpt lat="47.3421" lon="-1.53886">
        <ele>31</ele>
        <time>2021-06-11T16:07:51Z</time>
      </trkpt>
      <trkpt lat="47.34235" lon="-1.53922">
        <ele>31</ele>
        <time>2021-06-11T16:07:57Z</time>
      </trkpt>
      <trkpt lat="47.34243" lon="-1.5393">
        <ele>31</ele>
        <time>2021-06-11T16:07:59Z</time>
      </trkpt>
      <trkpt lat="47.34254" lon="-1.53948">
        <ele>31</ele>
        <time>2021-06-11T16:08:02Z</time>
      </trkpt>
      <trkpt lat="47.34263" lon="-1.53959">
        <ele>31</ele>
        <time>2021-06-11T16:08:04Z</time>
      </trkpt>
      <trkpt lat="47.34265" lon="-1.5396">
        <ele>31</ele>
        <time>2021-06-11T16:08:05Z</time>
      </trkpt>
      <trkpt lat="47.34267" lon="-1.5396">
        <ele>31</ele>
        <time>2021-06-11T16:08:05Z</time>
      </trkpt>
      <trkpt lat="47.34268" lon="-1.53961">
        <ele>31</ele>
        <time>2021-06-11T16:08:05Z</time>
      </trkpt>
      <trkpt lat="47.34272" lon="-1.5397">
        <ele>31</ele>
        <time>2021-06-11T16:08:06Z</time>
      </trkpt>
      <trkpt lat="47.34272" lon="-1.53972">
        <ele>31</ele>
        <time>2021-06-11T16:08:07Z</time>
      </trkpt>
      <trkpt lat="47.34272" lon="-1.53974">
        <ele>31</ele>
        <time>2021-06-11T16:08:07Z</time>
      </trkpt>
      <trkpt lat="47.34272" lon="-1.53977">
        <ele>31</ele>
        <time>2021-06-11T16:08:07Z</time>
      </trkpt>
      <trkpt lat="47.34272" lon="-1.53979">
        <ele>31</ele>
        <time>2021-06-11T16:08:08Z</time>
      </trkpt>
      <trkpt lat="47.34272" lon="-1.53989">
        <ele>31</ele>
        <time>2021-06-11T16:08:09Z</time>
      </trkpt>
      <trkpt lat="47.34275" lon="-1.54012">
        <ele>31</ele>
        <time>2021-06-11T16:08:12Z</time>
      </trkpt>
      <trkpt lat="47.34277" lon="-1.5403">
        <ele>31</ele>
        <time>2021-06-11T16:08:14Z</time>
      </trkpt>
      <trkpt lat="47.34296" lon="-1.54143">
        <ele>33</ele>
        <time>2021-06-11T16:08:28Z</time>
      </trkpt>
      <trkpt lat="47.34311" lon="-1.54192">
        <ele>35</ele>
        <time>2021-06-11T16:08:34Z</time>
      </trkpt>
      <trkpt lat="47.34312" lon="-1.54194">
        <ele>35</ele>
        <time>2021-06-11T16:08:35Z</time>
      </trkpt>
      <trkpt lat="47.3433" lon="-1.54235">
        <ele>36</ele>
        <time>2021-06-11T16:08:40Z</time>
      </trkpt>
      <trkpt lat="47.3435" lon="-1.54286">
        <ele>35</ele>
        <time>2021-06-11T16:08:48Z</time>
      </trkpt>
      <trkpt lat="47.34364" lon="-1.54321">
        <ele>35</ele>
        <time>2021-06-11T16:08:52Z</time>
      </trkpt>
      <trkpt lat="47.3439" lon="-1.54407">
        <ele>33</ele>
        <time>2021-06-11T16:09:04Z</time>
      </trkpt>
      <trkpt lat="47.34422" lon="-1.54569">
        <ele>31</ele>
        <time>2021-06-11T16:09:24Z</time>
      </trkpt>
      <trkpt lat="47.34428" lon="-1.54613">
        <ele>29</ele>
        <time>2021-06-11T16:09:30Z</time>
      </trkpt>
      <trkpt lat="47.34427" lon="-1.54627">
        <ele>29</ele>
        <time>2021-06-11T16:09:31Z</time>
      </trkpt>
      <trkpt lat="47.34425" lon="-1.54637">
        <ele>28</ele>
        <time>2021-06-11T16:09:33Z</time>
      </trkpt>
      <trkpt lat="47.34417" lon="-1.54661">
        <ele>27</ele>
        <time>2021-06-11T16:09:36Z</time>
      </trkpt>
      <trkpt lat="47.34374" lon="-1.54706">
        <ele>25</ele>
        <time>2021-06-11T16:09:45Z</time>
      </trkpt>
      <trkpt lat="47.34358" lon="-1.54733">
        <ele>24</ele>
        <time>2021-06-11T16:09:49Z</time>
      </trkpt>
      <trkpt lat="47.3435" lon="-1.54754">
        <ele>24</ele>
        <time>2021-06-11T16:09:52Z</time>
      </trkpt>
      <trkpt lat="47.34346" lon="-1.54786">
        <ele>23</ele>
        <time>2021-06-11T16:09:56Z</time>
      </trkpt>
      <trkpt lat="47.34339" lon="-1.54861">
        <ele>21</ele>
        <time>2021-06-11T16:10:05Z</time>
      </trkpt>
      <trkpt lat="47.34339" lon="-1.54862">
        <ele>21</ele>
        <time>2021-06-11T16:10:06Z</time>
      </trkpt>
      <trkpt lat="47.34326" lon="-1.55003">
        <ele>15</ele>
        <time>2021-06-11T16:10:23Z</time>
      </trkpt>
      <trkpt lat="47.34323" lon="-1.55029">
        <ele>13</ele>
        <time>2021-06-11T16:10:26Z</time>
      </trkpt>
      <trkpt lat="47.34319" lon="-1.55075">
        <ele>11</ele>
        <time>2021-06-11T16:10:31Z</time>
      </trkpt>
      <trkpt lat="47.34316" lon="-1.55117">
        <ele>11</ele>
        <time>2021-06-11T16:10:37Z</time>
      </trkpt>
      <trkpt lat="47.3431" lon="-1.5518">
        <ele>12</ele>
        <time>2021-06-11T16:10:44Z</time>
      </trkpt>
      <trkpt lat="47.343" lon="-1.55224">
        <ele>13</ele>
        <time>2021-06-11T16:10:50Z</time>
      </trkpt>
      <trkpt lat="47.34295" lon="-1.55238">
        <ele>14</ele>
        <time>2021-06-11T16:10:52Z</time>
      </trkpt>
      <trkpt lat="47.34286" lon="-1.55258">
        <ele>14</ele>
        <time>2021-06-11T16:10:55Z</time>
      </trkpt>
      <trkpt lat="47.34203" lon="-1.55383">
        <ele>17</ele>
        <time>2021-06-11T16:11:16Z</time>
      </trkpt>
      <trkpt lat="47.34156" lon="-1.55454">
        <ele>16</ele>
        <time>2021-06-11T16:11:28Z</time>
      </trkpt>
      <trkpt lat="47.34121" lon="-1.55512">
        <ele>15</ele>
        <time>2021-06-11T16:11:37Z</time>
      </trkpt>
      <trkpt lat="47.34107" lon="-1.55543">
        <ele>15</ele>
        <time>2021-06-11T16:11:42Z</time>
      </trkpt>
      <trkpt lat="47.34098" lon="-1.55566">
        <ele>15</ele>
        <time>2021-06-11T16:11:45Z</time>
      </trkpt>
      <trkpt lat="47.34083" lon="-1.55618">
        <ele>16</ele>
        <time>2021-06-11T16:11:52Z</time>
      </trkpt>
      <trkpt lat="47.34059" lon="-1.55729">
        <ele>16</ele>
        <time>2021-06-11T16:12:06Z</time>
      </trkpt>
      <trkpt lat="47.34054" lon="-1.55766">
        <ele>15</ele>
        <time>2021-06-11T16:12:10Z</time>
      </trkpt>
      <trkpt lat="47.34053" lon="-1.55796">
        <ele>14</ele>
        <time>2021-06-11T16:12:14Z</time>
      </trkpt>
      <trkpt lat="47.34057" lon="-1.5584">
        <ele>13</ele>
        <time>2021-06-11T16:12:19Z</time>
      </trkpt>
      <trkpt lat="47.34066" lon="-1.55884">
        <ele>13</ele>
        <time>2021-06-11T16:12:25Z</time>
      </trkpt>
      <trkpt lat="47.34067" lon="-1.55901">
        <ele>13</ele>
        <time>2021-06-11T16:12:27Z</time>
      </trkpt>
      <trkpt lat="47.34064" lon="-1.5592">
        <ele>13</ele>
        <time>2021-06-11T16:12:29Z</time>
      </trkpt>
      <trkpt lat="47.34056" lon="-1.55935">
        <ele>12</ele>
        <time>2021-06-11T16:12:31Z</time>
      </trkpt>
      <trkpt lat="47.34051" lon="-1.55942">
        <ele>12</ele>
        <time>2021-06-11T16:12:33Z</time>
      </trkpt>
      <trkpt lat="47.34045" lon="-1.55948">
        <ele>11</ele>
        <time>2021-06-11T16:12:34Z</time>
      </trkpt>
      <trkpt lat="47.34017" lon="-1.55983">
        <ele>11</ele>
        <time>2021-06-11T16:12:40Z</time>
      </trkpt>
      <trkpt lat="47.33992" lon="-1.56019">
        <ele>13</ele>
        <time>2021-06-11T16:12:47Z</time>
      </trkpt>
      <trkpt lat="47.33984" lon="-1.56045">
        <ele>15</ele>
        <time>2021-06-11T16:12:50Z</time>
      </trkpt>
      <trkpt lat="47.33982" lon="-1.56058">
        <ele>15</ele>
        <time>2021-06-11T16:12:52Z</time>
      </trkpt>
      <trkpt lat="47.33982" lon="-1.56074">
        <ele>16</ele>
        <time>2021-06-11T16:12:54Z</time>
      </trkpt>
      <trkpt lat="47.33987" lon="-1.56121">
        <ele>18</ele>
        <time>2021-06-11T16:12:59Z</time>
      </trkpt>
      <trkpt lat="47.34016" lon="-1.56328">
        <ele>25</ele>
        <time>2021-06-11T16:13:25Z</time>
      </trkpt>
      <trkpt lat="47.3402" lon="-1.56371">
        <ele>24</ele>
        <time>2021-06-11T16:13:30Z</time>
      </trkpt>
      <trkpt lat="47.34018" lon="-1.56435">
        <ele>23</ele>
        <time>2021-06-11T16:13:38Z</time>
      </trkpt>
      <trkpt lat="47.34012" lon="-1.56584">
        <ele>24</ele>
        <time>2021-06-11T16:13:56Z</time>
      </trkpt>
      <trkpt lat="47.34006" lon="-1.56727">
        <ele>27</ele>
        <time>2021-06-11T16:14:13Z</time>
      </trkpt>
      <trkpt lat="47.33999" lon="-1.56874">
        <ele>26</ele>
        <time>2021-06-11T16:14:31Z</time>
      </trkpt>
      <trkpt lat="47.33994" lon="-1.5699">
        <ele>30</ele>
        <time>2021-06-11T16:14:45Z</time>
      </trkpt>
      <trkpt lat="47.33993" lon="-1.57008">
        <ele>30</ele>
        <time>2021-06-11T16:14:47Z</time>
      </trkpt>
      <trkpt lat="47.33992" lon="-1.57022">
        <ele>30</ele>
        <time>2021-06-11T16:14:49Z</time>
      </trkpt>
      <trkpt lat="47.33994" lon="-1.57126">
        <ele>31</ele>
        <time>2021-06-11T16:15:01Z</time>
      </trkpt>
      <trkpt lat="47.33992" lon="-1.57167">
        <ele>31</ele>
        <time>2021-06-11T16:15:06Z</time>
      </trkpt>
      <trkpt lat="47.3399" lon="-1.57205">
        <ele>32</ele>
        <time>2021-06-11T16:15:11Z</time>
      </trkpt>
      <trkpt lat="47.33987" lon="-1.57245">
        <ele>32</ele>
        <time>2021-06-11T16:15:16Z</time>
      </trkpt>
      <trkpt lat="47.33983" lon="-1.57291">
        <ele>34</ele>
        <time>2021-06-11T16:15:21Z</time>
      </trkpt>
      <trkpt lat="47.33979" lon="-1.57318">
        <ele>35</ele>
        <time>2021-06-11T16:15:25Z</time>
      </trkpt>
      <trkpt lat="47.33977" lon="-1.5733">
        <ele>35</ele>
        <time>2021-06-11T16:15:26Z</time>
      </trkpt>
      <trkpt lat="47.3397" lon="-1.57357">
        <ele>36</ele>
        <time>2021-06-11T16:15:30Z</time>
      </trkpt>
      <trkpt lat="47.33958" lon="-1.57402">
        <ele>37</ele>
        <time>2021-06-11T16:15:35Z</time>
      </trkpt>
      <trkpt lat="47.33902" lon="-1.57592">
        <ele>41</ele>
        <time>2021-06-11T16:16:00Z</time>
      </trkpt>
      <trkpt lat="47.3384" lon="-1.57811">
        <ele>39</ele>
        <time>2021-06-11T16:16:29Z</time>
      </trkpt>
      <trkpt lat="47.33861" lon="-1.57842">
        <ele>39</ele>
        <time>2021-06-11T16:16:34Z</time>
      </trkpt>
      <trkpt lat="47.33864" lon="-1.5785">
        <ele>38</ele>
        <time>2021-06-11T16:16:35Z</time>
      </trkpt>
      <trkpt lat="47.34003" lon="-1.58042">
        <ele>36</ele>
        <time>2021-06-11T16:17:09Z</time>
      </trkpt>
      <trkpt lat="47.34319" lon="-1.58475">
        <ele>45</ele>
        <time>2021-06-11T16:18:26Z</time>
      </trkpt>
      <trkpt lat="47.34424" lon="-1.58611">
        <ele>43</ele>
        <time>2021-06-11T16:18:51Z</time>
      </trkpt>
      <trkpt lat="47.34504" lon="-1.58731">
        <ele>40</ele>
        <time>2021-06-11T16:19:11Z</time>
      </trkpt>
      <trkpt lat="47.3477" lon="-1.59053">
        <ele>41</ele>
        <time>2021-06-11T16:20:12Z</time>
      </trkpt>
      <trkpt lat="47.34825" lon="-1.59125">
        <ele>40</ele>
        <time>2021-06-11T16:20:25Z</time>
      </trkpt>
      <trkpt lat="47.35322" lon="-1.59729">
        <ele>37</ele>
        <time>2021-06-11T16:22:20Z</time>
      </trkpt>
      <trkpt lat="47.35337" lon="-1.59742">
        <ele>38</ele>
        <time>2021-06-11T16:22:23Z</time>
      </trkpt>
      <trkpt lat="47.35369" lon="-1.5976">
        <ele>39</ele>
        <time>2021-06-11T16:22:29Z</time>
      </trkpt>
      <trkpt lat="47.35574" lon="-1.59828">
        <ele>42</ele>
        <time>2021-06-11T16:23:07Z</time>
      </trkpt>
      <trkpt lat="47.35686" lon="-1.59868">
        <ele>44</ele>
        <time>2021-06-11T16:23:27Z</time>
      </trkpt>
      <trkpt lat="47.35718" lon="-1.59874">
        <ele>44</ele>
        <time>2021-06-11T16:23:33Z</time>
      </trkpt>
      <trkpt lat="47.35719" lon="-1.5987">
        <ele>44</ele>
        <time>2021-06-11T16:23:33Z</time>
      </trkpt>
      <trkpt lat="47.35723" lon="-1.59865">
        <ele>44</ele>
        <time>2021-06-11T16:23:34Z</time>
      </trkpt>
      <trkpt lat="47.35728" lon="-1.59864">
        <ele>44</ele>
        <time>2021-06-11T16:23:35Z</time>
      </trkpt>
      <trkpt lat="47.35732" lon="-1.59866">
        <ele>44</ele>
        <time>2021-06-11T16:23:36Z</time>
      </trkpt>
      <trkpt lat="47.35736" lon="-1.59871">
        <ele>44</ele>
        <time>2021-06-11T16:23:37Z</time>
      </trkpt>
      <trkpt lat="47.35738" lon="-1.59881">
        <ele>44</ele>
        <time>2021-06-11T16:23:38Z</time>
      </trkpt>
      <trkpt lat="47.35843" lon="-1.59926">
        <ele>46</ele>
        <time>2021-06-11T16:23:58Z</time>
      </trkpt>
      <trkpt lat="47.35848" lon="-1.59918">
        <ele>46</ele>
        <time>2021-06-11T16:23:59Z</time>
      </trkpt>
      <trkpt lat="47.35852" lon="-1.59917">
        <ele>46</ele>
        <time>2021-06-11T16:24:00Z</time>
      </trkpt>
      <trkpt lat="47.35855" lon="-1.59919">
        <ele>47</ele>
        <time>2021-06-11T16:24:00Z</time>
      </trkpt>
      <trkpt lat="47.35859" lon="-1.59927">
        <ele>47</ele>
        <time>2021-06-11T16:24:01Z</time>
      </trkpt>
      <trkpt lat="47.35859" lon="-1.59933">
        <ele>47</ele>
        <time>2021-06-11T16:24:02Z</time>
      </trkpt>
      <trkpt lat="47.35864" lon="-1.59936">
        <ele>47</ele>
        <time>2021-06-11T16:24:03Z</time>
      </trkpt>
      <trkpt lat="47.35933" lon="-1.59965">
        <ele>48</ele>
        <time>2021-06-11T16:24:16Z</time>
      </trkpt>
      <trkpt lat="47.35966" lon="-1.59975">
        <ele>49</ele>
        <time>2021-06-11T16:24:22Z</time>
      </trkpt>
      <trkpt lat="47.35993" lon="-1.59978">
        <ele>49</ele>
        <time>2021-06-11T16:24:27Z</time>
      </trkpt>
      <trkpt lat="47.36092" lon="-1.59978">
        <ele>49</ele>
        <time>2021-06-11T16:24:44Z</time>
      </trkpt>
      <trkpt lat="47.36147" lon="-1.59981">
        <ele>47</ele>
        <time>2021-06-11T16:24:54Z</time>
      </trkpt>
      <trkpt lat="47.36171" lon="-1.59989">
        <ele>47</ele>
        <time>2021-06-11T16:24:58Z</time>
      </trkpt>
      <trkpt lat="47.36196" lon="-1.60001">
        <ele>46</ele>
        <time>2021-06-11T16:25:03Z</time>
      </trkpt>
      <trkpt lat="47.36237" lon="-1.60032">
        <ele>45</ele>
        <time>2021-06-11T16:25:11Z</time>
      </trkpt>
      <trkpt lat="47.36258" lon="-1.60057">
        <ele>44</ele>
        <time>2021-06-11T16:25:16Z</time>
      </trkpt>
      <trkpt lat="47.36279" lon="-1.60086">
        <ele>44</ele>
        <time>2021-06-11T16:25:21Z</time>
      </trkpt>
      <trkpt lat="47.36296" lon="-1.60119">
        <ele>43</ele>
        <time>2021-06-11T16:25:26Z</time>
      </trkpt>
      <trkpt lat="47.36306" lon="-1.60141">
        <ele>42</ele>
        <time>2021-06-11T16:25:29Z</time>
      </trkpt>
      <trkpt lat="47.36309" lon="-1.6014">
        <ele>42</ele>
        <time>2021-06-11T16:25:30Z</time>
      </trkpt>
      <trkpt lat="47.36315" lon="-1.60142">
        <ele>42</ele>
        <time>2021-06-11T16:25:31Z</time>
      </trkpt>
      <trkpt lat="47.36319" lon="-1.6015">
        <ele>42</ele>
        <time>2021-06-11T16:25:32Z</time>
      </trkpt>
      <trkpt lat="47.36319" lon="-1.6016">
        <ele>42</ele>
        <time>2021-06-11T16:25:33Z</time>
      </trkpt>
      <trkpt lat="47.36316" lon="-1.60166">
        <ele>42</ele>
        <time>2021-06-11T16:25:34Z</time>
      </trkpt>
      <trkpt lat="47.36323" lon="-1.60177">
        <ele>41</ele>
        <time>2021-06-11T16:25:36Z</time>
      </trkpt>
      <trkpt lat="47.36348" lon="-1.60227">
        <ele>40</ele>
        <time>2021-06-11T16:25:44Z</time>
      </trkpt>
      <trkpt lat="47.36465" lon="-1.60481">
        <ele>35</ele>
        <time>2021-06-11T16:26:21Z</time>
      </trkpt>
      <trkpt lat="47.36483" lon="-1.60509">
        <ele>35</ele>
        <time>2021-06-11T16:26:25Z</time>
      </trkpt>
      <trkpt lat="47.36487" lon="-1.6052">
        <ele>35</ele>
        <time>2021-06-11T16:26:27Z</time>
      </trkpt>
      <trkpt lat="47.36489" lon="-1.60538">
        <ele>34</ele>
        <time>2021-06-11T16:26:29Z</time>
      </trkpt>
      <trkpt lat="47.36494" lon="-1.60593">
        <ele>33</ele>
        <time>2021-06-11T16:26:36Z</time>
      </trkpt>
      <trkpt lat="47.36486" lon="-1.60602">
        <ele>33</ele>
        <time>2021-06-11T16:26:37Z</time>
      </trkpt>
      <trkpt lat="47.36487" lon="-1.60609">
        <ele>33</ele>
        <time>2021-06-11T16:26:38Z</time>
      </trkpt>
      <trkpt lat="47.36489" lon="-1.60659">
        <ele>32</ele>
        <time>2021-06-11T16:26:44Z</time>
      </trkpt>
      <trkpt lat="47.36488" lon="-1.60676">
        <ele>32</ele>
        <time>2021-06-11T16:26:46Z</time>
      </trkpt>
      <trkpt lat="47.36485" lon="-1.60695">
        <ele>31</ele>
        <time>2021-06-11T16:26:49Z</time>
      </trkpt>
      <trkpt lat="47.36469" lon="-1.60771">
        <ele>29</ele>
        <time>2021-06-11T16:26:58Z</time>
      </trkpt>
      <trkpt lat="47.36464" lon="-1.608">
        <ele>29</ele>
        <time>2021-06-11T16:27:02Z</time>
      </trkpt>
      <trkpt lat="47.36464" lon="-1.6081">
        <ele>28</ele>
        <time>2021-06-11T16:27:03Z</time>
      </trkpt>
      <trkpt lat="47.36463" lon="-1.60819">
        <ele>28</ele>
        <time>2021-06-11T16:27:04Z</time>
      </trkpt>
      <trkpt lat="47.36466" lon="-1.60839">
        <ele>28</ele>
        <time>2021-06-11T16:27:07Z</time>
      </trkpt>
      <trkpt lat="47.3647" lon="-1.60915">
        <ele>29</ele>
        <time>2021-06-11T16:27:16Z</time>
      </trkpt>
      <trkpt lat="47.36472" lon="-1.60944">
        <ele>28</ele>
        <time>2021-06-11T16:27:19Z</time>
      </trkpt>
      <trkpt lat="47.36472" lon="-1.60964">
        <ele>28</ele>
        <time>2021-06-11T16:27:22Z</time>
      </trkpt>
      <trkpt lat="47.36471" lon="-1.61045">
        <ele>29</ele>
        <time>2021-06-11T16:27:32Z</time>
      </trkpt>
      <trkpt lat="47.36469" lon="-1.61113">
        <ele>31</ele>
        <time>2021-06-11T16:27:40Z</time>
      </trkpt>
      <trkpt lat="47.36464" lon="-1.61199">
        <ele>34</ele>
        <time>2021-06-11T16:27:50Z</time>
      </trkpt>
      <trkpt lat="47.36464" lon="-1.61229">
        <ele>35</ele>
        <time>2021-06-11T16:27:54Z</time>
      </trkpt>
      <trkpt lat="47.36465" lon="-1.61253">
        <ele>36</ele>
        <time>2021-06-11T16:27:57Z</time>
      </trkpt>
      <trkpt lat="47.36469" lon="-1.61344">
        <ele>39</ele>
        <time>2021-06-11T16:28:08Z</time>
      </trkpt>
      <trkpt lat="47.36474" lon="-1.61399">
        <ele>38</ele>
        <time>2021-06-11T16:28:14Z</time>
      </trkpt>
      <trkpt lat="47.36499" lon="-1.61524">
        <ele>39</ele>
        <time>2021-06-11T16:28:30Z</time>
      </trkpt>
      <trkpt lat="47.36506" lon="-1.61548">
        <ele>39</ele>
        <time>2021-06-11T16:28:33Z</time>
      </trkpt>
      <trkpt lat="47.36518" lon="-1.61573">
        <ele>39</ele>
        <time>2021-06-11T16:28:37Z</time>
      </trkpt>
      <trkpt lat="47.36529" lon="-1.61595">
        <ele>39</ele>
        <time>2021-06-11T16:28:40Z</time>
      </trkpt>
      <trkpt lat="47.36533" lon="-1.61606">
        <ele>39</ele>
        <time>2021-06-11T16:28:42Z</time>
      </trkpt>
      <trkpt lat="47.36543" lon="-1.61632">
        <ele>38</ele>
        <time>2021-06-11T16:28:45Z</time>
      </trkpt>
      <trkpt lat="47.36551" lon="-1.61659">
        <ele>38</ele>
        <time>2021-06-11T16:28:49Z</time>
      </trkpt>
      <trkpt lat="47.36558" lon="-1.6169">
        <ele>37</ele>
        <time>2021-06-11T16:28:53Z</time>
      </trkpt>
      <trkpt lat="47.36564" lon="-1.61728">
        <ele>36</ele>
        <time>2021-06-11T16:28:58Z</time>
      </trkpt>
      <trkpt lat="47.36567" lon="-1.61768">
        <ele>36</ele>
        <time>2021-06-11T16:29:02Z</time>
      </trkpt>
      <trkpt lat="47.36571" lon="-1.61866">
        <ele>37</ele>
        <time>2021-06-11T16:29:14Z</time>
      </trkpt>
      <trkpt lat="47.36568" lon="-1.61901">
        <ele>36</ele>
        <time>2021-06-11T16:29:19Z</time>
      </trkpt>
      <trkpt lat="47.36558" lon="-1.61941">
        <ele>36</ele>
        <time>2021-06-11T16:29:24Z</time>
      </trkpt>
      <trkpt lat="47.36538" lon="-1.62027">
        <ele>36</ele>
        <time>2021-06-11T16:29:35Z</time>
      </trkpt>
      <trkpt lat="47.36527" lon="-1.62114">
        <ele>36</ele>
        <time>2021-06-11T16:29:45Z</time>
      </trkpt>
      <trkpt lat="47.36518" lon="-1.62149">
        <ele>37</ele>
        <time>2021-06-11T16:29:50Z</time>
      </trkpt>
      <trkpt lat="47.3651" lon="-1.62174">
        <ele>37</ele>
        <time>2021-06-11T16:29:53Z</time>
      </trkpt>
      <trkpt lat="47.36499" lon="-1.62198">
        <ele>37</ele>
        <time>2021-06-11T16:29:57Z</time>
      </trkpt>
      <trkpt lat="47.36477" lon="-1.62243">
        <ele>38</ele>
        <time>2021-06-11T16:30:03Z</time>
      </trkpt>
      <trkpt lat="47.36445" lon="-1.62314">
        <ele>40</ele>
        <time>2021-06-11T16:30:14Z</time>
      </trkpt>
      <trkpt lat="47.36429" lon="-1.62361">
        <ele>41</ele>
        <time>2021-06-11T16:30:20Z</time>
      </trkpt>
      <trkpt lat="47.36404" lon="-1.62444">
        <ele>41</ele>
        <time>2021-06-11T16:30:31Z</time>
      </trkpt>
      <trkpt lat="47.36384" lon="-1.62504">
        <ele>43</ele>
        <time>2021-06-11T16:30:39Z</time>
      </trkpt>
      <trkpt lat="47.36363" lon="-1.62549">
        <ele>45</ele>
        <time>2021-06-11T16:30:46Z</time>
      </trkpt>
      <trkpt lat="47.3634" lon="-1.62593">
        <ele>46</ele>
        <time>2021-06-11T16:30:52Z</time>
      </trkpt>
      <trkpt lat="47.36309" lon="-1.62644">
        <ele>48</ele>
        <time>2021-06-11T16:31:00Z</time>
      </trkpt>
      <trkpt lat="47.36295" lon="-1.62668">
        <ele>48</ele>
        <time>2021-06-11T16:31:04Z</time>
      </trkpt>
      <trkpt lat="47.36285" lon="-1.62684">
        <ele>48</ele>
        <time>2021-06-11T16:31:07Z</time>
      </trkpt>
      <trkpt lat="47.3623" lon="-1.62771">
        <ele>50</ele>
        <time>2021-06-11T16:31:21Z</time>
      </trkpt>
      <trkpt lat="47.36158" lon="-1.62891">
        <ele>50</ele>
        <time>2021-06-11T16:31:41Z</time>
      </trkpt>
      <trkpt lat="47.36152" lon="-1.62904">
        <ele>50</ele>
        <time>2021-06-11T16:31:42Z</time>
      </trkpt>
      <trkpt lat="47.36132" lon="-1.6294">
        <ele>51</ele>
        <time>2021-06-11T16:31:48Z</time>
      </trkpt>
      <trkpt lat="47.36114" lon="-1.6297">
        <ele>51</ele>
        <time>2021-06-11T16:31:53Z</time>
      </trkpt>
      <trkpt lat="47.36062" lon="-1.63064">
        <ele>52</ele>
        <time>2021-06-11T16:32:08Z</time>
      </trkpt>
      <trkpt lat="47.36033" lon="-1.63125">
        <ele>53</ele>
        <time>2021-06-11T16:32:17Z</time>
      </trkpt>
      <trkpt lat="47.36003" lon="-1.63199">
        <ele>54</ele>
        <time>2021-06-11T16:32:27Z</time>
      </trkpt>
      <trkpt lat="47.35998" lon="-1.63212">
        <ele>55</ele>
        <time>2021-06-11T16:32:29Z</time>
      </trkpt>
      <trkpt lat="47.36003" lon="-1.63222">
        <ele>55</ele>
        <time>2021-06-11T16:32:30Z</time>
      </trkpt>
      <trkpt lat="47.36003" lon="-1.63229">
        <ele>55</ele>
        <time>2021-06-11T16:32:31Z</time>
      </trkpt>
      <trkpt lat="47.36" lon="-1.63236">
        <ele>55</ele>
        <time>2021-06-11T16:32:32Z</time>
      </trkpt>
      <trkpt lat="47.35994" lon="-1.63241">
        <ele>55</ele>
        <time>2021-06-11T16:32:33Z</time>
      </trkpt>
      <trkpt lat="47.35986" lon="-1.63238">
        <ele>55</ele>
        <time>2021-06-11T16:32:35Z</time>
      </trkpt>
      <trkpt lat="47.35983" lon="-1.63234">
        <ele>54</ele>
        <time>2021-06-11T16:32:35Z</time>
      </trkpt>
      <trkpt lat="47.35975" lon="-1.63246">
        <ele>54</ele>
        <time>2021-06-11T16:32:37Z</time>
      </trkpt>
      <trkpt lat="47.3597" lon="-1.63261">
        <ele>54</ele>
        <time>2021-06-11T16:32:40Z</time>
      </trkpt>
      <trkpt lat="47.35935" lon="-1.63359">
        <ele>53</ele>
        <time>2021-06-11T16:32:53Z</time>
      </trkpt>
      <trkpt lat="47.3592" lon="-1.63402">
        <ele>52</ele>
        <time>2021-06-11T16:32:59Z</time>
      </trkpt>
      <trkpt lat="47.35912" lon="-1.63425">
        <ele>52</ele>
        <time>2021-06-11T16:33:02Z</time>
      </trkpt>
      <trkpt lat="47.35905" lon="-1.63439">
        <ele>53</ele>
        <time>2021-06-11T16:33:04Z</time>
      </trkpt>
      <trkpt lat="47.35879" lon="-1.63482">
        <ele>54</ele>
        <time>2021-06-11T16:33:11Z</time>
      </trkpt>
      <trkpt lat="47.35865" lon="-1.63506">
        <ele>55</ele>
        <time>2021-06-11T16:33:15Z</time>
      </trkpt>
      <trkpt lat="47.35848" lon="-1.63565">
        <ele>59</ele>
        <time>2021-06-11T16:33:22Z</time>
      </trkpt>
      <trkpt lat="47.35839" lon="-1.63611">
        <ele>60</ele>
        <time>2021-06-11T16:33:28Z</time>
      </trkpt>
      <trkpt lat="47.35839" lon="-1.63629">
        <ele>59</ele>
        <time>2021-06-11T16:33:30Z</time>
      </trkpt>
      <trkpt lat="47.35848" lon="-1.63799">
        <ele>60</ele>
        <time>2021-06-11T16:33:51Z</time>
      </trkpt>
      <trkpt lat="47.35848" lon="-1.63831">
        <ele>61</ele>
        <time>2021-06-11T16:33:55Z</time>
      </trkpt>
      <trkpt lat="47.35821" lon="-1.64018">
        <ele>49</ele>
        <time>2021-06-11T16:34:18Z</time>
      </trkpt>
      <trkpt lat="47.35815" lon="-1.64049">
        <ele>46</ele>
        <time>2021-06-11T16:34:22Z</time>
      </trkpt>
      <trkpt lat="47.35809" lon="-1.64066">
        <ele>44</ele>
        <time>2021-06-11T16:34:24Z</time>
      </trkpt>
      <trkpt lat="47.35804" lon="-1.64085">
        <ele>42</ele>
        <time>2021-06-11T16:34:26Z</time>
      </trkpt>
      <trkpt lat="47.35798" lon="-1.64132">
        <ele>39</ele>
        <time>2021-06-11T16:34:32Z</time>
      </trkpt>
      <trkpt lat="47.35791" lon="-1.64216">
        <ele>38</ele>
        <time>2021-06-11T16:34:42Z</time>
      </trkpt>
      <trkpt lat="47.35785" lon="-1.64238">
        <ele>38</ele>
        <time>2021-06-11T16:34:45Z</time>
      </trkpt>
      <trkpt lat="47.35777" lon="-1.64264">
        <ele>39</ele>
        <time>2021-06-11T16:34:49Z</time>
      </trkpt>
      <trkpt lat="47.35737" lon="-1.64358">
        <ele>42</ele>
        <time>2021-06-11T16:35:02Z</time>
      </trkpt>
      <trkpt lat="47.35729" lon="-1.64383">
        <ele>42</ele>
        <time>2021-06-11T16:35:05Z</time>
      </trkpt>
      <trkpt lat="47.35721" lon="-1.6442">
        <ele>42</ele>
        <time>2021-06-11T16:35:10Z</time>
      </trkpt>
      <trkpt lat="47.35715" lon="-1.64492">
        <ele>41</ele>
        <time>2021-06-11T16:35:19Z</time>
      </trkpt>
      <trkpt lat="47.35703" lon="-1.6459">
        <ele>42</ele>
        <time>2021-06-11T16:35:31Z</time>
      </trkpt>
      <trkpt lat="47.35698" lon="-1.64615">
        <ele>42</ele>
        <time>2021-06-11T16:35:34Z</time>
      </trkpt>
      <trkpt lat="47.35688" lon="-1.6464">
        <ele>43</ele>
        <time>2021-06-11T16:35:37Z</time>
      </trkpt>
      <trkpt lat="47.35662" lon="-1.64686">
        <ele>45</ele>
        <time>2021-06-11T16:35:45Z</time>
      </trkpt>
      <trkpt lat="47.35658" lon="-1.64702">
        <ele>45</ele>
        <time>2021-06-11T16:35:47Z</time>
      </trkpt>
      <trkpt lat="47.35659" lon="-1.6472">
        <ele>44</ele>
        <time>2021-06-11T16:35:49Z</time>
      </trkpt>
      <trkpt lat="47.35672" lon="-1.64771">
        <ele>44</ele>
        <time>2021-06-11T16:35:56Z</time>
      </trkpt>
      <trkpt lat="47.35675" lon="-1.64793">
        <ele>43</ele>
        <time>2021-06-11T16:35:58Z</time>
      </trkpt>
      <trkpt lat="47.35675" lon="-1.64816">
        <ele>43</ele>
        <time>2021-06-11T16:36:01Z</time>
      </trkpt>
      <trkpt lat="47.35672" lon="-1.64832">
        <ele>43</ele>
        <time>2021-06-11T16:36:03Z</time>
      </trkpt>
      <trkpt lat="47.35647" lon="-1.64906">
        <ele>44</ele>
        <time>2021-06-11T16:36:13Z</time>
      </trkpt>
      <trkpt lat="47.35631" lon="-1.64942">
        <ele>44</ele>
        <time>2021-06-11T16:36:18Z</time>
      </trkpt>
      <trkpt lat="47.3562" lon="-1.64962">
        <ele>44</ele>
        <time>2021-06-11T16:36:21Z</time>
      </trkpt>
      <trkpt lat="47.35602" lon="-1.64989">
        <ele>44</ele>
        <time>2021-06-11T16:36:26Z</time>
      </trkpt>
      <trkpt lat="47.35566" lon="-1.65035">
        <ele>43</ele>
        <time>2021-06-11T16:36:34Z</time>
      </trkpt>
      <trkpt lat="47.3552" lon="-1.65111">
        <ele>43</ele>
        <time>2021-06-11T16:36:47Z</time>
      </trkpt>
      <trkpt lat="47.35509" lon="-1.65132">
        <ele>43</ele>
        <time>2021-06-11T16:36:50Z</time>
      </trkpt>
      <trkpt lat="47.35501" lon="-1.65158">
        <ele>44</ele>
        <time>2021-06-11T16:36:53Z</time>
      </trkpt>
      <trkpt lat="47.35496" lon="-1.65178">
        <ele>44</ele>
        <time>2021-06-11T16:36:56Z</time>
      </trkpt>
      <trkpt lat="47.35484" lon="-1.65235">
        <ele>46</ele>
        <time>2021-06-11T16:37:03Z</time>
      </trkpt>
      <trkpt lat="47.35481" lon="-1.6526">
        <ele>47</ele>
        <time>2021-06-11T16:37:06Z</time>
      </trkpt>
      <trkpt lat="47.35477" lon="-1.65379">
        <ele>50</ele>
        <time>2021-06-11T16:37:20Z</time>
      </trkpt>
      <trkpt lat="47.35474" lon="-1.65416">
        <ele>51</ele>
        <time>2021-06-11T16:37:25Z</time>
      </trkpt>
      <trkpt lat="47.3547" lon="-1.65439">
        <ele>51</ele>
        <time>2021-06-11T16:37:28Z</time>
      </trkpt>
      <trkpt lat="47.35464" lon="-1.65464">
        <ele>52</ele>
        <time>2021-06-11T16:37:31Z</time>
      </trkpt>
      <trkpt lat="47.35456" lon="-1.65486">
        <ele>52</ele>
        <time>2021-06-11T16:37:34Z</time>
      </trkpt>
      <trkpt lat="47.35421" lon="-1.65558">
        <ele>52</ele>
        <time>2021-06-11T16:37:45Z</time>
      </trkpt>
      <trkpt lat="47.35407" lon="-1.65585">
        <ele>52</ele>
        <time>2021-06-11T16:37:49Z</time>
      </trkpt>
      <trkpt lat="47.3538" lon="-1.6564">
        <ele>53</ele>
        <time>2021-06-11T16:37:57Z</time>
      </trkpt>
      <trkpt lat="47.35319" lon="-1.65769">
        <ele>56</ele>
        <time>2021-06-11T16:38:16Z</time>
      </trkpt>
      <trkpt lat="47.35245" lon="-1.65938">
        <ele>58</ele>
        <time>2021-06-11T16:38:40Z</time>
      </trkpt>
      <trkpt lat="47.35177" lon="-1.66088">
        <ele>61</ele>
        <time>2021-06-11T16:39:02Z</time>
      </trkpt>
      <trkpt lat="47.35139" lon="-1.66172">
        <ele>62</ele>
        <time>2021-06-11T16:39:14Z</time>
      </trkpt>
      <trkpt lat="47.3506" lon="-1.6635">
        <ele>64</ele>
        <time>2021-06-11T16:39:40Z</time>
      </trkpt>
      <trkpt lat="47.35049" lon="-1.66378">
        <ele>64</ele>
        <time>2021-06-11T16:39:44Z</time>
      </trkpt>
      <trkpt lat="47.35037" lon="-1.66419">
        <ele>65</ele>
        <time>2021-06-11T16:39:49Z</time>
      </trkpt>
      <trkpt lat="47.35026" lon="-1.6646">
        <ele>66</ele>
        <time>2021-06-11T16:39:54Z</time>
      </trkpt>
      <trkpt lat="47.34978" lon="-1.66689">
        <ele>67</ele>
        <time>2021-06-11T16:40:23Z</time>
      </trkpt>
      <trkpt lat="47.34965" lon="-1.66756">
        <ele>67</ele>
        <time>2021-06-11T16:40:32Z</time>
      </trkpt>
      <trkpt lat="47.34962" lon="-1.66776">
        <ele>67</ele>
        <time>2021-06-11T16:40:34Z</time>
      </trkpt>
      <trkpt lat="47.34944" lon="-1.6701">
        <ele>66</ele>
        <time>2021-06-11T16:41:02Z</time>
      </trkpt>
      <trkpt lat="47.34932" lon="-1.67176">
        <ele>69</ele>
        <time>2021-06-11T16:41:23Z</time>
      </trkpt>
      <trkpt lat="47.34918" lon="-1.67358">
        <ele>70</ele>
        <time>2021-06-11T16:41:45Z</time>
      </trkpt>
      <trkpt lat="47.34904" lon="-1.67536">
        <ele>68</ele>
        <time>2021-06-11T16:42:06Z</time>
      </trkpt>
      <trkpt lat="47.34891" lon="-1.67706">
        <ele>69</ele>
        <time>2021-06-11T16:42:27Z</time>
      </trkpt>
      <trkpt lat="47.34885" lon="-1.67777">
        <ele>70</ele>
        <time>2021-06-11T16:42:36Z</time>
      </trkpt>
      <trkpt lat="47.34841" lon="-1.68339">
        <ele>71</ele>
        <time>2021-06-11T16:43:44Z</time>
      </trkpt>
      <trkpt lat="47.34826" lon="-1.68524">
        <ele>72</ele>
        <time>2021-06-11T16:44:06Z</time>
      </trkpt>
      <trkpt lat="47.3481" lon="-1.68718">
        <ele>72</ele>
        <time>2021-06-11T16:44:30Z</time>
      </trkpt>
      <trkpt lat="47.34809" lon="-1.68727">
        <ele>72</ele>
        <time>2021-06-11T16:44:31Z</time>
      </trkpt>
      <trkpt lat="47.34807" lon="-1.68757">
        <ele>72</ele>
        <time>2021-06-11T16:44:35Z</time>
      </trkpt>
      <trkpt lat="47.34799" lon="-1.68862">
        <ele>72</ele>
        <time>2021-06-11T16:44:47Z</time>
      </trkpt>
      <trkpt lat="47.34769" lon="-1.69227">
        <ele>71</ele>
        <time>2021-06-11T16:45:32Z</time>
      </trkpt>
      <trkpt lat="47.34766" lon="-1.69253">
        <ele>72</ele>
        <time>2021-06-11T16:45:35Z</time>
      </trkpt>
      <trkpt lat="47.34759" lon="-1.6929">
        <ele>72</ele>
        <time>2021-06-11T16:45:39Z</time>
      </trkpt>
      <trkpt lat="47.34689" lon="-1.69548">
        <ele>73</ele>
        <time>2021-06-11T16:46:13Z</time>
      </trkpt>
      <trkpt lat="47.34673" lon="-1.69603">
        <ele>72</ele>
        <time>2021-06-11T16:46:20Z</time>
      </trkpt>
      <trkpt lat="47.34669" lon="-1.69625">
        <ele>72</ele>
        <time>2021-06-11T16:46:23Z</time>
      </trkpt>
      <trkpt lat="47.34669" lon="-1.69634">
        <ele>72</ele>
        <time>2021-06-11T16:46:24Z</time>
      </trkpt>
      <trkpt lat="47.3467" lon="-1.69639">
        <ele>72</ele>
        <time>2021-06-11T16:46:25Z</time>
      </trkpt>
      <trkpt lat="47.3466" lon="-1.69643">
        <ele>72</ele>
        <time>2021-06-11T16:46:26Z</time>
      </trkpt>
      <trkpt lat="47.34538" lon="-1.69714">
        <ele>70</ele>
        <time>2021-06-11T16:46:50Z</time>
      </trkpt>
      <trkpt lat="47.3408" lon="-1.69989">
        <ele>62</ele>
        <time>2021-06-11T16:48:18Z</time>
      </trkpt>
      <trkpt lat="47.3403" lon="-1.7002">
        <ele>65</ele>
        <time>2021-06-11T16:48:27Z</time>
      </trkpt>
      <trkpt lat="47.34021" lon="-1.70025">
        <ele>66</ele>
        <time>2021-06-11T16:48:29Z</time>
      </trkpt>
      <trkpt lat="47.33946" lon="-1.70069">
        <ele>68</ele>
        <time>2021-06-11T16:48:43Z</time>
      </trkpt>
      <trkpt lat="47.33911" lon="-1.70085">
        <ele>68</ele>
        <time>2021-06-11T16:48:50Z</time>
      </trkpt>
      <trkpt lat="47.33892" lon="-1.7009">
        <ele>70</ele>
        <time>2021-06-11T16:48:53Z</time>
      </trkpt>
      <trkpt lat="47.33863" lon="-1.70092">
        <ele>72</ele>
        <time>2021-06-11T16:48:59Z</time>
      </trkpt>
      <trkpt lat="47.33845" lon="-1.7009">
        <ele>74</ele>
        <time>2021-06-11T16:49:02Z</time>
      </trkpt>
      <trkpt lat="47.33817" lon="-1.70079">
        <ele>74</ele>
        <time>2021-06-11T16:49:07Z</time>
      </trkpt>
      <trkpt lat="47.33779" lon="-1.70054">
        <ele>72</ele>
        <time>2021-06-11T16:49:14Z</time>
      </trkpt>
      <trkpt lat="47.33748" lon="-1.70028">
        <ele>70</ele>
        <time>2021-06-11T16:49:21Z</time>
      </trkpt>
      <trkpt lat="47.3372" lon="-1.70005">
        <ele>68</ele>
        <time>2021-06-11T16:49:26Z</time>
      </trkpt>
      <trkpt lat="47.33697" lon="-1.69984">
        <ele>67</ele>
        <time>2021-06-11T16:49:31Z</time>
      </trkpt>
      <trkpt lat="47.33672" lon="-1.69961">
        <ele>66</ele>
        <time>2021-06-11T16:49:36Z</time>
      </trkpt>
      <trkpt lat="47.33639" lon="-1.69932">
        <ele>65</ele>
        <time>2021-06-11T16:49:43Z</time>
      </trkpt>
      <trkpt lat="47.3363" lon="-1.69929">
        <ele>65</ele>
        <time>2021-06-11T16:49:45Z</time>
      </trkpt>
      <trkpt lat="47.33608" lon="-1.69918">
        <ele>65</ele>
        <time>2021-06-11T16:49:49Z</time>
      </trkpt>
      <trkpt lat="47.33588" lon="-1.69901">
        <ele>64</ele>
        <time>2021-06-11T16:49:53Z</time>
      </trkpt>
      <trkpt lat="47.33576" lon="-1.69887">
        <ele>64</ele>
        <time>2021-06-11T16:49:56Z</time>
      </trkpt>
      <trkpt lat="47.33569" lon="-1.6987">
        <ele>64</ele>
        <time>2021-06-11T16:49:58Z</time>
      </trkpt>
      <trkpt lat="47.33566" lon="-1.69868">
        <ele>64</ele>
        <time>2021-06-11T16:49:59Z</time>
      </trkpt>
      <trkpt lat="47.33518" lon="-1.69827">
        <ele>65</ele>
        <time>2021-06-11T16:50:09Z</time>
      </trkpt>
      <trkpt lat="47.33489" lon="-1.69799">
        <ele>66</ele>
        <time>2021-06-11T16:50:15Z</time>
      </trkpt>
      <trkpt lat="47.3345" lon="-1.69746">
        <ele>65</ele>
        <time>2021-06-11T16:50:24Z</time>
      </trkpt>
      <trkpt lat="47.33411" lon="-1.69698">
        <ele>66</ele>
        <time>2021-06-11T16:50:33Z</time>
      </trkpt>
      <trkpt lat="47.33402" lon="-1.6969">
        <ele>66</ele>
        <time>2021-06-11T16:50:35Z</time>
      </trkpt>
      <trkpt lat="47.33383" lon="-1.69671">
        <ele>66</ele>
        <time>2021-06-11T16:50:39Z</time>
      </trkpt>
      <trkpt lat="47.33374" lon="-1.69665">
        <ele>66</ele>
        <time>2021-06-11T16:50:41Z</time>
      </trkpt>
      <trkpt lat="47.33369" lon="-1.69658">
        <ele>66</ele>
        <time>2021-06-11T16:50:42Z</time>
      </trkpt>
      <trkpt lat="47.33316" lon="-1.69658">
        <ele>66</ele>
        <time>2021-06-11T16:50:52Z</time>
      </trkpt>
      <trkpt lat="47.33233" lon="-1.69663">
        <ele>64</ele>
        <time>2021-06-11T16:51:07Z</time>
      </trkpt>
      <trkpt lat="47.33107" lon="-1.69685">
        <ele>61</ele>
        <time>2021-06-11T16:51:29Z</time>
      </trkpt>
      <trkpt lat="47.33003" lon="-1.69694">
        <ele>56</ele>
        <time>2021-06-11T16:51:48Z</time>
      </trkpt>
      <trkpt lat="47.32983" lon="-1.69697">
        <ele>55</ele>
        <time>2021-06-11T16:51:51Z</time>
      </trkpt>
      <trkpt lat="47.32952" lon="-1.69709">
        <ele>54</ele>
        <time>2021-06-11T16:51:57Z</time>
      </trkpt>
      <trkpt lat="47.32892" lon="-1.69746">
        <ele>52</ele>
        <time>2021-06-11T16:52:08Z</time>
      </trkpt>
      <trkpt lat="47.32828" lon="-1.69787">
        <ele>51</ele>
        <time>2021-06-11T16:52:21Z</time>
      </trkpt>
      <trkpt lat="47.32772" lon="-1.69819">
        <ele>45</ele>
        <time>2021-06-11T16:52:32Z</time>
      </trkpt>
      <trkpt lat="47.32694" lon="-1.6985">
        <ele>41</ele>
        <time>2021-06-11T16:52:46Z</time>
      </trkpt>
      <trkpt lat="47.32633" lon="-1.69861">
        <ele>40</ele>
        <time>2021-06-11T16:52:57Z</time>
      </trkpt>
      <trkpt lat="47.32603" lon="-1.69863">
        <ele>40</ele>
        <time>2021-06-11T16:53:02Z</time>
      </trkpt>
      <trkpt lat="47.32545" lon="-1.6986">
        <ele>43</ele>
        <time>2021-06-11T16:53:13Z</time>
      </trkpt>
      <trkpt lat="47.32506" lon="-1.69853">
        <ele>46</ele>
        <time>2021-06-11T16:53:20Z</time>
      </trkpt>
      <trkpt lat="47.32462" lon="-1.69839">
        <ele>50</ele>
        <time>2021-06-11T16:53:28Z</time>
      </trkpt>
      <trkpt lat="47.32426" lon="-1.69822">
        <ele>53</ele>
        <time>2021-06-11T16:53:34Z</time>
      </trkpt>
      <trkpt lat="47.3239" lon="-1.69803">
        <ele>57</ele>
        <time>2021-06-11T16:53:41Z</time>
      </trkpt>
      <trkpt lat="47.3236" lon="-1.69784">
        <ele>61</ele>
        <time>2021-06-11T16:53:47Z</time>
      </trkpt>
      <trkpt lat="47.32145" lon="-1.69618">
        <ele>73</ele>
        <time>2021-06-11T16:54:30Z</time>
      </trkpt>
      <trkpt lat="47.32106" lon="-1.69585">
        <ele>72</ele>
        <time>2021-06-11T16:54:38Z</time>
      </trkpt>
      <trkpt lat="47.321" lon="-1.69603">
        <ele>72</ele>
        <time>2021-06-11T16:54:40Z</time>
      </trkpt>
      <trkpt lat="47.32087" lon="-1.69623">
        <ele>73</ele>
        <time>2021-06-11T16:54:44Z</time>
      </trkpt>
      <trkpt lat="47.32063" lon="-1.69653">
        <ele>73</ele>
        <time>2021-06-11T16:54:49Z</time>
      </trkpt>
      <trkpt lat="47.32036" lon="-1.69685">
        <ele>74</ele>
        <time>2021-06-11T16:54:56Z</time>
      </trkpt>
      <trkpt lat="47.31848" lon="-1.69882">
        <ele>74</ele>
        <time>2021-06-11T16:55:37Z</time>
      </trkpt>
      <trkpt lat="47.31763" lon="-1.69968">
        <ele>76</ele>
        <time>2021-06-11T16:55:55Z</time>
      </trkpt>
      <trkpt lat="47.31674" lon="-1.70052">
        <ele>76</ele>
        <time>2021-06-11T16:56:14Z</time>
      </trkpt>
      <trkpt lat="47.3166" lon="-1.70063">
        <ele>76</ele>
        <time>2021-06-11T16:56:17Z</time>
      </trkpt>
      <trkpt lat="47.31514" lon="-1.70258">
        <ele>75</ele>
        <time>2021-06-11T16:56:52Z</time>
      </trkpt>
      <trkpt lat="47.3137" lon="-1.70516">
        <ele>73</ele>
        <time>2021-06-11T16:57:32Z</time>
      </trkpt>
      <trkpt lat="47.31355" lon="-1.70538">
        <ele>73</ele>
        <time>2021-06-11T16:57:36Z</time>
      </trkpt>
      <trkpt lat="47.31169" lon="-1.7072">
        <ele>69</ele>
        <time>2021-06-11T16:58:15Z</time>
      </trkpt>
      <trkpt lat="47.31033" lon="-1.70901">
        <ele>65</ele>
        <time>2021-06-11T16:58:48Z</time>
      </trkpt>
      <trkpt lat="47.31018" lon="-1.70915">
        <ele>65</ele>
        <time>2021-06-11T16:58:51Z</time>
      </trkpt>
      <trkpt lat="47.30997" lon="-1.70924">
        <ele>65</ele>
        <time>2021-06-11T16:58:55Z</time>
      </trkpt>
      <trkpt lat="47.30382" lon="-1.71071">
        <ele>74</ele>
        <time>2021-06-11T17:00:46Z</time>
      </trkpt>
      <trkpt lat="47.3035" lon="-1.71086">
        <ele>75</ele>
        <time>2021-06-11T17:00:52Z</time>
      </trkpt>
      <trkpt lat="47.30341" lon="-1.71094">
        <ele>75</ele>
        <time>2021-06-11T17:00:54Z</time>
      </trkpt>
      <trkpt lat="47.30281" lon="-1.71178">
        <ele>76</ele>
        <time>2021-06-11T17:01:08Z</time>
      </trkpt>
      <trkpt lat="47.30254" lon="-1.71157">
        <ele>78</ele>
        <time>2021-06-11T17:01:14Z</time>
      </trkpt>
      <trkpt lat="47.30219" lon="-1.71133">
        <ele>77</ele>
        <time>2021-06-11T17:01:21Z</time>
      </trkpt>
      <trkpt lat="47.30209" lon="-1.71127">
        <ele>77</ele>
        <time>2021-06-11T17:01:23Z</time>
      </trkpt>
      <trkpt lat="47.3016" lon="-1.711">
        <ele>77</ele>
        <time>2021-06-11T17:01:32Z</time>
      </trkpt>
      <trkpt lat="47.3013" lon="-1.71084">
        <ele>77</ele>
        <time>2021-06-11T17:01:38Z</time>
      </trkpt>
      <trkpt lat="47.29995" lon="-1.71009">
        <ele>75</ele>
        <time>2021-06-11T17:02:03Z</time>
      </trkpt>
      <trkpt lat="47.29862" lon="-1.70936">
        <ele>72</ele>
        <time>2021-06-11T17:02:29Z</time>
      </trkpt>
      <trkpt lat="47.29829" lon="-1.70917">
        <ele>71</ele>
        <time>2021-06-11T17:02:35Z</time>
      </trkpt>
      <trkpt lat="47.29696" lon="-1.70844">
        <ele>68</ele>
        <time>2021-06-11T17:03:00Z</time>
      </trkpt>
      <trkpt lat="47.29666" lon="-1.70821">
        <ele>67</ele>
        <time>2021-06-11T17:03:06Z</time>
      </trkpt>
      <trkpt lat="47.29644" lon="-1.70793">
        <ele>65</ele>
        <time>2021-06-11T17:03:11Z</time>
      </trkpt>
      <trkpt lat="47.29628" lon="-1.7076">
        <ele>64</ele>
        <time>2021-06-11T17:03:16Z</time>
      </trkpt>
      <trkpt lat="47.29606" lon="-1.70699">
        <ele>62</ele>
        <time>2021-06-11T17:03:25Z</time>
      </trkpt>
      <trkpt lat="47.29586" lon="-1.70627">
        <ele>61</ele>
        <time>2021-06-11T17:03:34Z</time>
      </trkpt>
      <trkpt lat="47.29577" lon="-1.70601">
        <ele>61</ele>
        <time>2021-06-11T17:03:37Z</time>
      </trkpt>
      <trkpt lat="47.29539" lon="-1.70476">
        <ele>61</ele>
        <time>2021-06-11T17:03:54Z</time>
      </trkpt>
      <trkpt lat="47.29532" lon="-1.70458">
        <ele>61</ele>
        <time>2021-06-11T17:03:57Z</time>
      </trkpt>
      <trkpt lat="47.29525" lon="-1.70443">
        <ele>60</ele>
        <time>2021-06-11T17:03:59Z</time>
      </trkpt>
      <trkpt lat="47.29517" lon="-1.70428">
        <ele>60</ele>
        <time>2021-06-11T17:04:01Z</time>
      </trkpt>
      <trkpt lat="47.29446" lon="-1.70331">
        <ele>59</ele>
        <time>2021-06-11T17:04:18Z</time>
      </trkpt>
      <trkpt lat="47.29432" lon="-1.70315">
        <ele>59</ele>
        <time>2021-06-11T17:04:21Z</time>
      </trkpt>
      <trkpt lat="47.29425" lon="-1.70306">
        <ele>58</ele>
        <time>2021-06-11T17:04:23Z</time>
      </trkpt>
      <trkpt lat="47.29405" lon="-1.70297">
        <ele>58</ele>
        <time>2021-06-11T17:04:27Z</time>
      </trkpt>
      <trkpt lat="47.29382" lon="-1.70299">
        <ele>59</ele>
        <time>2021-06-11T17:04:31Z</time>
      </trkpt>
      <trkpt lat="47.29362" lon="-1.70308">
        <ele>60</ele>
        <time>2021-06-11T17:04:35Z</time>
      </trkpt>
      <trkpt lat="47.29286" lon="-1.70346">
        <ele>61</ele>
        <time>2021-06-11T17:04:49Z</time>
      </trkpt>
      <trkpt lat="47.29281" lon="-1.70349">
        <ele>61</ele>
        <time>2021-06-11T17:04:50Z</time>
      </trkpt>
      <trkpt lat="47.29222" lon="-1.70379">
        <ele>61</ele>
        <time>2021-06-11T17:05:01Z</time>
      </trkpt>
      <trkpt lat="47.29212" lon="-1.70384">
        <ele>61</ele>
        <time>2021-06-11T17:05:03Z</time>
      </trkpt>
      <trkpt lat="47.29202" lon="-1.70389">
        <ele>61</ele>
        <time>2021-06-11T17:05:05Z</time>
      </trkpt>
      <trkpt lat="47.29145" lon="-1.70418">
        <ele>63</ele>
        <time>2021-06-11T17:05:15Z</time>
      </trkpt>
      <trkpt lat="47.29098" lon="-1.70437">
        <ele>65</ele>
        <time>2021-06-11T17:05:24Z</time>
      </trkpt>
      <trkpt lat="47.29081" lon="-1.70442">
        <ele>66</ele>
        <time>2021-06-11T17:05:27Z</time>
      </trkpt>
      <trkpt lat="47.2904" lon="-1.70454">
        <ele>68</ele>
        <time>2021-06-11T17:05:35Z</time>
      </trkpt>
      <trkpt lat="47.28998" lon="-1.70467">
        <ele>69</ele>
        <time>2021-06-11T17:05:42Z</time>
      </trkpt>
      <trkpt lat="47.2897" lon="-1.70474">
        <ele>69</ele>
        <time>2021-06-11T17:05:47Z</time>
      </trkpt>
      <trkpt lat="47.28907" lon="-1.70491">
        <ele>69</ele>
        <time>2021-06-11T17:05:59Z</time>
      </trkpt>
      <trkpt lat="47.28761" lon="-1.70534">
        <ele>69</ele>
        <time>2021-06-11T17:06:25Z</time>
      </trkpt>
      <trkpt lat="47.28699" lon="-1.70551">
        <ele>72</ele>
        <time>2021-06-11T17:06:36Z</time>
      </trkpt>
      <trkpt lat="47.28678" lon="-1.70553">
        <ele>73</ele>
        <time>2021-06-11T17:06:40Z</time>
      </trkpt>
      <trkpt lat="47.28659" lon="-1.70553">
        <ele>74</ele>
        <time>2021-06-11T17:06:44Z</time>
      </trkpt>
      <trkpt lat="47.28443" lon="-1.70526">
        <ele>74</ele>
        <time>2021-06-11T17:07:22Z</time>
      </trkpt>
      <trkpt lat="47.28417" lon="-1.70524">
        <ele>74</ele>
        <time>2021-06-11T17:07:27Z</time>
      </trkpt>
      <trkpt lat="47.28389" lon="-1.70526">
        <ele>73</ele>
        <time>2021-06-11T17:07:32Z</time>
      </trkpt>
      <trkpt lat="47.28363" lon="-1.70531">
        <ele>73</ele>
        <time>2021-06-11T17:07:36Z</time>
      </trkpt>
      <trkpt lat="47.28354" lon="-1.70532">
        <ele>73</ele>
        <time>2021-06-11T17:07:38Z</time>
      </trkpt>
      <trkpt lat="47.28322" lon="-1.70547">
        <ele>73</ele>
        <time>2021-06-11T17:07:44Z</time>
      </trkpt>
      <trkpt lat="47.28301" lon="-1.70559">
        <ele>73</ele>
        <time>2021-06-11T17:07:48Z</time>
      </trkpt>
      <trkpt lat="47.28279" lon="-1.70574">
        <ele>74</ele>
        <time>2021-06-11T17:07:52Z</time>
      </trkpt>
      <trkpt lat="47.28209" lon="-1.70637">
        <ele>74</ele>
        <time>2021-06-11T17:08:07Z</time>
      </trkpt>
      <trkpt lat="47.28141" lon="-1.70696">
        <ele>73</ele>
        <time>2021-06-11T17:08:21Z</time>
      </trkpt>
      <trkpt lat="47.28092" lon="-1.70742">
        <ele>71</ele>
        <time>2021-06-11T17:08:31Z</time>
      </trkpt>
      <trkpt lat="47.28074" lon="-1.70758">
        <ele>70</ele>
        <time>2021-06-11T17:08:35Z</time>
      </trkpt>
      <trkpt lat="47.27998" lon="-1.70829">
        <ele>67</ele>
        <time>2021-06-11T17:08:51Z</time>
      </trkpt>
      <trkpt lat="47.2799" lon="-1.70835">
        <ele>67</ele>
        <time>2021-06-11T17:08:53Z</time>
      </trkpt>
      <trkpt lat="47.27888" lon="-1.70929">
        <ele>66</ele>
        <time>2021-06-11T17:09:14Z</time>
      </trkpt>
      <trkpt lat="47.27847" lon="-1.70965">
        <ele>66</ele>
        <time>2021-06-11T17:09:22Z</time>
      </trkpt>
      <trkpt lat="47.27719" lon="-1.7108">
        <ele>67</ele>
        <time>2021-06-11T17:09:49Z</time>
      </trkpt>
      <trkpt lat="47.27545" lon="-1.71239">
        <ele>70</ele>
        <time>2021-06-11T17:10:26Z</time>
      </trkpt>
      <trkpt lat="47.27527" lon="-1.71259">
        <ele>70</ele>
        <time>2021-06-11T17:10:30Z</time>
      </trkpt>
      <trkpt lat="47.27454" lon="-1.71095">
        <ele>69</ele>
        <time>2021-06-11T17:10:53Z</time>
      </trkpt>
      <trkpt lat="47.27444" lon="-1.71102">
        <ele>69</ele>
        <time>2021-06-11T17:10:55Z</time>
      </trkpt>
      <trkpt lat="47.27263" lon="-1.71211">
        <ele>71</ele>
        <time>2021-06-11T17:11:30Z</time>
      </trkpt>
      <trkpt lat="47.27118" lon="-1.71306">
        <ele>67</ele>
        <time>2021-06-11T17:11:58Z</time>
      </trkpt>
      <trkpt lat="47.271" lon="-1.71318">
        <ele>67</ele>
        <time>2021-06-11T17:12:02Z</time>
      </trkpt>
      <trkpt lat="47.27025" lon="-1.71367">
        <ele>66</ele>
        <time>2021-06-11T17:12:16Z</time>
      </trkpt>
      <trkpt lat="47.26988" lon="-1.71391">
        <ele>65</ele>
        <time>2021-06-11T17:12:24Z</time>
      </trkpt>
      <trkpt lat="47.26937" lon="-1.71425">
        <ele>65</ele>
        <time>2021-06-11T17:12:34Z</time>
      </trkpt>
      <trkpt lat="47.26846" lon="-1.71485">
        <ele>62</ele>
        <time>2021-06-11T17:12:51Z</time>
      </trkpt>
      <trkpt lat="47.26747" lon="-1.7155">
        <ele>64</ele>
        <time>2021-06-11T17:13:11Z</time>
      </trkpt>
      <trkpt lat="47.26678" lon="-1.71601">
        <ele>65</ele>
        <time>2021-06-11T17:13:24Z</time>
      </trkpt>
      <trkpt lat="47.26664" lon="-1.71611">
        <ele>65</ele>
        <time>2021-06-11T17:13:27Z</time>
      </trkpt>
      <trkpt lat="47.26626" lon="-1.71638">
        <ele>65</ele>
        <time>2021-06-11T17:13:35Z</time>
      </trkpt>
      <trkpt lat="47.2658" lon="-1.71665">
        <ele>66</ele>
        <time>2021-06-11T17:13:43Z</time>
      </trkpt>
      <trkpt lat="47.26421" lon="-1.71722">
        <ele>67</ele>
        <time>2021-06-11T17:14:12Z</time>
      </trkpt>
      <trkpt lat="47.26326" lon="-1.71758">
        <ele>69</ele>
        <time>2021-06-11T17:14:30Z</time>
      </trkpt>
      <trkpt lat="47.26293" lon="-1.71767">
        <ele>71</ele>
        <time>2021-06-11T17:14:36Z</time>
      </trkpt>
      <trkpt lat="47.26269" lon="-1.71771">
        <ele>71</ele>
        <time>2021-06-11T17:14:40Z</time>
      </trkpt>
      <trkpt lat="47.26207" lon="-1.71771">
        <ele>73</ele>
        <time>2021-06-11T17:14:51Z</time>
      </trkpt>
      <trkpt lat="47.26178" lon="-1.71772">
        <ele>74</ele>
        <time>2021-06-11T17:14:56Z</time>
      </trkpt>
      <trkpt lat="47.2616" lon="-1.7178">
        <ele>74</ele>
        <time>2021-06-11T17:15:00Z</time>
      </trkpt>
      <trkpt lat="47.26143" lon="-1.7179">
        <ele>74</ele>
        <time>2021-06-11T17:15:03Z</time>
      </trkpt>
      <trkpt lat="47.26135" lon="-1.71795">
        <ele>73</ele>
        <time>2021-06-11T17:15:05Z</time>
      </trkpt>
      <trkpt lat="47.26008" lon="-1.7189">
        <ele>70</ele>
        <time>2021-06-11T17:15:30Z</time>
      </trkpt>
      <trkpt lat="47.25891" lon="-1.71976">
        <ele>66</ele>
        <time>2021-06-11T17:15:53Z</time>
      </trkpt>
      <trkpt lat="47.25849" lon="-1.72009">
        <ele>65</ele>
        <time>2021-06-11T17:16:02Z</time>
      </trkpt>
      <trkpt lat="47.25803" lon="-1.72039">
        <ele>63</ele>
        <time>2021-06-11T17:16:11Z</time>
      </trkpt>
      <trkpt lat="47.25756" lon="-1.72074">
        <ele>61</ele>
        <time>2021-06-11T17:16:20Z</time>
      </trkpt>
      <trkpt lat="47.25713" lon="-1.72103">
        <ele>59</ele>
        <time>2021-06-11T17:16:28Z</time>
      </trkpt>
      <trkpt lat="47.25672" lon="-1.72124">
        <ele>58</ele>
        <time>2021-06-11T17:16:36Z</time>
      </trkpt>
      <trkpt lat="47.25627" lon="-1.72139">
        <ele>56</ele>
        <time>2021-06-11T17:16:44Z</time>
      </trkpt>
      <trkpt lat="47.25589" lon="-1.72152">
        <ele>53</ele>
        <time>2021-06-11T17:16:51Z</time>
      </trkpt>
      <trkpt lat="47.25576" lon="-1.72157">
        <ele>53</ele>
        <time>2021-06-11T17:16:54Z</time>
      </trkpt>
      <trkpt lat="47.25554" lon="-1.72163">
        <ele>52</ele>
        <time>2021-06-11T17:16:58Z</time>
      </trkpt>
      <trkpt lat="47.25515" lon="-1.72178">
        <ele>52</ele>
        <time>2021-06-11T17:17:05Z</time>
      </trkpt>
      <trkpt lat="47.2538" lon="-1.72224">
        <ele>42</ele>
        <time>2021-06-11T17:17:29Z</time>
      </trkpt>
      <trkpt lat="47.25347" lon="-1.72237">
        <ele>40</ele>
        <time>2021-06-11T17:17:36Z</time>
      </trkpt>
      <trkpt lat="47.25266" lon="-1.72265">
        <ele>36</ele>
        <time>2021-06-11T17:17:50Z</time>
      </trkpt>
      <trkpt lat="47.25243" lon="-1.72275">
        <ele>35</ele>
        <time>2021-06-11T17:17:55Z</time>
      </trkpt>
      <trkpt lat="47.25235" lon="-1.72278">
        <ele>35</ele>
        <time>2021-06-11T17:17:56Z</time>
      </trkpt>
      <trkpt lat="47.25208" lon="-1.72284">
        <ele>33</ele>
        <time>2021-06-11T17:18:01Z</time>
      </trkpt>
      <trkpt lat="47.25186" lon="-1.72296">
        <ele>32</ele>
        <time>2021-06-11T17:18:05Z</time>
      </trkpt>
      <trkpt lat="47.25166" lon="-1.72311">
        <ele>31</ele>
        <time>2021-06-11T17:18:09Z</time>
      </trkpt>
      <trkpt lat="47.25142" lon="-1.72336">
        <ele>30</ele>
        <time>2021-06-11T17:18:14Z</time>
      </trkpt>
      <trkpt lat="47.25118" lon="-1.72369">
        <ele>28</ele>
        <time>2021-06-11T17:18:20Z</time>
      </trkpt>
      <trkpt lat="47.25107" lon="-1.72387">
        <ele>27</ele>
        <time>2021-06-11T17:18:23Z</time>
      </trkpt>
      <trkpt lat="47.25099" lon="-1.72397">
        <ele>26</ele>
        <time>2021-06-11T17:18:25Z</time>
      </trkpt>
      <trkpt lat="47.25066" lon="-1.72432">
        <ele>25</ele>
        <time>2021-06-11T17:18:32Z</time>
      </trkpt>
      <trkpt lat="47.25048" lon="-1.72449">
        <ele>24</ele>
        <time>2021-06-11T17:18:36Z</time>
      </trkpt>
      <trkpt lat="47.25025" lon="-1.72462">
        <ele>24</ele>
        <time>2021-06-11T17:18:40Z</time>
      </trkpt>
      <trkpt lat="47.25004" lon="-1.72467">
        <ele>23</ele>
        <time>2021-06-11T17:18:44Z</time>
      </trkpt>
      <trkpt lat="47.24902" lon="-1.72492">
        <ele>21</ele>
        <time>2021-06-11T17:19:03Z</time>
      </trkpt>
      <trkpt lat="47.24828" lon="-1.72508">
        <ele>21</ele>
        <time>2021-06-11T17:19:16Z</time>
      </trkpt>
      <trkpt lat="47.24788" lon="-1.72517">
        <ele>21</ele>
        <time>2021-06-11T17:19:23Z</time>
      </trkpt>
      <trkpt lat="47.24773" lon="-1.72521">
        <ele>21</ele>
        <time>2021-06-11T17:19:26Z</time>
      </trkpt>
      <trkpt lat="47.24701" lon="-1.72536">
        <ele>21</ele>
        <time>2021-06-11T17:19:39Z</time>
      </trkpt>
      <trkpt lat="47.24605" lon="-1.72559">
        <ele>23</ele>
        <time>2021-06-11T17:19:56Z</time>
      </trkpt>
      <trkpt lat="47.24566" lon="-1.72571">
        <ele>24</ele>
        <time>2021-06-11T17:20:03Z</time>
      </trkpt>
      <trkpt lat="47.24508" lon="-1.72604">
        <ele>27</ele>
        <time>2021-06-11T17:20:14Z</time>
      </trkpt>
      <trkpt lat="47.245" lon="-1.72608">
        <ele>27</ele>
        <time>2021-06-11T17:20:16Z</time>
      </trkpt>
      <trkpt lat="47.24495" lon="-1.7261">
        <ele>27</ele>
        <time>2021-06-11T17:20:17Z</time>
      </trkpt>
      <trkpt lat="47.24416" lon="-1.72648">
        <ele>27</ele>
        <time>2021-06-11T17:20:31Z</time>
      </trkpt>
      <trkpt lat="47.24349" lon="-1.72686">
        <ele>28</ele>
        <time>2021-06-11T17:20:44Z</time>
      </trkpt>
      <trkpt lat="47.24324" lon="-1.72697">
        <ele>28</ele>
        <time>2021-06-11T17:20:49Z</time>
      </trkpt>
      <trkpt lat="47.24298" lon="-1.72707">
        <ele>27</ele>
        <time>2021-06-11T17:20:54Z</time>
      </trkpt>
      <trkpt lat="47.24255" lon="-1.72713">
        <ele>27</ele>
        <time>2021-06-11T17:21:01Z</time>
      </trkpt>
      <trkpt lat="47.24214" lon="-1.72706">
        <ele>27</ele>
        <time>2021-06-11T17:21:09Z</time>
      </trkpt>
      <trkpt lat="47.24189" lon="-1.72699">
        <ele>27</ele>
        <time>2021-06-11T17:21:13Z</time>
      </trkpt>
      <trkpt lat="47.24136" lon="-1.72677">
        <ele>25</ele>
        <time>2021-06-11T17:21:23Z</time>
      </trkpt>
      <trkpt lat="47.24105" lon="-1.72656">
        <ele>24</ele>
        <time>2021-06-11T17:21:29Z</time>
      </trkpt>
      <trkpt lat="47.2399" lon="-1.72559">
        <ele>18</ele>
        <time>2021-06-11T17:21:53Z</time>
      </trkpt>
      <trkpt lat="47.23974" lon="-1.72551">
        <ele>17</ele>
        <time>2021-06-11T17:21:56Z</time>
      </trkpt>
      <trkpt lat="47.23956" lon="-1.72548">
        <ele>17</ele>
        <time>2021-06-11T17:21:59Z</time>
      </trkpt>
      <trkpt lat="47.2393" lon="-1.72547">
        <ele>16</ele>
        <time>2021-06-11T17:22:03Z</time>
      </trkpt>
      <trkpt lat="47.23831" lon="-1.72552">
        <ele>12</ele>
        <time>2021-06-11T17:22:21Z</time>
      </trkpt>
      <trkpt lat="47.23747" lon="-1.72553">
        <ele>9</ele>
        <time>2021-06-11T17:22:36Z</time>
      </trkpt>
      <trkpt lat="47.23724" lon="-1.72547">
        <ele>9</ele>
        <time>2021-06-11T17:22:40Z</time>
      </trkpt>
      <trkpt lat="47.23705" lon="-1.7254">
        <ele>9</ele>
        <time>2021-06-11T17:22:44Z</time>
      </trkpt>
      <trkpt lat="47.2365" lon="-1.72507">
        <ele>9</ele>
        <time>2021-06-11T17:22:54Z</time>
      </trkpt>
      <trkpt lat="47.23623" lon="-1.72496">
        <ele>10</ele>
        <time>2021-06-11T17:22:59Z</time>
      </trkpt>
      <trkpt lat="47.23592" lon="-1.72493">
        <ele>12</ele>
        <time>2021-06-11T17:23:05Z</time>
      </trkpt>
      <trkpt lat="47.23564" lon="-1.72495">
        <ele>12</ele>
        <time>2021-06-11T17:23:10Z</time>
      </trkpt>
      <trkpt lat="47.23541" lon="-1.72502">
        <ele>13</ele>
        <time>2021-06-11T17:23:14Z</time>
      </trkpt>
      <trkpt lat="47.2343" lon="-1.72567">
        <ele>11</ele>
        <time>2021-06-11T17:23:35Z</time>
      </trkpt>
      <trkpt lat="47.23309" lon="-1.72639">
        <ele>12</ele>
        <time>2021-06-11T17:23:58Z</time>
      </trkpt>
      <trkpt lat="47.23307" lon="-1.72639">
        <ele>12</ele>
        <time>2021-06-11T17:23:59Z</time>
      </trkpt>
      <trkpt lat="47.2328" lon="-1.72513">
        <ele>12</ele>
        <time>2021-06-11T17:24:15Z</time>
      </trkpt>
      <trkpt lat="47.23259" lon="-1.72409">
        <ele>15</ele>
        <time>2021-06-11T17:24:28Z</time>
      </trkpt>
      <trkpt lat="47.23237" lon="-1.72299">
        <ele>15</ele>
        <time>2021-06-11T17:24:42Z</time>
      </trkpt>
      <trkpt lat="47.23229" lon="-1.72255">
        <ele>15</ele>
        <time>2021-06-11T17:24:47Z</time>
      </trkpt>
      <trkpt lat="47.23228" lon="-1.72247">
        <ele>15</ele>
        <time>2021-06-11T17:24:48Z</time>
      </trkpt>
      <trkpt lat="47.23209" lon="-1.72168">
        <ele>15</ele>
        <time>2021-06-11T17:24:58Z</time>
      </trkpt>
      <trkpt lat="47.23207" lon="-1.72157">
        <ele>15</ele>
        <time>2021-06-11T17:25:00Z</time>
      </trkpt>
      <trkpt lat="47.23198" lon="-1.72105">
        <ele>16</ele>
        <time>2021-06-11T17:25:06Z</time>
      </trkpt>
      <trkpt lat="47.23191" lon="-1.7193">
        <ele>21</ele>
        <time>2021-06-11T17:25:27Z</time>
      </trkpt>
      <trkpt lat="47.23184" lon="-1.71798">
        <ele>21</ele>
        <time>2021-06-11T17:25:43Z</time>
      </trkpt>
      <trkpt lat="47.23178" lon="-1.71609">
        <ele>25</ele>
        <time>2021-06-11T17:26:06Z</time>
      </trkpt>
      <trkpt lat="47.23177" lon="-1.71577">
        <ele>25</ele>
        <time>2021-06-11T17:26:10Z</time>
      </trkpt>
      <trkpt lat="47.23177" lon="-1.71558">
        <ele>26</ele>
        <time>2021-06-11T17:26:12Z</time>
      </trkpt>
      <trkpt lat="47.23178" lon="-1.71539">
        <ele>26</ele>
        <time>2021-06-11T17:26:15Z</time>
      </trkpt>
      <trkpt lat="47.2318" lon="-1.71523">
        <ele>26</ele>
        <time>2021-06-11T17:26:17Z</time>
      </trkpt>
      <trkpt lat="47.23213" lon="-1.71351">
        <ele>27</ele>
        <time>2021-06-11T17:26:38Z</time>
      </trkpt>
      <trkpt lat="47.2323" lon="-1.71278">
        <ele>28</ele>
        <time>2021-06-11T17:26:48Z</time>
      </trkpt>
      <trkpt lat="47.23245" lon="-1.71231">
        <ele>28</ele>
        <time>2021-06-11T17:26:54Z</time>
      </trkpt>
      <trkpt lat="47.23263" lon="-1.71182">
        <ele>28</ele>
        <time>2021-06-11T17:27:01Z</time>
      </trkpt>
      <trkpt lat="47.23331" lon="-1.7094">
        <ele>32</ele>
        <time>2021-06-11T17:27:32Z</time>
      </trkpt>
      <trkpt lat="47.2337" lon="-1.70795">
        <ele>33</ele>
        <time>2021-06-11T17:27:51Z</time>
      </trkpt>
      <trkpt lat="47.23372" lon="-1.70788">
        <ele>33</ele>
        <time>2021-06-11T17:27:52Z</time>
      </trkpt>
      <trkpt lat="47.23433" lon="-1.70571">
        <ele>35</ele>
        <time>2021-06-11T17:28:20Z</time>
      </trkpt>
      <trkpt lat="47.23435" lon="-1.70561">
        <ele>35</ele>
        <time>2021-06-11T17:28:22Z</time>
      </trkpt>
      <trkpt lat="47.23436" lon="-1.70547">
        <ele>34</ele>
        <time>2021-06-11T17:28:23Z</time>
      </trkpt>
      <trkpt lat="47.23435" lon="-1.70522">
        <ele>34</ele>
        <time>2021-06-11T17:28:26Z</time>
      </trkpt>
      <trkpt lat="47.23416" lon="-1.70372">
        <ele>34</ele>
        <time>2021-06-11T17:28:45Z</time>
      </trkpt>
      <trkpt lat="47.23434" lon="-1.70356">
        <ele>34</ele>
        <time>2021-06-11T17:28:48Z</time>
      </trkpt>
      <trkpt lat="47.23467" lon="-1.70316">
        <ele>33</ele>
        <time>2021-06-11T17:28:56Z</time>
      </trkpt>
      <trkpt lat="47.23492" lon="-1.70273">
        <ele>32</ele>
        <time>2021-06-11T17:29:03Z</time>
      </trkpt>
      <trkpt lat="47.23499" lon="-1.7026">
        <ele>31</ele>
        <time>2021-06-11T17:29:05Z</time>
      </trkpt>
      <trkpt lat="47.23528" lon="-1.7021">
        <ele>30</ele>
        <time>2021-06-11T17:29:13Z</time>
      </trkpt>
      <trkpt lat="47.23547" lon="-1.70182">
        <ele>29</ele>
        <time>2021-06-11T17:29:18Z</time>
      </trkpt>
      <trkpt lat="47.23565" lon="-1.70165">
        <ele>28</ele>
        <time>2021-06-11T17:29:21Z</time>
      </trkpt>
      <trkpt lat="47.23602" lon="-1.7014">
        <ele>28</ele>
        <time>2021-06-11T17:29:29Z</time>
      </trkpt>
      <trkpt lat="47.23641" lon="-1.70115">
        <ele>29</ele>
        <time>2021-06-11T17:29:36Z</time>
      </trkpt>
      <trkpt lat="47.23618" lon="-1.70011">
        <ele>27</ele>
        <time>2021-06-11T17:29:49Z</time>
      </trkpt>
      <trkpt lat="47.23613" lon="-1.6995">
        <ele>26</ele>
        <time>2021-06-11T17:29:57Z</time>
      </trkpt>
      <trkpt lat="47.23609" lon="-1.69821">
        <ele>30</ele>
        <time>2021-06-11T17:30:12Z</time>
      </trkpt>
      <trkpt lat="47.23604" lon="-1.69796">
        <ele>31</ele>
        <time>2021-06-11T17:30:16Z</time>
      </trkpt>
      <trkpt lat="47.23595" lon="-1.69775">
        <ele>32</ele>
        <time>2021-06-11T17:30:19Z</time>
      </trkpt>
      <trkpt lat="47.23583" lon="-1.69755">
        <ele>33</ele>
        <time>2021-06-11T17:30:22Z</time>
      </trkpt>
      <trkpt lat="47.23561" lon="-1.69735">
        <ele>31</ele>
        <time>2021-06-11T17:30:26Z</time>
      </trkpt>
      <trkpt lat="47.2352" lon="-1.6971">
        <ele>29</ele>
        <time>2021-06-11T17:30:34Z</time>
      </trkpt>
      <trkpt lat="47.23471" lon="-1.6969">
        <ele>28</ele>
        <time>2021-06-11T17:30:43Z</time>
      </trkpt>
      <trkpt lat="47.23449" lon="-1.69676">
        <ele>28</ele>
        <time>2021-06-11T17:30:48Z</time>
      </trkpt>
      <trkpt lat="47.2344" lon="-1.6967">
        <ele>28</ele>
        <time>2021-06-11T17:30:49Z</time>
      </trkpt>
      <trkpt lat="47.23433" lon="-1.69659">
        <ele>28</ele>
        <time>2021-06-11T17:30:51Z</time>
      </trkpt>
      <trkpt lat="47.23352" lon="-1.69489">
        <ele>25</ele>
        <time>2021-06-11T17:31:16Z</time>
      </trkpt>
      <trkpt lat="47.23336" lon="-1.69456">
        <ele>24</ele>
        <time>2021-06-11T17:31:21Z</time>
      </trkpt>
      <trkpt lat="47.23328" lon="-1.69441">
        <ele>24</ele>
        <time>2021-06-11T17:31:24Z</time>
      </trkpt>
      <trkpt lat="47.23314" lon="-1.69416">
        <ele>24</ele>
        <time>2021-06-11T17:31:27Z</time>
      </trkpt>
      <trkpt lat="47.23305" lon="-1.69404">
        <ele>25</ele>
        <time>2021-06-11T17:31:30Z</time>
      </trkpt>
      <trkpt lat="47.23269" lon="-1.69374">
        <ele>27</ele>
        <time>2021-06-11T17:31:37Z</time>
      </trkpt>
      <trkpt lat="47.23251" lon="-1.69352">
        <ele>29</ele>
        <time>2021-06-11T17:31:41Z</time>
      </trkpt>
      <trkpt lat="47.2324" lon="-1.69333">
        <ele>30</ele>
        <time>2021-06-11T17:31:44Z</time>
      </trkpt>
      <trkpt lat="47.23233" lon="-1.69309">
        <ele>32</ele>
        <time>2021-06-11T17:31:47Z</time>
      </trkpt>
      <trkpt lat="47.23222" lon="-1.69266">
        <ele>34</ele>
        <time>2021-06-11T17:31:53Z</time>
      </trkpt>
      <trkpt lat="47.23215" lon="-1.69244">
        <ele>35</ele>
        <time>2021-06-11T17:31:56Z</time>
      </trkpt>
      <trkpt lat="47.23202" lon="-1.69219">
        <ele>36</ele>
        <time>2021-06-11T17:32:00Z</time>
      </trkpt>
      <trkpt lat="47.23178" lon="-1.69181">
        <ele>36</ele>
        <time>2021-06-11T17:32:06Z</time>
      </trkpt>
      <trkpt lat="47.23132" lon="-1.69108">
        <ele>38</ele>
        <time>2021-06-11T17:32:18Z</time>
      </trkpt>
      <trkpt lat="47.23121" lon="-1.6909">
        <ele>38</ele>
        <time>2021-06-11T17:32:21Z</time>
      </trkpt>
      <trkpt lat="47.23093" lon="-1.69043">
        <ele>39</ele>
        <time>2021-06-11T17:32:28Z</time>
      </trkpt>
      <trkpt lat="47.23088" lon="-1.69029">
        <ele>40</ele>
        <time>2021-06-11T17:32:30Z</time>
      </trkpt>
      <trkpt lat="47.23081" lon="-1.69008">
        <ele>40</ele>
        <time>2021-06-11T17:32:33Z</time>
      </trkpt>
      <trkpt lat="47.23067" lon="-1.68949">
        <ele>40</ele>
        <time>2021-06-11T17:32:41Z</time>
      </trkpt>
      <trkpt lat="47.2305" lon="-1.68843">
        <ele>41</ele>
        <time>2021-06-11T17:32:54Z</time>
      </trkpt>
      <trkpt lat="47.23039" lon="-1.68812">
        <ele>41</ele>
        <time>2021-06-11T17:32:58Z</time>
      </trkpt>
      <trkpt lat="47.2303" lon="-1.68794">
        <ele>41</ele>
        <time>2021-06-11T17:33:01Z</time>
      </trkpt>
      <trkpt lat="47.23001" lon="-1.68751">
        <ele>41</ele>
        <time>2021-06-11T17:33:08Z</time>
      </trkpt>
      <trkpt lat="47.22959" lon="-1.68704">
        <ele>41</ele>
        <time>2021-06-11T17:33:17Z</time>
      </trkpt>
      <trkpt lat="47.22936" lon="-1.68676">
        <ele>40</ele>
        <time>2021-06-11T17:33:23Z</time>
      </trkpt>
      <trkpt lat="47.22895" lon="-1.68617">
        <ele>40</ele>
        <time>2021-06-11T17:33:33Z</time>
      </trkpt>
      <trkpt lat="47.22867" lon="-1.68569">
        <ele>40</ele>
        <time>2021-06-11T17:33:41Z</time>
      </trkpt>
      <trkpt lat="47.22812" lon="-1.68455">
        <ele>39</ele>
        <time>2021-06-11T17:33:58Z</time>
      </trkpt>
      <trkpt lat="47.22784" lon="-1.68407">
        <ele>38</ele>
        <time>2021-06-11T17:34:05Z</time>
      </trkpt>
      <trkpt lat="47.22736" lon="-1.68341">
        <ele>37</ele>
        <time>2021-06-11T17:34:17Z</time>
      </trkpt>
      <trkpt lat="47.22693" lon="-1.68282">
        <ele>37</ele>
        <time>2021-06-11T17:34:27Z</time>
      </trkpt>
      <trkpt lat="47.22688" lon="-1.68276">
        <ele>37</ele>
        <time>2021-06-11T17:34:28Z</time>
      </trkpt>
      <trkpt lat="47.22651" lon="-1.68231">
        <ele>37</ele>
        <time>2021-06-11T17:34:37Z</time>
      </trkpt>
      <trkpt lat="47.22629" lon="-1.68191">
        <ele>37</ele>
        <time>2021-06-11T17:34:43Z</time>
      </trkpt>
      <trkpt lat="47.22626" lon="-1.68185">
        <ele>37</ele>
        <time>2021-06-11T17:34:44Z</time>
      </trkpt>
      <trkpt lat="47.22616" lon="-1.68158">
        <ele>38</ele>
        <time>2021-06-11T17:34:48Z</time>
      </trkpt>
      <trkpt lat="47.22607" lon="-1.68123">
        <ele>37</ele>
        <time>2021-06-11T17:34:52Z</time>
      </trkpt>
      <trkpt lat="47.22604" lon="-1.68112">
        <ele>37</ele>
        <time>2021-06-11T17:34:54Z</time>
      </trkpt>
      <trkpt lat="47.22598" lon="-1.68073">
        <ele>37</ele>
        <time>2021-06-11T17:34:59Z</time>
      </trkpt>
      <trkpt lat="47.22594" lon="-1.68034">
        <ele>38</ele>
        <time>2021-06-11T17:35:03Z</time>
      </trkpt>
      <trkpt lat="47.22587" lon="-1.67927">
        <ele>37</ele>
        <time>2021-06-11T17:35:16Z</time>
      </trkpt>
      <trkpt lat="47.22583" lon="-1.67865">
        <ele>36</ele>
        <time>2021-06-11T17:35:24Z</time>
      </trkpt>
      <trkpt lat="47.22584" lon="-1.67851">
        <ele>36</ele>
        <time>2021-06-11T17:35:26Z</time>
      </trkpt>
      <trkpt lat="47.22581" lon="-1.6785">
        <ele>36</ele>
        <time>2021-06-11T17:35:26Z</time>
      </trkpt>
      <trkpt lat="47.22576" lon="-1.67845">
        <ele>36</ele>
        <time>2021-06-11T17:35:27Z</time>
      </trkpt>
      <trkpt lat="47.22574" lon="-1.67841">
        <ele>36</ele>
        <time>2021-06-11T17:35:28Z</time>
      </trkpt>
      <trkpt lat="47.22574" lon="-1.67837">
        <ele>36</ele>
        <time>2021-06-11T17:35:28Z</time>
      </trkpt>
      <trkpt lat="47.22574" lon="-1.67833">
        <ele>36</ele>
        <time>2021-06-11T17:35:29Z</time>
      </trkpt>
      <trkpt lat="47.22575" lon="-1.67829">
        <ele>36</ele>
        <time>2021-06-11T17:35:29Z</time>
      </trkpt>
      <trkpt lat="47.22577" lon="-1.67826">
        <ele>36</ele>
        <time>2021-06-11T17:35:30Z</time>
      </trkpt>
      <trkpt lat="47.22579" lon="-1.67824">
        <ele>36</ele>
        <time>2021-06-11T17:35:30Z</time>
      </trkpt>
      <trkpt lat="47.22577" lon="-1.67815">
        <ele>36</ele>
        <time>2021-06-11T17:35:31Z</time>
      </trkpt>
      <trkpt lat="47.22573" lon="-1.678">
        <ele>36</ele>
        <time>2021-06-11T17:35:33Z</time>
      </trkpt>
      <trkpt lat="47.22571" lon="-1.67784">
        <ele>36</ele>
        <time>2021-06-11T17:35:35Z</time>
      </trkpt>
      <trkpt lat="47.22571" lon="-1.67745">
        <ele>36</ele>
        <time>2021-06-11T17:35:40Z</time>
      </trkpt>
      <trkpt lat="47.22573" lon="-1.67643">
        <ele>37</ele>
        <time>2021-06-11T17:35:52Z</time>
      </trkpt>
      <trkpt lat="47.22573" lon="-1.67624">
        <ele>36</ele>
        <time>2021-06-11T17:35:55Z</time>
      </trkpt>
      <trkpt lat="47.22574" lon="-1.67569">
        <ele>36</ele>
        <time>2021-06-11T17:36:01Z</time>
      </trkpt>
      <trkpt lat="47.22576" lon="-1.67477">
        <ele>33</ele>
        <time>2021-06-11T17:36:12Z</time>
      </trkpt>
      <trkpt lat="47.22573" lon="-1.67462">
        <ele>33</ele>
        <time>2021-06-11T17:36:14Z</time>
      </trkpt>
      <trkpt lat="47.2257" lon="-1.67456">
        <ele>32</ele>
        <time>2021-06-11T17:36:15Z</time>
      </trkpt>
      <trkpt lat="47.22565" lon="-1.67448">
        <ele>32</ele>
        <time>2021-06-11T17:36:17Z</time>
      </trkpt>
      <trkpt lat="47.2256" lon="-1.67442">
        <ele>32</ele>
        <time>2021-06-11T17:36:18Z</time>
      </trkpt>
      <trkpt lat="47.2254" lon="-1.6742">
        <ele>31</ele>
        <time>2021-06-11T17:36:22Z</time>
      </trkpt>
      <trkpt lat="47.22535" lon="-1.67413">
        <ele>30</ele>
        <time>2021-06-11T17:36:23Z</time>
      </trkpt>
      <trkpt lat="47.2253" lon="-1.67405">
        <ele>30</ele>
        <time>2021-06-11T17:36:25Z</time>
      </trkpt>
      <trkpt lat="47.22528" lon="-1.67399">
        <ele>30</ele>
        <time>2021-06-11T17:36:25Z</time>
      </trkpt>
      <trkpt lat="47.22517" lon="-1.67372">
        <ele>29</ele>
        <time>2021-06-11T17:36:29Z</time>
      </trkpt>
      <trkpt lat="47.22507" lon="-1.67346">
        <ele>29</ele>
        <time>2021-06-11T17:36:33Z</time>
      </trkpt>
      <trkpt lat="47.2249" lon="-1.67297">
        <ele>28</ele>
        <time>2021-06-11T17:36:40Z</time>
      </trkpt>
      <trkpt lat="47.22485" lon="-1.67285">
        <ele>28</ele>
        <time>2021-06-11T17:36:41Z</time>
      </trkpt>
      <trkpt lat="47.2248" lon="-1.67271">
        <ele>28</ele>
        <time>2021-06-11T17:36:43Z</time>
      </trkpt>
      <trkpt lat="47.22465" lon="-1.6724">
        <ele>27</ele>
        <time>2021-06-11T17:36:48Z</time>
      </trkpt>
      <trkpt lat="47.22441" lon="-1.672">
        <ele>27</ele>
        <time>2021-06-11T17:36:54Z</time>
      </trkpt>
      <trkpt lat="47.2243" lon="-1.67177">
        <ele>27</ele>
        <time>2021-06-11T17:36:58Z</time>
      </trkpt>
      <trkpt lat="47.22422" lon="-1.67155">
        <ele>27</ele>
        <time>2021-06-11T17:37:01Z</time>
      </trkpt>
      <trkpt lat="47.22415" lon="-1.67133">
        <ele>28</ele>
        <time>2021-06-11T17:37:04Z</time>
      </trkpt>
      <trkpt lat="47.22408" lon="-1.6711">
        <ele>29</ele>
        <time>2021-06-11T17:37:07Z</time>
      </trkpt>
      <trkpt lat="47.22399" lon="-1.67085">
        <ele>30</ele>
        <time>2021-06-11T17:37:10Z</time>
      </trkpt>
      <trkpt lat="47.22393" lon="-1.67068">
        <ele>30</ele>
        <time>2021-06-11T17:37:12Z</time>
      </trkpt>
      <trkpt lat="47.22374" lon="-1.67028">
        <ele>32</ele>
        <time>2021-06-11T17:37:18Z</time>
      </trkpt>
      <trkpt lat="47.22361" lon="-1.67007">
        <ele>33</ele>
        <time>2021-06-11T17:37:22Z</time>
      </trkpt>
      <trkpt lat="47.22347" lon="-1.66985">
        <ele>33</ele>
        <time>2021-06-11T17:37:25Z</time>
      </trkpt>
      <trkpt lat="47.22346" lon="-1.66983">
        <ele>33</ele>
        <time>2021-06-11T17:37:26Z</time>
      </trkpt>
      <trkpt lat="47.22309" lon="-1.66921">
        <ele>34</ele>
        <time>2021-06-11T17:37:36Z</time>
      </trkpt>
      <trkpt lat="47.22299" lon="-1.66901">
        <ele>34</ele>
        <time>2021-06-11T17:37:39Z</time>
      </trkpt>
      <trkpt lat="47.22277" lon="-1.66847">
        <ele>35</ele>
        <time>2021-06-11T17:37:46Z</time>
      </trkpt>
      <trkpt lat="47.22248" lon="-1.66772">
        <ele>36</ele>
        <time>2021-06-11T17:37:57Z</time>
      </trkpt>
      <trkpt lat="47.22246" lon="-1.66768">
        <ele>36</ele>
        <time>2021-06-11T17:37:57Z</time>
      </trkpt>
      <trkpt lat="47.22234" lon="-1.66734">
        <ele>37</ele>
        <time>2021-06-11T17:38:02Z</time>
      </trkpt>
      <trkpt lat="47.22229" lon="-1.66721">
        <ele>37</ele>
        <time>2021-06-11T17:38:04Z</time>
      </trkpt>
      <trkpt lat="47.22208" lon="-1.66668">
        <ele>37</ele>
        <time>2021-06-11T17:38:11Z</time>
      </trkpt>
      <trkpt lat="47.22195" lon="-1.66633">
        <ele>37</ele>
        <time>2021-06-11T17:38:16Z</time>
      </trkpt>
      <trkpt lat="47.22212" lon="-1.66627">
        <ele>37</ele>
        <time>2021-06-11T17:38:19Z</time>
      </trkpt>
      <trkpt lat="47.22325" lon="-1.66548">
        <ele>38</ele>
        <time>2021-06-11T17:38:41Z</time>
      </trkpt>
      <trkpt lat="47.22364" lon="-1.66524">
        <ele>38</ele>
        <time>2021-06-11T17:38:49Z</time>
      </trkpt>
      <trkpt lat="47.22435" lon="-1.66492">
        <ele>39</ele>
        <time>2021-06-11T17:39:02Z</time>
      </trkpt>
      <trkpt lat="47.22487" lon="-1.6649">
        <ele>41</ele>
        <time>2021-06-11T17:39:11Z</time>
      </trkpt>
      <trkpt lat="47.22502" lon="-1.66484">
        <ele>41</ele>
        <time>2021-06-11T17:39:14Z</time>
      </trkpt>
      <trkpt lat="47.22517" lon="-1.66474">
        <ele>42</ele>
        <time>2021-06-11T17:39:17Z</time>
      </trkpt>
      <trkpt lat="47.22522" lon="-1.66464">
        <ele>42</ele>
        <time>2021-06-11T17:39:18Z</time>
      </trkpt>
      <trkpt lat="47.22521" lon="-1.66448">
        <ele>42</ele>
        <time>2021-06-11T17:39:20Z</time>
      </trkpt>
      <trkpt lat="47.2251" lon="-1.66392">
        <ele>43</ele>
        <time>2021-06-11T17:39:27Z</time>
      </trkpt>
      <trkpt lat="47.22501" lon="-1.66323">
        <ele>44</ele>
        <time>2021-06-11T17:39:36Z</time>
      </trkpt>
      <trkpt lat="47.225" lon="-1.66283">
        <ele>45</ele>
        <time>2021-06-11T17:39:41Z</time>
      </trkpt>
      <trkpt lat="47.22507" lon="-1.65992">
        <ele>44</ele>
        <time>2021-06-11T17:40:16Z</time>
      </trkpt>
      <trkpt lat="47.22512" lon="-1.6597">
        <ele>44</ele>
        <time>2021-06-11T17:40:19Z</time>
      </trkpt>
      <trkpt lat="47.22522" lon="-1.65949">
        <ele>44</ele>
        <time>2021-06-11T17:40:22Z</time>
      </trkpt>
      <trkpt lat="47.22564" lon="-1.6588">
        <ele>44</ele>
        <time>2021-06-11T17:40:33Z</time>
      </trkpt>
      <trkpt lat="47.22602" lon="-1.65811">
        <ele>44</ele>
        <time>2021-06-11T17:40:44Z</time>
      </trkpt>
      <trkpt lat="47.22639" lon="-1.65757">
        <ele>44</ele>
        <time>2021-06-11T17:40:53Z</time>
      </trkpt>
      <trkpt lat="47.22651" lon="-1.65735">
        <ele>45</ele>
        <time>2021-06-11T17:40:56Z</time>
      </trkpt>
      <trkpt lat="47.22654" lon="-1.6572">
        <ele>45</ele>
        <time>2021-06-11T17:40:58Z</time>
      </trkpt>
      <trkpt lat="47.22666" lon="-1.65598">
        <ele>43</ele>
        <time>2021-06-11T17:41:13Z</time>
      </trkpt>
      <trkpt lat="47.22665" lon="-1.65558">
        <ele>43</ele>
        <time>2021-06-11T17:41:18Z</time>
      </trkpt>
      <trkpt lat="47.22642" lon="-1.65442">
        <ele>43</ele>
        <time>2021-06-11T17:41:33Z</time>
      </trkpt>
      <trkpt lat="47.22626" lon="-1.65383">
        <ele>43</ele>
        <time>2021-06-11T17:41:40Z</time>
      </trkpt>
      <trkpt lat="47.22598" lon="-1.65327">
        <ele>44</ele>
        <time>2021-06-11T17:41:49Z</time>
      </trkpt>
      <trkpt lat="47.2259" lon="-1.65309">
        <ele>44</ele>
        <time>2021-06-11T17:41:51Z</time>
      </trkpt>
      <trkpt lat="47.22584" lon="-1.65284">
        <ele>44</ele>
        <time>2021-06-11T17:41:55Z</time>
      </trkpt>
      <trkpt lat="47.22583" lon="-1.65263">
        <ele>44</ele>
        <time>2021-06-11T17:41:57Z</time>
      </trkpt>
      <trkpt lat="47.22584" lon="-1.6525">
        <ele>44</ele>
        <time>2021-06-11T17:41:59Z</time>
      </trkpt>
      <trkpt lat="47.22591" lon="-1.6524">
        <ele>44</ele>
        <time>2021-06-11T17:42:00Z</time>
      </trkpt>
      <trkpt lat="47.22641" lon="-1.65216">
        <ele>44</ele>
        <time>2021-06-11T17:42:10Z</time>
      </trkpt>
      <trkpt lat="47.22694" lon="-1.65211">
        <ele>46</ele>
        <time>2021-06-11T17:42:19Z</time>
      </trkpt>
      <trkpt lat="47.22708" lon="-1.65218">
        <ele>46</ele>
        <time>2021-06-11T17:42:22Z</time>
      </trkpt>
      <trkpt lat="47.22716" lon="-1.65222">
        <ele>46</ele>
        <time>2021-06-11T17:42:23Z</time>
      </trkpt>
      <trkpt lat="47.22722" lon="-1.65223">
        <ele>47</ele>
        <time>2021-06-11T17:42:24Z</time>
      </trkpt>
      <trkpt lat="47.22725" lon="-1.65218">
        <ele>47</ele>
        <time>2021-06-11T17:42:25Z</time>
      </trkpt>
      <trkpt lat="47.22725" lon="-1.6521">
        <ele>47</ele>
        <time>2021-06-11T17:42:26Z</time>
      </trkpt>
      <trkpt lat="47.22722" lon="-1.65201">
        <ele>47</ele>
        <time>2021-06-11T17:42:27Z</time>
      </trkpt>
      <trkpt lat="47.22727" lon="-1.65199">
        <ele>47</ele>
        <time>2021-06-11T17:42:28Z</time>
      </trkpt>
      <trkpt lat="47.22732" lon="-1.65198">
        <ele>47</ele>
        <time>2021-06-11T17:42:29Z</time>
      </trkpt>
      <trkpt lat="47.22736" lon="-1.65197">
        <ele>47</ele>
        <time>2021-06-11T17:42:30Z</time>
      </trkpt>
      <trkpt lat="47.2274" lon="-1.65193">
        <ele>48</ele>
        <time>2021-06-11T17:42:31Z</time>
      </trkpt>
      <trkpt lat="47.22746" lon="-1.65174">
        <ele>48</ele>
        <time>2021-06-11T17:42:33Z</time>
      </trkpt>
      <trkpt lat="47.22747" lon="-1.65172">
        <ele>48</ele>
        <time>2021-06-11T17:42:34Z</time>
      </trkpt>
      <trkpt lat="47.22749" lon="-1.65172">
        <ele>48</ele>
        <time>2021-06-11T17:42:34Z</time>
      </trkpt>
      <trkpt lat="47.22848" lon="-1.65109">
        <ele>51</ele>
        <time>2021-06-11T17:42:53Z</time>
      </trkpt>
      <trkpt lat="47.22899" lon="-1.6508">
        <ele>52</ele>
        <time>2021-06-11T17:43:03Z</time>
      </trkpt>
      <trkpt lat="47.22931" lon="-1.65067">
        <ele>52</ele>
        <time>2021-06-11T17:43:09Z</time>
      </trkpt>
      <trkpt lat="47.22934" lon="-1.65066">
        <ele>52</ele>
        <time>2021-06-11T17:43:09Z</time>
      </trkpt>
      <trkpt lat="47.2293" lon="-1.65054">
        <ele>52</ele>
        <time>2021-06-11T17:43:11Z</time>
      </trkpt>
      <trkpt lat="47.22926" lon="-1.65049">
        <ele>52</ele>
        <time>2021-06-11T17:43:12Z</time>
      </trkpt>
      <trkpt lat="47.22926" lon="-1.65043">
        <ele>52</ele>
        <time>2021-06-11T17:43:13Z</time>
      </trkpt>
      <trkpt lat="47.22908" lon="-1.6499">
        <ele>52</ele>
        <time>2021-06-11T17:43:20Z</time>
      </trkpt>
      <trkpt lat="47.22942" lon="-1.64958">
        <ele>53</ele>
        <time>2021-06-11T17:43:27Z</time>
      </trkpt>
      <trkpt lat="47.22986" lon="-1.64911">
        <ele>54</ele>
        <time>2021-06-11T17:43:37Z</time>
      </trkpt>
    </trkseg>
  </trk>
</gpx>